<?xml version="1.0" encoding="UTF-8" standalone="no" ?>
<gpx xmlns="http://www.topografix.com/GPX/1/1" xmlns:xsi="http://www.w3.org/2001/XMLSchema-instance" xsi:schemaLocation="http://www.topografix.com/GPX/1/1 http://www.topografix.com/GPX/1/1/gpx.xsd" version="1.1" creator="VisuGPX - https://www.visugpx.com">
  <metadata>
    <name>Les treillières 2014</name>
    <desc><![CDATA[Rando du 18 mai 2014]]></desc>
  </metadata>
  <trk>
    <name><![CDATA[Les treillières 2014_1]]></name>
    <trkseg>
      <trkpt lat="47.32691" lon="-1.62173">
        <ele>50.7</ele>
        <time>2014-05-18T06:24:14Z</time>
      </trkpt>
      <trkpt lat="47.32691" lon="-1.62173">
        <ele>100.5</ele>
        <time>2014-05-18T06:24:18Z</time>
      </trkpt>
      <trkpt lat="47.32691" lon="-1.62173">
        <ele>100.5</ele>
        <time>2014-05-18T06:25:36Z</time>
      </trkpt>
      <trkpt lat="47.32691" lon="-1.62173">
        <ele>100.5</ele>
        <time>2014-05-18T06:25:52Z</time>
      </trkpt>
      <trkpt lat="47.32691" lon="-1.62173">
        <ele>100.5</ele>
        <time>2014-05-18T06:26:08Z</time>
      </trkpt>
      <trkpt lat="47.32691" lon="-1.62173">
        <ele>100.5</ele>
        <time>2014-05-18T06:26:38Z</time>
      </trkpt>
      <trkpt lat="47.32691" lon="-1.62173">
        <ele>100.5</ele>
        <time>2014-05-18T06:26:56Z</time>
      </trkpt>
      <trkpt lat="47.3269" lon="-1.62165">
        <ele>104.5</ele>
        <time>2014-05-18T06:26:58Z</time>
      </trkpt>
      <trkpt lat="47.32686" lon="-1.62153">
        <ele>107.5</ele>
        <time>2014-05-18T06:27:06Z</time>
      </trkpt>
      <trkpt lat="47.32679" lon="-1.6213">
        <ele>109</ele>
        <time>2014-05-18T06:27:12Z</time>
      </trkpt>
      <trkpt lat="47.32676" lon="-1.62119">
        <ele>110</ele>
        <time>2014-05-18T06:27:14Z</time>
      </trkpt>
      <trkpt lat="47.32668" lon="-1.62093">
        <ele>111</ele>
        <time>2014-05-18T06:27:18Z</time>
      </trkpt>
      <trkpt lat="47.32663" lon="-1.62066">
        <ele>110.5</ele>
        <time>2014-05-18T06:27:22Z</time>
      </trkpt>
      <trkpt lat="47.32657" lon="-1.62041">
        <ele>110</ele>
        <time>2014-05-18T06:27:26Z</time>
      </trkpt>
      <trkpt lat="47.32651" lon="-1.62017">
        <ele>108.5</ele>
        <time>2014-05-18T06:27:30Z</time>
      </trkpt>
      <trkpt lat="47.32652" lon="-1.61992">
        <ele>108.5</ele>
        <time>2014-05-18T06:27:34Z</time>
      </trkpt>
      <trkpt lat="47.32665" lon="-1.61986">
        <ele>109</ele>
        <time>2014-05-18T06:27:38Z</time>
      </trkpt>
      <trkpt lat="47.32673" lon="-1.61984">
        <ele>109.5</ele>
        <time>2014-05-18T06:27:40Z</time>
      </trkpt>
      <trkpt lat="47.3269" lon="-1.61984">
        <ele>110</ele>
        <time>2014-05-18T06:27:44Z</time>
      </trkpt>
      <trkpt lat="47.32697" lon="-1.61984">
        <ele>110</ele>
        <time>2014-05-18T06:27:46Z</time>
      </trkpt>
      <trkpt lat="47.32713" lon="-1.61984">
        <ele>111</ele>
        <time>2014-05-18T06:27:50Z</time>
      </trkpt>
      <trkpt lat="47.32728" lon="-1.61986">
        <ele>112.5</ele>
        <time>2014-05-18T06:27:54Z</time>
      </trkpt>
      <trkpt lat="47.32745" lon="-1.61988">
        <ele>112.5</ele>
        <time>2014-05-18T06:27:58Z</time>
      </trkpt>
      <trkpt lat="47.32761" lon="-1.61985">
        <ele>111.5</ele>
        <time>2014-05-18T06:28:02Z</time>
      </trkpt>
      <trkpt lat="47.32776" lon="-1.61978">
        <ele>111.5</ele>
        <time>2014-05-18T06:28:06Z</time>
      </trkpt>
      <trkpt lat="47.32789" lon="-1.61972">
        <ele>112</ele>
        <time>2014-05-18T06:28:10Z</time>
      </trkpt>
      <trkpt lat="47.32803" lon="-1.61963">
        <ele>112.5</ele>
        <time>2014-05-18T06:28:14Z</time>
      </trkpt>
      <trkpt lat="47.32809" lon="-1.61959">
        <ele>112</ele>
        <time>2014-05-18T06:28:16Z</time>
      </trkpt>
      <trkpt lat="47.32826" lon="-1.61945">
        <ele>116.5</ele>
        <time>2014-05-18T06:28:22Z</time>
      </trkpt>
      <trkpt lat="47.3284" lon="-1.61928">
        <ele>118</ele>
        <time>2014-05-18T06:28:26Z</time>
      </trkpt>
      <trkpt lat="47.32847" lon="-1.61921">
        <ele>119.5</ele>
        <time>2014-05-18T06:28:28Z</time>
      </trkpt>
      <trkpt lat="47.32859" lon="-1.61905">
        <ele>120</ele>
        <time>2014-05-18T06:28:32Z</time>
      </trkpt>
      <trkpt lat="47.32868" lon="-1.61891">
        <ele>121.5</ele>
        <time>2014-05-18T06:28:36Z</time>
      </trkpt>
      <trkpt lat="47.32873" lon="-1.61874">
        <ele>122.5</ele>
        <time>2014-05-18T06:28:40Z</time>
      </trkpt>
      <trkpt lat="47.32871" lon="-1.61865">
        <ele>122.5</ele>
        <time>2014-05-18T06:28:42Z</time>
      </trkpt>
      <trkpt lat="47.32867" lon="-1.61845">
        <ele>122.5</ele>
        <time>2014-05-18T06:28:46Z</time>
      </trkpt>
      <trkpt lat="47.32863" lon="-1.61834">
        <ele>122</ele>
        <time>2014-05-18T06:28:48Z</time>
      </trkpt>
      <trkpt lat="47.32857" lon="-1.61813">
        <ele>121.5</ele>
        <time>2014-05-18T06:28:52Z</time>
      </trkpt>
      <trkpt lat="47.3285" lon="-1.61791">
        <ele>121</ele>
        <time>2014-05-18T06:28:56Z</time>
      </trkpt>
      <trkpt lat="47.32843" lon="-1.6177">
        <ele>120.5</ele>
        <time>2014-05-18T06:29:00Z</time>
      </trkpt>
      <trkpt lat="47.3283" lon="-1.61738">
        <ele>119</ele>
        <time>2014-05-18T06:29:06Z</time>
      </trkpt>
      <trkpt lat="47.32819" lon="-1.61717">
        <ele>118</ele>
        <time>2014-05-18T06:29:10Z</time>
      </trkpt>
      <trkpt lat="47.32808" lon="-1.61695">
        <ele>117</ele>
        <time>2014-05-18T06:29:14Z</time>
      </trkpt>
      <trkpt lat="47.32797" lon="-1.61672">
        <ele>116</ele>
        <time>2014-05-18T06:29:18Z</time>
      </trkpt>
      <trkpt lat="47.32787" lon="-1.61648">
        <ele>115.5</ele>
        <time>2014-05-18T06:29:22Z</time>
      </trkpt>
      <trkpt lat="47.32784" lon="-1.61625">
        <ele>115.5</ele>
        <time>2014-05-18T06:29:26Z</time>
      </trkpt>
      <trkpt lat="47.32786" lon="-1.61595">
        <ele>113.5</ele>
        <time>2014-05-18T06:29:30Z</time>
      </trkpt>
      <trkpt lat="47.32787" lon="-1.61563">
        <ele>112.5</ele>
        <time>2014-05-18T06:29:34Z</time>
      </trkpt>
      <trkpt lat="47.32788" lon="-1.61532">
        <ele>111.5</ele>
        <time>2014-05-18T06:29:38Z</time>
      </trkpt>
      <trkpt lat="47.32789" lon="-1.61501">
        <ele>110.5</ele>
        <time>2014-05-18T06:29:42Z</time>
      </trkpt>
      <trkpt lat="47.3279" lon="-1.61469">
        <ele>110</ele>
        <time>2014-05-18T06:29:46Z</time>
      </trkpt>
      <trkpt lat="47.32791" lon="-1.61437">
        <ele>108.5</ele>
        <time>2014-05-18T06:29:50Z</time>
      </trkpt>
      <trkpt lat="47.32795" lon="-1.61404">
        <ele>107</ele>
        <time>2014-05-18T06:29:54Z</time>
      </trkpt>
      <trkpt lat="47.32803" lon="-1.61371">
        <ele>105.5</ele>
        <time>2014-05-18T06:29:58Z</time>
      </trkpt>
      <trkpt lat="47.32816" lon="-1.61339">
        <ele>104.5</ele>
        <time>2014-05-18T06:30:02Z</time>
      </trkpt>
      <trkpt lat="47.32828" lon="-1.61305">
        <ele>103.5</ele>
        <time>2014-05-18T06:30:06Z</time>
      </trkpt>
      <trkpt lat="47.32841" lon="-1.6127">
        <ele>102</ele>
        <time>2014-05-18T06:30:10Z</time>
      </trkpt>
      <trkpt lat="47.32853" lon="-1.61236">
        <ele>101</ele>
        <time>2014-05-18T06:30:14Z</time>
      </trkpt>
      <trkpt lat="47.32865" lon="-1.61203">
        <ele>100</ele>
        <time>2014-05-18T06:30:18Z</time>
      </trkpt>
      <trkpt lat="47.32875" lon="-1.61174">
        <ele>99</ele>
        <time>2014-05-18T06:30:22Z</time>
      </trkpt>
      <trkpt lat="47.32878" lon="-1.61146">
        <ele>98.5</ele>
        <time>2014-05-18T06:30:26Z</time>
      </trkpt>
      <trkpt lat="47.32878" lon="-1.6112">
        <ele>97</ele>
        <time>2014-05-18T06:30:30Z</time>
      </trkpt>
      <trkpt lat="47.32879" lon="-1.61099">
        <ele>97</ele>
        <time>2014-05-18T06:30:34Z</time>
      </trkpt>
      <trkpt lat="47.32881" lon="-1.61081">
        <ele>98.5</ele>
        <time>2014-05-18T06:30:40Z</time>
      </trkpt>
      <trkpt lat="47.32884" lon="-1.61067">
        <ele>101.5</ele>
        <time>2014-05-18T06:30:44Z</time>
      </trkpt>
      <trkpt lat="47.32887" lon="-1.61059">
        <ele>106</ele>
        <time>2014-05-18T06:30:48Z</time>
      </trkpt>
      <trkpt lat="47.32883" lon="-1.61039">
        <ele>110.5</ele>
        <time>2014-05-18T06:30:54Z</time>
      </trkpt>
      <trkpt lat="47.3288" lon="-1.61031">
        <ele>112.5</ele>
        <time>2014-05-18T06:30:56Z</time>
      </trkpt>
      <trkpt lat="47.32875" lon="-1.61009">
        <ele>113.5</ele>
        <time>2014-05-18T06:31:00Z</time>
      </trkpt>
      <trkpt lat="47.32873" lon="-1.60997">
        <ele>116</ele>
        <time>2014-05-18T06:31:02Z</time>
      </trkpt>
      <trkpt lat="47.3287" lon="-1.6097">
        <ele>116.5</ele>
        <time>2014-05-18T06:31:06Z</time>
      </trkpt>
      <trkpt lat="47.32865" lon="-1.60947">
        <ele>116</ele>
        <time>2014-05-18T06:31:10Z</time>
      </trkpt>
      <trkpt lat="47.32857" lon="-1.6092">
        <ele>116</ele>
        <time>2014-05-18T06:31:14Z</time>
      </trkpt>
      <trkpt lat="47.3285" lon="-1.60889">
        <ele>118</ele>
        <time>2014-05-18T06:31:18Z</time>
      </trkpt>
      <trkpt lat="47.32844" lon="-1.60863">
        <ele>119.5</ele>
        <time>2014-05-18T06:31:22Z</time>
      </trkpt>
      <trkpt lat="47.32839" lon="-1.60836">
        <ele>117.5</ele>
        <time>2014-05-18T06:31:26Z</time>
      </trkpt>
      <trkpt lat="47.32832" lon="-1.6081">
        <ele>119.5</ele>
        <time>2014-05-18T06:31:30Z</time>
      </trkpt>
      <trkpt lat="47.32829" lon="-1.60784">
        <ele>119.5</ele>
        <time>2014-05-18T06:31:34Z</time>
      </trkpt>
      <trkpt lat="47.32823" lon="-1.60764">
        <ele>119.5</ele>
        <time>2014-05-18T06:31:38Z</time>
      </trkpt>
      <trkpt lat="47.32819" lon="-1.60738">
        <ele>118</ele>
        <time>2014-05-18T06:31:42Z</time>
      </trkpt>
      <trkpt lat="47.32816" lon="-1.60727">
        <ele>117.5</ele>
        <time>2014-05-18T06:31:44Z</time>
      </trkpt>
      <trkpt lat="47.32811" lon="-1.60702">
        <ele>118</ele>
        <time>2014-05-18T06:31:48Z</time>
      </trkpt>
      <trkpt lat="47.32803" lon="-1.60679">
        <ele>117.5</ele>
        <time>2014-05-18T06:31:52Z</time>
      </trkpt>
      <trkpt lat="47.32802" lon="-1.60666">
        <ele>117.5</ele>
        <time>2014-05-18T06:31:54Z</time>
      </trkpt>
      <trkpt lat="47.32798" lon="-1.60638">
        <ele>118</ele>
        <time>2014-05-18T06:31:58Z</time>
      </trkpt>
      <trkpt lat="47.32795" lon="-1.60613">
        <ele>118.5</ele>
        <time>2014-05-18T06:32:02Z</time>
      </trkpt>
      <trkpt lat="47.32799" lon="-1.60592">
        <ele>116.5</ele>
        <time>2014-05-18T06:32:08Z</time>
      </trkpt>
      <trkpt lat="47.32797" lon="-1.6057">
        <ele>116</ele>
        <time>2014-05-18T06:32:12Z</time>
      </trkpt>
      <trkpt lat="47.32797" lon="-1.60559">
        <ele>115</ele>
        <time>2014-05-18T06:32:14Z</time>
      </trkpt>
      <trkpt lat="47.32791" lon="-1.60537">
        <ele>114.5</ele>
        <time>2014-05-18T06:32:18Z</time>
      </trkpt>
      <trkpt lat="47.32787" lon="-1.60515">
        <ele>115.5</ele>
        <time>2014-05-18T06:32:22Z</time>
      </trkpt>
      <trkpt lat="47.32784" lon="-1.60493">
        <ele>115</ele>
        <time>2014-05-18T06:32:26Z</time>
      </trkpt>
      <trkpt lat="47.32781" lon="-1.6048">
        <ele>115</ele>
        <time>2014-05-18T06:32:28Z</time>
      </trkpt>
      <trkpt lat="47.32774" lon="-1.60456">
        <ele>115</ele>
        <time>2014-05-18T06:32:32Z</time>
      </trkpt>
      <trkpt lat="47.32768" lon="-1.60434">
        <ele>116</ele>
        <time>2014-05-18T06:32:36Z</time>
      </trkpt>
      <trkpt lat="47.32763" lon="-1.6041">
        <ele>118</ele>
        <time>2014-05-18T06:32:40Z</time>
      </trkpt>
      <trkpt lat="47.32759" lon="-1.60387">
        <ele>118</ele>
        <time>2014-05-18T06:32:44Z</time>
      </trkpt>
      <trkpt lat="47.32758" lon="-1.60375">
        <ele>117.5</ele>
        <time>2014-05-18T06:32:46Z</time>
      </trkpt>
      <trkpt lat="47.32751" lon="-1.60349">
        <ele>117</ele>
        <time>2014-05-18T06:32:50Z</time>
      </trkpt>
      <trkpt lat="47.32747" lon="-1.60325">
        <ele>114.5</ele>
        <time>2014-05-18T06:32:54Z</time>
      </trkpt>
      <trkpt lat="47.32742" lon="-1.60303">
        <ele>115.5</ele>
        <time>2014-05-18T06:32:58Z</time>
      </trkpt>
      <trkpt lat="47.32738" lon="-1.60282">
        <ele>114.5</ele>
        <time>2014-05-18T06:33:02Z</time>
      </trkpt>
      <trkpt lat="47.32735" lon="-1.60257">
        <ele>115</ele>
        <time>2014-05-18T06:33:06Z</time>
      </trkpt>
      <trkpt lat="47.3273" lon="-1.60236">
        <ele>116.5</ele>
        <time>2014-05-18T06:33:10Z</time>
      </trkpt>
      <trkpt lat="47.32731" lon="-1.60219">
        <ele>117</ele>
        <time>2014-05-18T06:33:14Z</time>
      </trkpt>
      <trkpt lat="47.32742" lon="-1.60208">
        <ele>117.5</ele>
        <time>2014-05-18T06:33:18Z</time>
      </trkpt>
      <trkpt lat="47.32751" lon="-1.60205">
        <ele>118</ele>
        <time>2014-05-18T06:33:20Z</time>
      </trkpt>
      <trkpt lat="47.32773" lon="-1.60196">
        <ele>118.5</ele>
        <time>2014-05-18T06:33:24Z</time>
      </trkpt>
      <trkpt lat="47.32795" lon="-1.60189">
        <ele>119.5</ele>
        <time>2014-05-18T06:33:28Z</time>
      </trkpt>
      <trkpt lat="47.32819" lon="-1.60185">
        <ele>119.5</ele>
        <time>2014-05-18T06:33:32Z</time>
      </trkpt>
      <trkpt lat="47.32845" lon="-1.60184">
        <ele>119.5</ele>
        <time>2014-05-18T06:33:36Z</time>
      </trkpt>
      <trkpt lat="47.32871" lon="-1.60181">
        <ele>121.5</ele>
        <time>2014-05-18T06:33:40Z</time>
      </trkpt>
      <trkpt lat="47.32898" lon="-1.60178">
        <ele>122</ele>
        <time>2014-05-18T06:33:44Z</time>
      </trkpt>
      <trkpt lat="47.32928" lon="-1.60175">
        <ele>124</ele>
        <time>2014-05-18T06:33:48Z</time>
      </trkpt>
      <trkpt lat="47.3295" lon="-1.60166">
        <ele>123</ele>
        <time>2014-05-18T06:33:52Z</time>
      </trkpt>
      <trkpt lat="47.32973" lon="-1.6016">
        <ele>121</ele>
        <time>2014-05-18T06:33:56Z</time>
      </trkpt>
      <trkpt lat="47.33" lon="-1.60156">
        <ele>119.5</ele>
        <time>2014-05-18T06:34:00Z</time>
      </trkpt>
      <trkpt lat="47.33027" lon="-1.60147">
        <ele>118</ele>
        <time>2014-05-18T06:34:04Z</time>
      </trkpt>
      <trkpt lat="47.33054" lon="-1.60143">
        <ele>117.5</ele>
        <time>2014-05-18T06:34:08Z</time>
      </trkpt>
      <trkpt lat="47.33079" lon="-1.60138">
        <ele>116.5</ele>
        <time>2014-05-18T06:34:12Z</time>
      </trkpt>
      <trkpt lat="47.33106" lon="-1.60133">
        <ele>116.5</ele>
        <time>2014-05-18T06:34:16Z</time>
      </trkpt>
      <trkpt lat="47.33134" lon="-1.60129">
        <ele>115.5</ele>
        <time>2014-05-18T06:34:20Z</time>
      </trkpt>
      <trkpt lat="47.33163" lon="-1.60127">
        <ele>114</ele>
        <time>2014-05-18T06:34:24Z</time>
      </trkpt>
      <trkpt lat="47.33193" lon="-1.60126">
        <ele>113</ele>
        <time>2014-05-18T06:34:28Z</time>
      </trkpt>
      <trkpt lat="47.33208" lon="-1.60125">
        <ele>112.5</ele>
        <time>2014-05-18T06:34:30Z</time>
      </trkpt>
      <trkpt lat="47.33215" lon="-1.60123">
        <ele>112</ele>
        <time>2014-05-18T06:34:31Z</time>
      </trkpt>
      <trkpt lat="47.33223" lon="-1.60122">
        <ele>111.5</ele>
        <time>2014-05-18T06:34:32Z</time>
      </trkpt>
      <trkpt lat="47.33237" lon="-1.6012">
        <ele>111</ele>
        <time>2014-05-18T06:34:34Z</time>
      </trkpt>
      <trkpt lat="47.33244" lon="-1.60119">
        <ele>111</ele>
        <time>2014-05-18T06:34:35Z</time>
      </trkpt>
      <trkpt lat="47.33252" lon="-1.60118">
        <ele>110.5</ele>
        <time>2014-05-18T06:34:36Z</time>
      </trkpt>
      <trkpt lat="47.33265" lon="-1.60115">
        <ele>110</ele>
        <time>2014-05-18T06:34:38Z</time>
      </trkpt>
      <trkpt lat="47.33272" lon="-1.60113">
        <ele>109.5</ele>
        <time>2014-05-18T06:34:39Z</time>
      </trkpt>
      <trkpt lat="47.33279" lon="-1.60112">
        <ele>108.5</ele>
        <time>2014-05-18T06:34:40Z</time>
      </trkpt>
      <trkpt lat="47.33312" lon="-1.60106">
        <ele>107.5</ele>
        <time>2014-05-18T06:34:45Z</time>
      </trkpt>
      <trkpt lat="47.33337" lon="-1.601">
        <ele>107</ele>
        <time>2014-05-18T06:34:49Z</time>
      </trkpt>
      <trkpt lat="47.33357" lon="-1.60101">
        <ele>105.5</ele>
        <time>2014-05-18T06:34:53Z</time>
      </trkpt>
      <trkpt lat="47.33367" lon="-1.6009">
        <ele>104.5</ele>
        <time>2014-05-18T06:34:57Z</time>
      </trkpt>
      <trkpt lat="47.33383" lon="-1.60059">
        <ele>105</ele>
        <time>2014-05-18T06:35:03Z</time>
      </trkpt>
      <trkpt lat="47.33394" lon="-1.60043">
        <ele>105</ele>
        <time>2014-05-18T06:35:07Z</time>
      </trkpt>
      <trkpt lat="47.33401" lon="-1.60027">
        <ele>104.5</ele>
        <time>2014-05-18T06:35:11Z</time>
      </trkpt>
      <trkpt lat="47.33412" lon="-1.6">
        <ele>105</ele>
        <time>2014-05-18T06:35:17Z</time>
      </trkpt>
      <trkpt lat="47.33421" lon="-1.59982">
        <ele>105.5</ele>
        <time>2014-05-18T06:35:21Z</time>
      </trkpt>
      <trkpt lat="47.33432" lon="-1.59964">
        <ele>105.5</ele>
        <time>2014-05-18T06:35:25Z</time>
      </trkpt>
      <trkpt lat="47.33444" lon="-1.59946">
        <ele>105.5</ele>
        <time>2014-05-18T06:35:29Z</time>
      </trkpt>
      <trkpt lat="47.33454" lon="-1.59924">
        <ele>105.5</ele>
        <time>2014-05-18T06:35:33Z</time>
      </trkpt>
      <trkpt lat="47.33467" lon="-1.59901">
        <ele>105.5</ele>
        <time>2014-05-18T06:35:37Z</time>
      </trkpt>
      <trkpt lat="47.33478" lon="-1.59879">
        <ele>105.5</ele>
        <time>2014-05-18T06:35:41Z</time>
      </trkpt>
      <trkpt lat="47.33487" lon="-1.59856">
        <ele>105.5</ele>
        <time>2014-05-18T06:35:45Z</time>
      </trkpt>
      <trkpt lat="47.33497" lon="-1.59832">
        <ele>105.5</ele>
        <time>2014-05-18T06:35:49Z</time>
      </trkpt>
      <trkpt lat="47.33506" lon="-1.59807">
        <ele>105.5</ele>
        <time>2014-05-18T06:35:53Z</time>
      </trkpt>
      <trkpt lat="47.33519" lon="-1.59785">
        <ele>105</ele>
        <time>2014-05-18T06:35:57Z</time>
      </trkpt>
      <trkpt lat="47.33531" lon="-1.59763">
        <ele>105.5</ele>
        <time>2014-05-18T06:36:01Z</time>
      </trkpt>
      <trkpt lat="47.33545" lon="-1.59744">
        <ele>106</ele>
        <time>2014-05-18T06:36:05Z</time>
      </trkpt>
      <trkpt lat="47.33561" lon="-1.59724">
        <ele>106.5</ele>
        <time>2014-05-18T06:36:09Z</time>
      </trkpt>
      <trkpt lat="47.33577" lon="-1.59704">
        <ele>106.5</ele>
        <time>2014-05-18T06:36:13Z</time>
      </trkpt>
      <trkpt lat="47.33592" lon="-1.59684">
        <ele>106</ele>
        <time>2014-05-18T06:36:17Z</time>
      </trkpt>
      <trkpt lat="47.33607" lon="-1.59662">
        <ele>105.5</ele>
        <time>2014-05-18T06:36:21Z</time>
      </trkpt>
      <trkpt lat="47.3362" lon="-1.59638">
        <ele>105.5</ele>
        <time>2014-05-18T06:36:25Z</time>
      </trkpt>
      <trkpt lat="47.33631" lon="-1.59609">
        <ele>105</ele>
        <time>2014-05-18T06:36:29Z</time>
      </trkpt>
      <trkpt lat="47.33636" lon="-1.59577">
        <ele>104.5</ele>
        <time>2014-05-18T06:36:33Z</time>
      </trkpt>
      <trkpt lat="47.33639" lon="-1.59547">
        <ele>105</ele>
        <time>2014-05-18T06:36:37Z</time>
      </trkpt>
      <trkpt lat="47.33641" lon="-1.59518">
        <ele>105</ele>
        <time>2014-05-18T06:36:41Z</time>
      </trkpt>
      <trkpt lat="47.33644" lon="-1.5949">
        <ele>104.5</ele>
        <time>2014-05-18T06:36:45Z</time>
      </trkpt>
      <trkpt lat="47.33647" lon="-1.59467">
        <ele>105</ele>
        <time>2014-05-18T06:36:49Z</time>
      </trkpt>
      <trkpt lat="47.33656" lon="-1.59456">
        <ele>104</ele>
        <time>2014-05-18T06:36:53Z</time>
      </trkpt>
      <trkpt lat="47.3367" lon="-1.5944">
        <ele>110.5</ele>
        <time>2014-05-18T06:36:57Z</time>
      </trkpt>
      <trkpt lat="47.33676" lon="-1.5943">
        <ele>111</ele>
        <time>2014-05-18T06:36:59Z</time>
      </trkpt>
      <trkpt lat="47.33689" lon="-1.59411">
        <ele>113.5</ele>
        <time>2014-05-18T06:37:03Z</time>
      </trkpt>
      <trkpt lat="47.33702" lon="-1.59387">
        <ele>114.5</ele>
        <time>2014-05-18T06:37:07Z</time>
      </trkpt>
      <trkpt lat="47.33717" lon="-1.59364">
        <ele>117</ele>
        <time>2014-05-18T06:37:11Z</time>
      </trkpt>
      <trkpt lat="47.33735" lon="-1.5934">
        <ele>115</ele>
        <time>2014-05-18T06:37:15Z</time>
      </trkpt>
      <trkpt lat="47.33751" lon="-1.59315">
        <ele>114.5</ele>
        <time>2014-05-18T06:37:19Z</time>
      </trkpt>
      <trkpt lat="47.33768" lon="-1.59293">
        <ele>112.5</ele>
        <time>2014-05-18T06:37:23Z</time>
      </trkpt>
      <trkpt lat="47.33785" lon="-1.59268">
        <ele>112</ele>
        <time>2014-05-18T06:37:27Z</time>
      </trkpt>
      <trkpt lat="47.338" lon="-1.5924">
        <ele>110</ele>
        <time>2014-05-18T06:37:31Z</time>
      </trkpt>
      <trkpt lat="47.33816" lon="-1.59214">
        <ele>107.5</ele>
        <time>2014-05-18T06:37:35Z</time>
      </trkpt>
      <trkpt lat="47.33833" lon="-1.59186">
        <ele>106</ele>
        <time>2014-05-18T06:37:39Z</time>
      </trkpt>
      <trkpt lat="47.33848" lon="-1.59161">
        <ele>106</ele>
        <time>2014-05-18T06:37:43Z</time>
      </trkpt>
      <trkpt lat="47.33864" lon="-1.59138">
        <ele>106</ele>
        <time>2014-05-18T06:37:47Z</time>
      </trkpt>
      <trkpt lat="47.33882" lon="-1.59116">
        <ele>107.5</ele>
        <time>2014-05-18T06:37:51Z</time>
      </trkpt>
      <trkpt lat="47.339" lon="-1.59091">
        <ele>106</ele>
        <time>2014-05-18T06:37:55Z</time>
      </trkpt>
      <trkpt lat="47.33919" lon="-1.59065">
        <ele>105</ele>
        <time>2014-05-18T06:37:59Z</time>
      </trkpt>
      <trkpt lat="47.3393" lon="-1.59037">
        <ele>103.5</ele>
        <time>2014-05-18T06:38:03Z</time>
      </trkpt>
      <trkpt lat="47.33947" lon="-1.5901">
        <ele>104</ele>
        <time>2014-05-18T06:38:07Z</time>
      </trkpt>
      <trkpt lat="47.33966" lon="-1.58987">
        <ele>104.5</ele>
        <time>2014-05-18T06:38:11Z</time>
      </trkpt>
      <trkpt lat="47.33982" lon="-1.58964">
        <ele>106.5</ele>
        <time>2014-05-18T06:38:15Z</time>
      </trkpt>
      <trkpt lat="47.33996" lon="-1.58941">
        <ele>107.5</ele>
        <time>2014-05-18T06:38:19Z</time>
      </trkpt>
      <trkpt lat="47.34009" lon="-1.58919">
        <ele>107</ele>
        <time>2014-05-18T06:38:23Z</time>
      </trkpt>
      <trkpt lat="47.34022" lon="-1.58902">
        <ele>106</ele>
        <time>2014-05-18T06:38:27Z</time>
      </trkpt>
      <trkpt lat="47.34035" lon="-1.58876">
        <ele>105</ele>
        <time>2014-05-18T06:38:31Z</time>
      </trkpt>
      <trkpt lat="47.34049" lon="-1.58852">
        <ele>105.5</ele>
        <time>2014-05-18T06:38:35Z</time>
      </trkpt>
      <trkpt lat="47.34062" lon="-1.58834">
        <ele>105.5</ele>
        <time>2014-05-18T06:38:39Z</time>
      </trkpt>
      <trkpt lat="47.34072" lon="-1.58819">
        <ele>104</ele>
        <time>2014-05-18T06:38:43Z</time>
      </trkpt>
      <trkpt lat="47.3409" lon="-1.58793">
        <ele>104</ele>
        <time>2014-05-18T06:38:49Z</time>
      </trkpt>
      <trkpt lat="47.34105" lon="-1.5877">
        <ele>104</ele>
        <time>2014-05-18T06:38:53Z</time>
      </trkpt>
      <trkpt lat="47.34119" lon="-1.58752">
        <ele>104</ele>
        <time>2014-05-18T06:38:57Z</time>
      </trkpt>
      <trkpt lat="47.3413" lon="-1.58736">
        <ele>104</ele>
        <time>2014-05-18T06:39:01Z</time>
      </trkpt>
      <trkpt lat="47.34142" lon="-1.58718">
        <ele>106</ele>
        <time>2014-05-18T06:39:05Z</time>
      </trkpt>
      <trkpt lat="47.34156" lon="-1.58695">
        <ele>106.5</ele>
        <time>2014-05-18T06:39:09Z</time>
      </trkpt>
      <trkpt lat="47.34172" lon="-1.58673">
        <ele>105.5</ele>
        <time>2014-05-18T06:39:13Z</time>
      </trkpt>
      <trkpt lat="47.34185" lon="-1.58652">
        <ele>107</ele>
        <time>2014-05-18T06:39:17Z</time>
      </trkpt>
      <trkpt lat="47.34203" lon="-1.58628">
        <ele>109.5</ele>
        <time>2014-05-18T06:39:21Z</time>
      </trkpt>
      <trkpt lat="47.34223" lon="-1.58606">
        <ele>108</ele>
        <time>2014-05-18T06:39:25Z</time>
      </trkpt>
      <trkpt lat="47.34241" lon="-1.5858">
        <ele>107.5</ele>
        <time>2014-05-18T06:39:29Z</time>
      </trkpt>
      <trkpt lat="47.34258" lon="-1.58555">
        <ele>107</ele>
        <time>2014-05-18T06:39:33Z</time>
      </trkpt>
      <trkpt lat="47.34274" lon="-1.58532">
        <ele>107.5</ele>
        <time>2014-05-18T06:39:37Z</time>
      </trkpt>
      <trkpt lat="47.3429" lon="-1.58499">
        <ele>108</ele>
        <time>2014-05-18T06:39:41Z</time>
      </trkpt>
      <trkpt lat="47.34306" lon="-1.58478">
        <ele>107.5</ele>
        <time>2014-05-18T06:39:45Z</time>
      </trkpt>
      <trkpt lat="47.34319" lon="-1.5846">
        <ele>105.5</ele>
        <time>2014-05-18T06:39:49Z</time>
      </trkpt>
      <trkpt lat="47.34336" lon="-1.58435">
        <ele>104</ele>
        <time>2014-05-18T06:39:53Z</time>
      </trkpt>
      <trkpt lat="47.34349" lon="-1.58415">
        <ele>106.5</ele>
        <time>2014-05-18T06:39:57Z</time>
      </trkpt>
      <trkpt lat="47.34362" lon="-1.58388">
        <ele>105.5</ele>
        <time>2014-05-18T06:40:01Z</time>
      </trkpt>
      <trkpt lat="47.34378" lon="-1.58367">
        <ele>103.5</ele>
        <time>2014-05-18T06:40:05Z</time>
      </trkpt>
      <trkpt lat="47.34393" lon="-1.58343">
        <ele>103</ele>
        <time>2014-05-18T06:40:09Z</time>
      </trkpt>
      <trkpt lat="47.34409" lon="-1.58316">
        <ele>102.5</ele>
        <time>2014-05-18T06:40:13Z</time>
      </trkpt>
      <trkpt lat="47.34423" lon="-1.58292">
        <ele>105</ele>
        <time>2014-05-18T06:40:17Z</time>
      </trkpt>
      <trkpt lat="47.34438" lon="-1.58271">
        <ele>105</ele>
        <time>2014-05-18T06:40:21Z</time>
      </trkpt>
      <trkpt lat="47.34455" lon="-1.58249">
        <ele>105.5</ele>
        <time>2014-05-18T06:40:25Z</time>
      </trkpt>
      <trkpt lat="47.34472" lon="-1.58224">
        <ele>105.5</ele>
        <time>2014-05-18T06:40:29Z</time>
      </trkpt>
      <trkpt lat="47.34491" lon="-1.58195">
        <ele>105</ele>
        <time>2014-05-18T06:40:33Z</time>
      </trkpt>
      <trkpt lat="47.34508" lon="-1.58172">
        <ele>103.5</ele>
        <time>2014-05-18T06:40:37Z</time>
      </trkpt>
      <trkpt lat="47.34523" lon="-1.58149">
        <ele>101.5</ele>
        <time>2014-05-18T06:40:41Z</time>
      </trkpt>
      <trkpt lat="47.34542" lon="-1.58125">
        <ele>101</ele>
        <time>2014-05-18T06:40:45Z</time>
      </trkpt>
      <trkpt lat="47.34559" lon="-1.58101">
        <ele>100</ele>
        <time>2014-05-18T06:40:49Z</time>
      </trkpt>
      <trkpt lat="47.34578" lon="-1.58076">
        <ele>99.5</ele>
        <time>2014-05-18T06:40:53Z</time>
      </trkpt>
      <trkpt lat="47.34593" lon="-1.58049">
        <ele>99</ele>
        <time>2014-05-18T06:40:57Z</time>
      </trkpt>
      <trkpt lat="47.3461" lon="-1.58025">
        <ele>98.5</ele>
        <time>2014-05-18T06:41:01Z</time>
      </trkpt>
      <trkpt lat="47.34623" lon="-1.58007">
        <ele>97.5</ele>
        <time>2014-05-18T06:41:05Z</time>
      </trkpt>
      <trkpt lat="47.34634" lon="-1.58013">
        <ele>96.5</ele>
        <time>2014-05-18T06:41:09Z</time>
      </trkpt>
      <trkpt lat="47.34624" lon="-1.58048">
        <ele>96</ele>
        <time>2014-05-18T06:41:15Z</time>
      </trkpt>
      <trkpt lat="47.34616" lon="-1.58073">
        <ele>96</ele>
        <time>2014-05-18T06:41:19Z</time>
      </trkpt>
      <trkpt lat="47.34609" lon="-1.58096">
        <ele>96.5</ele>
        <time>2014-05-18T06:41:23Z</time>
      </trkpt>
      <trkpt lat="47.3461" lon="-1.58119">
        <ele>97.5</ele>
        <time>2014-05-18T06:41:27Z</time>
      </trkpt>
      <trkpt lat="47.34625" lon="-1.58125">
        <ele>97</ele>
        <time>2014-05-18T06:41:31Z</time>
      </trkpt>
      <trkpt lat="47.34635" lon="-1.58126">
        <ele>97</ele>
        <time>2014-05-18T06:41:33Z</time>
      </trkpt>
      <trkpt lat="47.34655" lon="-1.58131">
        <ele>98</ele>
        <time>2014-05-18T06:41:37Z</time>
      </trkpt>
      <trkpt lat="47.34676" lon="-1.58136">
        <ele>97</ele>
        <time>2014-05-18T06:41:41Z</time>
      </trkpt>
      <trkpt lat="47.3469" lon="-1.5815">
        <ele>98</ele>
        <time>2014-05-18T06:41:45Z</time>
      </trkpt>
      <trkpt lat="47.34699" lon="-1.58173">
        <ele>98.5</ele>
        <time>2014-05-18T06:41:49Z</time>
      </trkpt>
      <trkpt lat="47.3471" lon="-1.58204">
        <ele>100.5</ele>
        <time>2014-05-18T06:41:53Z</time>
      </trkpt>
      <trkpt lat="47.34723" lon="-1.58237">
        <ele>99.5</ele>
        <time>2014-05-18T06:41:57Z</time>
      </trkpt>
      <trkpt lat="47.34735" lon="-1.58276">
        <ele>97</ele>
        <time>2014-05-18T06:42:01Z</time>
      </trkpt>
      <trkpt lat="47.34745" lon="-1.58317">
        <ele>93</ele>
        <time>2014-05-18T06:42:05Z</time>
      </trkpt>
      <trkpt lat="47.34748" lon="-1.58326">
        <ele>92</ele>
        <time>2014-05-18T06:42:06Z</time>
      </trkpt>
      <trkpt lat="47.34756" lon="-1.58345">
        <ele>91.5</ele>
        <time>2014-05-18T06:42:08Z</time>
      </trkpt>
      <trkpt lat="47.34759" lon="-1.58354">
        <ele>91.5</ele>
        <time>2014-05-18T06:42:09Z</time>
      </trkpt>
      <trkpt lat="47.34761" lon="-1.58362">
        <ele>92</ele>
        <time>2014-05-18T06:42:10Z</time>
      </trkpt>
      <trkpt lat="47.34771" lon="-1.584">
        <ele>92</ele>
        <time>2014-05-18T06:42:15Z</time>
      </trkpt>
      <trkpt lat="47.34784" lon="-1.58427">
        <ele>93</ele>
        <time>2014-05-18T06:42:19Z</time>
      </trkpt>
      <trkpt lat="47.34801" lon="-1.58454">
        <ele>95.5</ele>
        <time>2014-05-18T06:42:23Z</time>
      </trkpt>
      <trkpt lat="47.34819" lon="-1.58475">
        <ele>93</ele>
        <time>2014-05-18T06:42:27Z</time>
      </trkpt>
      <trkpt lat="47.34833" lon="-1.58495">
        <ele>90</ele>
        <time>2014-05-18T06:42:31Z</time>
      </trkpt>
      <trkpt lat="47.34851" lon="-1.58517">
        <ele>89.5</ele>
        <time>2014-05-18T06:42:35Z</time>
      </trkpt>
      <trkpt lat="47.34874" lon="-1.58558">
        <ele>89</ele>
        <time>2014-05-18T06:42:41Z</time>
      </trkpt>
      <trkpt lat="47.34893" lon="-1.58582">
        <ele>90</ele>
        <time>2014-05-18T06:42:45Z</time>
      </trkpt>
      <trkpt lat="47.3491" lon="-1.58605">
        <ele>91</ele>
        <time>2014-05-18T06:42:49Z</time>
      </trkpt>
      <trkpt lat="47.34924" lon="-1.58629">
        <ele>91.5</ele>
        <time>2014-05-18T06:42:53Z</time>
      </trkpt>
      <trkpt lat="47.34935" lon="-1.58651">
        <ele>91.5</ele>
        <time>2014-05-18T06:42:57Z</time>
      </trkpt>
      <trkpt lat="47.34946" lon="-1.58665">
        <ele>95.5</ele>
        <time>2014-05-18T06:43:01Z</time>
      </trkpt>
      <trkpt lat="47.34961" lon="-1.58681">
        <ele>97.5</ele>
        <time>2014-05-18T06:43:05Z</time>
      </trkpt>
      <trkpt lat="47.34973" lon="-1.58694">
        <ele>102</ele>
        <time>2014-05-18T06:43:09Z</time>
      </trkpt>
      <trkpt lat="47.34986" lon="-1.5871">
        <ele>104.5</ele>
        <time>2014-05-18T06:43:13Z</time>
      </trkpt>
      <trkpt lat="47.34996" lon="-1.58728">
        <ele>104.5</ele>
        <time>2014-05-18T06:43:17Z</time>
      </trkpt>
      <trkpt lat="47.35007" lon="-1.58746">
        <ele>104.5</ele>
        <time>2014-05-18T06:43:21Z</time>
      </trkpt>
      <trkpt lat="47.35016" lon="-1.58773">
        <ele>104.5</ele>
        <time>2014-05-18T06:43:25Z</time>
      </trkpt>
      <trkpt lat="47.35027" lon="-1.58801">
        <ele>105.5</ele>
        <time>2014-05-18T06:43:29Z</time>
      </trkpt>
      <trkpt lat="47.35036" lon="-1.58829">
        <ele>104</ele>
        <time>2014-05-18T06:43:33Z</time>
      </trkpt>
      <trkpt lat="47.35045" lon="-1.58861">
        <ele>101</ele>
        <time>2014-05-18T06:43:37Z</time>
      </trkpt>
      <trkpt lat="47.35056" lon="-1.58899">
        <ele>99</ele>
        <time>2014-05-18T06:43:41Z</time>
      </trkpt>
      <trkpt lat="47.35061" lon="-1.58939">
        <ele>96</ele>
        <time>2014-05-18T06:43:45Z</time>
      </trkpt>
      <trkpt lat="47.35068" lon="-1.58974">
        <ele>95</ele>
        <time>2014-05-18T06:43:49Z</time>
      </trkpt>
      <trkpt lat="47.35071" lon="-1.59007">
        <ele>95.5</ele>
        <time>2014-05-18T06:43:53Z</time>
      </trkpt>
      <trkpt lat="47.35079" lon="-1.59046">
        <ele>94.5</ele>
        <time>2014-05-18T06:43:57Z</time>
      </trkpt>
      <trkpt lat="47.35083" lon="-1.59081">
        <ele>95.5</ele>
        <time>2014-05-18T06:44:01Z</time>
      </trkpt>
      <trkpt lat="47.35084" lon="-1.59114">
        <ele>92.5</ele>
        <time>2014-05-18T06:44:05Z</time>
      </trkpt>
      <trkpt lat="47.35075" lon="-1.59149">
        <ele>91</ele>
        <time>2014-05-18T06:44:09Z</time>
      </trkpt>
      <trkpt lat="47.35071" lon="-1.5917">
        <ele>88.5</ele>
        <time>2014-05-18T06:44:13Z</time>
      </trkpt>
      <trkpt lat="47.35067" lon="-1.59184">
        <ele>87.5</ele>
        <time>2014-05-18T06:44:17Z</time>
      </trkpt>
      <trkpt lat="47.35064" lon="-1.59191">
        <ele>88</ele>
        <time>2014-05-18T06:44:19Z</time>
      </trkpt>
      <trkpt lat="47.3506" lon="-1.592">
        <ele>89</ele>
        <time>2014-05-18T06:44:23Z</time>
      </trkpt>
      <trkpt lat="47.35052" lon="-1.59189">
        <ele>90.5</ele>
        <time>2014-05-18T06:44:31Z</time>
      </trkpt>
      <trkpt lat="47.35051" lon="-1.59181">
        <ele>90.5</ele>
        <time>2014-05-18T06:44:33Z</time>
      </trkpt>
      <trkpt lat="47.35056" lon="-1.59171">
        <ele>92.5</ele>
        <time>2014-05-18T06:44:41Z</time>
      </trkpt>
      <trkpt lat="47.35056" lon="-1.59162">
        <ele>93.5</ele>
        <time>2014-05-18T06:44:45Z</time>
      </trkpt>
      <trkpt lat="47.35055" lon="-1.59156">
        <ele>94</ele>
        <time>2014-05-18T06:44:47Z</time>
      </trkpt>
      <trkpt lat="47.35053" lon="-1.59146">
        <ele>93</ele>
        <time>2014-05-18T06:44:51Z</time>
      </trkpt>
      <trkpt lat="47.35054" lon="-1.59132">
        <ele>96</ele>
        <time>2014-05-18T06:44:57Z</time>
      </trkpt>
      <trkpt lat="47.35048" lon="-1.59123">
        <ele>96.5</ele>
        <time>2014-05-18T06:45:05Z</time>
      </trkpt>
      <trkpt lat="47.35049" lon="-1.59111">
        <ele>99.5</ele>
        <time>2014-05-18T06:45:13Z</time>
      </trkpt>
      <trkpt lat="47.35031" lon="-1.59107">
        <ele>102</ele>
        <time>2014-05-18T06:45:39Z</time>
      </trkpt>
      <trkpt lat="47.35025" lon="-1.59106">
        <ele>102</ele>
        <time>2014-05-18T06:45:41Z</time>
      </trkpt>
      <trkpt lat="47.35016" lon="-1.59116">
        <ele>101.5</ele>
        <time>2014-05-18T06:45:45Z</time>
      </trkpt>
      <trkpt lat="47.35011" lon="-1.59122">
        <ele>102.5</ele>
        <time>2014-05-18T06:45:47Z</time>
      </trkpt>
      <trkpt lat="47.35001" lon="-1.59134">
        <ele>105</ele>
        <time>2014-05-18T06:45:53Z</time>
      </trkpt>
      <trkpt lat="47.34993" lon="-1.59135">
        <ele>108.5</ele>
        <time>2014-05-18T06:46:01Z</time>
      </trkpt>
      <trkpt lat="47.34985" lon="-1.59123">
        <ele>105</ele>
        <time>2014-05-18T06:46:05Z</time>
      </trkpt>
      <trkpt lat="47.34993" lon="-1.59115">
        <ele>102.5</ele>
        <time>2014-05-18T06:46:09Z</time>
      </trkpt>
      <trkpt lat="47.34998" lon="-1.59115">
        <ele>101</ele>
        <time>2014-05-18T06:46:11Z</time>
      </trkpt>
      <trkpt lat="47.35003" lon="-1.59109">
        <ele>101</ele>
        <time>2014-05-18T06:46:17Z</time>
      </trkpt>
      <trkpt lat="47.35019" lon="-1.59099">
        <ele>96.5</ele>
        <time>2014-05-18T06:46:23Z</time>
      </trkpt>
      <trkpt lat="47.35024" lon="-1.59097">
        <ele>97.5</ele>
        <time>2014-05-18T06:46:25Z</time>
      </trkpt>
      <trkpt lat="47.35032" lon="-1.5909">
        <ele>95.5</ele>
        <time>2014-05-18T06:46:29Z</time>
      </trkpt>
      <trkpt lat="47.35032" lon="-1.59081">
        <ele>99.5</ele>
        <time>2014-05-18T06:46:39Z</time>
      </trkpt>
      <trkpt lat="47.35027" lon="-1.59076">
        <ele>104.5</ele>
        <time>2014-05-18T06:46:47Z</time>
      </trkpt>
      <trkpt lat="47.35023" lon="-1.59072">
        <ele>107.5</ele>
        <time>2014-05-18T06:46:49Z</time>
      </trkpt>
      <trkpt lat="47.35017" lon="-1.59079">
        <ele>108</ele>
        <time>2014-05-18T06:46:55Z</time>
      </trkpt>
      <trkpt lat="47.35012" lon="-1.59084">
        <ele>113.5</ele>
        <time>2014-05-18T06:47:01Z</time>
      </trkpt>
      <trkpt lat="47.35003" lon="-1.59084">
        <ele>115</ele>
        <time>2014-05-18T06:47:07Z</time>
      </trkpt>
      <trkpt lat="47.34999" lon="-1.59083">
        <ele>115.5</ele>
        <time>2014-05-18T06:47:09Z</time>
      </trkpt>
      <trkpt lat="47.34995" lon="-1.59086">
        <ele>115.5</ele>
        <time>2014-05-18T06:47:13Z</time>
      </trkpt>
      <trkpt lat="47.3499" lon="-1.5909">
        <ele>114</ele>
        <time>2014-05-18T06:47:21Z</time>
      </trkpt>
      <trkpt lat="47.34985" lon="-1.59088">
        <ele>110.5</ele>
        <time>2014-05-18T06:47:31Z</time>
      </trkpt>
      <trkpt lat="47.3498" lon="-1.5909">
        <ele>109</ele>
        <time>2014-05-18T06:47:37Z</time>
      </trkpt>
      <trkpt lat="47.34976" lon="-1.59095">
        <ele>111</ele>
        <time>2014-05-18T06:47:41Z</time>
      </trkpt>
      <trkpt lat="47.34972" lon="-1.591">
        <ele>109</ele>
        <time>2014-05-18T06:47:51Z</time>
      </trkpt>
      <trkpt lat="47.34969" lon="-1.59108">
        <ele>112.5</ele>
        <time>2014-05-18T06:47:59Z</time>
      </trkpt>
      <trkpt lat="47.34971" lon="-1.59126">
        <ele>110.5</ele>
        <time>2014-05-18T06:48:05Z</time>
      </trkpt>
      <trkpt lat="47.34973" lon="-1.59133">
        <ele>111</ele>
        <time>2014-05-18T06:48:09Z</time>
      </trkpt>
      <trkpt lat="47.34973" lon="-1.59145">
        <ele>107.5</ele>
        <time>2014-05-18T06:48:15Z</time>
      </trkpt>
      <trkpt lat="47.34972" lon="-1.59154">
        <ele>103</ele>
        <time>2014-05-18T06:48:25Z</time>
      </trkpt>
      <trkpt lat="47.34981" lon="-1.59153">
        <ele>98.5</ele>
        <time>2014-05-18T06:48:31Z</time>
      </trkpt>
      <trkpt lat="47.3499" lon="-1.59152">
        <ele>105.5</ele>
        <time>2014-05-18T06:48:37Z</time>
      </trkpt>
      <trkpt lat="47.34994" lon="-1.59148">
        <ele>106.5</ele>
        <time>2014-05-18T06:48:43Z</time>
      </trkpt>
      <trkpt lat="47.35008" lon="-1.59146">
        <ele>105.5</ele>
        <time>2014-05-18T06:48:57Z</time>
      </trkpt>
      <trkpt lat="47.35014" lon="-1.5916">
        <ele>103.5</ele>
        <time>2014-05-18T06:49:03Z</time>
      </trkpt>
      <trkpt lat="47.35019" lon="-1.59169">
        <ele>103</ele>
        <time>2014-05-18T06:49:05Z</time>
      </trkpt>
      <trkpt lat="47.35026" lon="-1.59173">
        <ele>99.5</ele>
        <time>2014-05-18T06:49:07Z</time>
      </trkpt>
      <trkpt lat="47.35031" lon="-1.59179">
        <ele>98.5</ele>
        <time>2014-05-18T06:49:09Z</time>
      </trkpt>
      <trkpt lat="47.35033" lon="-1.59186">
        <ele>99</ele>
        <time>2014-05-18T06:49:11Z</time>
      </trkpt>
      <trkpt lat="47.35044" lon="-1.59199">
        <ele>96</ele>
        <time>2014-05-18T06:49:15Z</time>
      </trkpt>
      <trkpt lat="47.3505" lon="-1.592">
        <ele>95.5</ele>
        <time>2014-05-18T06:49:17Z</time>
      </trkpt>
      <trkpt lat="47.35057" lon="-1.59226">
        <ele>98.5</ele>
        <time>2014-05-18T06:49:23Z</time>
      </trkpt>
      <trkpt lat="47.35065" lon="-1.59251">
        <ele>101.5</ele>
        <time>2014-05-18T06:49:27Z</time>
      </trkpt>
      <trkpt lat="47.35068" lon="-1.59272">
        <ele>99.5</ele>
        <time>2014-05-18T06:49:31Z</time>
      </trkpt>
      <trkpt lat="47.35068" lon="-1.59308">
        <ele>97</ele>
        <time>2014-05-18T06:49:37Z</time>
      </trkpt>
      <trkpt lat="47.35069" lon="-1.59337">
        <ele>93.5</ele>
        <time>2014-05-18T06:49:41Z</time>
      </trkpt>
      <trkpt lat="47.35071" lon="-1.5937">
        <ele>91</ele>
        <time>2014-05-18T06:49:45Z</time>
      </trkpt>
      <trkpt lat="47.35072" lon="-1.59402">
        <ele>93</ele>
        <time>2014-05-18T06:49:49Z</time>
      </trkpt>
      <trkpt lat="47.35067" lon="-1.59407">
        <ele>96.5</ele>
        <time>2014-05-18T06:49:53Z</time>
      </trkpt>
      <trkpt lat="47.35063" lon="-1.59401">
        <ele>99.5</ele>
        <time>2014-05-18T06:49:55Z</time>
      </trkpt>
      <trkpt lat="47.35047" lon="-1.59392">
        <ele>103</ele>
        <time>2014-05-18T06:50:01Z</time>
      </trkpt>
      <trkpt lat="47.35044" lon="-1.59388">
        <ele>103.5</ele>
        <time>2014-05-18T06:50:03Z</time>
      </trkpt>
      <trkpt lat="47.35036" lon="-1.59387">
        <ele>103.5</ele>
        <time>2014-05-18T06:50:07Z</time>
      </trkpt>
      <trkpt lat="47.35031" lon="-1.59394">
        <ele>106.5</ele>
        <time>2014-05-18T06:50:09Z</time>
      </trkpt>
      <trkpt lat="47.35023" lon="-1.59407">
        <ele>104</ele>
        <time>2014-05-18T06:50:11Z</time>
      </trkpt>
      <trkpt lat="47.35012" lon="-1.59427">
        <ele>104</ele>
        <time>2014-05-18T06:50:15Z</time>
      </trkpt>
      <trkpt lat="47.35009" lon="-1.59446">
        <ele>99</ele>
        <time>2014-05-18T06:50:19Z</time>
      </trkpt>
      <trkpt lat="47.35017" lon="-1.59449">
        <ele>101</ele>
        <time>2014-05-18T06:50:25Z</time>
      </trkpt>
      <trkpt lat="47.35028" lon="-1.59464">
        <ele>98</ele>
        <time>2014-05-18T06:50:33Z</time>
      </trkpt>
      <trkpt lat="47.35033" lon="-1.59462">
        <ele>100</ele>
        <time>2014-05-18T06:50:37Z</time>
      </trkpt>
      <trkpt lat="47.35034" lon="-1.59453">
        <ele>105</ele>
        <time>2014-05-18T06:50:45Z</time>
      </trkpt>
      <trkpt lat="47.35027" lon="-1.59451">
        <ele>106</ele>
        <time>2014-05-18T06:50:49Z</time>
      </trkpt>
      <trkpt lat="47.35033" lon="-1.59443">
        <ele>107</ele>
        <time>2014-05-18T06:50:59Z</time>
      </trkpt>
      <trkpt lat="47.35038" lon="-1.59441">
        <ele>107.5</ele>
        <time>2014-05-18T06:51:01Z</time>
      </trkpt>
      <trkpt lat="47.35048" lon="-1.59449">
        <ele>107.5</ele>
        <time>2014-05-18T06:51:09Z</time>
      </trkpt>
      <trkpt lat="47.3505" lon="-1.59456">
        <ele>108</ele>
        <time>2014-05-18T06:51:13Z</time>
      </trkpt>
      <trkpt lat="47.35037" lon="-1.5947">
        <ele>111</ele>
        <time>2014-05-18T06:51:25Z</time>
      </trkpt>
      <trkpt lat="47.35034" lon="-1.59481">
        <ele>113.5</ele>
        <time>2014-05-18T06:51:31Z</time>
      </trkpt>
      <trkpt lat="47.35033" lon="-1.59488">
        <ele>118</ele>
        <time>2014-05-18T06:51:35Z</time>
      </trkpt>
      <trkpt lat="47.35031" lon="-1.59492">
        <ele>120.5</ele>
        <time>2014-05-18T06:51:37Z</time>
      </trkpt>
      <trkpt lat="47.35013" lon="-1.59485">
        <ele>123.5</ele>
        <time>2014-05-18T06:51:49Z</time>
      </trkpt>
      <trkpt lat="47.35" lon="-1.59483">
        <ele>123</ele>
        <time>2014-05-18T06:51:55Z</time>
      </trkpt>
      <trkpt lat="47.34997" lon="-1.59489">
        <ele>123.5</ele>
        <time>2014-05-18T06:51:59Z</time>
      </trkpt>
      <trkpt lat="47.34981" lon="-1.59488">
        <ele>130</ele>
        <time>2014-05-18T06:52:07Z</time>
      </trkpt>
      <trkpt lat="47.34975" lon="-1.59488">
        <ele>131.5</ele>
        <time>2014-05-18T06:52:11Z</time>
      </trkpt>
      <trkpt lat="47.34972" lon="-1.595">
        <ele>134</ele>
        <time>2014-05-18T06:52:17Z</time>
      </trkpt>
      <trkpt lat="47.34971" lon="-1.59504">
        <ele>136.5</ele>
        <time>2014-05-18T06:52:19Z</time>
      </trkpt>
      <trkpt lat="47.34973" lon="-1.59524">
        <ele>137</ele>
        <time>2014-05-18T06:52:25Z</time>
      </trkpt>
      <trkpt lat="47.3497" lon="-1.59534">
        <ele>136.5</ele>
        <time>2014-05-18T06:52:27Z</time>
      </trkpt>
      <trkpt lat="47.34966" lon="-1.5954">
        <ele>136.5</ele>
        <time>2014-05-18T06:52:29Z</time>
      </trkpt>
      <trkpt lat="47.34967" lon="-1.59557">
        <ele>134</ele>
        <time>2014-05-18T06:52:33Z</time>
      </trkpt>
      <trkpt lat="47.34972" lon="-1.59563">
        <ele>134.5</ele>
        <time>2014-05-18T06:52:39Z</time>
      </trkpt>
      <trkpt lat="47.3497" lon="-1.59583">
        <ele>138</ele>
        <time>2014-05-18T06:52:47Z</time>
      </trkpt>
      <trkpt lat="47.34968" lon="-1.59591">
        <ele>135.5</ele>
        <time>2014-05-18T06:52:49Z</time>
      </trkpt>
      <trkpt lat="47.34963" lon="-1.59602">
        <ele>138</ele>
        <time>2014-05-18T06:52:53Z</time>
      </trkpt>
      <trkpt lat="47.34961" lon="-1.59606">
        <ele>138</ele>
        <time>2014-05-18T06:52:55Z</time>
      </trkpt>
      <trkpt lat="47.34956" lon="-1.59621">
        <ele>145.5</ele>
        <time>2014-05-18T06:53:01Z</time>
      </trkpt>
      <trkpt lat="47.34954" lon="-1.59628">
        <ele>147</ele>
        <time>2014-05-18T06:53:05Z</time>
      </trkpt>
      <trkpt lat="47.34948" lon="-1.59636">
        <ele>144.5</ele>
        <time>2014-05-18T06:53:13Z</time>
      </trkpt>
      <trkpt lat="47.34942" lon="-1.59644">
        <ele>139</ele>
        <time>2014-05-18T06:53:17Z</time>
      </trkpt>
      <trkpt lat="47.34935" lon="-1.59644">
        <ele>134.5</ele>
        <time>2014-05-18T06:53:27Z</time>
      </trkpt>
      <trkpt lat="47.34933" lon="-1.59653">
        <ele>132</ele>
        <time>2014-05-18T06:53:31Z</time>
      </trkpt>
      <trkpt lat="47.34934" lon="-1.5966">
        <ele>129</ele>
        <time>2014-05-18T06:53:41Z</time>
      </trkpt>
      <trkpt lat="47.34926" lon="-1.59682">
        <ele>127</ele>
        <time>2014-05-18T06:53:47Z</time>
      </trkpt>
      <trkpt lat="47.34919" lon="-1.59684">
        <ele>123</ele>
        <time>2014-05-18T06:53:49Z</time>
      </trkpt>
      <trkpt lat="47.34915" lon="-1.59689">
        <ele>123</ele>
        <time>2014-05-18T06:53:51Z</time>
      </trkpt>
      <trkpt lat="47.34914" lon="-1.59703">
        <ele>124.5</ele>
        <time>2014-05-18T06:53:59Z</time>
      </trkpt>
      <trkpt lat="47.34913" lon="-1.59725">
        <ele>123.5</ele>
        <time>2014-05-18T06:54:09Z</time>
      </trkpt>
      <trkpt lat="47.34913" lon="-1.59749">
        <ele>121.5</ele>
        <time>2014-05-18T06:54:13Z</time>
      </trkpt>
      <trkpt lat="47.34914" lon="-1.59759">
        <ele>121.5</ele>
        <time>2014-05-18T06:54:15Z</time>
      </trkpt>
      <trkpt lat="47.34914" lon="-1.59768">
        <ele>121</ele>
        <time>2014-05-18T06:54:17Z</time>
      </trkpt>
      <trkpt lat="47.34916" lon="-1.59784">
        <ele>119</ele>
        <time>2014-05-18T06:54:21Z</time>
      </trkpt>
      <trkpt lat="47.34919" lon="-1.59791">
        <ele>117.5</ele>
        <time>2014-05-18T06:54:23Z</time>
      </trkpt>
      <trkpt lat="47.34923" lon="-1.59805">
        <ele>117.5</ele>
        <time>2014-05-18T06:54:27Z</time>
      </trkpt>
      <trkpt lat="47.34925" lon="-1.59812">
        <ele>116.5</ele>
        <time>2014-05-18T06:54:29Z</time>
      </trkpt>
      <trkpt lat="47.34933" lon="-1.59832">
        <ele>116</ele>
        <time>2014-05-18T06:54:35Z</time>
      </trkpt>
      <trkpt lat="47.34936" lon="-1.59845">
        <ele>116</ele>
        <time>2014-05-18T06:54:39Z</time>
      </trkpt>
      <trkpt lat="47.34936" lon="-1.59858">
        <ele>114</ele>
        <time>2014-05-18T06:54:43Z</time>
      </trkpt>
      <trkpt lat="47.34932" lon="-1.59864">
        <ele>107</ele>
        <time>2014-05-18T06:54:49Z</time>
      </trkpt>
      <trkpt lat="47.34926" lon="-1.59848">
        <ele>106.5</ele>
        <time>2014-05-18T06:54:57Z</time>
      </trkpt>
      <trkpt lat="47.34922" lon="-1.59839">
        <ele>106</ele>
        <time>2014-05-18T06:55:01Z</time>
      </trkpt>
      <trkpt lat="47.34917" lon="-1.5983">
        <ele>106.5</ele>
        <time>2014-05-18T06:55:05Z</time>
      </trkpt>
      <trkpt lat="47.34908" lon="-1.59829">
        <ele>107.5</ele>
        <time>2014-05-18T06:55:09Z</time>
      </trkpt>
      <trkpt lat="47.34904" lon="-1.59821">
        <ele>104.5</ele>
        <time>2014-05-18T06:55:11Z</time>
      </trkpt>
      <trkpt lat="47.349" lon="-1.59802">
        <ele>106.5</ele>
        <time>2014-05-18T06:55:19Z</time>
      </trkpt>
      <trkpt lat="47.34893" lon="-1.59795">
        <ele>105.5</ele>
        <time>2014-05-18T06:55:23Z</time>
      </trkpt>
      <trkpt lat="47.34888" lon="-1.59793">
        <ele>103.5</ele>
        <time>2014-05-18T06:55:25Z</time>
      </trkpt>
      <trkpt lat="47.34883" lon="-1.59793">
        <ele>100</ele>
        <time>2014-05-18T06:55:29Z</time>
      </trkpt>
      <trkpt lat="47.34878" lon="-1.59794">
        <ele>100.5</ele>
        <time>2014-05-18T06:55:35Z</time>
      </trkpt>
      <trkpt lat="47.3487" lon="-1.59807">
        <ele>99</ele>
        <time>2014-05-18T06:55:41Z</time>
      </trkpt>
      <trkpt lat="47.34863" lon="-1.59822">
        <ele>98.5</ele>
        <time>2014-05-18T06:55:47Z</time>
      </trkpt>
      <trkpt lat="47.34859" lon="-1.59829">
        <ele>97</ele>
        <time>2014-05-18T06:55:49Z</time>
      </trkpt>
      <trkpt lat="47.34855" lon="-1.59833">
        <ele>96.5</ele>
        <time>2014-05-18T06:55:51Z</time>
      </trkpt>
      <trkpt lat="47.34851" lon="-1.59838">
        <ele>95.5</ele>
        <time>2014-05-18T06:55:53Z</time>
      </trkpt>
      <trkpt lat="47.34844" lon="-1.59851">
        <ele>94</ele>
        <time>2014-05-18T06:55:57Z</time>
      </trkpt>
      <trkpt lat="47.34842" lon="-1.59862">
        <ele>95.5</ele>
        <time>2014-05-18T06:56:01Z</time>
      </trkpt>
      <trkpt lat="47.34839" lon="-1.59873">
        <ele>97.5</ele>
        <time>2014-05-18T06:56:05Z</time>
      </trkpt>
      <trkpt lat="47.34829" lon="-1.59881">
        <ele>96.5</ele>
        <time>2014-05-18T06:56:09Z</time>
      </trkpt>
      <trkpt lat="47.34821" lon="-1.59888">
        <ele>96</ele>
        <time>2014-05-18T06:56:13Z</time>
      </trkpt>
      <trkpt lat="47.34819" lon="-1.59895">
        <ele>97</ele>
        <time>2014-05-18T06:56:15Z</time>
      </trkpt>
      <trkpt lat="47.34817" lon="-1.59902">
        <ele>97.5</ele>
        <time>2014-05-18T06:56:17Z</time>
      </trkpt>
      <trkpt lat="47.34805" lon="-1.59915">
        <ele>95.5</ele>
        <time>2014-05-18T06:56:23Z</time>
      </trkpt>
      <trkpt lat="47.34801" lon="-1.5992">
        <ele>95.5</ele>
        <time>2014-05-18T06:56:25Z</time>
      </trkpt>
      <trkpt lat="47.34795" lon="-1.59928">
        <ele>96.5</ele>
        <time>2014-05-18T06:56:29Z</time>
      </trkpt>
      <trkpt lat="47.34788" lon="-1.59937">
        <ele>99</ele>
        <time>2014-05-18T06:56:33Z</time>
      </trkpt>
      <trkpt lat="47.34782" lon="-1.59947">
        <ele>100.5</ele>
        <time>2014-05-18T06:56:37Z</time>
      </trkpt>
      <trkpt lat="47.34779" lon="-1.59951">
        <ele>102</ele>
        <time>2014-05-18T06:56:39Z</time>
      </trkpt>
      <trkpt lat="47.34772" lon="-1.59962">
        <ele>104</ele>
        <time>2014-05-18T06:56:45Z</time>
      </trkpt>
      <trkpt lat="47.34769" lon="-1.59966">
        <ele>104.5</ele>
        <time>2014-05-18T06:56:47Z</time>
      </trkpt>
      <trkpt lat="47.34767" lon="-1.59972">
        <ele>104</ele>
        <time>2014-05-18T06:56:49Z</time>
      </trkpt>
      <trkpt lat="47.34761" lon="-1.59985">
        <ele>103</ele>
        <time>2014-05-18T06:56:53Z</time>
      </trkpt>
      <trkpt lat="47.34758" lon="-1.59995">
        <ele>102</ele>
        <time>2014-05-18T06:56:57Z</time>
      </trkpt>
      <trkpt lat="47.34752" lon="-1.60008">
        <ele>98.5</ele>
        <time>2014-05-18T06:57:03Z</time>
      </trkpt>
      <trkpt lat="47.34752" lon="-1.60015">
        <ele>97.5</ele>
        <time>2014-05-18T06:57:11Z</time>
      </trkpt>
      <trkpt lat="47.34747" lon="-1.60027">
        <ele>99</ele>
        <time>2014-05-18T06:57:25Z</time>
      </trkpt>
      <trkpt lat="47.34744" lon="-1.60034">
        <ele>97.5</ele>
        <time>2014-05-18T06:57:33Z</time>
      </trkpt>
      <trkpt lat="47.34741" lon="-1.6004">
        <ele>97.5</ele>
        <time>2014-05-18T06:57:39Z</time>
      </trkpt>
      <trkpt lat="47.34738" lon="-1.60046">
        <ele>95.5</ele>
        <time>2014-05-18T06:57:43Z</time>
      </trkpt>
      <trkpt lat="47.34725" lon="-1.60041">
        <ele>90</ele>
        <time>2014-05-18T06:58:01Z</time>
      </trkpt>
      <trkpt lat="47.34727" lon="-1.60032">
        <ele>96.5</ele>
        <time>2014-05-18T06:58:11Z</time>
      </trkpt>
      <trkpt lat="47.34729" lon="-1.60025">
        <ele>97</ele>
        <time>2014-05-18T06:58:25Z</time>
      </trkpt>
      <trkpt lat="47.34731" lon="-1.60019">
        <ele>99</ele>
        <time>2014-05-18T06:58:29Z</time>
      </trkpt>
      <trkpt lat="47.34733" lon="-1.60012">
        <ele>98.5</ele>
        <time>2014-05-18T06:58:33Z</time>
      </trkpt>
      <trkpt lat="47.34733" lon="-1.60012">
        <ele>98.5</ele>
        <time>2014-05-18T06:58:55Z</time>
      </trkpt>
      <trkpt lat="47.34722" lon="-1.60015">
        <ele>102.5</ele>
        <time>2014-05-18T06:59:11Z</time>
      </trkpt>
      <trkpt lat="47.3472" lon="-1.6002">
        <ele>104</ele>
        <time>2014-05-18T06:59:23Z</time>
      </trkpt>
      <trkpt lat="47.34719" lon="-1.60028">
        <ele>104.5</ele>
        <time>2014-05-18T06:59:27Z</time>
      </trkpt>
      <trkpt lat="47.3472" lon="-1.60036">
        <ele>105</ele>
        <time>2014-05-18T06:59:29Z</time>
      </trkpt>
      <trkpt lat="47.3472" lon="-1.60044">
        <ele>106</ele>
        <time>2014-05-18T06:59:33Z</time>
      </trkpt>
      <trkpt lat="47.3472" lon="-1.60052">
        <ele>115.5</ele>
        <time>2014-05-18T06:59:39Z</time>
      </trkpt>
      <trkpt lat="47.34721" lon="-1.60071">
        <ele>114.5</ele>
        <time>2014-05-18T06:59:47Z</time>
      </trkpt>
      <trkpt lat="47.34722" lon="-1.60077">
        <ele>115</ele>
        <time>2014-05-18T06:59:49Z</time>
      </trkpt>
      <trkpt lat="47.34722" lon="-1.60086">
        <ele>117</ele>
        <time>2014-05-18T06:59:53Z</time>
      </trkpt>
      <trkpt lat="47.34722" lon="-1.60098">
        <ele>119.5</ele>
        <time>2014-05-18T06:59:57Z</time>
      </trkpt>
      <trkpt lat="47.34719" lon="-1.60108">
        <ele>120</ele>
        <time>2014-05-18T07:00:01Z</time>
      </trkpt>
      <trkpt lat="47.34716" lon="-1.60114">
        <ele>119.5</ele>
        <time>2014-05-18T07:00:03Z</time>
      </trkpt>
      <trkpt lat="47.34712" lon="-1.60133">
        <ele>121</ele>
        <time>2014-05-18T07:00:07Z</time>
      </trkpt>
      <trkpt lat="47.34712" lon="-1.60142">
        <ele>120.5</ele>
        <time>2014-05-18T07:00:09Z</time>
      </trkpt>
      <trkpt lat="47.34709" lon="-1.60148">
        <ele>120</ele>
        <time>2014-05-18T07:00:11Z</time>
      </trkpt>
      <trkpt lat="47.34702" lon="-1.60163">
        <ele>123.5</ele>
        <time>2014-05-18T07:00:17Z</time>
      </trkpt>
      <trkpt lat="47.34698" lon="-1.60185">
        <ele>125</ele>
        <time>2014-05-18T07:00:23Z</time>
      </trkpt>
      <trkpt lat="47.34693" lon="-1.60195">
        <ele>128</ele>
        <time>2014-05-18T07:00:25Z</time>
      </trkpt>
      <trkpt lat="47.34687" lon="-1.60207">
        <ele>126</ele>
        <time>2014-05-18T07:00:29Z</time>
      </trkpt>
      <trkpt lat="47.34685" lon="-1.60211">
        <ele>126</ele>
        <time>2014-05-18T07:00:31Z</time>
      </trkpt>
      <trkpt lat="47.3468" lon="-1.60225">
        <ele>124</ele>
        <time>2014-05-18T07:00:35Z</time>
      </trkpt>
      <trkpt lat="47.34677" lon="-1.60237">
        <ele>124.5</ele>
        <time>2014-05-18T07:00:39Z</time>
      </trkpt>
      <trkpt lat="47.34666" lon="-1.60253">
        <ele>125</ele>
        <time>2014-05-18T07:00:45Z</time>
      </trkpt>
      <trkpt lat="47.34661" lon="-1.60263">
        <ele>126</ele>
        <time>2014-05-18T07:00:51Z</time>
      </trkpt>
      <trkpt lat="47.34651" lon="-1.60274">
        <ele>129</ele>
        <time>2014-05-18T07:00:57Z</time>
      </trkpt>
      <trkpt lat="47.34644" lon="-1.60274">
        <ele>133.5</ele>
        <time>2014-05-18T07:01:01Z</time>
      </trkpt>
      <trkpt lat="47.3464" lon="-1.60275">
        <ele>135</ele>
        <time>2014-05-18T07:01:03Z</time>
      </trkpt>
      <trkpt lat="47.3463" lon="-1.60276">
        <ele>135.5</ele>
        <time>2014-05-18T07:01:07Z</time>
      </trkpt>
      <trkpt lat="47.34625" lon="-1.60277">
        <ele>134</ele>
        <time>2014-05-18T07:01:11Z</time>
      </trkpt>
      <trkpt lat="47.34619" lon="-1.60278">
        <ele>134.5</ele>
        <time>2014-05-18T07:01:19Z</time>
      </trkpt>
      <trkpt lat="47.34614" lon="-1.60273">
        <ele>136.5</ele>
        <time>2014-05-18T07:01:23Z</time>
      </trkpt>
      <trkpt lat="47.34614" lon="-1.60273">
        <ele>136.5</ele>
        <time>2014-05-18T07:01:49Z</time>
      </trkpt>
      <trkpt lat="47.34618" lon="-1.60267">
        <ele>143.5</ele>
        <time>2014-05-18T07:01:55Z</time>
      </trkpt>
      <trkpt lat="47.34621" lon="-1.60263">
        <ele>150.5</ele>
        <time>2014-05-18T07:02:01Z</time>
      </trkpt>
      <trkpt lat="47.34635" lon="-1.6024">
        <ele>158.5</ele>
        <time>2014-05-18T07:02:09Z</time>
      </trkpt>
      <trkpt lat="47.34634" lon="-1.6023">
        <ele>160.5</ele>
        <time>2014-05-18T07:02:13Z</time>
      </trkpt>
      <trkpt lat="47.34639" lon="-1.60212">
        <ele>161.5</ele>
        <time>2014-05-18T07:02:27Z</time>
      </trkpt>
      <trkpt lat="47.34649" lon="-1.60203">
        <ele>160</ele>
        <time>2014-05-18T07:02:35Z</time>
      </trkpt>
      <trkpt lat="47.34654" lon="-1.60196">
        <ele>159</ele>
        <time>2014-05-18T07:02:37Z</time>
      </trkpt>
      <trkpt lat="47.34657" lon="-1.6019">
        <ele>162</ele>
        <time>2014-05-18T07:02:39Z</time>
      </trkpt>
      <trkpt lat="47.34658" lon="-1.60182">
        <ele>163.5</ele>
        <time>2014-05-18T07:02:41Z</time>
      </trkpt>
      <trkpt lat="47.34669" lon="-1.60158">
        <ele>163</ele>
        <time>2014-05-18T07:02:55Z</time>
      </trkpt>
      <trkpt lat="47.34678" lon="-1.60139">
        <ele>156</ele>
        <time>2014-05-18T07:03:05Z</time>
      </trkpt>
      <trkpt lat="47.34681" lon="-1.60133">
        <ele>153.5</ele>
        <time>2014-05-18T07:03:07Z</time>
      </trkpt>
      <trkpt lat="47.34687" lon="-1.6012">
        <ele>149.5</ele>
        <time>2014-05-18T07:03:11Z</time>
      </trkpt>
      <trkpt lat="47.34676" lon="-1.60123">
        <ele>154.5</ele>
        <time>2014-05-18T07:03:33Z</time>
      </trkpt>
      <trkpt lat="47.3467" lon="-1.60126">
        <ele>154.5</ele>
        <time>2014-05-18T07:03:35Z</time>
      </trkpt>
      <trkpt lat="47.34666" lon="-1.60128">
        <ele>154.5</ele>
        <time>2014-05-18T07:03:37Z</time>
      </trkpt>
      <trkpt lat="47.34662" lon="-1.60115">
        <ele>151.5</ele>
        <time>2014-05-18T07:03:47Z</time>
      </trkpt>
      <trkpt lat="47.34659" lon="-1.6011">
        <ele>153</ele>
        <time>2014-05-18T07:03:51Z</time>
      </trkpt>
      <trkpt lat="47.34651" lon="-1.60108">
        <ele>161</ele>
        <time>2014-05-18T07:03:57Z</time>
      </trkpt>
      <trkpt lat="47.3464" lon="-1.60107">
        <ele>159.5</ele>
        <time>2014-05-18T07:04:05Z</time>
      </trkpt>
      <trkpt lat="47.34634" lon="-1.60118">
        <ele>154.5</ele>
        <time>2014-05-18T07:04:15Z</time>
      </trkpt>
      <trkpt lat="47.34624" lon="-1.6012">
        <ele>150</ele>
        <time>2014-05-18T07:04:17Z</time>
      </trkpt>
      <trkpt lat="47.34624" lon="-1.6012">
        <ele>150</ele>
        <time>2014-05-18T07:04:45Z</time>
      </trkpt>
      <trkpt lat="47.34615" lon="-1.60121">
        <ele>152</ele>
        <time>2014-05-18T07:04:47Z</time>
      </trkpt>
      <trkpt lat="47.34609" lon="-1.60116">
        <ele>148.5</ele>
        <time>2014-05-18T07:04:49Z</time>
      </trkpt>
      <trkpt lat="47.34596" lon="-1.60127">
        <ele>151</ele>
        <time>2014-05-18T07:04:55Z</time>
      </trkpt>
      <trkpt lat="47.34593" lon="-1.60141">
        <ele>146.5</ele>
        <time>2014-05-18T07:05:03Z</time>
      </trkpt>
      <trkpt lat="47.34593" lon="-1.60141">
        <ele>146.5</ele>
        <time>2014-05-18T07:05:35Z</time>
      </trkpt>
      <trkpt lat="47.34593" lon="-1.60141">
        <ele>146.5</ele>
        <time>2014-05-18T07:06:13Z</time>
      </trkpt>
      <trkpt lat="47.34596" lon="-1.60172">
        <ele>141.5</ele>
        <time>2014-05-18T07:06:17Z</time>
      </trkpt>
      <trkpt lat="47.34606" lon="-1.60167">
        <ele>151.5</ele>
        <time>2014-05-18T07:06:39Z</time>
      </trkpt>
      <trkpt lat="47.34614" lon="-1.60158">
        <ele>147</ele>
        <time>2014-05-18T07:06:43Z</time>
      </trkpt>
      <trkpt lat="47.34623" lon="-1.60164">
        <ele>143.5</ele>
        <time>2014-05-18T07:06:45Z</time>
      </trkpt>
      <trkpt lat="47.34602" lon="-1.60158">
        <ele>144</ele>
        <time>2014-05-18T07:06:53Z</time>
      </trkpt>
      <trkpt lat="47.34596" lon="-1.60172">
        <ele>147</ele>
        <time>2014-05-18T07:06:59Z</time>
      </trkpt>
      <trkpt lat="47.34594" lon="-1.60191">
        <ele>153</ele>
        <time>2014-05-18T07:07:05Z</time>
      </trkpt>
      <trkpt lat="47.346" lon="-1.60198">
        <ele>153.5</ele>
        <time>2014-05-18T07:07:07Z</time>
      </trkpt>
      <trkpt lat="47.34605" lon="-1.60207">
        <ele>154.5</ele>
        <time>2014-05-18T07:07:09Z</time>
      </trkpt>
      <trkpt lat="47.34609" lon="-1.60235">
        <ele>153.5</ele>
        <time>2014-05-18T07:07:13Z</time>
      </trkpt>
      <trkpt lat="47.34614" lon="-1.60256">
        <ele>153.5</ele>
        <time>2014-05-18T07:07:15Z</time>
      </trkpt>
      <trkpt lat="47.34613" lon="-1.6028">
        <ele>148</ele>
        <time>2014-05-18T07:07:23Z</time>
      </trkpt>
      <trkpt lat="47.34624" lon="-1.6029">
        <ele>150</ele>
        <time>2014-05-18T07:07:31Z</time>
      </trkpt>
      <trkpt lat="47.34634" lon="-1.60302">
        <ele>148.5</ele>
        <time>2014-05-18T07:07:41Z</time>
      </trkpt>
      <trkpt lat="47.34635" lon="-1.60313">
        <ele>149</ele>
        <time>2014-05-18T07:07:51Z</time>
      </trkpt>
      <trkpt lat="47.34635" lon="-1.60322">
        <ele>149</ele>
        <time>2014-05-18T07:07:55Z</time>
      </trkpt>
      <trkpt lat="47.34633" lon="-1.60339">
        <ele>158.5</ele>
        <time>2014-05-18T07:08:05Z</time>
      </trkpt>
      <trkpt lat="47.34634" lon="-1.6035">
        <ele>159</ele>
        <time>2014-05-18T07:08:07Z</time>
      </trkpt>
      <trkpt lat="47.3463" lon="-1.60362">
        <ele>157.5</ele>
        <time>2014-05-18T07:08:09Z</time>
      </trkpt>
      <trkpt lat="47.3463" lon="-1.60393">
        <ele>151.5</ele>
        <time>2014-05-18T07:08:17Z</time>
      </trkpt>
      <trkpt lat="47.34637" lon="-1.60407">
        <ele>150</ele>
        <time>2014-05-18T07:08:21Z</time>
      </trkpt>
      <trkpt lat="47.3464" lon="-1.60412">
        <ele>148</ele>
        <time>2014-05-18T07:08:23Z</time>
      </trkpt>
      <trkpt lat="47.34633" lon="-1.60434">
        <ele>142.5</ele>
        <time>2014-05-18T07:08:33Z</time>
      </trkpt>
      <trkpt lat="47.34633" lon="-1.60447">
        <ele>140</ele>
        <time>2014-05-18T07:08:39Z</time>
      </trkpt>
      <trkpt lat="47.34635" lon="-1.6046">
        <ele>139</ele>
        <time>2014-05-18T07:08:43Z</time>
      </trkpt>
      <trkpt lat="47.34641" lon="-1.60464">
        <ele>137</ele>
        <time>2014-05-18T07:08:45Z</time>
      </trkpt>
      <trkpt lat="47.34646" lon="-1.60483">
        <ele>135</ele>
        <time>2014-05-18T07:08:49Z</time>
      </trkpt>
      <trkpt lat="47.34647" lon="-1.60492">
        <ele>134.5</ele>
        <time>2014-05-18T07:08:51Z</time>
      </trkpt>
      <trkpt lat="47.34647" lon="-1.60499">
        <ele>135</ele>
        <time>2014-05-18T07:08:53Z</time>
      </trkpt>
      <trkpt lat="47.34652" lon="-1.60518">
        <ele>130.5</ele>
        <time>2014-05-18T07:08:59Z</time>
      </trkpt>
      <trkpt lat="47.34658" lon="-1.6053">
        <ele>127</ele>
        <time>2014-05-18T07:09:05Z</time>
      </trkpt>
      <trkpt lat="47.34662" lon="-1.60549">
        <ele>122</ele>
        <time>2014-05-18T07:09:11Z</time>
      </trkpt>
      <trkpt lat="47.34673" lon="-1.6056">
        <ele>116.5</ele>
        <time>2014-05-18T07:09:19Z</time>
      </trkpt>
      <trkpt lat="47.3468" lon="-1.60564">
        <ele>112</ele>
        <time>2014-05-18T07:09:25Z</time>
      </trkpt>
      <trkpt lat="47.34691" lon="-1.6057">
        <ele>109.5</ele>
        <time>2014-05-18T07:09:31Z</time>
      </trkpt>
      <trkpt lat="47.347" lon="-1.60576">
        <ele>108.5</ele>
        <time>2014-05-18T07:09:35Z</time>
      </trkpt>
      <trkpt lat="47.34705" lon="-1.60578">
        <ele>109.5</ele>
        <time>2014-05-18T07:09:37Z</time>
      </trkpt>
      <trkpt lat="47.34709" lon="-1.60584">
        <ele>109.5</ele>
        <time>2014-05-18T07:09:39Z</time>
      </trkpt>
      <trkpt lat="47.34716" lon="-1.60589">
        <ele>109.5</ele>
        <time>2014-05-18T07:09:45Z</time>
      </trkpt>
      <trkpt lat="47.34723" lon="-1.60601">
        <ele>110</ele>
        <time>2014-05-18T07:09:53Z</time>
      </trkpt>
      <trkpt lat="47.34732" lon="-1.60613">
        <ele>111.5</ele>
        <time>2014-05-18T07:10:03Z</time>
      </trkpt>
      <trkpt lat="47.34738" lon="-1.60615">
        <ele>112</ele>
        <time>2014-05-18T07:10:07Z</time>
      </trkpt>
      <trkpt lat="47.34749" lon="-1.6062">
        <ele>114</ele>
        <time>2014-05-18T07:10:11Z</time>
      </trkpt>
      <trkpt lat="47.34752" lon="-1.60622">
        <ele>114</ele>
        <time>2014-05-18T07:10:13Z</time>
      </trkpt>
      <trkpt lat="47.34754" lon="-1.60623">
        <ele>114.5</ele>
        <time>2014-05-18T07:10:15Z</time>
      </trkpt>
      <trkpt lat="47.34759" lon="-1.60631">
        <ele>113.5</ele>
        <time>2014-05-18T07:10:17Z</time>
      </trkpt>
      <trkpt lat="47.34775" lon="-1.60641">
        <ele>111.5</ele>
        <time>2014-05-18T07:10:23Z</time>
      </trkpt>
      <trkpt lat="47.34783" lon="-1.60647">
        <ele>113.5</ele>
        <time>2014-05-18T07:10:27Z</time>
      </trkpt>
      <trkpt lat="47.34786" lon="-1.60653">
        <ele>112.5</ele>
        <time>2014-05-18T07:10:29Z</time>
      </trkpt>
      <trkpt lat="47.34795" lon="-1.60668">
        <ele>110</ele>
        <time>2014-05-18T07:10:33Z</time>
      </trkpt>
      <trkpt lat="47.34799" lon="-1.60681">
        <ele>110</ele>
        <time>2014-05-18T07:10:35Z</time>
      </trkpt>
      <trkpt lat="47.34801" lon="-1.6069">
        <ele>110</ele>
        <time>2014-05-18T07:10:37Z</time>
      </trkpt>
      <trkpt lat="47.34799" lon="-1.60721">
        <ele>108</ele>
        <time>2014-05-18T07:10:43Z</time>
      </trkpt>
      <trkpt lat="47.34796" lon="-1.60741">
        <ele>110.5</ele>
        <time>2014-05-18T07:10:47Z</time>
      </trkpt>
      <trkpt lat="47.34795" lon="-1.60753">
        <ele>110.5</ele>
        <time>2014-05-18T07:10:49Z</time>
      </trkpt>
      <trkpt lat="47.34795" lon="-1.60778">
        <ele>109.5</ele>
        <time>2014-05-18T07:10:53Z</time>
      </trkpt>
      <trkpt lat="47.34789" lon="-1.60803">
        <ele>113.5</ele>
        <time>2014-05-18T07:10:59Z</time>
      </trkpt>
      <trkpt lat="47.34786" lon="-1.60827">
        <ele>115.5</ele>
        <time>2014-05-18T07:11:05Z</time>
      </trkpt>
      <trkpt lat="47.34788" lon="-1.60859">
        <ele>117</ele>
        <time>2014-05-18T07:11:11Z</time>
      </trkpt>
      <trkpt lat="47.34809" lon="-1.60919">
        <ele>115.5</ele>
        <time>2014-05-18T07:11:17Z</time>
      </trkpt>
      <trkpt lat="47.34818" lon="-1.60941">
        <ele>113</ele>
        <time>2014-05-18T07:11:21Z</time>
      </trkpt>
      <trkpt lat="47.3483" lon="-1.60957">
        <ele>112</ele>
        <time>2014-05-18T07:11:25Z</time>
      </trkpt>
      <trkpt lat="47.34842" lon="-1.60971">
        <ele>112</ele>
        <time>2014-05-18T07:11:29Z</time>
      </trkpt>
      <trkpt lat="47.34854" lon="-1.60985">
        <ele>109.5</ele>
        <time>2014-05-18T07:11:33Z</time>
      </trkpt>
      <trkpt lat="47.34862" lon="-1.60992">
        <ele>109.5</ele>
        <time>2014-05-18T07:11:35Z</time>
      </trkpt>
      <trkpt lat="47.34879" lon="-1.6101">
        <ele>110.5</ele>
        <time>2014-05-18T07:11:39Z</time>
      </trkpt>
      <trkpt lat="47.34897" lon="-1.61028">
        <ele>107.5</ele>
        <time>2014-05-18T07:11:43Z</time>
      </trkpt>
      <trkpt lat="47.34911" lon="-1.6104">
        <ele>106.5</ele>
        <time>2014-05-18T07:11:47Z</time>
      </trkpt>
      <trkpt lat="47.34926" lon="-1.61055">
        <ele>106</ele>
        <time>2014-05-18T07:11:51Z</time>
      </trkpt>
      <trkpt lat="47.34942" lon="-1.61068">
        <ele>107</ele>
        <time>2014-05-18T07:11:55Z</time>
      </trkpt>
      <trkpt lat="47.34941" lon="-1.61088">
        <ele>107.5</ele>
        <time>2014-05-18T07:12:01Z</time>
      </trkpt>
      <trkpt lat="47.34934" lon="-1.61112">
        <ele>106.5</ele>
        <time>2014-05-18T07:12:05Z</time>
      </trkpt>
      <trkpt lat="47.3493" lon="-1.61125">
        <ele>106</ele>
        <time>2014-05-18T07:12:07Z</time>
      </trkpt>
      <trkpt lat="47.34924" lon="-1.61149">
        <ele>107.5</ele>
        <time>2014-05-18T07:12:11Z</time>
      </trkpt>
      <trkpt lat="47.34918" lon="-1.61168">
        <ele>111</ele>
        <time>2014-05-18T07:12:15Z</time>
      </trkpt>
      <trkpt lat="47.34904" lon="-1.61199">
        <ele>114</ele>
        <time>2014-05-18T07:12:21Z</time>
      </trkpt>
      <trkpt lat="47.34896" lon="-1.61224">
        <ele>119.5</ele>
        <time>2014-05-18T07:12:25Z</time>
      </trkpt>
      <trkpt lat="47.34886" lon="-1.6125">
        <ele>122.5</ele>
        <time>2014-05-18T07:12:29Z</time>
      </trkpt>
      <trkpt lat="47.34878" lon="-1.61279">
        <ele>121</ele>
        <time>2014-05-18T07:12:33Z</time>
      </trkpt>
      <trkpt lat="47.34869" lon="-1.61307">
        <ele>122</ele>
        <time>2014-05-18T07:12:37Z</time>
      </trkpt>
      <trkpt lat="47.3486" lon="-1.61334">
        <ele>122.5</ele>
        <time>2014-05-18T07:12:41Z</time>
      </trkpt>
      <trkpt lat="47.34849" lon="-1.6136">
        <ele>121.5</ele>
        <time>2014-05-18T07:12:45Z</time>
      </trkpt>
      <trkpt lat="47.34838" lon="-1.61387">
        <ele>120.5</ele>
        <time>2014-05-18T07:12:49Z</time>
      </trkpt>
      <trkpt lat="47.34839" lon="-1.61421">
        <ele>118</ele>
        <time>2014-05-18T07:12:53Z</time>
      </trkpt>
      <trkpt lat="47.34838" lon="-1.61453">
        <ele>117</ele>
        <time>2014-05-18T07:12:57Z</time>
      </trkpt>
      <trkpt lat="47.34838" lon="-1.61482">
        <ele>116</ele>
        <time>2014-05-18T07:13:01Z</time>
      </trkpt>
      <trkpt lat="47.3484" lon="-1.61514">
        <ele>116.5</ele>
        <time>2014-05-18T07:13:05Z</time>
      </trkpt>
      <trkpt lat="47.34841" lon="-1.61546">
        <ele>115.5</ele>
        <time>2014-05-18T07:13:09Z</time>
      </trkpt>
      <trkpt lat="47.34842" lon="-1.6158">
        <ele>113.5</ele>
        <time>2014-05-18T07:13:13Z</time>
      </trkpt>
      <trkpt lat="47.34844" lon="-1.61611">
        <ele>111.5</ele>
        <time>2014-05-18T07:13:17Z</time>
      </trkpt>
      <trkpt lat="47.34848" lon="-1.61648">
        <ele>111.5</ele>
        <time>2014-05-18T07:13:21Z</time>
      </trkpt>
      <trkpt lat="47.3485" lon="-1.61679">
        <ele>111</ele>
        <time>2014-05-18T07:13:25Z</time>
      </trkpt>
      <trkpt lat="47.34851" lon="-1.61711">
        <ele>108.5</ele>
        <time>2014-05-18T07:13:29Z</time>
      </trkpt>
      <trkpt lat="47.34853" lon="-1.61743">
        <ele>108</ele>
        <time>2014-05-18T07:13:33Z</time>
      </trkpt>
      <trkpt lat="47.34856" lon="-1.61775">
        <ele>107</ele>
        <time>2014-05-18T07:13:37Z</time>
      </trkpt>
      <trkpt lat="47.34855" lon="-1.61799">
        <ele>106</ele>
        <time>2014-05-18T07:13:41Z</time>
      </trkpt>
      <trkpt lat="47.34857" lon="-1.61827">
        <ele>105.5</ele>
        <time>2014-05-18T07:13:45Z</time>
      </trkpt>
      <trkpt lat="47.3486" lon="-1.61854">
        <ele>105.5</ele>
        <time>2014-05-18T07:13:49Z</time>
      </trkpt>
      <trkpt lat="47.34862" lon="-1.61879">
        <ele>105.5</ele>
        <time>2014-05-18T07:13:53Z</time>
      </trkpt>
      <trkpt lat="47.34864" lon="-1.61902">
        <ele>108</ele>
        <time>2014-05-18T07:13:57Z</time>
      </trkpt>
      <trkpt lat="47.34866" lon="-1.61929">
        <ele>107.5</ele>
        <time>2014-05-18T07:14:01Z</time>
      </trkpt>
      <trkpt lat="47.34866" lon="-1.61951">
        <ele>109</ele>
        <time>2014-05-18T07:14:05Z</time>
      </trkpt>
      <trkpt lat="47.34867" lon="-1.6199">
        <ele>111</ele>
        <time>2014-05-18T07:14:11Z</time>
      </trkpt>
      <trkpt lat="47.34868" lon="-1.62012">
        <ele>111.5</ele>
        <time>2014-05-18T07:14:15Z</time>
      </trkpt>
      <trkpt lat="47.34869" lon="-1.62031">
        <ele>111</ele>
        <time>2014-05-18T07:14:19Z</time>
      </trkpt>
      <trkpt lat="47.34874" lon="-1.62038">
        <ele>111.5</ele>
        <time>2014-05-18T07:14:21Z</time>
      </trkpt>
      <trkpt lat="47.34888" lon="-1.62053">
        <ele>114</ele>
        <time>2014-05-18T07:14:25Z</time>
      </trkpt>
      <trkpt lat="47.34903" lon="-1.62066">
        <ele>114</ele>
        <time>2014-05-18T07:14:29Z</time>
      </trkpt>
      <trkpt lat="47.34917" lon="-1.62082">
        <ele>113.5</ele>
        <time>2014-05-18T07:14:33Z</time>
      </trkpt>
      <trkpt lat="47.34933" lon="-1.62097">
        <ele>113.5</ele>
        <time>2014-05-18T07:14:37Z</time>
      </trkpt>
      <trkpt lat="47.3495" lon="-1.6211">
        <ele>112.5</ele>
        <time>2014-05-18T07:14:41Z</time>
      </trkpt>
      <trkpt lat="47.34968" lon="-1.62117">
        <ele>111.5</ele>
        <time>2014-05-18T07:14:45Z</time>
      </trkpt>
      <trkpt lat="47.34989" lon="-1.62124">
        <ele>111</ele>
        <time>2014-05-18T07:14:49Z</time>
      </trkpt>
      <trkpt lat="47.35008" lon="-1.6213">
        <ele>110</ele>
        <time>2014-05-18T07:14:53Z</time>
      </trkpt>
      <trkpt lat="47.35022" lon="-1.62136">
        <ele>111</ele>
        <time>2014-05-18T07:14:57Z</time>
      </trkpt>
      <trkpt lat="47.35032" lon="-1.62142">
        <ele>110.5</ele>
        <time>2014-05-18T07:15:01Z</time>
      </trkpt>
      <trkpt lat="47.35044" lon="-1.62155">
        <ele>110</ele>
        <time>2014-05-18T07:15:05Z</time>
      </trkpt>
      <trkpt lat="47.35053" lon="-1.62167">
        <ele>110</ele>
        <time>2014-05-18T07:15:07Z</time>
      </trkpt>
      <trkpt lat="47.35065" lon="-1.6217">
        <ele>111.5</ele>
        <time>2014-05-18T07:15:11Z</time>
      </trkpt>
      <trkpt lat="47.35083" lon="-1.62163">
        <ele>110.5</ele>
        <time>2014-05-18T07:15:15Z</time>
      </trkpt>
      <trkpt lat="47.35098" lon="-1.62159">
        <ele>116</ele>
        <time>2014-05-18T07:15:19Z</time>
      </trkpt>
      <trkpt lat="47.35119" lon="-1.62151">
        <ele>115.5</ele>
        <time>2014-05-18T07:15:23Z</time>
      </trkpt>
      <trkpt lat="47.35138" lon="-1.62144">
        <ele>116</ele>
        <time>2014-05-18T07:15:27Z</time>
      </trkpt>
      <trkpt lat="47.35154" lon="-1.62145">
        <ele>113.5</ele>
        <time>2014-05-18T07:15:31Z</time>
      </trkpt>
      <trkpt lat="47.35162" lon="-1.62179">
        <ele>113</ele>
        <time>2014-05-18T07:15:35Z</time>
      </trkpt>
      <trkpt lat="47.35169" lon="-1.6221">
        <ele>111.5</ele>
        <time>2014-05-18T07:15:39Z</time>
      </trkpt>
      <trkpt lat="47.35175" lon="-1.6224">
        <ele>111.5</ele>
        <time>2014-05-18T07:15:43Z</time>
      </trkpt>
      <trkpt lat="47.35182" lon="-1.62268">
        <ele>113</ele>
        <time>2014-05-18T07:15:47Z</time>
      </trkpt>
      <trkpt lat="47.3518" lon="-1.62295">
        <ele>112.5</ele>
        <time>2014-05-18T07:15:51Z</time>
      </trkpt>
      <trkpt lat="47.35177" lon="-1.62322">
        <ele>113.5</ele>
        <time>2014-05-18T07:15:55Z</time>
      </trkpt>
      <trkpt lat="47.35171" lon="-1.62348">
        <ele>114.5</ele>
        <time>2014-05-18T07:15:59Z</time>
      </trkpt>
      <trkpt lat="47.35167" lon="-1.62374">
        <ele>115.5</ele>
        <time>2014-05-18T07:16:03Z</time>
      </trkpt>
      <trkpt lat="47.35159" lon="-1.62401">
        <ele>116.5</ele>
        <time>2014-05-18T07:16:07Z</time>
      </trkpt>
      <trkpt lat="47.35151" lon="-1.62427">
        <ele>116</ele>
        <time>2014-05-18T07:16:11Z</time>
      </trkpt>
      <trkpt lat="47.35144" lon="-1.62459">
        <ele>112.5</ele>
        <time>2014-05-18T07:16:15Z</time>
      </trkpt>
      <trkpt lat="47.35138" lon="-1.62487">
        <ele>112.5</ele>
        <time>2014-05-18T07:16:19Z</time>
      </trkpt>
      <trkpt lat="47.35138" lon="-1.62505">
        <ele>113.5</ele>
        <time>2014-05-18T07:16:23Z</time>
      </trkpt>
      <trkpt lat="47.35153" lon="-1.6251">
        <ele>119</ele>
        <time>2014-05-18T07:16:31Z</time>
      </trkpt>
      <trkpt lat="47.3516" lon="-1.6252">
        <ele>121</ele>
        <time>2014-05-18T07:16:35Z</time>
      </trkpt>
      <trkpt lat="47.35163" lon="-1.62528">
        <ele>121.5</ele>
        <time>2014-05-18T07:16:39Z</time>
      </trkpt>
      <trkpt lat="47.3516" lon="-1.62535">
        <ele>124.5</ele>
        <time>2014-05-18T07:16:47Z</time>
      </trkpt>
      <trkpt lat="47.35168" lon="-1.62556">
        <ele>125.5</ele>
        <time>2014-05-18T07:16:57Z</time>
      </trkpt>
      <trkpt lat="47.35174" lon="-1.62564">
        <ele>125.5</ele>
        <time>2014-05-18T07:16:59Z</time>
      </trkpt>
      <trkpt lat="47.35181" lon="-1.62559">
        <ele>131.5</ele>
        <time>2014-05-18T07:17:05Z</time>
      </trkpt>
      <trkpt lat="47.35186" lon="-1.62568">
        <ele>131.5</ele>
        <time>2014-05-18T07:17:13Z</time>
      </trkpt>
      <trkpt lat="47.35193" lon="-1.62566">
        <ele>134</ele>
        <time>2014-05-18T07:17:23Z</time>
      </trkpt>
      <trkpt lat="47.35197" lon="-1.62561">
        <ele>134</ele>
        <time>2014-05-18T07:17:25Z</time>
      </trkpt>
      <trkpt lat="47.35209" lon="-1.62551">
        <ele>129.5</ele>
        <time>2014-05-18T07:17:29Z</time>
      </trkpt>
      <trkpt lat="47.3521" lon="-1.62561">
        <ele>126.5</ele>
        <time>2014-05-18T07:17:39Z</time>
      </trkpt>
      <trkpt lat="47.35206" lon="-1.62565">
        <ele>130.5</ele>
        <time>2014-05-18T07:17:47Z</time>
      </trkpt>
      <trkpt lat="47.35202" lon="-1.62576">
        <ele>131</ele>
        <time>2014-05-18T07:17:53Z</time>
      </trkpt>
      <trkpt lat="47.35202" lon="-1.62596">
        <ele>133.5</ele>
        <time>2014-05-18T07:17:59Z</time>
      </trkpt>
      <trkpt lat="47.35196" lon="-1.62606">
        <ele>135.5</ele>
        <time>2014-05-18T07:18:03Z</time>
      </trkpt>
      <trkpt lat="47.35192" lon="-1.62611">
        <ele>136</ele>
        <time>2014-05-18T07:18:05Z</time>
      </trkpt>
      <trkpt lat="47.35189" lon="-1.62615">
        <ele>134.5</ele>
        <time>2014-05-18T07:18:07Z</time>
      </trkpt>
      <trkpt lat="47.35187" lon="-1.62622">
        <ele>132.5</ele>
        <time>2014-05-18T07:18:09Z</time>
      </trkpt>
      <trkpt lat="47.35184" lon="-1.62638">
        <ele>130.5</ele>
        <time>2014-05-18T07:18:13Z</time>
      </trkpt>
      <trkpt lat="47.35189" lon="-1.62644">
        <ele>131.5</ele>
        <time>2014-05-18T07:18:21Z</time>
      </trkpt>
      <trkpt lat="47.35198" lon="-1.62648">
        <ele>131.5</ele>
        <time>2014-05-18T07:18:31Z</time>
      </trkpt>
      <trkpt lat="47.35204" lon="-1.6265">
        <ele>132.5</ele>
        <time>2014-05-18T07:18:33Z</time>
      </trkpt>
      <trkpt lat="47.35212" lon="-1.62653">
        <ele>130.5</ele>
        <time>2014-05-18T07:18:37Z</time>
      </trkpt>
      <trkpt lat="47.35221" lon="-1.62651">
        <ele>127.5</ele>
        <time>2014-05-18T07:18:41Z</time>
      </trkpt>
      <trkpt lat="47.35227" lon="-1.62659">
        <ele>126.5</ele>
        <time>2014-05-18T07:18:55Z</time>
      </trkpt>
      <trkpt lat="47.35235" lon="-1.62666">
        <ele>126.5</ele>
        <time>2014-05-18T07:18:57Z</time>
      </trkpt>
      <trkpt lat="47.35244" lon="-1.62677">
        <ele>124.5</ele>
        <time>2014-05-18T07:19:03Z</time>
      </trkpt>
      <trkpt lat="47.3523" lon="-1.62678">
        <ele>124.5</ele>
        <time>2014-05-18T07:19:11Z</time>
      </trkpt>
      <trkpt lat="47.35223" lon="-1.62681">
        <ele>126</ele>
        <time>2014-05-18T07:19:17Z</time>
      </trkpt>
      <trkpt lat="47.35218" lon="-1.62684">
        <ele>131.5</ele>
        <time>2014-05-18T07:19:21Z</time>
      </trkpt>
      <trkpt lat="47.35209" lon="-1.6268">
        <ele>132.5</ele>
        <time>2014-05-18T07:19:27Z</time>
      </trkpt>
      <trkpt lat="47.35205" lon="-1.62678">
        <ele>132</ele>
        <time>2014-05-18T07:19:29Z</time>
      </trkpt>
      <trkpt lat="47.35197" lon="-1.62677">
        <ele>133</ele>
        <time>2014-05-18T07:19:33Z</time>
      </trkpt>
      <trkpt lat="47.35187" lon="-1.62675">
        <ele>131.5</ele>
        <time>2014-05-18T07:19:37Z</time>
      </trkpt>
      <trkpt lat="47.3518" lon="-1.62666">
        <ele>129</ele>
        <time>2014-05-18T07:19:41Z</time>
      </trkpt>
      <trkpt lat="47.35173" lon="-1.62663">
        <ele>126.5</ele>
        <time>2014-05-18T07:19:43Z</time>
      </trkpt>
      <trkpt lat="47.35162" lon="-1.62658">
        <ele>126.5</ele>
        <time>2014-05-18T07:19:49Z</time>
      </trkpt>
      <trkpt lat="47.35158" lon="-1.62656">
        <ele>128</ele>
        <time>2014-05-18T07:19:51Z</time>
      </trkpt>
      <trkpt lat="47.3515" lon="-1.62658">
        <ele>132</ele>
        <time>2014-05-18T07:19:55Z</time>
      </trkpt>
      <trkpt lat="47.35146" lon="-1.62658">
        <ele>133</ele>
        <time>2014-05-18T07:19:57Z</time>
      </trkpt>
      <trkpt lat="47.35142" lon="-1.62659">
        <ele>135</ele>
        <time>2014-05-18T07:19:59Z</time>
      </trkpt>
      <trkpt lat="47.35133" lon="-1.62659">
        <ele>140.5</ele>
        <time>2014-05-18T07:20:03Z</time>
      </trkpt>
      <trkpt lat="47.35126" lon="-1.62665">
        <ele>139.5</ele>
        <time>2014-05-18T07:20:05Z</time>
      </trkpt>
      <trkpt lat="47.35121" lon="-1.62679">
        <ele>137</ele>
        <time>2014-05-18T07:20:09Z</time>
      </trkpt>
      <trkpt lat="47.35112" lon="-1.62716">
        <ele>135</ele>
        <time>2014-05-18T07:20:15Z</time>
      </trkpt>
      <trkpt lat="47.35107" lon="-1.62735">
        <ele>131</ele>
        <time>2014-05-18T07:20:21Z</time>
      </trkpt>
      <trkpt lat="47.35087" lon="-1.6275">
        <ele>133.5</ele>
        <time>2014-05-18T07:20:31Z</time>
      </trkpt>
      <trkpt lat="47.35062" lon="-1.62754">
        <ele>133</ele>
        <time>2014-05-18T07:20:35Z</time>
      </trkpt>
      <trkpt lat="47.35051" lon="-1.62751">
        <ele>135</ele>
        <time>2014-05-18T07:20:37Z</time>
      </trkpt>
      <trkpt lat="47.35028" lon="-1.62743">
        <ele>137</ele>
        <time>2014-05-18T07:20:41Z</time>
      </trkpt>
      <trkpt lat="47.35008" lon="-1.62736">
        <ele>136</ele>
        <time>2014-05-18T07:20:45Z</time>
      </trkpt>
      <trkpt lat="47.34988" lon="-1.62727">
        <ele>136.5</ele>
        <time>2014-05-18T07:20:49Z</time>
      </trkpt>
      <trkpt lat="47.3497" lon="-1.62727">
        <ele>137.5</ele>
        <time>2014-05-18T07:20:53Z</time>
      </trkpt>
      <trkpt lat="47.34964" lon="-1.62733">
        <ele>131</ele>
        <time>2014-05-18T07:20:57Z</time>
      </trkpt>
      <trkpt lat="47.34943" lon="-1.62762">
        <ele>129</ele>
        <time>2014-05-18T07:21:05Z</time>
      </trkpt>
      <trkpt lat="47.34932" lon="-1.62779">
        <ele>129</ele>
        <time>2014-05-18T07:21:09Z</time>
      </trkpt>
      <trkpt lat="47.34919" lon="-1.62795">
        <ele>127.5</ele>
        <time>2014-05-18T07:21:13Z</time>
      </trkpt>
      <trkpt lat="47.34907" lon="-1.62813">
        <ele>127</ele>
        <time>2014-05-18T07:21:17Z</time>
      </trkpt>
      <trkpt lat="47.34897" lon="-1.62828">
        <ele>130</ele>
        <time>2014-05-18T07:21:21Z</time>
      </trkpt>
      <trkpt lat="47.34893" lon="-1.6284">
        <ele>136</ele>
        <time>2014-05-18T07:21:25Z</time>
      </trkpt>
      <trkpt lat="47.3489" lon="-1.62847">
        <ele>135.5</ele>
        <time>2014-05-18T07:21:27Z</time>
      </trkpt>
      <trkpt lat="47.34878" lon="-1.62862">
        <ele>133.5</ele>
        <time>2014-05-18T07:21:31Z</time>
      </trkpt>
      <trkpt lat="47.34874" lon="-1.62868">
        <ele>136.5</ele>
        <time>2014-05-18T07:21:33Z</time>
      </trkpt>
      <trkpt lat="47.34866" lon="-1.62887">
        <ele>137.5</ele>
        <time>2014-05-18T07:21:37Z</time>
      </trkpt>
      <trkpt lat="47.34855" lon="-1.62901">
        <ele>140.5</ele>
        <time>2014-05-18T07:21:41Z</time>
      </trkpt>
      <trkpt lat="47.34849" lon="-1.62909">
        <ele>141.5</ele>
        <time>2014-05-18T07:21:43Z</time>
      </trkpt>
      <trkpt lat="47.34835" lon="-1.62925">
        <ele>140.5</ele>
        <time>2014-05-18T07:21:47Z</time>
      </trkpt>
      <trkpt lat="47.34826" lon="-1.62938">
        <ele>142</ele>
        <time>2014-05-18T07:21:51Z</time>
      </trkpt>
      <trkpt lat="47.34813" lon="-1.62953">
        <ele>141</ele>
        <time>2014-05-18T07:21:55Z</time>
      </trkpt>
      <trkpt lat="47.34808" lon="-1.62961">
        <ele>141</ele>
        <time>2014-05-18T07:21:57Z</time>
      </trkpt>
      <trkpt lat="47.34797" lon="-1.62976">
        <ele>140.5</ele>
        <time>2014-05-18T07:22:01Z</time>
      </trkpt>
      <trkpt lat="47.34784" lon="-1.62991">
        <ele>138.5</ele>
        <time>2014-05-18T07:22:05Z</time>
      </trkpt>
      <trkpt lat="47.34774" lon="-1.63011">
        <ele>136</ele>
        <time>2014-05-18T07:22:09Z</time>
      </trkpt>
      <trkpt lat="47.34761" lon="-1.63028">
        <ele>135</ele>
        <time>2014-05-18T07:22:13Z</time>
      </trkpt>
      <trkpt lat="47.34749" lon="-1.63046">
        <ele>134</ele>
        <time>2014-05-18T07:22:17Z</time>
      </trkpt>
      <trkpt lat="47.34737" lon="-1.63065">
        <ele>132.5</ele>
        <time>2014-05-18T07:22:21Z</time>
      </trkpt>
      <trkpt lat="47.34721" lon="-1.63086">
        <ele>129</ele>
        <time>2014-05-18T07:22:25Z</time>
      </trkpt>
      <trkpt lat="47.34709" lon="-1.63105">
        <ele>127.5</ele>
        <time>2014-05-18T07:22:29Z</time>
      </trkpt>
      <trkpt lat="47.34696" lon="-1.63121">
        <ele>126</ele>
        <time>2014-05-18T07:22:33Z</time>
      </trkpt>
      <trkpt lat="47.34687" lon="-1.63136">
        <ele>128.5</ele>
        <time>2014-05-18T07:22:37Z</time>
      </trkpt>
      <trkpt lat="47.34675" lon="-1.63154">
        <ele>129</ele>
        <time>2014-05-18T07:22:41Z</time>
      </trkpt>
      <trkpt lat="47.34662" lon="-1.63172">
        <ele>130</ele>
        <time>2014-05-18T07:22:45Z</time>
      </trkpt>
      <trkpt lat="47.3465" lon="-1.63192">
        <ele>130.5</ele>
        <time>2014-05-18T07:22:49Z</time>
      </trkpt>
      <trkpt lat="47.34635" lon="-1.63214">
        <ele>129</ele>
        <time>2014-05-18T07:22:53Z</time>
      </trkpt>
      <trkpt lat="47.34621" lon="-1.63236">
        <ele>127.5</ele>
        <time>2014-05-18T07:22:57Z</time>
      </trkpt>
      <trkpt lat="47.34608" lon="-1.63255">
        <ele>126.5</ele>
        <time>2014-05-18T07:23:01Z</time>
      </trkpt>
      <trkpt lat="47.34596" lon="-1.63275">
        <ele>124.5</ele>
        <time>2014-05-18T07:23:05Z</time>
      </trkpt>
      <trkpt lat="47.34582" lon="-1.63293">
        <ele>123</ele>
        <time>2014-05-18T07:23:09Z</time>
      </trkpt>
      <trkpt lat="47.34569" lon="-1.63309">
        <ele>123.5</ele>
        <time>2014-05-18T07:23:13Z</time>
      </trkpt>
      <trkpt lat="47.34563" lon="-1.63319">
        <ele>123</ele>
        <time>2014-05-18T07:23:15Z</time>
      </trkpt>
      <trkpt lat="47.34544" lon="-1.6334">
        <ele>124.5</ele>
        <time>2014-05-18T07:23:21Z</time>
      </trkpt>
      <trkpt lat="47.34523" lon="-1.63351">
        <ele>125</ele>
        <time>2014-05-18T07:23:27Z</time>
      </trkpt>
      <trkpt lat="47.34508" lon="-1.63345">
        <ele>125</ele>
        <time>2014-05-18T07:23:31Z</time>
      </trkpt>
      <trkpt lat="47.34494" lon="-1.63335">
        <ele>125.5</ele>
        <time>2014-05-18T07:23:35Z</time>
      </trkpt>
      <trkpt lat="47.34478" lon="-1.63325">
        <ele>126</ele>
        <time>2014-05-18T07:23:39Z</time>
      </trkpt>
      <trkpt lat="47.3447" lon="-1.6332">
        <ele>126</ele>
        <time>2014-05-18T07:23:41Z</time>
      </trkpt>
      <trkpt lat="47.34453" lon="-1.63309">
        <ele>126.5</ele>
        <time>2014-05-18T07:23:45Z</time>
      </trkpt>
      <trkpt lat="47.34444" lon="-1.63304">
        <ele>125.5</ele>
        <time>2014-05-18T07:23:47Z</time>
      </trkpt>
      <trkpt lat="47.34425" lon="-1.63292">
        <ele>128.5</ele>
        <time>2014-05-18T07:23:51Z</time>
      </trkpt>
      <trkpt lat="47.34407" lon="-1.63275">
        <ele>128</ele>
        <time>2014-05-18T07:23:55Z</time>
      </trkpt>
      <trkpt lat="47.34387" lon="-1.63264">
        <ele>131.5</ele>
        <time>2014-05-18T07:23:59Z</time>
      </trkpt>
      <trkpt lat="47.34369" lon="-1.63247">
        <ele>132</ele>
        <time>2014-05-18T07:24:03Z</time>
      </trkpt>
      <trkpt lat="47.34352" lon="-1.6323">
        <ele>132</ele>
        <time>2014-05-18T07:24:07Z</time>
      </trkpt>
      <trkpt lat="47.34334" lon="-1.63215">
        <ele>130.5</ele>
        <time>2014-05-18T07:24:11Z</time>
      </trkpt>
      <trkpt lat="47.34314" lon="-1.63197">
        <ele>131</ele>
        <time>2014-05-18T07:24:15Z</time>
      </trkpt>
      <trkpt lat="47.34298" lon="-1.6318">
        <ele>128</ele>
        <time>2014-05-18T07:24:19Z</time>
      </trkpt>
      <trkpt lat="47.34285" lon="-1.63166">
        <ele>126</ele>
        <time>2014-05-18T07:24:23Z</time>
      </trkpt>
      <trkpt lat="47.34269" lon="-1.63154">
        <ele>125</ele>
        <time>2014-05-18T07:24:27Z</time>
      </trkpt>
      <trkpt lat="47.3425" lon="-1.63146">
        <ele>124.5</ele>
        <time>2014-05-18T07:24:31Z</time>
      </trkpt>
      <trkpt lat="47.34232" lon="-1.63142">
        <ele>124.5</ele>
        <time>2014-05-18T07:24:35Z</time>
      </trkpt>
      <trkpt lat="47.34213" lon="-1.63139">
        <ele>126</ele>
        <time>2014-05-18T07:24:39Z</time>
      </trkpt>
      <trkpt lat="47.34196" lon="-1.63136">
        <ele>127.5</ele>
        <time>2014-05-18T07:24:43Z</time>
      </trkpt>
      <trkpt lat="47.34178" lon="-1.63133">
        <ele>130.5</ele>
        <time>2014-05-18T07:24:47Z</time>
      </trkpt>
      <trkpt lat="47.34163" lon="-1.63131">
        <ele>136</ele>
        <time>2014-05-18T07:24:51Z</time>
      </trkpt>
      <trkpt lat="47.34145" lon="-1.63129">
        <ele>135.5</ele>
        <time>2014-05-18T07:24:55Z</time>
      </trkpt>
      <trkpt lat="47.34135" lon="-1.63125">
        <ele>134</ele>
        <time>2014-05-18T07:24:57Z</time>
      </trkpt>
      <trkpt lat="47.34116" lon="-1.63114">
        <ele>130</ele>
        <time>2014-05-18T07:25:01Z</time>
      </trkpt>
      <trkpt lat="47.34098" lon="-1.63102">
        <ele>129</ele>
        <time>2014-05-18T07:25:05Z</time>
      </trkpt>
      <trkpt lat="47.3408" lon="-1.6309">
        <ele>127.5</ele>
        <time>2014-05-18T07:25:09Z</time>
      </trkpt>
      <trkpt lat="47.34063" lon="-1.63081">
        <ele>126.5</ele>
        <time>2014-05-18T07:25:13Z</time>
      </trkpt>
      <trkpt lat="47.34047" lon="-1.63072">
        <ele>127</ele>
        <time>2014-05-18T07:25:17Z</time>
      </trkpt>
      <trkpt lat="47.34031" lon="-1.63065">
        <ele>127.5</ele>
        <time>2014-05-18T07:25:21Z</time>
      </trkpt>
      <trkpt lat="47.34014" lon="-1.63054">
        <ele>127.5</ele>
        <time>2014-05-18T07:25:25Z</time>
      </trkpt>
      <trkpt lat="47.34001" lon="-1.63044">
        <ele>127.5</ele>
        <time>2014-05-18T07:25:29Z</time>
      </trkpt>
      <trkpt lat="47.34004" lon="-1.63023">
        <ele>128</ele>
        <time>2014-05-18T07:25:33Z</time>
      </trkpt>
      <trkpt lat="47.34009" lon="-1.63012">
        <ele>127.5</ele>
        <time>2014-05-18T07:25:35Z</time>
      </trkpt>
      <trkpt lat="47.34017" lon="-1.6299">
        <ele>126</ele>
        <time>2014-05-18T07:25:39Z</time>
      </trkpt>
      <trkpt lat="47.3402" lon="-1.62979">
        <ele>125</ele>
        <time>2014-05-18T07:25:41Z</time>
      </trkpt>
      <trkpt lat="47.34026" lon="-1.62955">
        <ele>123</ele>
        <time>2014-05-18T07:25:45Z</time>
      </trkpt>
      <trkpt lat="47.34028" lon="-1.62933">
        <ele>120</ele>
        <time>2014-05-18T07:25:49Z</time>
      </trkpt>
      <trkpt lat="47.34017" lon="-1.62915">
        <ele>123.5</ele>
        <time>2014-05-18T07:25:53Z</time>
      </trkpt>
      <trkpt lat="47.34006" lon="-1.62894">
        <ele>123</ele>
        <time>2014-05-18T07:25:57Z</time>
      </trkpt>
      <trkpt lat="47.33992" lon="-1.62876">
        <ele>126</ele>
        <time>2014-05-18T07:26:01Z</time>
      </trkpt>
      <trkpt lat="47.33981" lon="-1.62854">
        <ele>128.5</ele>
        <time>2014-05-18T07:26:05Z</time>
      </trkpt>
      <trkpt lat="47.33969" lon="-1.62833">
        <ele>127.5</ele>
        <time>2014-05-18T07:26:09Z</time>
      </trkpt>
      <trkpt lat="47.33959" lon="-1.62813">
        <ele>131.5</ele>
        <time>2014-05-18T07:26:13Z</time>
      </trkpt>
      <trkpt lat="47.3395" lon="-1.62793">
        <ele>131</ele>
        <time>2014-05-18T07:26:17Z</time>
      </trkpt>
      <trkpt lat="47.33937" lon="-1.62771">
        <ele>131</ele>
        <time>2014-05-18T07:26:21Z</time>
      </trkpt>
      <trkpt lat="47.3393" lon="-1.62761">
        <ele>130</ele>
        <time>2014-05-18T07:26:23Z</time>
      </trkpt>
      <trkpt lat="47.33916" lon="-1.62742">
        <ele>132.5</ele>
        <time>2014-05-18T07:26:27Z</time>
      </trkpt>
      <trkpt lat="47.33902" lon="-1.62721">
        <ele>131.5</ele>
        <time>2014-05-18T07:26:31Z</time>
      </trkpt>
      <trkpt lat="47.33888" lon="-1.62698">
        <ele>131.5</ele>
        <time>2014-05-18T07:26:35Z</time>
      </trkpt>
      <trkpt lat="47.33872" lon="-1.62673">
        <ele>131</ele>
        <time>2014-05-18T07:26:39Z</time>
      </trkpt>
      <trkpt lat="47.33857" lon="-1.62647">
        <ele>133.5</ele>
        <time>2014-05-18T07:26:43Z</time>
      </trkpt>
      <trkpt lat="47.33841" lon="-1.62619">
        <ele>129</ele>
        <time>2014-05-18T07:26:47Z</time>
      </trkpt>
      <trkpt lat="47.33826" lon="-1.62597">
        <ele>128</ele>
        <time>2014-05-18T07:26:51Z</time>
      </trkpt>
      <trkpt lat="47.33814" lon="-1.62573">
        <ele>126.5</ele>
        <time>2014-05-18T07:26:55Z</time>
      </trkpt>
      <trkpt lat="47.33796" lon="-1.62555">
        <ele>125.5</ele>
        <time>2014-05-18T07:26:59Z</time>
      </trkpt>
      <trkpt lat="47.33778" lon="-1.62543">
        <ele>124.5</ele>
        <time>2014-05-18T07:27:03Z</time>
      </trkpt>
      <trkpt lat="47.33755" lon="-1.62544">
        <ele>124</ele>
        <time>2014-05-18T07:27:07Z</time>
      </trkpt>
      <trkpt lat="47.33734" lon="-1.62551">
        <ele>123</ele>
        <time>2014-05-18T07:27:11Z</time>
      </trkpt>
      <trkpt lat="47.33711" lon="-1.62557">
        <ele>123</ele>
        <time>2014-05-18T07:27:15Z</time>
      </trkpt>
      <trkpt lat="47.33687" lon="-1.62566">
        <ele>124</ele>
        <time>2014-05-18T07:27:19Z</time>
      </trkpt>
      <trkpt lat="47.33664" lon="-1.62576">
        <ele>125</ele>
        <time>2014-05-18T07:27:23Z</time>
      </trkpt>
      <trkpt lat="47.33642" lon="-1.62583">
        <ele>127.5</ele>
        <time>2014-05-18T07:27:27Z</time>
      </trkpt>
      <trkpt lat="47.33621" lon="-1.6259">
        <ele>129.5</ele>
        <time>2014-05-18T07:27:31Z</time>
      </trkpt>
      <trkpt lat="47.33599" lon="-1.626">
        <ele>130</ele>
        <time>2014-05-18T07:27:35Z</time>
      </trkpt>
      <trkpt lat="47.33578" lon="-1.62611">
        <ele>129.5</ele>
        <time>2014-05-18T07:27:39Z</time>
      </trkpt>
      <trkpt lat="47.33557" lon="-1.62623">
        <ele>130.5</ele>
        <time>2014-05-18T07:27:43Z</time>
      </trkpt>
      <trkpt lat="47.33539" lon="-1.62631">
        <ele>131</ele>
        <time>2014-05-18T07:27:47Z</time>
      </trkpt>
      <trkpt lat="47.33518" lon="-1.62637">
        <ele>132</ele>
        <time>2014-05-18T07:27:51Z</time>
      </trkpt>
      <trkpt lat="47.33498" lon="-1.62645">
        <ele>133</ele>
        <time>2014-05-18T07:27:55Z</time>
      </trkpt>
      <trkpt lat="47.3348" lon="-1.62653">
        <ele>133</ele>
        <time>2014-05-18T07:27:59Z</time>
      </trkpt>
      <trkpt lat="47.33461" lon="-1.62658">
        <ele>134.5</ele>
        <time>2014-05-18T07:28:03Z</time>
      </trkpt>
      <trkpt lat="47.33444" lon="-1.62665">
        <ele>135</ele>
        <time>2014-05-18T07:28:07Z</time>
      </trkpt>
      <trkpt lat="47.33425" lon="-1.62676">
        <ele>135.5</ele>
        <time>2014-05-18T07:28:11Z</time>
      </trkpt>
      <trkpt lat="47.33406" lon="-1.62687">
        <ele>135</ele>
        <time>2014-05-18T07:28:15Z</time>
      </trkpt>
      <trkpt lat="47.33393" lon="-1.62693">
        <ele>131</ele>
        <time>2014-05-18T07:28:19Z</time>
      </trkpt>
      <trkpt lat="47.33376" lon="-1.6271">
        <ele>129</ele>
        <time>2014-05-18T07:28:23Z</time>
      </trkpt>
      <trkpt lat="47.33361" lon="-1.62735">
        <ele>127.5</ele>
        <time>2014-05-18T07:28:27Z</time>
      </trkpt>
      <trkpt lat="47.33347" lon="-1.62755">
        <ele>126.5</ele>
        <time>2014-05-18T07:28:31Z</time>
      </trkpt>
      <trkpt lat="47.33333" lon="-1.62771">
        <ele>125.5</ele>
        <time>2014-05-18T07:28:35Z</time>
      </trkpt>
      <trkpt lat="47.33317" lon="-1.62777">
        <ele>125</ele>
        <time>2014-05-18T07:28:39Z</time>
      </trkpt>
      <trkpt lat="47.33308" lon="-1.62773">
        <ele>124</ele>
        <time>2014-05-18T07:28:41Z</time>
      </trkpt>
      <trkpt lat="47.3329" lon="-1.62765">
        <ele>122.5</ele>
        <time>2014-05-18T07:28:45Z</time>
      </trkpt>
      <trkpt lat="47.33271" lon="-1.62756">
        <ele>122.5</ele>
        <time>2014-05-18T07:28:49Z</time>
      </trkpt>
      <trkpt lat="47.33251" lon="-1.62751">
        <ele>122.5</ele>
        <time>2014-05-18T07:28:53Z</time>
      </trkpt>
      <trkpt lat="47.3323" lon="-1.62745">
        <ele>122.5</ele>
        <time>2014-05-18T07:28:57Z</time>
      </trkpt>
      <trkpt lat="47.33206" lon="-1.62746">
        <ele>123.5</ele>
        <time>2014-05-18T07:29:01Z</time>
      </trkpt>
      <trkpt lat="47.33186" lon="-1.62759">
        <ele>122.5</ele>
        <time>2014-05-18T07:29:05Z</time>
      </trkpt>
      <trkpt lat="47.33166" lon="-1.62776">
        <ele>122</ele>
        <time>2014-05-18T07:29:09Z</time>
      </trkpt>
      <trkpt lat="47.33144" lon="-1.62783">
        <ele>120</ele>
        <time>2014-05-18T07:29:13Z</time>
      </trkpt>
      <trkpt lat="47.33126" lon="-1.62777">
        <ele>119.5</ele>
        <time>2014-05-18T07:29:17Z</time>
      </trkpt>
      <trkpt lat="47.33121" lon="-1.62751">
        <ele>118</ele>
        <time>2014-05-18T07:29:21Z</time>
      </trkpt>
      <trkpt lat="47.33117" lon="-1.62721">
        <ele>117.5</ele>
        <time>2014-05-18T07:29:25Z</time>
      </trkpt>
      <trkpt lat="47.33113" lon="-1.62691">
        <ele>117.5</ele>
        <time>2014-05-18T07:29:29Z</time>
      </trkpt>
      <trkpt lat="47.33108" lon="-1.62659">
        <ele>116</ele>
        <time>2014-05-18T07:29:33Z</time>
      </trkpt>
      <trkpt lat="47.33104" lon="-1.62627">
        <ele>116</ele>
        <time>2014-05-18T07:29:37Z</time>
      </trkpt>
      <trkpt lat="47.33097" lon="-1.62595">
        <ele>116</ele>
        <time>2014-05-18T07:29:41Z</time>
      </trkpt>
      <trkpt lat="47.33088" lon="-1.62563">
        <ele>116.5</ele>
        <time>2014-05-18T07:29:45Z</time>
      </trkpt>
      <trkpt lat="47.33078" lon="-1.62533">
        <ele>117</ele>
        <time>2014-05-18T07:29:49Z</time>
      </trkpt>
      <trkpt lat="47.33071" lon="-1.62503">
        <ele>118</ele>
        <time>2014-05-18T07:29:53Z</time>
      </trkpt>
      <trkpt lat="47.33052" lon="-1.62496">
        <ele>119</ele>
        <time>2014-05-18T07:29:57Z</time>
      </trkpt>
      <trkpt lat="47.33026" lon="-1.62499">
        <ele>119.5</ele>
        <time>2014-05-18T07:30:01Z</time>
      </trkpt>
      <trkpt lat="47.33003" lon="-1.62497">
        <ele>119</ele>
        <time>2014-05-18T07:30:05Z</time>
      </trkpt>
      <trkpt lat="47.32982" lon="-1.6249">
        <ele>118.5</ele>
        <time>2014-05-18T07:30:09Z</time>
      </trkpt>
      <trkpt lat="47.3296" lon="-1.62481">
        <ele>118.5</ele>
        <time>2014-05-18T07:30:13Z</time>
      </trkpt>
      <trkpt lat="47.32938" lon="-1.62467">
        <ele>118.5</ele>
        <time>2014-05-18T07:30:17Z</time>
      </trkpt>
      <trkpt lat="47.32918" lon="-1.62452">
        <ele>118.5</ele>
        <time>2014-05-18T07:30:21Z</time>
      </trkpt>
      <trkpt lat="47.32894" lon="-1.6244">
        <ele>118</ele>
        <time>2014-05-18T07:30:25Z</time>
      </trkpt>
      <trkpt lat="47.32879" lon="-1.62417">
        <ele>117</ele>
        <time>2014-05-18T07:30:29Z</time>
      </trkpt>
      <trkpt lat="47.32873" lon="-1.62389">
        <ele>117.5</ele>
        <time>2014-05-18T07:30:33Z</time>
      </trkpt>
      <trkpt lat="47.32859" lon="-1.62371">
        <ele>118.5</ele>
        <time>2014-05-18T07:30:37Z</time>
      </trkpt>
      <trkpt lat="47.32838" lon="-1.62381">
        <ele>118.5</ele>
        <time>2014-05-18T07:30:41Z</time>
      </trkpt>
      <trkpt lat="47.32819" lon="-1.62388">
        <ele>118.5</ele>
        <time>2014-05-18T07:30:45Z</time>
      </trkpt>
      <trkpt lat="47.32797" lon="-1.62403">
        <ele>119</ele>
        <time>2014-05-18T07:30:49Z</time>
      </trkpt>
      <trkpt lat="47.32776" lon="-1.62421">
        <ele>117.5</ele>
        <time>2014-05-18T07:30:53Z</time>
      </trkpt>
      <trkpt lat="47.32751" lon="-1.62424">
        <ele>117.5</ele>
        <time>2014-05-18T07:30:57Z</time>
      </trkpt>
      <trkpt lat="47.32727" lon="-1.62431">
        <ele>117</ele>
        <time>2014-05-18T07:31:01Z</time>
      </trkpt>
      <trkpt lat="47.32701" lon="-1.62436">
        <ele>117</ele>
        <time>2014-05-18T07:31:05Z</time>
      </trkpt>
      <trkpt lat="47.32675" lon="-1.62439">
        <ele>119.5</ele>
        <time>2014-05-18T07:31:09Z</time>
      </trkpt>
      <trkpt lat="47.32648" lon="-1.62437">
        <ele>120</ele>
        <time>2014-05-18T07:31:13Z</time>
      </trkpt>
      <trkpt lat="47.32622" lon="-1.62436">
        <ele>120.5</ele>
        <time>2014-05-18T07:31:17Z</time>
      </trkpt>
      <trkpt lat="47.32596" lon="-1.62433">
        <ele>121</ele>
        <time>2014-05-18T07:31:21Z</time>
      </trkpt>
      <trkpt lat="47.32571" lon="-1.62427">
        <ele>121</ele>
        <time>2014-05-18T07:31:25Z</time>
      </trkpt>
      <trkpt lat="47.32548" lon="-1.62425">
        <ele>120.5</ele>
        <time>2014-05-18T07:31:29Z</time>
      </trkpt>
      <trkpt lat="47.32528" lon="-1.62413">
        <ele>119.5</ele>
        <time>2014-05-18T07:31:33Z</time>
      </trkpt>
      <trkpt lat="47.32511" lon="-1.62391">
        <ele>119</ele>
        <time>2014-05-18T07:31:37Z</time>
      </trkpt>
      <trkpt lat="47.32497" lon="-1.6236">
        <ele>120</ele>
        <time>2014-05-18T07:31:41Z</time>
      </trkpt>
      <trkpt lat="47.32479" lon="-1.62334">
        <ele>114.5</ele>
        <time>2014-05-18T07:31:45Z</time>
      </trkpt>
      <trkpt lat="47.32463" lon="-1.62306">
        <ele>112</ele>
        <time>2014-05-18T07:31:49Z</time>
      </trkpt>
      <trkpt lat="47.32443" lon="-1.62279">
        <ele>114</ele>
        <time>2014-05-18T07:31:53Z</time>
      </trkpt>
      <trkpt lat="47.32424" lon="-1.62255">
        <ele>118.5</ele>
        <time>2014-05-18T07:31:57Z</time>
      </trkpt>
      <trkpt lat="47.3241" lon="-1.62232">
        <ele>122</ele>
        <time>2014-05-18T07:32:01Z</time>
      </trkpt>
      <trkpt lat="47.32394" lon="-1.62211">
        <ele>118</ele>
        <time>2014-05-18T07:32:05Z</time>
      </trkpt>
      <trkpt lat="47.32384" lon="-1.62188">
        <ele>120.5</ele>
        <time>2014-05-18T07:32:09Z</time>
      </trkpt>
      <trkpt lat="47.3238" lon="-1.62163">
        <ele>121</ele>
        <time>2014-05-18T07:32:13Z</time>
      </trkpt>
      <trkpt lat="47.32382" lon="-1.62138">
        <ele>119</ele>
        <time>2014-05-18T07:32:17Z</time>
      </trkpt>
      <trkpt lat="47.32382" lon="-1.62106">
        <ele>117</ele>
        <time>2014-05-18T07:32:23Z</time>
      </trkpt>
      <trkpt lat="47.32397" lon="-1.62086">
        <ele>114</ele>
        <time>2014-05-18T07:32:27Z</time>
      </trkpt>
      <trkpt lat="47.32408" lon="-1.62067">
        <ele>112</ele>
        <time>2014-05-18T07:32:31Z</time>
      </trkpt>
      <trkpt lat="47.32408" lon="-1.6205">
        <ele>110</ele>
        <time>2014-05-18T07:32:35Z</time>
      </trkpt>
      <trkpt lat="47.32404" lon="-1.62044">
        <ele>111</ele>
        <time>2014-05-18T07:32:43Z</time>
      </trkpt>
      <trkpt lat="47.32384" lon="-1.62044">
        <ele>111.5</ele>
        <time>2014-05-18T07:32:49Z</time>
      </trkpt>
      <trkpt lat="47.32373" lon="-1.6204">
        <ele>111.5</ele>
        <time>2014-05-18T07:32:51Z</time>
      </trkpt>
      <trkpt lat="47.32361" lon="-1.62036">
        <ele>111</ele>
        <time>2014-05-18T07:32:53Z</time>
      </trkpt>
      <trkpt lat="47.32346" lon="-1.62033">
        <ele>109.5</ele>
        <time>2014-05-18T07:32:57Z</time>
      </trkpt>
      <trkpt lat="47.32336" lon="-1.62026">
        <ele>116</ele>
        <time>2014-05-18T07:33:01Z</time>
      </trkpt>
      <trkpt lat="47.32335" lon="-1.62007">
        <ele>113</ele>
        <time>2014-05-18T07:33:05Z</time>
      </trkpt>
      <trkpt lat="47.32337" lon="-1.61996">
        <ele>111.5</ele>
        <time>2014-05-18T07:33:07Z</time>
      </trkpt>
      <trkpt lat="47.32341" lon="-1.6198">
        <ele>109.5</ele>
        <time>2014-05-18T07:33:11Z</time>
      </trkpt>
      <trkpt lat="47.32343" lon="-1.61974">
        <ele>107.5</ele>
        <time>2014-05-18T07:33:15Z</time>
      </trkpt>
      <trkpt lat="47.32356" lon="-1.61987">
        <ele>109.5</ele>
        <time>2014-05-18T07:33:23Z</time>
      </trkpt>
      <trkpt lat="47.32362" lon="-1.61987">
        <ele>106</ele>
        <time>2014-05-18T07:33:25Z</time>
      </trkpt>
      <trkpt lat="47.32371" lon="-1.61987">
        <ele>108</ele>
        <time>2014-05-18T07:33:27Z</time>
      </trkpt>
      <trkpt lat="47.32397" lon="-1.61995">
        <ele>103</ele>
        <time>2014-05-18T07:33:33Z</time>
      </trkpt>
      <trkpt lat="47.32409" lon="-1.61997">
        <ele>106.5</ele>
        <time>2014-05-18T07:33:37Z</time>
      </trkpt>
      <trkpt lat="47.32421" lon="-1.61999">
        <ele>106</ele>
        <time>2014-05-18T07:33:41Z</time>
      </trkpt>
      <trkpt lat="47.32447" lon="-1.62009">
        <ele>102.5</ele>
        <time>2014-05-18T07:33:47Z</time>
      </trkpt>
      <trkpt lat="47.3246" lon="-1.62009">
        <ele>93</ele>
        <time>2014-05-18T07:33:51Z</time>
      </trkpt>
      <trkpt lat="47.32474" lon="-1.62011">
        <ele>88.5</ele>
        <time>2014-05-18T07:33:55Z</time>
      </trkpt>
      <trkpt lat="47.32493" lon="-1.62011">
        <ele>93</ele>
        <time>2014-05-18T07:34:01Z</time>
      </trkpt>
      <trkpt lat="47.32493" lon="-1.62011">
        <ele>93</ele>
        <time>2014-05-18T07:34:11Z</time>
      </trkpt>
      <trkpt lat="47.32489" lon="-1.62">
        <ele>101</ele>
        <time>2014-05-18T07:34:13Z</time>
      </trkpt>
      <trkpt lat="47.32488" lon="-1.61995">
        <ele>103</ele>
        <time>2014-05-18T07:34:15Z</time>
      </trkpt>
      <trkpt lat="47.32482" lon="-1.61984">
        <ele>107</ele>
        <time>2014-05-18T07:34:21Z</time>
      </trkpt>
      <trkpt lat="47.32475" lon="-1.61983">
        <ele>112</ele>
        <time>2014-05-18T07:34:27Z</time>
      </trkpt>
      <trkpt lat="47.3247" lon="-1.61983">
        <ele>115</ele>
        <time>2014-05-18T07:34:33Z</time>
      </trkpt>
      <trkpt lat="47.32463" lon="-1.6199">
        <ele>116.5</ele>
        <time>2014-05-18T07:34:41Z</time>
      </trkpt>
      <trkpt lat="47.32459" lon="-1.61993">
        <ele>116</ele>
        <time>2014-05-18T07:34:43Z</time>
      </trkpt>
      <trkpt lat="47.32452" lon="-1.61994">
        <ele>120.5</ele>
        <time>2014-05-18T07:34:47Z</time>
      </trkpt>
      <trkpt lat="47.32448" lon="-1.6199">
        <ele>119.5</ele>
        <time>2014-05-18T07:34:53Z</time>
      </trkpt>
      <trkpt lat="47.32438" lon="-1.61985">
        <ele>126</ele>
        <time>2014-05-18T07:35:13Z</time>
      </trkpt>
      <trkpt lat="47.32433" lon="-1.61987">
        <ele>128</ele>
        <time>2014-05-18T07:35:17Z</time>
      </trkpt>
      <trkpt lat="47.32429" lon="-1.6199">
        <ele>129.5</ele>
        <time>2014-05-18T07:35:21Z</time>
      </trkpt>
      <trkpt lat="47.32423" lon="-1.61982">
        <ele>132.5</ele>
        <time>2014-05-18T07:35:25Z</time>
      </trkpt>
      <trkpt lat="47.32414" lon="-1.61984">
        <ele>135</ele>
        <time>2014-05-18T07:35:31Z</time>
      </trkpt>
      <trkpt lat="47.32408" lon="-1.61983">
        <ele>134.5</ele>
        <time>2014-05-18T07:35:37Z</time>
      </trkpt>
      <trkpt lat="47.32402" lon="-1.61987">
        <ele>133</ele>
        <time>2014-05-18T07:35:43Z</time>
      </trkpt>
      <trkpt lat="47.32404" lon="-1.61981">
        <ele>133.5</ele>
        <time>2014-05-18T07:35:55Z</time>
      </trkpt>
      <trkpt lat="47.32398" lon="-1.61965">
        <ele>130</ele>
        <time>2014-05-18T07:36:13Z</time>
      </trkpt>
      <trkpt lat="47.32387" lon="-1.61957">
        <ele>135.5</ele>
        <time>2014-05-18T07:36:19Z</time>
      </trkpt>
      <trkpt lat="47.32375" lon="-1.61947">
        <ele>137.5</ele>
        <time>2014-05-18T07:36:27Z</time>
      </trkpt>
      <trkpt lat="47.32375" lon="-1.61938">
        <ele>135.5</ele>
        <time>2014-05-18T07:36:31Z</time>
      </trkpt>
      <trkpt lat="47.32388" lon="-1.61936">
        <ele>137</ele>
        <time>2014-05-18T07:36:41Z</time>
      </trkpt>
      <trkpt lat="47.32391" lon="-1.61929">
        <ele>136</ele>
        <time>2014-05-18T07:36:49Z</time>
      </trkpt>
      <trkpt lat="47.32402" lon="-1.61933">
        <ele>140</ele>
        <time>2014-05-18T07:36:55Z</time>
      </trkpt>
      <trkpt lat="47.32413" lon="-1.61937">
        <ele>151</ele>
        <time>2014-05-18T07:37:17Z</time>
      </trkpt>
      <trkpt lat="47.3242" lon="-1.61938">
        <ele>148</ele>
        <time>2014-05-18T07:37:19Z</time>
      </trkpt>
      <trkpt lat="47.32432" lon="-1.61945">
        <ele>148.5</ele>
        <time>2014-05-18T07:37:23Z</time>
      </trkpt>
      <trkpt lat="47.32442" lon="-1.61953">
        <ele>150.5</ele>
        <time>2014-05-18T07:37:27Z</time>
      </trkpt>
      <trkpt lat="47.3245" lon="-1.61961">
        <ele>150</ele>
        <time>2014-05-18T07:37:31Z</time>
      </trkpt>
      <trkpt lat="47.32455" lon="-1.61958">
        <ele>149.5</ele>
        <time>2014-05-18T07:37:33Z</time>
      </trkpt>
      <trkpt lat="47.32464" lon="-1.6196">
        <ele>150</ele>
        <time>2014-05-18T07:37:39Z</time>
      </trkpt>
      <trkpt lat="47.32454" lon="-1.61947">
        <ele>152</ele>
        <time>2014-05-18T07:37:47Z</time>
      </trkpt>
      <trkpt lat="47.32445" lon="-1.61948">
        <ele>155</ele>
        <time>2014-05-18T07:37:53Z</time>
      </trkpt>
      <trkpt lat="47.32441" lon="-1.61921">
        <ele>164</ele>
        <time>2014-05-18T07:38:05Z</time>
      </trkpt>
      <trkpt lat="47.32435" lon="-1.61909">
        <ele>165.5</ele>
        <time>2014-05-18T07:38:09Z</time>
      </trkpt>
      <trkpt lat="47.3243" lon="-1.61902">
        <ele>166</ele>
        <time>2014-05-18T07:38:11Z</time>
      </trkpt>
      <trkpt lat="47.32424" lon="-1.61896">
        <ele>164</ele>
        <time>2014-05-18T07:38:13Z</time>
      </trkpt>
      <trkpt lat="47.3242" lon="-1.619">
        <ele>165.5</ele>
        <time>2014-05-18T07:38:15Z</time>
      </trkpt>
      <trkpt lat="47.32391" lon="-1.61908">
        <ele>159</ele>
        <time>2014-05-18T07:38:21Z</time>
      </trkpt>
      <trkpt lat="47.32374" lon="-1.61917">
        <ele>151</ele>
        <time>2014-05-18T07:38:27Z</time>
      </trkpt>
      <trkpt lat="47.32364" lon="-1.6193">
        <ele>148.5</ele>
        <time>2014-05-18T07:38:31Z</time>
      </trkpt>
      <trkpt lat="47.32359" lon="-1.61936">
        <ele>148</ele>
        <time>2014-05-18T07:38:33Z</time>
      </trkpt>
      <trkpt lat="47.32343" lon="-1.61934">
        <ele>148</ele>
        <time>2014-05-18T07:38:37Z</time>
      </trkpt>
      <trkpt lat="47.32339" lon="-1.61923">
        <ele>145.5</ele>
        <time>2014-05-18T07:38:39Z</time>
      </trkpt>
      <trkpt lat="47.32327" lon="-1.619">
        <ele>141.5</ele>
        <time>2014-05-18T07:38:43Z</time>
      </trkpt>
      <trkpt lat="47.32303" lon="-1.61882">
        <ele>137</ele>
        <time>2014-05-18T07:38:49Z</time>
      </trkpt>
      <trkpt lat="47.32283" lon="-1.61867">
        <ele>136.5</ele>
        <time>2014-05-18T07:38:53Z</time>
      </trkpt>
      <trkpt lat="47.32271" lon="-1.61849">
        <ele>137</ele>
        <time>2014-05-18T07:38:57Z</time>
      </trkpt>
      <trkpt lat="47.32264" lon="-1.61846">
        <ele>138</ele>
        <time>2014-05-18T07:39:03Z</time>
      </trkpt>
      <trkpt lat="47.32257" lon="-1.61856">
        <ele>141</ele>
        <time>2014-05-18T07:39:07Z</time>
      </trkpt>
      <trkpt lat="47.3226" lon="-1.61867">
        <ele>139</ele>
        <time>2014-05-18T07:39:11Z</time>
      </trkpt>
      <trkpt lat="47.32262" lon="-1.61873">
        <ele>141.5</ele>
        <time>2014-05-18T07:39:13Z</time>
      </trkpt>
      <trkpt lat="47.3226" lon="-1.61893">
        <ele>138.5</ele>
        <time>2014-05-18T07:39:19Z</time>
      </trkpt>
      <trkpt lat="47.32265" lon="-1.61902">
        <ele>141.5</ele>
        <time>2014-05-18T07:39:21Z</time>
      </trkpt>
      <trkpt lat="47.32265" lon="-1.61912">
        <ele>136.5</ele>
        <time>2014-05-18T07:39:29Z</time>
      </trkpt>
      <trkpt lat="47.32275" lon="-1.61921">
        <ele>136.5</ele>
        <time>2014-05-18T07:39:31Z</time>
      </trkpt>
      <trkpt lat="47.32295" lon="-1.61933">
        <ele>136</ele>
        <time>2014-05-18T07:39:35Z</time>
      </trkpt>
      <trkpt lat="47.32301" lon="-1.61936">
        <ele>136.5</ele>
        <time>2014-05-18T07:39:37Z</time>
      </trkpt>
      <trkpt lat="47.32306" lon="-1.6194">
        <ele>136</ele>
        <time>2014-05-18T07:39:39Z</time>
      </trkpt>
      <trkpt lat="47.32312" lon="-1.61948">
        <ele>134.5</ele>
        <time>2014-05-18T07:39:43Z</time>
      </trkpt>
      <trkpt lat="47.32293" lon="-1.61958">
        <ele>132</ele>
        <time>2014-05-18T07:39:49Z</time>
      </trkpt>
      <trkpt lat="47.32286" lon="-1.61963">
        <ele>131.5</ele>
        <time>2014-05-18T07:39:53Z</time>
      </trkpt>
      <trkpt lat="47.32293" lon="-1.61975">
        <ele>136.5</ele>
        <time>2014-05-18T07:40:01Z</time>
      </trkpt>
      <trkpt lat="47.32307" lon="-1.61994">
        <ele>140</ele>
        <time>2014-05-18T07:40:13Z</time>
      </trkpt>
      <trkpt lat="47.32311" lon="-1.61998">
        <ele>141.5</ele>
        <time>2014-05-18T07:40:15Z</time>
      </trkpt>
      <trkpt lat="47.32318" lon="-1.62007">
        <ele>145</ele>
        <time>2014-05-18T07:40:19Z</time>
      </trkpt>
      <trkpt lat="47.32319" lon="-1.62015">
        <ele>144.5</ele>
        <time>2014-05-18T07:40:21Z</time>
      </trkpt>
      <trkpt lat="47.32314" lon="-1.62024">
        <ele>144</ele>
        <time>2014-05-18T07:40:25Z</time>
      </trkpt>
      <trkpt lat="47.32306" lon="-1.62036">
        <ele>144</ele>
        <time>2014-05-18T07:40:29Z</time>
      </trkpt>
      <trkpt lat="47.32301" lon="-1.62041">
        <ele>142</ele>
        <time>2014-05-18T07:40:31Z</time>
      </trkpt>
      <trkpt lat="47.32293" lon="-1.62048">
        <ele>142.5</ele>
        <time>2014-05-18T07:40:33Z</time>
      </trkpt>
      <trkpt lat="47.32277" lon="-1.62061">
        <ele>142</ele>
        <time>2014-05-18T07:40:37Z</time>
      </trkpt>
      <trkpt lat="47.32265" lon="-1.62067">
        <ele>145.5</ele>
        <time>2014-05-18T07:40:41Z</time>
      </trkpt>
      <trkpt lat="47.32257" lon="-1.62079">
        <ele>148.5</ele>
        <time>2014-05-18T07:40:45Z</time>
      </trkpt>
      <trkpt lat="47.32257" lon="-1.62087">
        <ele>150.5</ele>
        <time>2014-05-18T07:40:47Z</time>
      </trkpt>
      <trkpt lat="47.32257" lon="-1.62095">
        <ele>152</ele>
        <time>2014-05-18T07:40:49Z</time>
      </trkpt>
      <trkpt lat="47.32268" lon="-1.62102">
        <ele>154.5</ele>
        <time>2014-05-18T07:40:57Z</time>
      </trkpt>
      <trkpt lat="47.32285" lon="-1.621">
        <ele>154</ele>
        <time>2014-05-18T07:41:07Z</time>
      </trkpt>
      <trkpt lat="47.323" lon="-1.62086">
        <ele>146</ele>
        <time>2014-05-18T07:41:11Z</time>
      </trkpt>
      <trkpt lat="47.32304" lon="-1.62081">
        <ele>143</ele>
        <time>2014-05-18T07:41:15Z</time>
      </trkpt>
      <trkpt lat="47.3229" lon="-1.621">
        <ele>141.5</ele>
        <time>2014-05-18T07:41:27Z</time>
      </trkpt>
      <trkpt lat="47.32281" lon="-1.62103">
        <ele>140.5</ele>
        <time>2014-05-18T07:41:29Z</time>
      </trkpt>
      <trkpt lat="47.32272" lon="-1.62123">
        <ele>140.5</ele>
        <time>2014-05-18T07:41:35Z</time>
      </trkpt>
      <trkpt lat="47.32266" lon="-1.62154">
        <ele>143.5</ele>
        <time>2014-05-18T07:41:43Z</time>
      </trkpt>
      <trkpt lat="47.32263" lon="-1.62173">
        <ele>141</ele>
        <time>2014-05-18T07:41:47Z</time>
      </trkpt>
      <trkpt lat="47.32259" lon="-1.62187">
        <ele>145.5</ele>
        <time>2014-05-18T07:41:53Z</time>
      </trkpt>
      <trkpt lat="47.3226" lon="-1.622">
        <ele>151</ele>
        <time>2014-05-18T07:41:59Z</time>
      </trkpt>
      <trkpt lat="47.32257" lon="-1.6221">
        <ele>153</ele>
        <time>2014-05-18T07:42:03Z</time>
      </trkpt>
      <trkpt lat="47.32252" lon="-1.62215">
        <ele>153</ele>
        <time>2014-05-18T07:42:05Z</time>
      </trkpt>
      <trkpt lat="47.32241" lon="-1.62224">
        <ele>155</ele>
        <time>2014-05-18T07:42:11Z</time>
      </trkpt>
      <trkpt lat="47.32235" lon="-1.6222">
        <ele>156</ele>
        <time>2014-05-18T07:42:13Z</time>
      </trkpt>
      <trkpt lat="47.32228" lon="-1.62214">
        <ele>154</ele>
        <time>2014-05-18T07:42:15Z</time>
      </trkpt>
      <trkpt lat="47.32213" lon="-1.62213">
        <ele>153</ele>
        <time>2014-05-18T07:42:19Z</time>
      </trkpt>
      <trkpt lat="47.32208" lon="-1.62212">
        <ele>152</ele>
        <time>2014-05-18T07:42:21Z</time>
      </trkpt>
      <trkpt lat="47.32213" lon="-1.62215">
        <ele>144</ele>
        <time>2014-05-18T07:42:29Z</time>
      </trkpt>
      <trkpt lat="47.32214" lon="-1.62223">
        <ele>143</ele>
        <time>2014-05-18T07:42:31Z</time>
      </trkpt>
      <trkpt lat="47.32223" lon="-1.62224">
        <ele>146.5</ele>
        <time>2014-05-18T07:42:39Z</time>
      </trkpt>
      <trkpt lat="47.32224" lon="-1.62232">
        <ele>146.5</ele>
        <time>2014-05-18T07:42:49Z</time>
      </trkpt>
      <trkpt lat="47.32225" lon="-1.62243">
        <ele>148</ele>
        <time>2014-05-18T07:42:53Z</time>
      </trkpt>
      <trkpt lat="47.32228" lon="-1.62255">
        <ele>146</ele>
        <time>2014-05-18T07:42:59Z</time>
      </trkpt>
      <trkpt lat="47.32226" lon="-1.62262">
        <ele>147</ele>
        <time>2014-05-18T07:43:01Z</time>
      </trkpt>
      <trkpt lat="47.32216" lon="-1.62274">
        <ele>147</ele>
        <time>2014-05-18T07:43:07Z</time>
      </trkpt>
      <trkpt lat="47.32198" lon="-1.6226">
        <ele>151</ele>
        <time>2014-05-18T07:43:17Z</time>
      </trkpt>
      <trkpt lat="47.32192" lon="-1.62245">
        <ele>149.5</ele>
        <time>2014-05-18T07:43:23Z</time>
      </trkpt>
      <trkpt lat="47.32187" lon="-1.62267">
        <ele>150.5</ele>
        <time>2014-05-18T07:43:31Z</time>
      </trkpt>
      <trkpt lat="47.32186" lon="-1.62276">
        <ele>149</ele>
        <time>2014-05-18T07:43:33Z</time>
      </trkpt>
      <trkpt lat="47.32174" lon="-1.62288">
        <ele>149.5</ele>
        <time>2014-05-18T07:43:37Z</time>
      </trkpt>
      <trkpt lat="47.32147" lon="-1.62302">
        <ele>145</ele>
        <time>2014-05-18T07:43:41Z</time>
      </trkpt>
      <trkpt lat="47.32129" lon="-1.62316">
        <ele>138.5</ele>
        <time>2014-05-18T07:43:45Z</time>
      </trkpt>
      <trkpt lat="47.32119" lon="-1.62336">
        <ele>132</ele>
        <time>2014-05-18T07:43:49Z</time>
      </trkpt>
      <trkpt lat="47.32117" lon="-1.62351">
        <ele>132.5</ele>
        <time>2014-05-18T07:43:53Z</time>
      </trkpt>
      <trkpt lat="47.32112" lon="-1.6236">
        <ele>135</ele>
        <time>2014-05-18T07:43:57Z</time>
      </trkpt>
      <trkpt lat="47.32105" lon="-1.6236">
        <ele>134</ele>
        <time>2014-05-18T07:43:59Z</time>
      </trkpt>
      <trkpt lat="47.32068" lon="-1.62386">
        <ele>124.5</ele>
        <time>2014-05-18T07:44:05Z</time>
      </trkpt>
      <trkpt lat="47.32048" lon="-1.62395">
        <ele>119.5</ele>
        <time>2014-05-18T07:44:09Z</time>
      </trkpt>
      <trkpt lat="47.32029" lon="-1.62404">
        <ele>117</ele>
        <time>2014-05-18T07:44:13Z</time>
      </trkpt>
      <trkpt lat="47.32013" lon="-1.62402">
        <ele>115</ele>
        <time>2014-05-18T07:44:17Z</time>
      </trkpt>
      <trkpt lat="47.32004" lon="-1.62377">
        <ele>110</ele>
        <time>2014-05-18T07:44:21Z</time>
      </trkpt>
      <trkpt lat="47.31997" lon="-1.62351">
        <ele>108</ele>
        <time>2014-05-18T07:44:25Z</time>
      </trkpt>
      <trkpt lat="47.31987" lon="-1.62346">
        <ele>107.5</ele>
        <time>2014-05-18T07:44:29Z</time>
      </trkpt>
      <trkpt lat="47.3198" lon="-1.6233">
        <ele>106.5</ele>
        <time>2014-05-18T07:44:33Z</time>
      </trkpt>
      <trkpt lat="47.31974" lon="-1.62318">
        <ele>109.5</ele>
        <time>2014-05-18T07:44:39Z</time>
      </trkpt>
      <trkpt lat="47.31969" lon="-1.62303">
        <ele>114.5</ele>
        <time>2014-05-18T07:44:45Z</time>
      </trkpt>
      <trkpt lat="47.31966" lon="-1.62296">
        <ele>116.5</ele>
        <time>2014-05-18T07:44:47Z</time>
      </trkpt>
      <trkpt lat="47.31963" lon="-1.62292">
        <ele>120</ele>
        <time>2014-05-18T07:44:49Z</time>
      </trkpt>
      <trkpt lat="47.31959" lon="-1.62279">
        <ele>121.5</ele>
        <time>2014-05-18T07:44:53Z</time>
      </trkpt>
      <trkpt lat="47.31957" lon="-1.62268">
        <ele>123.5</ele>
        <time>2014-05-18T07:44:57Z</time>
      </trkpt>
      <trkpt lat="47.31947" lon="-1.62255">
        <ele>126</ele>
        <time>2014-05-18T07:45:03Z</time>
      </trkpt>
      <trkpt lat="47.31936" lon="-1.62232">
        <ele>130.5</ele>
        <time>2014-05-18T07:45:11Z</time>
      </trkpt>
      <trkpt lat="47.31932" lon="-1.62223">
        <ele>131</ele>
        <time>2014-05-18T07:45:15Z</time>
      </trkpt>
      <trkpt lat="47.31936" lon="-1.6221">
        <ele>136</ele>
        <time>2014-05-18T07:45:23Z</time>
      </trkpt>
      <trkpt lat="47.3194" lon="-1.62203">
        <ele>136</ele>
        <time>2014-05-18T07:45:31Z</time>
      </trkpt>
      <trkpt lat="47.31933" lon="-1.62202">
        <ele>135.5</ele>
        <time>2014-05-18T07:45:41Z</time>
      </trkpt>
      <trkpt lat="47.31927" lon="-1.62201">
        <ele>134</ele>
        <time>2014-05-18T07:45:53Z</time>
      </trkpt>
      <trkpt lat="47.31924" lon="-1.62194">
        <ele>135</ele>
        <time>2014-05-18T07:45:59Z</time>
      </trkpt>
      <trkpt lat="47.31922" lon="-1.62189">
        <ele>136</ele>
        <time>2014-05-18T07:46:01Z</time>
      </trkpt>
      <trkpt lat="47.31914" lon="-1.62172">
        <ele>135.5</ele>
        <time>2014-05-18T07:46:05Z</time>
      </trkpt>
      <trkpt lat="47.31904" lon="-1.62161">
        <ele>139.5</ele>
        <time>2014-05-18T07:46:09Z</time>
      </trkpt>
      <trkpt lat="47.31902" lon="-1.62154">
        <ele>140.5</ele>
        <time>2014-05-18T07:46:11Z</time>
      </trkpt>
      <trkpt lat="47.31899" lon="-1.62136">
        <ele>136.5</ele>
        <time>2014-05-18T07:46:15Z</time>
      </trkpt>
      <trkpt lat="47.31896" lon="-1.62124">
        <ele>136</ele>
        <time>2014-05-18T07:46:19Z</time>
      </trkpt>
      <trkpt lat="47.3189" lon="-1.62122">
        <ele>136</ele>
        <time>2014-05-18T07:46:21Z</time>
      </trkpt>
      <trkpt lat="47.31883" lon="-1.62121">
        <ele>142</ele>
        <time>2014-05-18T07:46:33Z</time>
      </trkpt>
      <trkpt lat="47.31876" lon="-1.62124">
        <ele>143</ele>
        <time>2014-05-18T07:46:37Z</time>
      </trkpt>
      <trkpt lat="47.3187" lon="-1.62122">
        <ele>146.5</ele>
        <time>2014-05-18T07:46:43Z</time>
      </trkpt>
      <trkpt lat="47.31865" lon="-1.62116">
        <ele>143</ele>
        <time>2014-05-18T07:46:47Z</time>
      </trkpt>
      <trkpt lat="47.31862" lon="-1.62107">
        <ele>142</ele>
        <time>2014-05-18T07:46:51Z</time>
      </trkpt>
      <trkpt lat="47.3186" lon="-1.62084">
        <ele>140.5</ele>
        <time>2014-05-18T07:46:59Z</time>
      </trkpt>
      <trkpt lat="47.31861" lon="-1.62076">
        <ele>139.5</ele>
        <time>2014-05-18T07:47:07Z</time>
      </trkpt>
      <trkpt lat="47.31857" lon="-1.62078">
        <ele>142</ele>
        <time>2014-05-18T07:47:17Z</time>
      </trkpt>
      <trkpt lat="47.31854" lon="-1.62084">
        <ele>143.5</ele>
        <time>2014-05-18T07:47:21Z</time>
      </trkpt>
      <trkpt lat="47.3185" lon="-1.62092">
        <ele>148.5</ele>
        <time>2014-05-18T07:47:29Z</time>
      </trkpt>
      <trkpt lat="47.31847" lon="-1.62099">
        <ele>151.5</ele>
        <time>2014-05-18T07:47:33Z</time>
      </trkpt>
      <trkpt lat="47.31844" lon="-1.62105">
        <ele>157</ele>
        <time>2014-05-18T07:47:39Z</time>
      </trkpt>
      <trkpt lat="47.31855" lon="-1.62106">
        <ele>156</ele>
        <time>2014-05-18T07:47:45Z</time>
      </trkpt>
      <trkpt lat="47.31851" lon="-1.62131">
        <ele>156</ele>
        <time>2014-05-18T07:47:51Z</time>
      </trkpt>
      <trkpt lat="47.31854" lon="-1.62138">
        <ele>155.5</ele>
        <time>2014-05-18T07:47:53Z</time>
      </trkpt>
      <trkpt lat="47.3186" lon="-1.62139">
        <ele>156.5</ele>
        <time>2014-05-18T07:47:57Z</time>
      </trkpt>
      <trkpt lat="47.31874" lon="-1.62147">
        <ele>160</ele>
        <time>2014-05-18T07:48:05Z</time>
      </trkpt>
      <trkpt lat="47.31873" lon="-1.62159">
        <ele>165.5</ele>
        <time>2014-05-18T07:48:11Z</time>
      </trkpt>
      <trkpt lat="47.31872" lon="-1.62166">
        <ele>165</ele>
        <time>2014-05-18T07:48:13Z</time>
      </trkpt>
      <trkpt lat="47.31871" lon="-1.62172">
        <ele>164.5</ele>
        <time>2014-05-18T07:48:15Z</time>
      </trkpt>
      <trkpt lat="47.31869" lon="-1.62199">
        <ele>167</ele>
        <time>2014-05-18T07:48:21Z</time>
      </trkpt>
      <trkpt lat="47.31867" lon="-1.6221">
        <ele>166.5</ele>
        <time>2014-05-18T07:48:23Z</time>
      </trkpt>
      <trkpt lat="47.3187" lon="-1.62224">
        <ele>169</ele>
        <time>2014-05-18T07:48:25Z</time>
      </trkpt>
      <trkpt lat="47.31868" lon="-1.62239">
        <ele>173.5</ele>
        <time>2014-05-18T07:48:29Z</time>
      </trkpt>
      <trkpt lat="47.31868" lon="-1.6225">
        <ele>177</ele>
        <time>2014-05-18T07:48:31Z</time>
      </trkpt>
      <trkpt lat="47.3187" lon="-1.62267">
        <ele>175</ele>
        <time>2014-05-18T07:48:35Z</time>
      </trkpt>
      <trkpt lat="47.31871" lon="-1.62274">
        <ele>174.5</ele>
        <time>2014-05-18T07:48:37Z</time>
      </trkpt>
      <trkpt lat="47.31873" lon="-1.62296">
        <ele>176</ele>
        <time>2014-05-18T07:48:41Z</time>
      </trkpt>
      <trkpt lat="47.31874" lon="-1.62308">
        <ele>178</ele>
        <time>2014-05-18T07:48:43Z</time>
      </trkpt>
      <trkpt lat="47.31875" lon="-1.6233">
        <ele>183.5</ele>
        <time>2014-05-18T07:48:49Z</time>
      </trkpt>
      <trkpt lat="47.3188" lon="-1.62351">
        <ele>185.5</ele>
        <time>2014-05-18T07:48:53Z</time>
      </trkpt>
      <trkpt lat="47.31883" lon="-1.62359">
        <ele>184.5</ele>
        <time>2014-05-18T07:48:55Z</time>
      </trkpt>
      <trkpt lat="47.3188" lon="-1.62393">
        <ele>172.5</ele>
        <time>2014-05-18T07:49:01Z</time>
      </trkpt>
      <trkpt lat="47.31875" lon="-1.62373">
        <ele>175.5</ele>
        <time>2014-05-18T07:49:09Z</time>
      </trkpt>
      <trkpt lat="47.31886" lon="-1.62359">
        <ele>169.5</ele>
        <time>2014-05-18T07:49:15Z</time>
      </trkpt>
      <trkpt lat="47.31893" lon="-1.62346">
        <ele>172</ele>
        <time>2014-05-18T07:49:21Z</time>
      </trkpt>
      <trkpt lat="47.31899" lon="-1.62338">
        <ele>170.5</ele>
        <time>2014-05-18T07:49:23Z</time>
      </trkpt>
      <trkpt lat="47.31915" lon="-1.62328">
        <ele>163</ele>
        <time>2014-05-18T07:49:27Z</time>
      </trkpt>
      <trkpt lat="47.31921" lon="-1.62328">
        <ele>159.5</ele>
        <time>2014-05-18T07:49:29Z</time>
      </trkpt>
      <trkpt lat="47.31929" lon="-1.62342">
        <ele>162</ele>
        <time>2014-05-18T07:49:39Z</time>
      </trkpt>
      <trkpt lat="47.31938" lon="-1.62338">
        <ele>161</ele>
        <time>2014-05-18T07:49:41Z</time>
      </trkpt>
      <trkpt lat="47.31946" lon="-1.6234">
        <ele>162.5</ele>
        <time>2014-05-18T07:49:45Z</time>
      </trkpt>
      <trkpt lat="47.31938" lon="-1.62352">
        <ele>164.5</ele>
        <time>2014-05-18T07:49:55Z</time>
      </trkpt>
      <trkpt lat="47.3193" lon="-1.62352">
        <ele>166.5</ele>
        <time>2014-05-18T07:49:59Z</time>
      </trkpt>
      <trkpt lat="47.31915" lon="-1.62366">
        <ele>163</ele>
        <time>2014-05-18T07:50:07Z</time>
      </trkpt>
      <trkpt lat="47.31906" lon="-1.62391">
        <ele>162.5</ele>
        <time>2014-05-18T07:50:11Z</time>
      </trkpt>
      <trkpt lat="47.31883" lon="-1.62422">
        <ele>162.5</ele>
        <time>2014-05-18T07:50:19Z</time>
      </trkpt>
      <trkpt lat="47.31875" lon="-1.62423">
        <ele>162</ele>
        <time>2014-05-18T07:50:23Z</time>
      </trkpt>
      <trkpt lat="47.31875" lon="-1.62423">
        <ele>162</ele>
        <time>2014-05-18T07:50:51Z</time>
      </trkpt>
      <trkpt lat="47.31875" lon="-1.62423">
        <ele>162</ele>
        <time>2014-05-18T07:51:11Z</time>
      </trkpt>
      <trkpt lat="47.31861" lon="-1.62436">
        <ele>147</ele>
        <time>2014-05-18T07:51:15Z</time>
      </trkpt>
      <trkpt lat="47.31856" lon="-1.62441">
        <ele>145</ele>
        <time>2014-05-18T07:51:19Z</time>
      </trkpt>
      <trkpt lat="47.31853" lon="-1.62445">
        <ele>144.5</ele>
        <time>2014-05-18T07:51:23Z</time>
      </trkpt>
      <trkpt lat="47.31853" lon="-1.62445">
        <ele>144.5</ele>
        <time>2014-05-18T07:51:49Z</time>
      </trkpt>
      <trkpt lat="47.31853" lon="-1.62445">
        <ele>144.5</ele>
        <time>2014-05-18T07:52:07Z</time>
      </trkpt>
      <trkpt lat="47.31853" lon="-1.62445">
        <ele>144.5</ele>
        <time>2014-05-18T07:52:23Z</time>
      </trkpt>
      <trkpt lat="47.31853" lon="-1.62445">
        <ele>144.5</ele>
        <time>2014-05-18T07:52:51Z</time>
      </trkpt>
      <trkpt lat="47.31853" lon="-1.62445">
        <ele>144.5</ele>
        <time>2014-05-18T07:53:09Z</time>
      </trkpt>
      <trkpt lat="47.31853" lon="-1.62445">
        <ele>144.5</ele>
        <time>2014-05-18T07:53:29Z</time>
      </trkpt>
      <trkpt lat="47.31853" lon="-1.62445">
        <ele>144.5</ele>
        <time>2014-05-18T07:53:47Z</time>
      </trkpt>
      <trkpt lat="47.31853" lon="-1.62445">
        <ele>144.5</ele>
        <time>2014-05-18T07:54:07Z</time>
      </trkpt>
      <trkpt lat="47.31853" lon="-1.62445">
        <ele>144.5</ele>
        <time>2014-05-18T07:54:27Z</time>
      </trkpt>
      <trkpt lat="47.31853" lon="-1.62445">
        <ele>144.5</ele>
        <time>2014-05-18T07:54:47Z</time>
      </trkpt>
      <trkpt lat="47.31853" lon="-1.62445">
        <ele>144.5</ele>
        <time>2014-05-18T07:55:07Z</time>
      </trkpt>
      <trkpt lat="47.31853" lon="-1.62445">
        <ele>144.5</ele>
        <time>2014-05-18T07:55:27Z</time>
      </trkpt>
      <trkpt lat="47.31853" lon="-1.62445">
        <ele>144.5</ele>
        <time>2014-05-18T07:55:47Z</time>
      </trkpt>
      <trkpt lat="47.31853" lon="-1.62445">
        <ele>144.5</ele>
        <time>2014-05-18T07:56:07Z</time>
      </trkpt>
      <trkpt lat="47.31853" lon="-1.62445">
        <ele>144.5</ele>
        <time>2014-05-18T07:56:27Z</time>
      </trkpt>
      <trkpt lat="47.31853" lon="-1.62445">
        <ele>144.5</ele>
        <time>2014-05-18T07:56:47Z</time>
      </trkpt>
      <trkpt lat="47.31853" lon="-1.62445">
        <ele>144.5</ele>
        <time>2014-05-18T07:57:07Z</time>
      </trkpt>
      <trkpt lat="47.31853" lon="-1.62445">
        <ele>144.5</ele>
        <time>2014-05-18T07:57:25Z</time>
      </trkpt>
      <trkpt lat="47.31853" lon="-1.62445">
        <ele>144.5</ele>
        <time>2014-05-18T07:57:45Z</time>
      </trkpt>
      <trkpt lat="47.31865" lon="-1.62419">
        <ele>90</ele>
        <time>2014-05-18T07:57:49Z</time>
      </trkpt>
      <trkpt lat="47.31862" lon="-1.62411">
        <ele>88.5</ele>
        <time>2014-05-18T07:57:57Z</time>
      </trkpt>
      <trkpt lat="47.31864" lon="-1.624">
        <ele>89.5</ele>
        <time>2014-05-18T07:58:15Z</time>
      </trkpt>
      <trkpt lat="47.31864" lon="-1.62383">
        <ele>93.5</ele>
        <time>2014-05-18T07:58:25Z</time>
      </trkpt>
      <trkpt lat="47.31864" lon="-1.62377">
        <ele>95.5</ele>
        <time>2014-05-18T07:58:29Z</time>
      </trkpt>
      <trkpt lat="47.31863" lon="-1.62362">
        <ele>97.5</ele>
        <time>2014-05-18T07:58:35Z</time>
      </trkpt>
      <trkpt lat="47.31862" lon="-1.62357">
        <ele>97</ele>
        <time>2014-05-18T07:58:37Z</time>
      </trkpt>
      <trkpt lat="47.31859" lon="-1.62348">
        <ele>98</ele>
        <time>2014-05-18T07:58:41Z</time>
      </trkpt>
      <trkpt lat="47.31853" lon="-1.62322">
        <ele>102.5</ele>
        <time>2014-05-18T07:58:51Z</time>
      </trkpt>
      <trkpt lat="47.31846" lon="-1.62297">
        <ele>106.5</ele>
        <time>2014-05-18T07:59:01Z</time>
      </trkpt>
      <trkpt lat="47.31842" lon="-1.62285">
        <ele>109.5</ele>
        <time>2014-05-18T07:59:05Z</time>
      </trkpt>
      <trkpt lat="47.31837" lon="-1.62279">
        <ele>110.5</ele>
        <time>2014-05-18T07:59:09Z</time>
      </trkpt>
      <trkpt lat="47.31834" lon="-1.62267">
        <ele>112.5</ele>
        <time>2014-05-18T07:59:17Z</time>
      </trkpt>
      <trkpt lat="47.31831" lon="-1.62261">
        <ele>114.5</ele>
        <time>2014-05-18T07:59:19Z</time>
      </trkpt>
      <trkpt lat="47.31817" lon="-1.62238">
        <ele>117.5</ele>
        <time>2014-05-18T07:59:25Z</time>
      </trkpt>
      <trkpt lat="47.31815" lon="-1.62223">
        <ele>117.5</ele>
        <time>2014-05-18T07:59:29Z</time>
      </trkpt>
      <trkpt lat="47.31808" lon="-1.62209">
        <ele>118.5</ele>
        <time>2014-05-18T07:59:33Z</time>
      </trkpt>
      <trkpt lat="47.31806" lon="-1.62198">
        <ele>117</ele>
        <time>2014-05-18T07:59:35Z</time>
      </trkpt>
      <trkpt lat="47.31799" lon="-1.62172">
        <ele>118.5</ele>
        <time>2014-05-18T07:59:39Z</time>
      </trkpt>
      <trkpt lat="47.31797" lon="-1.6216">
        <ele>118</ele>
        <time>2014-05-18T07:59:41Z</time>
      </trkpt>
      <trkpt lat="47.31792" lon="-1.62137">
        <ele>116</ele>
        <time>2014-05-18T07:59:45Z</time>
      </trkpt>
      <trkpt lat="47.31788" lon="-1.62121">
        <ele>114.5</ele>
        <time>2014-05-18T07:59:49Z</time>
      </trkpt>
      <trkpt lat="47.31783" lon="-1.62108">
        <ele>113</ele>
        <time>2014-05-18T07:59:53Z</time>
      </trkpt>
      <trkpt lat="47.31785" lon="-1.62101">
        <ele>112</ele>
        <time>2014-05-18T08:00:09Z</time>
      </trkpt>
      <trkpt lat="47.31795" lon="-1.62078">
        <ele>106.5</ele>
        <time>2014-05-18T08:00:13Z</time>
      </trkpt>
      <trkpt lat="47.31807" lon="-1.62057">
        <ele>114</ele>
        <time>2014-05-18T08:00:25Z</time>
      </trkpt>
      <trkpt lat="47.31809" lon="-1.62034">
        <ele>111</ele>
        <time>2014-05-18T08:00:37Z</time>
      </trkpt>
      <trkpt lat="47.31813" lon="-1.62026">
        <ele>109.5</ele>
        <time>2014-05-18T08:00:43Z</time>
      </trkpt>
      <trkpt lat="47.31812" lon="-1.62016">
        <ele>105</ele>
        <time>2014-05-18T08:00:53Z</time>
      </trkpt>
      <trkpt lat="47.31824" lon="-1.6201">
        <ele>105</ele>
        <time>2014-05-18T08:00:57Z</time>
      </trkpt>
      <trkpt lat="47.31834" lon="-1.62003">
        <ele>106</ele>
        <time>2014-05-18T08:01:01Z</time>
      </trkpt>
      <trkpt lat="47.31845" lon="-1.61987">
        <ele>102.5</ele>
        <time>2014-05-18T08:01:07Z</time>
      </trkpt>
      <trkpt lat="47.31849" lon="-1.61981">
        <ele>102</ele>
        <time>2014-05-18T08:01:09Z</time>
      </trkpt>
      <trkpt lat="47.31853" lon="-1.61971">
        <ele>105</ele>
        <time>2014-05-18T08:01:13Z</time>
      </trkpt>
      <trkpt lat="47.31852" lon="-1.6196">
        <ele>105.5</ele>
        <time>2014-05-18T08:01:23Z</time>
      </trkpt>
      <trkpt lat="47.31848" lon="-1.61954">
        <ele>110.5</ele>
        <time>2014-05-18T08:01:37Z</time>
      </trkpt>
      <trkpt lat="47.3184" lon="-1.61949">
        <ele>115.5</ele>
        <time>2014-05-18T08:01:43Z</time>
      </trkpt>
      <trkpt lat="47.31819" lon="-1.61941">
        <ele>109.5</ele>
        <time>2014-05-18T08:01:51Z</time>
      </trkpt>
      <trkpt lat="47.31822" lon="-1.61923">
        <ele>105</ele>
        <time>2014-05-18T08:02:17Z</time>
      </trkpt>
      <trkpt lat="47.31832" lon="-1.61918">
        <ele>101</ele>
        <time>2014-05-18T08:02:19Z</time>
      </trkpt>
      <trkpt lat="47.31841" lon="-1.6191">
        <ele>98</ele>
        <time>2014-05-18T08:02:23Z</time>
      </trkpt>
      <trkpt lat="47.31844" lon="-1.61905">
        <ele>96.5</ele>
        <time>2014-05-18T08:02:25Z</time>
      </trkpt>
      <trkpt lat="47.31846" lon="-1.61899">
        <ele>95.5</ele>
        <time>2014-05-18T08:02:27Z</time>
      </trkpt>
      <trkpt lat="47.31849" lon="-1.61891">
        <ele>96</ele>
        <time>2014-05-18T08:02:29Z</time>
      </trkpt>
      <trkpt lat="47.31853" lon="-1.61886">
        <ele>95.5</ele>
        <time>2014-05-18T08:02:31Z</time>
      </trkpt>
      <trkpt lat="47.31859" lon="-1.61885">
        <ele>94</ele>
        <time>2014-05-18T08:02:37Z</time>
      </trkpt>
      <trkpt lat="47.31862" lon="-1.61879">
        <ele>96.5</ele>
        <time>2014-05-18T08:02:51Z</time>
      </trkpt>
      <trkpt lat="47.31863" lon="-1.61858">
        <ele>95</ele>
        <time>2014-05-18T08:03:09Z</time>
      </trkpt>
      <trkpt lat="47.31864" lon="-1.61849">
        <ele>94.5</ele>
        <time>2014-05-18T08:03:11Z</time>
      </trkpt>
      <trkpt lat="47.31852" lon="-1.61835">
        <ele>107</ele>
        <time>2014-05-18T08:03:41Z</time>
      </trkpt>
      <trkpt lat="47.31849" lon="-1.61843">
        <ele>109.5</ele>
        <time>2014-05-18T08:03:43Z</time>
      </trkpt>
      <trkpt lat="47.31841" lon="-1.61854">
        <ele>113</ele>
        <time>2014-05-18T08:03:47Z</time>
      </trkpt>
      <trkpt lat="47.31835" lon="-1.61865">
        <ele>116</ele>
        <time>2014-05-18T08:03:51Z</time>
      </trkpt>
      <trkpt lat="47.31831" lon="-1.61874">
        <ele>118</ele>
        <time>2014-05-18T08:03:53Z</time>
      </trkpt>
      <trkpt lat="47.31827" lon="-1.61879">
        <ele>120.5</ele>
        <time>2014-05-18T08:03:55Z</time>
      </trkpt>
      <trkpt lat="47.31824" lon="-1.61882">
        <ele>120.5</ele>
        <time>2014-05-18T08:03:57Z</time>
      </trkpt>
      <trkpt lat="47.3182" lon="-1.61886">
        <ele>120.5</ele>
        <time>2014-05-18T08:03:59Z</time>
      </trkpt>
      <trkpt lat="47.31817" lon="-1.61891">
        <ele>122.5</ele>
        <time>2014-05-18T08:04:01Z</time>
      </trkpt>
      <trkpt lat="47.31816" lon="-1.61876">
        <ele>127</ele>
        <time>2014-05-18T08:04:11Z</time>
      </trkpt>
      <trkpt lat="47.31819" lon="-1.61868">
        <ele>128</ele>
        <time>2014-05-18T08:04:15Z</time>
      </trkpt>
      <trkpt lat="47.31835" lon="-1.61861">
        <ele>123</ele>
        <time>2014-05-18T08:04:29Z</time>
      </trkpt>
      <trkpt lat="47.31831" lon="-1.61848">
        <ele>128</ele>
        <time>2014-05-18T08:04:39Z</time>
      </trkpt>
      <trkpt lat="47.31834" lon="-1.6184">
        <ele>127.5</ele>
        <time>2014-05-18T08:04:41Z</time>
      </trkpt>
      <trkpt lat="47.31848" lon="-1.61807">
        <ele>124.5</ele>
        <time>2014-05-18T08:04:45Z</time>
      </trkpt>
      <trkpt lat="47.31853" lon="-1.61789">
        <ele>123</ele>
        <time>2014-05-18T08:04:47Z</time>
      </trkpt>
      <trkpt lat="47.31864" lon="-1.61768">
        <ele>120.5</ele>
        <time>2014-05-18T08:04:49Z</time>
      </trkpt>
      <trkpt lat="47.31874" lon="-1.61749">
        <ele>119</ele>
        <time>2014-05-18T08:04:51Z</time>
      </trkpt>
      <trkpt lat="47.31884" lon="-1.61718">
        <ele>116</ele>
        <time>2014-05-18T08:04:55Z</time>
      </trkpt>
      <trkpt lat="47.31898" lon="-1.61684">
        <ele>112</ele>
        <time>2014-05-18T08:04:59Z</time>
      </trkpt>
      <trkpt lat="47.31917" lon="-1.61654">
        <ele>106.5</ele>
        <time>2014-05-18T08:05:03Z</time>
      </trkpt>
      <trkpt lat="47.31946" lon="-1.61637">
        <ele>103.5</ele>
        <time>2014-05-18T08:05:07Z</time>
      </trkpt>
      <trkpt lat="47.31981" lon="-1.61616">
        <ele>96.5</ele>
        <time>2014-05-18T08:05:11Z</time>
      </trkpt>
      <trkpt lat="47.32" lon="-1.61612">
        <ele>91.5</ele>
        <time>2014-05-18T08:05:13Z</time>
      </trkpt>
      <trkpt lat="47.32008" lon="-1.6161">
        <ele>90.5</ele>
        <time>2014-05-18T08:05:14Z</time>
      </trkpt>
      <trkpt lat="47.32015" lon="-1.61607">
        <ele>89.5</ele>
        <time>2014-05-18T08:05:15Z</time>
      </trkpt>
      <trkpt lat="47.32031" lon="-1.61603">
        <ele>87</ele>
        <time>2014-05-18T08:05:17Z</time>
      </trkpt>
      <trkpt lat="47.32037" lon="-1.61601">
        <ele>87.5</ele>
        <time>2014-05-18T08:05:18Z</time>
      </trkpt>
      <trkpt lat="47.32044" lon="-1.61599">
        <ele>87.5</ele>
        <time>2014-05-18T08:05:19Z</time>
      </trkpt>
      <trkpt lat="47.32069" lon="-1.61601">
        <ele>87.5</ele>
        <time>2014-05-18T08:05:24Z</time>
      </trkpt>
      <trkpt lat="47.32083" lon="-1.61603">
        <ele>88.5</ele>
        <time>2014-05-18T08:05:28Z</time>
      </trkpt>
      <trkpt lat="47.32093" lon="-1.61611">
        <ele>89</ele>
        <time>2014-05-18T08:05:32Z</time>
      </trkpt>
      <trkpt lat="47.32099" lon="-1.61616">
        <ele>90</ele>
        <time>2014-05-18T08:05:34Z</time>
      </trkpt>
      <trkpt lat="47.32113" lon="-1.61631">
        <ele>93.5</ele>
        <time>2014-05-18T08:05:40Z</time>
      </trkpt>
      <trkpt lat="47.3213" lon="-1.61649">
        <ele>93.5</ele>
        <time>2014-05-18T08:05:46Z</time>
      </trkpt>
      <trkpt lat="47.32141" lon="-1.61664">
        <ele>94</ele>
        <time>2014-05-18T08:05:50Z</time>
      </trkpt>
      <trkpt lat="47.32146" lon="-1.6167">
        <ele>94.5</ele>
        <time>2014-05-18T08:05:52Z</time>
      </trkpt>
      <trkpt lat="47.32158" lon="-1.61684">
        <ele>95</ele>
        <time>2014-05-18T08:05:56Z</time>
      </trkpt>
      <trkpt lat="47.32175" lon="-1.61699">
        <ele>98.5</ele>
        <time>2014-05-18T08:06:02Z</time>
      </trkpt>
      <trkpt lat="47.32186" lon="-1.6171">
        <ele>100</ele>
        <time>2014-05-18T08:06:06Z</time>
      </trkpt>
      <trkpt lat="47.32191" lon="-1.61714">
        <ele>100.5</ele>
        <time>2014-05-18T08:06:08Z</time>
      </trkpt>
      <trkpt lat="47.32203" lon="-1.61723">
        <ele>102</ele>
        <time>2014-05-18T08:06:12Z</time>
      </trkpt>
      <trkpt lat="47.32208" lon="-1.61726">
        <ele>101.5</ele>
        <time>2014-05-18T08:06:14Z</time>
      </trkpt>
      <trkpt lat="47.32216" lon="-1.61731">
        <ele>101</ele>
        <time>2014-05-18T08:06:18Z</time>
      </trkpt>
      <trkpt lat="47.32222" lon="-1.61731">
        <ele>101</ele>
        <time>2014-05-18T08:06:20Z</time>
      </trkpt>
      <trkpt lat="47.32238" lon="-1.61729">
        <ele>100.5</ele>
        <time>2014-05-18T08:06:24Z</time>
      </trkpt>
      <trkpt lat="47.32246" lon="-1.61725">
        <ele>100.5</ele>
        <time>2014-05-18T08:06:26Z</time>
      </trkpt>
      <trkpt lat="47.32259" lon="-1.61718">
        <ele>100</ele>
        <time>2014-05-18T08:06:30Z</time>
      </trkpt>
      <trkpt lat="47.32272" lon="-1.61707">
        <ele>99.5</ele>
        <time>2014-05-18T08:06:36Z</time>
      </trkpt>
      <trkpt lat="47.32282" lon="-1.61696">
        <ele>99</ele>
        <time>2014-05-18T08:06:40Z</time>
      </trkpt>
      <trkpt lat="47.32287" lon="-1.61691">
        <ele>98.5</ele>
        <time>2014-05-18T08:06:42Z</time>
      </trkpt>
      <trkpt lat="47.32292" lon="-1.61686">
        <ele>98.5</ele>
        <time>2014-05-18T08:06:44Z</time>
      </trkpt>
      <trkpt lat="47.32302" lon="-1.61678">
        <ele>99</ele>
        <time>2014-05-18T08:06:48Z</time>
      </trkpt>
      <trkpt lat="47.32308" lon="-1.61674">
        <ele>98.5</ele>
        <time>2014-05-18T08:06:50Z</time>
      </trkpt>
      <trkpt lat="47.32319" lon="-1.61662">
        <ele>98.5</ele>
        <time>2014-05-18T08:06:54Z</time>
      </trkpt>
      <trkpt lat="47.32324" lon="-1.61657">
        <ele>98</ele>
        <time>2014-05-18T08:06:56Z</time>
      </trkpt>
      <trkpt lat="47.32336" lon="-1.61644">
        <ele>98.5</ele>
        <time>2014-05-18T08:07:00Z</time>
      </trkpt>
      <trkpt lat="47.32341" lon="-1.6164">
        <ele>98.5</ele>
        <time>2014-05-18T08:07:02Z</time>
      </trkpt>
      <trkpt lat="47.32349" lon="-1.6163">
        <ele>101.5</ele>
        <time>2014-05-18T08:07:06Z</time>
      </trkpt>
      <trkpt lat="47.32363" lon="-1.61618">
        <ele>106</ele>
        <time>2014-05-18T08:07:12Z</time>
      </trkpt>
      <trkpt lat="47.32374" lon="-1.61607">
        <ele>108.5</ele>
        <time>2014-05-18T08:07:16Z</time>
      </trkpt>
      <trkpt lat="47.3238" lon="-1.61602">
        <ele>108.5</ele>
        <time>2014-05-18T08:07:18Z</time>
      </trkpt>
      <trkpt lat="47.32396" lon="-1.61589">
        <ele>109.5</ele>
        <time>2014-05-18T08:07:24Z</time>
      </trkpt>
      <trkpt lat="47.32406" lon="-1.6158">
        <ele>111.5</ele>
        <time>2014-05-18T08:07:28Z</time>
      </trkpt>
      <trkpt lat="47.32412" lon="-1.61574">
        <ele>111.5</ele>
        <time>2014-05-18T08:07:30Z</time>
      </trkpt>
      <trkpt lat="47.32418" lon="-1.6157">
        <ele>111</ele>
        <time>2014-05-18T08:07:32Z</time>
      </trkpt>
      <trkpt lat="47.32429" lon="-1.61556">
        <ele>110</ele>
        <time>2014-05-18T08:07:36Z</time>
      </trkpt>
      <trkpt lat="47.32435" lon="-1.6155">
        <ele>109</ele>
        <time>2014-05-18T08:07:38Z</time>
      </trkpt>
      <trkpt lat="47.32446" lon="-1.61544">
        <ele>108</ele>
        <time>2014-05-18T08:07:42Z</time>
      </trkpt>
      <trkpt lat="47.32451" lon="-1.6154">
        <ele>107.5</ele>
        <time>2014-05-18T08:07:44Z</time>
      </trkpt>
      <trkpt lat="47.32458" lon="-1.61531">
        <ele>106.5</ele>
        <time>2014-05-18T08:07:48Z</time>
      </trkpt>
      <trkpt lat="47.32462" lon="-1.61525">
        <ele>106.5</ele>
        <time>2014-05-18T08:07:50Z</time>
      </trkpt>
      <trkpt lat="47.32466" lon="-1.61513">
        <ele>107.5</ele>
        <time>2014-05-18T08:07:56Z</time>
      </trkpt>
      <trkpt lat="47.32446" lon="-1.61506">
        <ele>109</ele>
        <time>2014-05-18T08:08:04Z</time>
      </trkpt>
      <trkpt lat="47.32433" lon="-1.615">
        <ele>108.5</ele>
        <time>2014-05-18T08:08:08Z</time>
      </trkpt>
      <trkpt lat="47.32427" lon="-1.61497">
        <ele>108.5</ele>
        <time>2014-05-18T08:08:10Z</time>
      </trkpt>
      <trkpt lat="47.32413" lon="-1.61491">
        <ele>109</ele>
        <time>2014-05-18T08:08:14Z</time>
      </trkpt>
      <trkpt lat="47.32407" lon="-1.61488">
        <ele>112.5</ele>
        <time>2014-05-18T08:08:16Z</time>
      </trkpt>
      <trkpt lat="47.32398" lon="-1.61483">
        <ele>112</ele>
        <time>2014-05-18T08:08:20Z</time>
      </trkpt>
      <trkpt lat="47.32389" lon="-1.61479">
        <ele>112</ele>
        <time>2014-05-18T08:08:26Z</time>
      </trkpt>
      <trkpt lat="47.32385" lon="-1.61478">
        <ele>111.5</ele>
        <time>2014-05-18T08:08:28Z</time>
      </trkpt>
      <trkpt lat="47.3238" lon="-1.61467">
        <ele>109</ele>
        <time>2014-05-18T08:08:36Z</time>
      </trkpt>
      <trkpt lat="47.32379" lon="-1.61459">
        <ele>108.5</ele>
        <time>2014-05-18T08:08:38Z</time>
      </trkpt>
      <trkpt lat="47.32377" lon="-1.61443">
        <ele>107.5</ele>
        <time>2014-05-18T08:08:42Z</time>
      </trkpt>
      <trkpt lat="47.32375" lon="-1.61434">
        <ele>107.5</ele>
        <time>2014-05-18T08:08:44Z</time>
      </trkpt>
      <trkpt lat="47.32371" lon="-1.61423">
        <ele>107.5</ele>
        <time>2014-05-18T08:08:46Z</time>
      </trkpt>
      <trkpt lat="47.32362" lon="-1.61419">
        <ele>107</ele>
        <time>2014-05-18T08:08:48Z</time>
      </trkpt>
      <trkpt lat="47.3234" lon="-1.6141">
        <ele>106</ele>
        <time>2014-05-18T08:08:52Z</time>
      </trkpt>
      <trkpt lat="47.32319" lon="-1.61392">
        <ele>105.5</ele>
        <time>2014-05-18T08:08:56Z</time>
      </trkpt>
      <trkpt lat="47.323" lon="-1.61364">
        <ele>104</ele>
        <time>2014-05-18T08:09:00Z</time>
      </trkpt>
      <trkpt lat="47.32287" lon="-1.61331">
        <ele>102.5</ele>
        <time>2014-05-18T08:09:04Z</time>
      </trkpt>
      <trkpt lat="47.32274" lon="-1.61299">
        <ele>102</ele>
        <time>2014-05-18T08:09:08Z</time>
      </trkpt>
      <trkpt lat="47.3226" lon="-1.61265">
        <ele>101</ele>
        <time>2014-05-18T08:09:12Z</time>
      </trkpt>
      <trkpt lat="47.32246" lon="-1.61229">
        <ele>98.5</ele>
        <time>2014-05-18T08:09:16Z</time>
      </trkpt>
      <trkpt lat="47.3223" lon="-1.61195">
        <ele>97</ele>
        <time>2014-05-18T08:09:20Z</time>
      </trkpt>
      <trkpt lat="47.32211" lon="-1.61156">
        <ele>96</ele>
        <time>2014-05-18T08:09:24Z</time>
      </trkpt>
      <trkpt lat="47.322" lon="-1.61139">
        <ele>94.5</ele>
        <time>2014-05-18T08:09:26Z</time>
      </trkpt>
      <trkpt lat="47.32194" lon="-1.61131">
        <ele>94</ele>
        <time>2014-05-18T08:09:27Z</time>
      </trkpt>
      <trkpt lat="47.32187" lon="-1.61124">
        <ele>93.5</ele>
        <time>2014-05-18T08:09:28Z</time>
      </trkpt>
      <trkpt lat="47.32174" lon="-1.6111">
        <ele>92.5</ele>
        <time>2014-05-18T08:09:30Z</time>
      </trkpt>
      <trkpt lat="47.32167" lon="-1.61102">
        <ele>91.5</ele>
        <time>2014-05-18T08:09:31Z</time>
      </trkpt>
      <trkpt lat="47.3216" lon="-1.61093">
        <ele>90.5</ele>
        <time>2014-05-18T08:09:32Z</time>
      </trkpt>
      <trkpt lat="47.32147" lon="-1.61075">
        <ele>89</ele>
        <time>2014-05-18T08:09:34Z</time>
      </trkpt>
      <trkpt lat="47.3214" lon="-1.61065">
        <ele>88.5</ele>
        <time>2014-05-18T08:09:35Z</time>
      </trkpt>
      <trkpt lat="47.32135" lon="-1.61054">
        <ele>88</ele>
        <time>2014-05-18T08:09:36Z</time>
      </trkpt>
      <trkpt lat="47.32127" lon="-1.61029">
        <ele>87</ele>
        <time>2014-05-18T08:09:38Z</time>
      </trkpt>
      <trkpt lat="47.32124" lon="-1.61016">
        <ele>86.5</ele>
        <time>2014-05-18T08:09:39Z</time>
      </trkpt>
      <trkpt lat="47.32122" lon="-1.61004">
        <ele>86</ele>
        <time>2014-05-18T08:09:40Z</time>
      </trkpt>
      <trkpt lat="47.32117" lon="-1.60982">
        <ele>85</ele>
        <time>2014-05-18T08:09:42Z</time>
      </trkpt>
      <trkpt lat="47.32114" lon="-1.60971">
        <ele>85</ele>
        <time>2014-05-18T08:09:43Z</time>
      </trkpt>
      <trkpt lat="47.32112" lon="-1.6096">
        <ele>85</ele>
        <time>2014-05-18T08:09:44Z</time>
      </trkpt>
      <trkpt lat="47.3211" lon="-1.60949">
        <ele>84.5</ele>
        <time>2014-05-18T08:09:45Z</time>
      </trkpt>
      <trkpt lat="47.32106" lon="-1.60927">
        <ele>84</ele>
        <time>2014-05-18T08:09:47Z</time>
      </trkpt>
      <trkpt lat="47.32106" lon="-1.60918">
        <ele>86</ele>
        <time>2014-05-18T08:09:48Z</time>
      </trkpt>
      <trkpt lat="47.32104" lon="-1.60909">
        <ele>86</ele>
        <time>2014-05-18T08:09:49Z</time>
      </trkpt>
      <trkpt lat="47.32075" lon="-1.60906">
        <ele>88</ele>
        <time>2014-05-18T08:09:54Z</time>
      </trkpt>
      <trkpt lat="47.32048" lon="-1.60917">
        <ele>88</ele>
        <time>2014-05-18T08:09:58Z</time>
      </trkpt>
      <trkpt lat="47.32031" lon="-1.60912">
        <ele>84.5</ele>
        <time>2014-05-18T08:10:02Z</time>
      </trkpt>
      <trkpt lat="47.32023" lon="-1.60892">
        <ele>84</ele>
        <time>2014-05-18T08:10:06Z</time>
      </trkpt>
      <trkpt lat="47.32018" lon="-1.60878">
        <ele>83</ele>
        <time>2014-05-18T08:10:08Z</time>
      </trkpt>
      <trkpt lat="47.32004" lon="-1.60847">
        <ele>82.5</ele>
        <time>2014-05-18T08:10:12Z</time>
      </trkpt>
      <trkpt lat="47.31992" lon="-1.60814">
        <ele>81.5</ele>
        <time>2014-05-18T08:10:16Z</time>
      </trkpt>
      <trkpt lat="47.31974" lon="-1.60781">
        <ele>79</ele>
        <time>2014-05-18T08:10:20Z</time>
      </trkpt>
      <trkpt lat="47.31951" lon="-1.60751">
        <ele>76.5</ele>
        <time>2014-05-18T08:10:24Z</time>
      </trkpt>
      <trkpt lat="47.31941" lon="-1.60736">
        <ele>76</ele>
        <time>2014-05-18T08:10:26Z</time>
      </trkpt>
      <trkpt lat="47.31937" lon="-1.60729">
        <ele>76</ele>
        <time>2014-05-18T08:10:27Z</time>
      </trkpt>
      <trkpt lat="47.31934" lon="-1.6072">
        <ele>75.5</ele>
        <time>2014-05-18T08:10:28Z</time>
      </trkpt>
      <trkpt lat="47.31931" lon="-1.60688">
        <ele>78</ele>
        <time>2014-05-18T08:10:33Z</time>
      </trkpt>
      <trkpt lat="47.31927" lon="-1.6066">
        <ele>80.5</ele>
        <time>2014-05-18T08:10:39Z</time>
      </trkpt>
      <trkpt lat="47.31926" lon="-1.60642">
        <ele>82</ele>
        <time>2014-05-18T08:10:43Z</time>
      </trkpt>
      <trkpt lat="47.31926" lon="-1.60632">
        <ele>82</ele>
        <time>2014-05-18T08:10:45Z</time>
      </trkpt>
      <trkpt lat="47.31928" lon="-1.60613">
        <ele>82.5</ele>
        <time>2014-05-18T08:10:49Z</time>
      </trkpt>
      <trkpt lat="47.31929" lon="-1.60606">
        <ele>83.5</ele>
        <time>2014-05-18T08:10:51Z</time>
      </trkpt>
      <trkpt lat="47.31928" lon="-1.60586">
        <ele>85</ele>
        <time>2014-05-18T08:10:57Z</time>
      </trkpt>
      <trkpt lat="47.31926" lon="-1.6057">
        <ele>85.5</ele>
        <time>2014-05-18T08:11:01Z</time>
      </trkpt>
      <trkpt lat="47.31924" lon="-1.60563">
        <ele>85.5</ele>
        <time>2014-05-18T08:11:03Z</time>
      </trkpt>
      <trkpt lat="47.31922" lon="-1.60557">
        <ele>85.5</ele>
        <time>2014-05-18T08:11:05Z</time>
      </trkpt>
      <trkpt lat="47.31918" lon="-1.60545">
        <ele>88</ele>
        <time>2014-05-18T08:11:11Z</time>
      </trkpt>
      <trkpt lat="47.31916" lon="-1.60533">
        <ele>89.5</ele>
        <time>2014-05-18T08:11:17Z</time>
      </trkpt>
      <trkpt lat="47.31915" lon="-1.60528">
        <ele>89.5</ele>
        <time>2014-05-18T08:11:19Z</time>
      </trkpt>
      <trkpt lat="47.31914" lon="-1.60518">
        <ele>90.5</ele>
        <time>2014-05-18T08:11:23Z</time>
      </trkpt>
      <trkpt lat="47.31911" lon="-1.605">
        <ele>91.5</ele>
        <time>2014-05-18T08:11:31Z</time>
      </trkpt>
      <trkpt lat="47.31906" lon="-1.60491">
        <ele>93.5</ele>
        <time>2014-05-18T08:11:35Z</time>
      </trkpt>
      <trkpt lat="47.319" lon="-1.60477">
        <ele>95</ele>
        <time>2014-05-18T08:11:41Z</time>
      </trkpt>
      <trkpt lat="47.31896" lon="-1.60472">
        <ele>96.5</ele>
        <time>2014-05-18T08:11:43Z</time>
      </trkpt>
      <trkpt lat="47.31894" lon="-1.60468">
        <ele>98</ele>
        <time>2014-05-18T08:11:45Z</time>
      </trkpt>
      <trkpt lat="47.31888" lon="-1.60457">
        <ele>100</ele>
        <time>2014-05-18T08:11:51Z</time>
      </trkpt>
      <trkpt lat="47.31886" lon="-1.60445">
        <ele>100</ele>
        <time>2014-05-18T08:11:55Z</time>
      </trkpt>
      <trkpt lat="47.31883" lon="-1.60434">
        <ele>99.5</ele>
        <time>2014-05-18T08:11:59Z</time>
      </trkpt>
      <trkpt lat="47.31882" lon="-1.60429">
        <ele>99</ele>
        <time>2014-05-18T08:12:01Z</time>
      </trkpt>
      <trkpt lat="47.31877" lon="-1.60418">
        <ele>98</ele>
        <time>2014-05-18T08:12:05Z</time>
      </trkpt>
      <trkpt lat="47.31874" lon="-1.60403">
        <ele>99</ele>
        <time>2014-05-18T08:12:11Z</time>
      </trkpt>
      <trkpt lat="47.31873" lon="-1.60399">
        <ele>100</ele>
        <time>2014-05-18T08:12:13Z</time>
      </trkpt>
      <trkpt lat="47.31872" lon="-1.60395">
        <ele>102.5</ele>
        <time>2014-05-18T08:12:15Z</time>
      </trkpt>
      <trkpt lat="47.31861" lon="-1.60362">
        <ele>105</ele>
        <time>2014-05-18T08:12:25Z</time>
      </trkpt>
      <trkpt lat="47.31865" lon="-1.60339">
        <ele>104.5</ele>
        <time>2014-05-18T08:12:29Z</time>
      </trkpt>
      <trkpt lat="47.3187" lon="-1.60332">
        <ele>103.5</ele>
        <time>2014-05-18T08:12:31Z</time>
      </trkpt>
      <trkpt lat="47.31881" lon="-1.60313">
        <ele>102.5</ele>
        <time>2014-05-18T08:12:35Z</time>
      </trkpt>
      <trkpt lat="47.31888" lon="-1.60293">
        <ele>102</ele>
        <time>2014-05-18T08:12:39Z</time>
      </trkpt>
      <trkpt lat="47.31886" lon="-1.60283">
        <ele>101.5</ele>
        <time>2014-05-18T08:12:41Z</time>
      </trkpt>
      <trkpt lat="47.31886" lon="-1.60263">
        <ele>100.5</ele>
        <time>2014-05-18T08:12:45Z</time>
      </trkpt>
      <trkpt lat="47.31891" lon="-1.60241">
        <ele>99.5</ele>
        <time>2014-05-18T08:12:49Z</time>
      </trkpt>
      <trkpt lat="47.31891" lon="-1.60231">
        <ele>99.5</ele>
        <time>2014-05-18T08:12:51Z</time>
      </trkpt>
      <trkpt lat="47.31887" lon="-1.60208">
        <ele>99</ele>
        <time>2014-05-18T08:12:55Z</time>
      </trkpt>
      <trkpt lat="47.31886" lon="-1.60196">
        <ele>99.5</ele>
        <time>2014-05-18T08:12:57Z</time>
      </trkpt>
      <trkpt lat="47.31884" lon="-1.60173">
        <ele>99</ele>
        <time>2014-05-18T08:13:01Z</time>
      </trkpt>
      <trkpt lat="47.31882" lon="-1.60146">
        <ele>98</ele>
        <time>2014-05-18T08:13:05Z</time>
      </trkpt>
      <trkpt lat="47.31876" lon="-1.60119">
        <ele>97.5</ele>
        <time>2014-05-18T08:13:09Z</time>
      </trkpt>
      <trkpt lat="47.31871" lon="-1.6009">
        <ele>97</ele>
        <time>2014-05-18T08:13:13Z</time>
      </trkpt>
      <trkpt lat="47.31865" lon="-1.60059">
        <ele>96</ele>
        <time>2014-05-18T08:13:17Z</time>
      </trkpt>
      <trkpt lat="47.31858" lon="-1.60025">
        <ele>94</ele>
        <time>2014-05-18T08:13:21Z</time>
      </trkpt>
      <trkpt lat="47.31848" lon="-1.59989">
        <ele>92</ele>
        <time>2014-05-18T08:13:25Z</time>
      </trkpt>
      <trkpt lat="47.31842" lon="-1.5996">
        <ele>91</ele>
        <time>2014-05-18T08:13:29Z</time>
      </trkpt>
      <trkpt lat="47.31837" lon="-1.5995">
        <ele>91</ele>
        <time>2014-05-18T08:13:33Z</time>
      </trkpt>
      <trkpt lat="47.31822" lon="-1.59959">
        <ele>90.5</ele>
        <time>2014-05-18T08:13:37Z</time>
      </trkpt>
      <trkpt lat="47.31812" lon="-1.59964">
        <ele>90</ele>
        <time>2014-05-18T08:13:39Z</time>
      </trkpt>
      <trkpt lat="47.31801" lon="-1.5997">
        <ele>90</ele>
        <time>2014-05-18T08:13:41Z</time>
      </trkpt>
      <trkpt lat="47.3178" lon="-1.59985">
        <ele>89</ele>
        <time>2014-05-18T08:13:45Z</time>
      </trkpt>
      <trkpt lat="47.31758" lon="-1.59999">
        <ele>90</ele>
        <time>2014-05-18T08:13:49Z</time>
      </trkpt>
      <trkpt lat="47.31736" lon="-1.60009">
        <ele>90</ele>
        <time>2014-05-18T08:13:53Z</time>
      </trkpt>
      <trkpt lat="47.31712" lon="-1.60024">
        <ele>91.5</ele>
        <time>2014-05-18T08:13:57Z</time>
      </trkpt>
      <trkpt lat="47.31688" lon="-1.60038">
        <ele>91.5</ele>
        <time>2014-05-18T08:14:01Z</time>
      </trkpt>
      <trkpt lat="47.31661" lon="-1.60049">
        <ele>91</ele>
        <time>2014-05-18T08:14:05Z</time>
      </trkpt>
      <trkpt lat="47.31635" lon="-1.60038">
        <ele>90</ele>
        <time>2014-05-18T08:14:09Z</time>
      </trkpt>
      <trkpt lat="47.31615" lon="-1.60005">
        <ele>89</ele>
        <time>2014-05-18T08:14:13Z</time>
      </trkpt>
      <trkpt lat="47.31605" lon="-1.59963">
        <ele>88</ele>
        <time>2014-05-18T08:14:17Z</time>
      </trkpt>
      <trkpt lat="47.31599" lon="-1.59931">
        <ele>87.5</ele>
        <time>2014-05-18T08:14:20Z</time>
      </trkpt>
      <trkpt lat="47.31597" lon="-1.5992">
        <ele>87.5</ele>
        <time>2014-05-18T08:14:21Z</time>
      </trkpt>
      <trkpt lat="47.31593" lon="-1.59899">
        <ele>87</ele>
        <time>2014-05-18T08:14:23Z</time>
      </trkpt>
      <trkpt lat="47.31591" lon="-1.59888">
        <ele>87</ele>
        <time>2014-05-18T08:14:24Z</time>
      </trkpt>
      <trkpt lat="47.31589" lon="-1.59878">
        <ele>86.5</ele>
        <time>2014-05-18T08:14:25Z</time>
      </trkpt>
      <trkpt lat="47.31585" lon="-1.59857">
        <ele>86</ele>
        <time>2014-05-18T08:14:27Z</time>
      </trkpt>
      <trkpt lat="47.31581" lon="-1.59847">
        <ele>85.5</ele>
        <time>2014-05-18T08:14:28Z</time>
      </trkpt>
      <trkpt lat="47.31576" lon="-1.59838">
        <ele>85.5</ele>
        <time>2014-05-18T08:14:29Z</time>
      </trkpt>
      <trkpt lat="47.31561" lon="-1.59828">
        <ele>85.5</ele>
        <time>2014-05-18T08:14:31Z</time>
      </trkpt>
      <trkpt lat="47.31552" lon="-1.59829">
        <ele>84.5</ele>
        <time>2014-05-18T08:14:32Z</time>
      </trkpt>
      <trkpt lat="47.31542" lon="-1.59833">
        <ele>85.5</ele>
        <time>2014-05-18T08:14:33Z</time>
      </trkpt>
      <trkpt lat="47.31528" lon="-1.59852">
        <ele>83</ele>
        <time>2014-05-18T08:14:35Z</time>
      </trkpt>
      <trkpt lat="47.31524" lon="-1.59865">
        <ele>82.5</ele>
        <time>2014-05-18T08:14:36Z</time>
      </trkpt>
      <trkpt lat="47.31519" lon="-1.59877">
        <ele>82</ele>
        <time>2014-05-18T08:14:37Z</time>
      </trkpt>
      <trkpt lat="47.31515" lon="-1.5989">
        <ele>81</ele>
        <time>2014-05-18T08:14:38Z</time>
      </trkpt>
      <trkpt lat="47.31507" lon="-1.59917">
        <ele>80</ele>
        <time>2014-05-18T08:14:40Z</time>
      </trkpt>
      <trkpt lat="47.31505" lon="-1.59932">
        <ele>79.5</ele>
        <time>2014-05-18T08:14:41Z</time>
      </trkpt>
      <trkpt lat="47.31503" lon="-1.59947">
        <ele>79</ele>
        <time>2014-05-18T08:14:42Z</time>
      </trkpt>
      <trkpt lat="47.31503" lon="-1.59978">
        <ele>78.5</ele>
        <time>2014-05-18T08:14:44Z</time>
      </trkpt>
      <trkpt lat="47.31505" lon="-1.59992">
        <ele>78</ele>
        <time>2014-05-18T08:14:45Z</time>
      </trkpt>
      <trkpt lat="47.31507" lon="-1.60007">
        <ele>78</ele>
        <time>2014-05-18T08:14:46Z</time>
      </trkpt>
      <trkpt lat="47.31513" lon="-1.60034">
        <ele>78</ele>
        <time>2014-05-18T08:14:48Z</time>
      </trkpt>
      <trkpt lat="47.31517" lon="-1.60047">
        <ele>77.5</ele>
        <time>2014-05-18T08:14:49Z</time>
      </trkpt>
      <trkpt lat="47.3152" lon="-1.60059">
        <ele>77.5</ele>
        <time>2014-05-18T08:14:50Z</time>
      </trkpt>
      <trkpt lat="47.31522" lon="-1.60087">
        <ele>78</ele>
        <time>2014-05-18T08:14:52Z</time>
      </trkpt>
      <trkpt lat="47.31519" lon="-1.601">
        <ele>78</ele>
        <time>2014-05-18T08:14:53Z</time>
      </trkpt>
      <trkpt lat="47.31513" lon="-1.60109">
        <ele>79</ele>
        <time>2014-05-18T08:14:54Z</time>
      </trkpt>
      <trkpt lat="47.31498" lon="-1.60119">
        <ele>79</ele>
        <time>2014-05-18T08:14:56Z</time>
      </trkpt>
      <trkpt lat="47.31493" lon="-1.60123">
        <ele>79</ele>
        <time>2014-05-18T08:14:57Z</time>
      </trkpt>
      <trkpt lat="47.31486" lon="-1.60117">
        <ele>79</ele>
        <time>2014-05-18T08:14:58Z</time>
      </trkpt>
      <trkpt lat="47.31477" lon="-1.6009">
        <ele>77.5</ele>
        <time>2014-05-18T08:15:00Z</time>
      </trkpt>
      <trkpt lat="47.31473" lon="-1.60058">
        <ele>77.5</ele>
        <time>2014-05-18T08:15:02Z</time>
      </trkpt>
      <trkpt lat="47.31469" lon="-1.60028">
        <ele>77</ele>
        <time>2014-05-18T08:15:04Z</time>
      </trkpt>
      <trkpt lat="47.31467" lon="-1.60013">
        <ele>77</ele>
        <time>2014-05-18T08:15:05Z</time>
      </trkpt>
      <trkpt lat="47.3146" lon="-1.6">
        <ele>77.5</ele>
        <time>2014-05-18T08:15:06Z</time>
      </trkpt>
      <trkpt lat="47.31443" lon="-1.5998">
        <ele>79.5</ele>
        <time>2014-05-18T08:15:08Z</time>
      </trkpt>
      <trkpt lat="47.31434" lon="-1.59975">
        <ele>78</ele>
        <time>2014-05-18T08:15:09Z</time>
      </trkpt>
      <trkpt lat="47.31426" lon="-1.59972">
        <ele>76</ele>
        <time>2014-05-18T08:15:10Z</time>
      </trkpt>
      <trkpt lat="47.31406" lon="-1.59968">
        <ele>75</ele>
        <time>2014-05-18T08:15:12Z</time>
      </trkpt>
      <trkpt lat="47.31396" lon="-1.59966">
        <ele>74.5</ele>
        <time>2014-05-18T08:15:13Z</time>
      </trkpt>
      <trkpt lat="47.31387" lon="-1.59964">
        <ele>74.5</ele>
        <time>2014-05-18T08:15:14Z</time>
      </trkpt>
      <trkpt lat="47.31369" lon="-1.59965">
        <ele>74</ele>
        <time>2014-05-18T08:15:16Z</time>
      </trkpt>
      <trkpt lat="47.3136" lon="-1.59968">
        <ele>72</ele>
        <time>2014-05-18T08:15:17Z</time>
      </trkpt>
      <trkpt lat="47.31354" lon="-1.59973">
        <ele>72.5</ele>
        <time>2014-05-18T08:15:18Z</time>
      </trkpt>
      <trkpt lat="47.31348" lon="-1.59977">
        <ele>73.5</ele>
        <time>2014-05-18T08:15:20Z</time>
      </trkpt>
      <trkpt lat="47.31336" lon="-1.59951">
        <ele>75</ele>
        <time>2014-05-18T08:15:27Z</time>
      </trkpt>
      <trkpt lat="47.31333" lon="-1.5992">
        <ele>74</ele>
        <time>2014-05-18T08:15:31Z</time>
      </trkpt>
      <trkpt lat="47.31332" lon="-1.59905">
        <ele>73</ele>
        <time>2014-05-18T08:15:33Z</time>
      </trkpt>
      <trkpt lat="47.31331" lon="-1.59867">
        <ele>70.5</ele>
        <time>2014-05-18T08:15:39Z</time>
      </trkpt>
      <trkpt lat="47.31332" lon="-1.59842">
        <ele>70</ele>
        <time>2014-05-18T08:15:45Z</time>
      </trkpt>
      <trkpt lat="47.31331" lon="-1.5983">
        <ele>71</ele>
        <time>2014-05-18T08:15:49Z</time>
      </trkpt>
      <trkpt lat="47.31332" lon="-1.59822">
        <ele>72</ele>
        <time>2014-05-18T08:15:51Z</time>
      </trkpt>
      <trkpt lat="47.31332" lon="-1.59803">
        <ele>71</ele>
        <time>2014-05-18T08:15:55Z</time>
      </trkpt>
      <trkpt lat="47.31334" lon="-1.59787">
        <ele>72</ele>
        <time>2014-05-18T08:15:59Z</time>
      </trkpt>
      <trkpt lat="47.31333" lon="-1.59773">
        <ele>78</ele>
        <time>2014-05-18T08:16:03Z</time>
      </trkpt>
      <trkpt lat="47.31332" lon="-1.59766">
        <ele>77.5</ele>
        <time>2014-05-18T08:16:05Z</time>
      </trkpt>
      <trkpt lat="47.31332" lon="-1.59739">
        <ele>79.5</ele>
        <time>2014-05-18T08:16:13Z</time>
      </trkpt>
      <trkpt lat="47.3133" lon="-1.59727">
        <ele>82.5</ele>
        <time>2014-05-18T08:16:17Z</time>
      </trkpt>
      <trkpt lat="47.31328" lon="-1.59717">
        <ele>84.5</ele>
        <time>2014-05-18T08:16:19Z</time>
      </trkpt>
      <trkpt lat="47.31324" lon="-1.5969">
        <ele>85</ele>
        <time>2014-05-18T08:16:25Z</time>
      </trkpt>
      <trkpt lat="47.31324" lon="-1.59676">
        <ele>89</ele>
        <time>2014-05-18T08:16:29Z</time>
      </trkpt>
      <trkpt lat="47.31327" lon="-1.59668">
        <ele>89</ele>
        <time>2014-05-18T08:16:31Z</time>
      </trkpt>
      <trkpt lat="47.31319" lon="-1.59652">
        <ele>91</ele>
        <time>2014-05-18T08:16:35Z</time>
      </trkpt>
      <trkpt lat="47.31315" lon="-1.5964">
        <ele>94.5</ele>
        <time>2014-05-18T08:16:37Z</time>
      </trkpt>
      <trkpt lat="47.31306" lon="-1.59611">
        <ele>98</ele>
        <time>2014-05-18T08:16:43Z</time>
      </trkpt>
      <trkpt lat="47.31303" lon="-1.59593">
        <ele>99</ele>
        <time>2014-05-18T08:16:47Z</time>
      </trkpt>
      <trkpt lat="47.31304" lon="-1.59586">
        <ele>99</ele>
        <time>2014-05-18T08:16:49Z</time>
      </trkpt>
      <trkpt lat="47.31304" lon="-1.59568">
        <ele>98.5</ele>
        <time>2014-05-18T08:16:53Z</time>
      </trkpt>
      <trkpt lat="47.31301" lon="-1.5956">
        <ele>100</ele>
        <time>2014-05-18T08:16:55Z</time>
      </trkpt>
      <trkpt lat="47.31297" lon="-1.59541">
        <ele>100.5</ele>
        <time>2014-05-18T08:16:59Z</time>
      </trkpt>
      <trkpt lat="47.31294" lon="-1.59532">
        <ele>103.5</ele>
        <time>2014-05-18T08:17:01Z</time>
      </trkpt>
      <trkpt lat="47.31284" lon="-1.59521">
        <ele>103.5</ele>
        <time>2014-05-18T08:17:05Z</time>
      </trkpt>
      <trkpt lat="47.31277" lon="-1.59518">
        <ele>105.5</ele>
        <time>2014-05-18T08:17:07Z</time>
      </trkpt>
      <trkpt lat="47.31265" lon="-1.59514">
        <ele>106.5</ele>
        <time>2014-05-18T08:17:11Z</time>
      </trkpt>
      <trkpt lat="47.31244" lon="-1.59515">
        <ele>112.5</ele>
        <time>2014-05-18T08:17:19Z</time>
      </trkpt>
      <trkpt lat="47.31218" lon="-1.59516">
        <ele>112</ele>
        <time>2014-05-18T08:17:25Z</time>
      </trkpt>
      <trkpt lat="47.31197" lon="-1.5952">
        <ele>112.5</ele>
        <time>2014-05-18T08:17:29Z</time>
      </trkpt>
      <trkpt lat="47.31181" lon="-1.59531">
        <ele>110.5</ele>
        <time>2014-05-18T08:17:33Z</time>
      </trkpt>
      <trkpt lat="47.31171" lon="-1.59542">
        <ele>113</ele>
        <time>2014-05-18T08:17:37Z</time>
      </trkpt>
      <trkpt lat="47.31161" lon="-1.59556">
        <ele>111</ele>
        <time>2014-05-18T08:17:41Z</time>
      </trkpt>
      <trkpt lat="47.3116" lon="-1.59559">
        <ele>110.5</ele>
        <time>2014-05-18T08:17:43Z</time>
      </trkpt>
      <trkpt lat="47.31162" lon="-1.59571">
        <ele>112</ele>
        <time>2014-05-18T08:17:53Z</time>
      </trkpt>
      <trkpt lat="47.31174" lon="-1.59561">
        <ele>116</ele>
        <time>2014-05-18T08:18:01Z</time>
      </trkpt>
      <trkpt lat="47.3118" lon="-1.59563">
        <ele>119.5</ele>
        <time>2014-05-18T08:18:05Z</time>
      </trkpt>
      <trkpt lat="47.31188" lon="-1.5955">
        <ele>124.5</ele>
        <time>2014-05-18T08:18:17Z</time>
      </trkpt>
      <trkpt lat="47.31216" lon="-1.59526">
        <ele>125</ele>
        <time>2014-05-18T08:18:27Z</time>
      </trkpt>
      <trkpt lat="47.31225" lon="-1.59525">
        <ele>125</ele>
        <time>2014-05-18T08:18:29Z</time>
      </trkpt>
      <trkpt lat="47.31233" lon="-1.59522">
        <ele>126</ele>
        <time>2014-05-18T08:18:31Z</time>
      </trkpt>
      <trkpt lat="47.31249" lon="-1.59521">
        <ele>124.5</ele>
        <time>2014-05-18T08:18:37Z</time>
      </trkpt>
      <trkpt lat="47.31254" lon="-1.59526">
        <ele>128</ele>
        <time>2014-05-18T08:18:43Z</time>
      </trkpt>
      <trkpt lat="47.31258" lon="-1.59546">
        <ele>127</ele>
        <time>2014-05-18T08:18:47Z</time>
      </trkpt>
      <trkpt lat="47.31261" lon="-1.5956">
        <ele>123</ele>
        <time>2014-05-18T08:18:51Z</time>
      </trkpt>
      <trkpt lat="47.31265" lon="-1.59566">
        <ele>122.5</ele>
        <time>2014-05-18T08:18:55Z</time>
      </trkpt>
      <trkpt lat="47.31276" lon="-1.59597">
        <ele>125.5</ele>
        <time>2014-05-18T08:19:01Z</time>
      </trkpt>
      <trkpt lat="47.31278" lon="-1.59604">
        <ele>127</ele>
        <time>2014-05-18T08:19:03Z</time>
      </trkpt>
      <trkpt lat="47.31284" lon="-1.59631">
        <ele>128.5</ele>
        <time>2014-05-18T08:19:09Z</time>
      </trkpt>
      <trkpt lat="47.31288" lon="-1.59653">
        <ele>128</ele>
        <time>2014-05-18T08:19:13Z</time>
      </trkpt>
      <trkpt lat="47.31292" lon="-1.59664">
        <ele>126.5</ele>
        <time>2014-05-18T08:19:15Z</time>
      </trkpt>
      <trkpt lat="47.31301" lon="-1.59688">
        <ele>126</ele>
        <time>2014-05-18T08:19:19Z</time>
      </trkpt>
      <trkpt lat="47.31309" lon="-1.59715">
        <ele>121</ele>
        <time>2014-05-18T08:19:23Z</time>
      </trkpt>
      <trkpt lat="47.31315" lon="-1.59734">
        <ele>120</ele>
        <time>2014-05-18T08:19:27Z</time>
      </trkpt>
      <trkpt lat="47.31314" lon="-1.59757">
        <ele>118.5</ele>
        <time>2014-05-18T08:19:31Z</time>
      </trkpt>
      <trkpt lat="47.31311" lon="-1.59763">
        <ele>119.5</ele>
        <time>2014-05-18T08:19:33Z</time>
      </trkpt>
      <trkpt lat="47.31311" lon="-1.59785">
        <ele>118</ele>
        <time>2014-05-18T08:19:37Z</time>
      </trkpt>
      <trkpt lat="47.31314" lon="-1.59809">
        <ele>114</ele>
        <time>2014-05-18T08:19:43Z</time>
      </trkpt>
      <trkpt lat="47.31319" lon="-1.59826">
        <ele>114</ele>
        <time>2014-05-18T08:19:51Z</time>
      </trkpt>
      <trkpt lat="47.31316" lon="-1.59837">
        <ele>119</ele>
        <time>2014-05-18T08:19:59Z</time>
      </trkpt>
      <trkpt lat="47.31317" lon="-1.59844">
        <ele>117</ele>
        <time>2014-05-18T08:20:03Z</time>
      </trkpt>
      <trkpt lat="47.31317" lon="-1.59844">
        <ele>117</ele>
        <time>2014-05-18T08:20:33Z</time>
      </trkpt>
      <trkpt lat="47.31323" lon="-1.59856">
        <ele>113.5</ele>
        <time>2014-05-18T08:20:35Z</time>
      </trkpt>
      <trkpt lat="47.31321" lon="-1.59867">
        <ele>113</ele>
        <time>2014-05-18T08:20:39Z</time>
      </trkpt>
      <trkpt lat="47.31316" lon="-1.59882">
        <ele>114</ele>
        <time>2014-05-18T08:20:45Z</time>
      </trkpt>
      <trkpt lat="47.31315" lon="-1.59887">
        <ele>114.5</ele>
        <time>2014-05-18T08:20:47Z</time>
      </trkpt>
      <trkpt lat="47.31313" lon="-1.59895">
        <ele>112</ele>
        <time>2014-05-18T08:20:59Z</time>
      </trkpt>
      <trkpt lat="47.31311" lon="-1.59902">
        <ele>112.5</ele>
        <time>2014-05-18T08:21:03Z</time>
      </trkpt>
      <trkpt lat="47.3131" lon="-1.59914">
        <ele>112</ele>
        <time>2014-05-18T08:21:09Z</time>
      </trkpt>
      <trkpt lat="47.31311" lon="-1.59937">
        <ele>110.5</ele>
        <time>2014-05-18T08:21:15Z</time>
      </trkpt>
      <trkpt lat="47.31311" lon="-1.59946">
        <ele>109.5</ele>
        <time>2014-05-18T08:21:17Z</time>
      </trkpt>
      <trkpt lat="47.3131" lon="-1.5996">
        <ele>112</ele>
        <time>2014-05-18T08:21:21Z</time>
      </trkpt>
      <trkpt lat="47.313" lon="-1.59965">
        <ele>117.5</ele>
        <time>2014-05-18T08:21:29Z</time>
      </trkpt>
      <trkpt lat="47.31298" lon="-1.59954">
        <ele>117.5</ele>
        <time>2014-05-18T08:21:37Z</time>
      </trkpt>
      <trkpt lat="47.31295" lon="-1.59944">
        <ele>118</ele>
        <time>2014-05-18T08:21:43Z</time>
      </trkpt>
      <trkpt lat="47.31288" lon="-1.59917">
        <ele>126</ele>
        <time>2014-05-18T08:21:53Z</time>
      </trkpt>
      <trkpt lat="47.31281" lon="-1.59915">
        <ele>132</ele>
        <time>2014-05-18T08:21:57Z</time>
      </trkpt>
      <trkpt lat="47.31274" lon="-1.59907">
        <ele>132.5</ele>
        <time>2014-05-18T08:22:03Z</time>
      </trkpt>
      <trkpt lat="47.3127" lon="-1.59909">
        <ele>132</ele>
        <time>2014-05-18T08:22:05Z</time>
      </trkpt>
      <trkpt lat="47.31263" lon="-1.59912">
        <ele>133</ele>
        <time>2014-05-18T08:22:07Z</time>
      </trkpt>
      <trkpt lat="47.31258" lon="-1.59897">
        <ele>136.5</ele>
        <time>2014-05-18T08:22:15Z</time>
      </trkpt>
      <trkpt lat="47.31261" lon="-1.59891">
        <ele>138</ele>
        <time>2014-05-18T08:22:19Z</time>
      </trkpt>
      <trkpt lat="47.31274" lon="-1.5986">
        <ele>141.5</ele>
        <time>2014-05-18T08:22:25Z</time>
      </trkpt>
      <trkpt lat="47.31278" lon="-1.5985">
        <ele>142</ele>
        <time>2014-05-18T08:22:27Z</time>
      </trkpt>
      <trkpt lat="47.31283" lon="-1.59836">
        <ele>144.5</ele>
        <time>2014-05-18T08:22:29Z</time>
      </trkpt>
      <trkpt lat="47.31286" lon="-1.59802">
        <ele>144</ele>
        <time>2014-05-18T08:22:33Z</time>
      </trkpt>
      <trkpt lat="47.31283" lon="-1.59774">
        <ele>142.5</ele>
        <time>2014-05-18T08:22:37Z</time>
      </trkpt>
      <trkpt lat="47.31277" lon="-1.59761">
        <ele>142</ele>
        <time>2014-05-18T08:22:41Z</time>
      </trkpt>
      <trkpt lat="47.31274" lon="-1.59746">
        <ele>140.5</ele>
        <time>2014-05-18T08:22:47Z</time>
      </trkpt>
      <trkpt lat="47.31259" lon="-1.59717">
        <ele>138</ele>
        <time>2014-05-18T08:22:53Z</time>
      </trkpt>
      <trkpt lat="47.31254" lon="-1.59701">
        <ele>138</ele>
        <time>2014-05-18T08:22:59Z</time>
      </trkpt>
      <trkpt lat="47.31247" lon="-1.59673">
        <ele>141</ele>
        <time>2014-05-18T08:23:09Z</time>
      </trkpt>
      <trkpt lat="47.31248" lon="-1.59648">
        <ele>139</ele>
        <time>2014-05-18T08:23:15Z</time>
      </trkpt>
      <trkpt lat="47.31248" lon="-1.59631">
        <ele>138</ele>
        <time>2014-05-18T08:23:17Z</time>
      </trkpt>
      <trkpt lat="47.31246" lon="-1.59617">
        <ele>138.5</ele>
        <time>2014-05-18T08:23:21Z</time>
      </trkpt>
      <trkpt lat="47.31252" lon="-1.59594">
        <ele>133.5</ele>
        <time>2014-05-18T08:23:31Z</time>
      </trkpt>
      <trkpt lat="47.31255" lon="-1.59578">
        <ele>137</ele>
        <time>2014-05-18T08:23:39Z</time>
      </trkpt>
      <trkpt lat="47.31258" lon="-1.59569">
        <ele>135</ele>
        <time>2014-05-18T08:23:41Z</time>
      </trkpt>
      <trkpt lat="47.31261" lon="-1.59562">
        <ele>131</ele>
        <time>2014-05-18T08:23:43Z</time>
      </trkpt>
      <trkpt lat="47.31246" lon="-1.59558">
        <ele>133.5</ele>
        <time>2014-05-18T08:23:49Z</time>
      </trkpt>
      <trkpt lat="47.31232" lon="-1.59577">
        <ele>132.5</ele>
        <time>2014-05-18T08:23:57Z</time>
      </trkpt>
      <trkpt lat="47.31222" lon="-1.59602">
        <ele>132</ele>
        <time>2014-05-18T08:24:05Z</time>
      </trkpt>
      <trkpt lat="47.31209" lon="-1.59626">
        <ele>133.5</ele>
        <time>2014-05-18T08:24:13Z</time>
      </trkpt>
      <trkpt lat="47.31189" lon="-1.59628">
        <ele>133</ele>
        <time>2014-05-18T08:24:17Z</time>
      </trkpt>
      <trkpt lat="47.31165" lon="-1.5961">
        <ele>124.5</ele>
        <time>2014-05-18T08:24:23Z</time>
      </trkpt>
      <trkpt lat="47.31168" lon="-1.59585">
        <ele>122.5</ele>
        <time>2014-05-18T08:24:27Z</time>
      </trkpt>
      <trkpt lat="47.31178" lon="-1.5955">
        <ele>120</ele>
        <time>2014-05-18T08:24:31Z</time>
      </trkpt>
      <trkpt lat="47.31194" lon="-1.59527">
        <ele>107.5</ele>
        <time>2014-05-18T08:24:37Z</time>
      </trkpt>
      <trkpt lat="47.31195" lon="-1.59515">
        <ele>106</ele>
        <time>2014-05-18T08:24:41Z</time>
      </trkpt>
      <trkpt lat="47.31194" lon="-1.59508">
        <ele>106</ele>
        <time>2014-05-18T08:24:43Z</time>
      </trkpt>
      <trkpt lat="47.31193" lon="-1.595">
        <ele>110.5</ele>
        <time>2014-05-18T08:24:49Z</time>
      </trkpt>
      <trkpt lat="47.31182" lon="-1.59503">
        <ele>117</ele>
        <time>2014-05-18T08:24:57Z</time>
      </trkpt>
      <trkpt lat="47.31178" lon="-1.59505">
        <ele>120</ele>
        <time>2014-05-18T08:24:59Z</time>
      </trkpt>
      <trkpt lat="47.3117" lon="-1.59508">
        <ele>122</ele>
        <time>2014-05-18T08:25:03Z</time>
      </trkpt>
      <trkpt lat="47.31143" lon="-1.59511">
        <ele>121.5</ele>
        <time>2014-05-18T08:25:11Z</time>
      </trkpt>
      <trkpt lat="47.31135" lon="-1.59512">
        <ele>120.5</ele>
        <time>2014-05-18T08:25:15Z</time>
      </trkpt>
      <trkpt lat="47.31127" lon="-1.59517">
        <ele>121.5</ele>
        <time>2014-05-18T08:25:17Z</time>
      </trkpt>
      <trkpt lat="47.31118" lon="-1.59517">
        <ele>120</ele>
        <time>2014-05-18T08:25:23Z</time>
      </trkpt>
      <trkpt lat="47.31102" lon="-1.59524">
        <ele>124</ele>
        <time>2014-05-18T08:25:31Z</time>
      </trkpt>
      <trkpt lat="47.31097" lon="-1.59532">
        <ele>125</ele>
        <time>2014-05-18T08:25:33Z</time>
      </trkpt>
      <trkpt lat="47.31092" lon="-1.59533">
        <ele>125.5</ele>
        <time>2014-05-18T08:25:35Z</time>
      </trkpt>
      <trkpt lat="47.31083" lon="-1.59529">
        <ele>127.5</ele>
        <time>2014-05-18T08:25:39Z</time>
      </trkpt>
      <trkpt lat="47.31076" lon="-1.59533">
        <ele>125.5</ele>
        <time>2014-05-18T08:25:43Z</time>
      </trkpt>
      <trkpt lat="47.31075" lon="-1.59546">
        <ele>122</ele>
        <time>2014-05-18T08:25:53Z</time>
      </trkpt>
      <trkpt lat="47.31065" lon="-1.59541">
        <ele>126</ele>
        <time>2014-05-18T08:25:59Z</time>
      </trkpt>
      <trkpt lat="47.31049" lon="-1.5954">
        <ele>125.5</ele>
        <time>2014-05-18T08:26:03Z</time>
      </trkpt>
      <trkpt lat="47.31046" lon="-1.5954">
        <ele>126.5</ele>
        <time>2014-05-18T08:26:05Z</time>
      </trkpt>
      <trkpt lat="47.31034" lon="-1.59537">
        <ele>127</ele>
        <time>2014-05-18T08:26:09Z</time>
      </trkpt>
      <trkpt lat="47.31028" lon="-1.59535">
        <ele>129</ele>
        <time>2014-05-18T08:26:11Z</time>
      </trkpt>
      <trkpt lat="47.31006" lon="-1.59521">
        <ele>126.5</ele>
        <time>2014-05-18T08:26:17Z</time>
      </trkpt>
      <trkpt lat="47.30995" lon="-1.59508">
        <ele>119</ele>
        <time>2014-05-18T08:26:21Z</time>
      </trkpt>
      <trkpt lat="47.30989" lon="-1.59493">
        <ele>110.5</ele>
        <time>2014-05-18T08:26:29Z</time>
      </trkpt>
      <trkpt lat="47.30994" lon="-1.59475">
        <ele>107.5</ele>
        <time>2014-05-18T08:26:35Z</time>
      </trkpt>
      <trkpt lat="47.30998" lon="-1.59466">
        <ele>106.5</ele>
        <time>2014-05-18T08:26:37Z</time>
      </trkpt>
      <trkpt lat="47.31003" lon="-1.59447">
        <ele>107</ele>
        <time>2014-05-18T08:26:43Z</time>
      </trkpt>
      <trkpt lat="47.31006" lon="-1.59438">
        <ele>107.5</ele>
        <time>2014-05-18T08:26:45Z</time>
      </trkpt>
      <trkpt lat="47.31012" lon="-1.59421">
        <ele>110</ele>
        <time>2014-05-18T08:26:51Z</time>
      </trkpt>
      <trkpt lat="47.31021" lon="-1.59404">
        <ele>111</ele>
        <time>2014-05-18T08:26:57Z</time>
      </trkpt>
      <trkpt lat="47.31025" lon="-1.59397">
        <ele>111.5</ele>
        <time>2014-05-18T08:26:59Z</time>
      </trkpt>
      <trkpt lat="47.31031" lon="-1.59377">
        <ele>112.5</ele>
        <time>2014-05-18T08:27:05Z</time>
      </trkpt>
      <trkpt lat="47.31033" lon="-1.59368">
        <ele>112.5</ele>
        <time>2014-05-18T08:27:07Z</time>
      </trkpt>
      <trkpt lat="47.31032" lon="-1.5935">
        <ele>114.5</ele>
        <time>2014-05-18T08:27:13Z</time>
      </trkpt>
      <trkpt lat="47.31022" lon="-1.59336">
        <ele>116</ele>
        <time>2014-05-18T08:27:19Z</time>
      </trkpt>
      <trkpt lat="47.31014" lon="-1.59333">
        <ele>115.5</ele>
        <time>2014-05-18T08:27:27Z</time>
      </trkpt>
      <trkpt lat="47.31018" lon="-1.59339">
        <ele>119</ele>
        <time>2014-05-18T08:27:37Z</time>
      </trkpt>
      <trkpt lat="47.31018" lon="-1.59347">
        <ele>117.5</ele>
        <time>2014-05-18T08:27:41Z</time>
      </trkpt>
      <trkpt lat="47.31019" lon="-1.59358">
        <ele>120</ele>
        <time>2014-05-18T08:27:47Z</time>
      </trkpt>
      <trkpt lat="47.3102" lon="-1.59366">
        <ele>121</ele>
        <time>2014-05-18T08:27:51Z</time>
      </trkpt>
      <trkpt lat="47.31012" lon="-1.59368">
        <ele>127</ele>
        <time>2014-05-18T08:27:55Z</time>
      </trkpt>
      <trkpt lat="47.30997" lon="-1.59378">
        <ele>135</ele>
        <time>2014-05-18T08:28:05Z</time>
      </trkpt>
      <trkpt lat="47.30997" lon="-1.59395">
        <ele>132</ele>
        <time>2014-05-18T08:28:13Z</time>
      </trkpt>
      <trkpt lat="47.30997" lon="-1.59422">
        <ele>132</ele>
        <time>2014-05-18T08:28:19Z</time>
      </trkpt>
      <trkpt lat="47.31" lon="-1.59431">
        <ele>132.5</ele>
        <time>2014-05-18T08:28:23Z</time>
      </trkpt>
      <trkpt lat="47.30986" lon="-1.59432">
        <ele>133.5</ele>
        <time>2014-05-18T08:28:31Z</time>
      </trkpt>
      <trkpt lat="47.3097" lon="-1.59432">
        <ele>127</ele>
        <time>2014-05-18T08:28:41Z</time>
      </trkpt>
      <trkpt lat="47.30965" lon="-1.59426">
        <ele>129</ele>
        <time>2014-05-18T08:28:53Z</time>
      </trkpt>
      <trkpt lat="47.30972" lon="-1.59417">
        <ele>130</ele>
        <time>2014-05-18T08:29:03Z</time>
      </trkpt>
      <trkpt lat="47.30975" lon="-1.59412">
        <ele>131.5</ele>
        <time>2014-05-18T08:29:09Z</time>
      </trkpt>
      <trkpt lat="47.30967" lon="-1.59399">
        <ele>138.5</ele>
        <time>2014-05-18T08:29:19Z</time>
      </trkpt>
      <trkpt lat="47.30964" lon="-1.59421">
        <ele>134.5</ele>
        <time>2014-05-18T08:29:35Z</time>
      </trkpt>
      <trkpt lat="47.30955" lon="-1.59456">
        <ele>126.5</ele>
        <time>2014-05-18T08:29:43Z</time>
      </trkpt>
      <trkpt lat="47.30959" lon="-1.59473">
        <ele>118.5</ele>
        <time>2014-05-18T08:29:47Z</time>
      </trkpt>
      <trkpt lat="47.30971" lon="-1.59481">
        <ele>114</ele>
        <time>2014-05-18T08:29:49Z</time>
      </trkpt>
      <trkpt lat="47.3098" lon="-1.59493">
        <ele>112.5</ele>
        <time>2014-05-18T08:29:51Z</time>
      </trkpt>
      <trkpt lat="47.30981" lon="-1.59542">
        <ele>107.5</ele>
        <time>2014-05-18T08:29:55Z</time>
      </trkpt>
      <trkpt lat="47.30979" lon="-1.59597">
        <ele>101.5</ele>
        <time>2014-05-18T08:29:59Z</time>
      </trkpt>
      <trkpt lat="47.30978" lon="-1.59624">
        <ele>98</ele>
        <time>2014-05-18T08:30:01Z</time>
      </trkpt>
      <trkpt lat="47.30978" lon="-1.59637">
        <ele>97</ele>
        <time>2014-05-18T08:30:02Z</time>
      </trkpt>
      <trkpt lat="47.30979" lon="-1.59651">
        <ele>96</ele>
        <time>2014-05-18T08:30:03Z</time>
      </trkpt>
      <trkpt lat="47.30982" lon="-1.59675">
        <ele>93.5</ele>
        <time>2014-05-18T08:30:05Z</time>
      </trkpt>
      <trkpt lat="47.30983" lon="-1.59686">
        <ele>93</ele>
        <time>2014-05-18T08:30:06Z</time>
      </trkpt>
      <trkpt lat="47.30985" lon="-1.59696">
        <ele>92.5</ele>
        <time>2014-05-18T08:30:07Z</time>
      </trkpt>
      <trkpt lat="47.30988" lon="-1.59715">
        <ele>92</ele>
        <time>2014-05-18T08:30:09Z</time>
      </trkpt>
      <trkpt lat="47.30989" lon="-1.59724">
        <ele>91.5</ele>
        <time>2014-05-18T08:30:10Z</time>
      </trkpt>
      <trkpt lat="47.3099" lon="-1.59731">
        <ele>90.5</ele>
        <time>2014-05-18T08:30:11Z</time>
      </trkpt>
      <trkpt lat="47.30988" lon="-1.59762">
        <ele>88</ele>
        <time>2014-05-18T08:30:16Z</time>
      </trkpt>
      <trkpt lat="47.30974" lon="-1.59778">
        <ele>91.5</ele>
        <time>2014-05-18T08:30:20Z</time>
      </trkpt>
      <trkpt lat="47.30958" lon="-1.59791">
        <ele>93.5</ele>
        <time>2014-05-18T08:30:24Z</time>
      </trkpt>
      <trkpt lat="47.30944" lon="-1.59801">
        <ele>95.5</ele>
        <time>2014-05-18T08:30:28Z</time>
      </trkpt>
      <trkpt lat="47.3093" lon="-1.59808">
        <ele>97</ele>
        <time>2014-05-18T08:30:32Z</time>
      </trkpt>
      <trkpt lat="47.30915" lon="-1.59815">
        <ele>97.5</ele>
        <time>2014-05-18T08:30:36Z</time>
      </trkpt>
      <trkpt lat="47.30902" lon="-1.59826">
        <ele>98.5</ele>
        <time>2014-05-18T08:30:40Z</time>
      </trkpt>
      <trkpt lat="47.30892" lon="-1.59836">
        <ele>102</ele>
        <time>2014-05-18T08:30:44Z</time>
      </trkpt>
      <trkpt lat="47.30887" lon="-1.5984">
        <ele>102.5</ele>
        <time>2014-05-18T08:30:46Z</time>
      </trkpt>
      <trkpt lat="47.30877" lon="-1.59845">
        <ele>103</ele>
        <time>2014-05-18T08:30:50Z</time>
      </trkpt>
      <trkpt lat="47.30873" lon="-1.59847">
        <ele>103.5</ele>
        <time>2014-05-18T08:30:52Z</time>
      </trkpt>
      <trkpt lat="47.30864" lon="-1.59853">
        <ele>105</ele>
        <time>2014-05-18T08:30:56Z</time>
      </trkpt>
      <trkpt lat="47.30859" lon="-1.59856">
        <ele>105.5</ele>
        <time>2014-05-18T08:30:58Z</time>
      </trkpt>
      <trkpt lat="47.30854" lon="-1.59859">
        <ele>106</ele>
        <time>2014-05-18T08:31:00Z</time>
      </trkpt>
      <trkpt lat="47.30844" lon="-1.59866">
        <ele>107</ele>
        <time>2014-05-18T08:31:04Z</time>
      </trkpt>
      <trkpt lat="47.30838" lon="-1.5987">
        <ele>107.5</ele>
        <time>2014-05-18T08:31:06Z</time>
      </trkpt>
      <trkpt lat="47.30816" lon="-1.5987">
        <ele>105</ele>
        <time>2014-05-18T08:31:10Z</time>
      </trkpt>
      <trkpt lat="47.30804" lon="-1.59875">
        <ele>106</ele>
        <time>2014-05-18T08:31:14Z</time>
      </trkpt>
      <trkpt lat="47.30793" lon="-1.59882">
        <ele>107</ele>
        <time>2014-05-18T08:31:18Z</time>
      </trkpt>
      <trkpt lat="47.30788" lon="-1.59885">
        <ele>107.5</ele>
        <time>2014-05-18T08:31:20Z</time>
      </trkpt>
      <trkpt lat="47.30778" lon="-1.59889">
        <ele>108</ele>
        <time>2014-05-18T08:31:24Z</time>
      </trkpt>
      <trkpt lat="47.30774" lon="-1.59893">
        <ele>108</ele>
        <time>2014-05-18T08:31:26Z</time>
      </trkpt>
      <trkpt lat="47.30764" lon="-1.59899">
        <ele>108.5</ele>
        <time>2014-05-18T08:31:30Z</time>
      </trkpt>
      <trkpt lat="47.30759" lon="-1.59902">
        <ele>108.5</ele>
        <time>2014-05-18T08:31:32Z</time>
      </trkpt>
      <trkpt lat="47.3075" lon="-1.59906">
        <ele>109</ele>
        <time>2014-05-18T08:31:36Z</time>
      </trkpt>
      <trkpt lat="47.30745" lon="-1.5991">
        <ele>109.5</ele>
        <time>2014-05-18T08:31:38Z</time>
      </trkpt>
      <trkpt lat="47.30735" lon="-1.59919">
        <ele>111</ele>
        <time>2014-05-18T08:31:44Z</time>
      </trkpt>
      <trkpt lat="47.3073" lon="-1.59923">
        <ele>112</ele>
        <time>2014-05-18T08:31:46Z</time>
      </trkpt>
      <trkpt lat="47.30719" lon="-1.59928">
        <ele>115</ele>
        <time>2014-05-18T08:31:50Z</time>
      </trkpt>
      <trkpt lat="47.30705" lon="-1.59935">
        <ele>115</ele>
        <time>2014-05-18T08:31:54Z</time>
      </trkpt>
      <trkpt lat="47.3069" lon="-1.59942">
        <ele>114</ele>
        <time>2014-05-18T08:31:58Z</time>
      </trkpt>
      <trkpt lat="47.30682" lon="-1.59947">
        <ele>114.5</ele>
        <time>2014-05-18T08:32:00Z</time>
      </trkpt>
      <trkpt lat="47.30664" lon="-1.59959">
        <ele>113.5</ele>
        <time>2014-05-18T08:32:04Z</time>
      </trkpt>
      <trkpt lat="47.30651" lon="-1.59967">
        <ele>113.5</ele>
        <time>2014-05-18T08:32:08Z</time>
      </trkpt>
      <trkpt lat="47.30638" lon="-1.5997">
        <ele>112</ele>
        <time>2014-05-18T08:32:10Z</time>
      </trkpt>
      <trkpt lat="47.30621" lon="-1.59974">
        <ele>111.5</ele>
        <time>2014-05-18T08:32:14Z</time>
      </trkpt>
      <trkpt lat="47.30605" lon="-1.59979">
        <ele>111</ele>
        <time>2014-05-18T08:32:18Z</time>
      </trkpt>
      <trkpt lat="47.30591" lon="-1.59987">
        <ele>111</ele>
        <time>2014-05-18T08:32:22Z</time>
      </trkpt>
      <trkpt lat="47.30581" lon="-1.59996">
        <ele>114</ele>
        <time>2014-05-18T08:32:26Z</time>
      </trkpt>
      <trkpt lat="47.30576" lon="-1.60001">
        <ele>114.5</ele>
        <time>2014-05-18T08:32:28Z</time>
      </trkpt>
      <trkpt lat="47.30565" lon="-1.60005">
        <ele>116</ele>
        <time>2014-05-18T08:32:32Z</time>
      </trkpt>
      <trkpt lat="47.30559" lon="-1.60006">
        <ele>116</ele>
        <time>2014-05-18T08:32:34Z</time>
      </trkpt>
      <trkpt lat="47.30546" lon="-1.60007">
        <ele>117</ele>
        <time>2014-05-18T08:32:38Z</time>
      </trkpt>
      <trkpt lat="47.3053" lon="-1.60008">
        <ele>118.5</ele>
        <time>2014-05-18T08:32:42Z</time>
      </trkpt>
      <trkpt lat="47.30515" lon="-1.6001">
        <ele>120</ele>
        <time>2014-05-18T08:32:46Z</time>
      </trkpt>
      <trkpt lat="47.30501" lon="-1.60013">
        <ele>122</ele>
        <time>2014-05-18T08:32:50Z</time>
      </trkpt>
      <trkpt lat="47.30484" lon="-1.60014">
        <ele>122.5</ele>
        <time>2014-05-18T08:32:54Z</time>
      </trkpt>
      <trkpt lat="47.30466" lon="-1.60015">
        <ele>122.5</ele>
        <time>2014-05-18T08:32:58Z</time>
      </trkpt>
      <trkpt lat="47.30448" lon="-1.60022">
        <ele>121.5</ele>
        <time>2014-05-18T08:33:02Z</time>
      </trkpt>
      <trkpt lat="47.30437" lon="-1.6004">
        <ele>121.5</ele>
        <time>2014-05-18T08:33:06Z</time>
      </trkpt>
      <trkpt lat="47.30431" lon="-1.60064">
        <ele>121.5</ele>
        <time>2014-05-18T08:33:10Z</time>
      </trkpt>
      <trkpt lat="47.30417" lon="-1.6009">
        <ele>121</ele>
        <time>2014-05-18T08:33:14Z</time>
      </trkpt>
      <trkpt lat="47.30401" lon="-1.60114">
        <ele>120</ele>
        <time>2014-05-18T08:33:18Z</time>
      </trkpt>
      <trkpt lat="47.30381" lon="-1.60138">
        <ele>119.5</ele>
        <time>2014-05-18T08:33:22Z</time>
      </trkpt>
      <trkpt lat="47.30364" lon="-1.60163">
        <ele>119</ele>
        <time>2014-05-18T08:33:26Z</time>
      </trkpt>
      <trkpt lat="47.30349" lon="-1.60191">
        <ele>118.5</ele>
        <time>2014-05-18T08:33:30Z</time>
      </trkpt>
      <trkpt lat="47.30331" lon="-1.60212">
        <ele>118.5</ele>
        <time>2014-05-18T08:33:34Z</time>
      </trkpt>
      <trkpt lat="47.30308" lon="-1.60228">
        <ele>118</ele>
        <time>2014-05-18T08:33:38Z</time>
      </trkpt>
      <trkpt lat="47.30286" lon="-1.60245">
        <ele>117.5</ele>
        <time>2014-05-18T08:33:42Z</time>
      </trkpt>
      <trkpt lat="47.30262" lon="-1.60263">
        <ele>117</ele>
        <time>2014-05-18T08:33:46Z</time>
      </trkpt>
      <trkpt lat="47.30238" lon="-1.60282">
        <ele>116.5</ele>
        <time>2014-05-18T08:33:50Z</time>
      </trkpt>
      <trkpt lat="47.30215" lon="-1.60299">
        <ele>116.5</ele>
        <time>2014-05-18T08:33:54Z</time>
      </trkpt>
      <trkpt lat="47.30195" lon="-1.60314">
        <ele>116</ele>
        <time>2014-05-18T08:33:58Z</time>
      </trkpt>
      <trkpt lat="47.3018" lon="-1.60331">
        <ele>116</ele>
        <time>2014-05-18T08:34:02Z</time>
      </trkpt>
      <trkpt lat="47.30161" lon="-1.60341">
        <ele>116</ele>
        <time>2014-05-18T08:34:06Z</time>
      </trkpt>
      <trkpt lat="47.3014" lon="-1.6035">
        <ele>115.5</ele>
        <time>2014-05-18T08:34:10Z</time>
      </trkpt>
      <trkpt lat="47.30119" lon="-1.60362">
        <ele>115.5</ele>
        <time>2014-05-18T08:34:14Z</time>
      </trkpt>
      <trkpt lat="47.301" lon="-1.60374">
        <ele>115.5</ele>
        <time>2014-05-18T08:34:18Z</time>
      </trkpt>
      <trkpt lat="47.30081" lon="-1.60383">
        <ele>116</ele>
        <time>2014-05-18T08:34:22Z</time>
      </trkpt>
      <trkpt lat="47.3006" lon="-1.60394">
        <ele>116</ele>
        <time>2014-05-18T08:34:26Z</time>
      </trkpt>
      <trkpt lat="47.30038" lon="-1.60403">
        <ele>115.5</ele>
        <time>2014-05-18T08:34:30Z</time>
      </trkpt>
      <trkpt lat="47.30019" lon="-1.60411">
        <ele>115.5</ele>
        <time>2014-05-18T08:34:34Z</time>
      </trkpt>
      <trkpt lat="47.30019" lon="-1.60432">
        <ele>117.5</ele>
        <time>2014-05-18T08:34:38Z</time>
      </trkpt>
      <trkpt lat="47.30035" lon="-1.60453">
        <ele>116.5</ele>
        <time>2014-05-18T08:34:42Z</time>
      </trkpt>
      <trkpt lat="47.30052" lon="-1.60479">
        <ele>116</ele>
        <time>2014-05-18T08:34:46Z</time>
      </trkpt>
      <trkpt lat="47.3007" lon="-1.60504">
        <ele>116</ele>
        <time>2014-05-18T08:34:50Z</time>
      </trkpt>
      <trkpt lat="47.30088" lon="-1.60531">
        <ele>116.5</ele>
        <time>2014-05-18T08:34:54Z</time>
      </trkpt>
      <trkpt lat="47.30106" lon="-1.60557">
        <ele>116.5</ele>
        <time>2014-05-18T08:34:58Z</time>
      </trkpt>
      <trkpt lat="47.30125" lon="-1.60584">
        <ele>116</ele>
        <time>2014-05-18T08:35:02Z</time>
      </trkpt>
      <trkpt lat="47.30144" lon="-1.60611">
        <ele>116</ele>
        <time>2014-05-18T08:35:06Z</time>
      </trkpt>
      <trkpt lat="47.30165" lon="-1.60636">
        <ele>115.5</ele>
        <time>2014-05-18T08:35:10Z</time>
      </trkpt>
      <trkpt lat="47.30184" lon="-1.60663">
        <ele>114.5</ele>
        <time>2014-05-18T08:35:14Z</time>
      </trkpt>
      <trkpt lat="47.30204" lon="-1.60691">
        <ele>115</ele>
        <time>2014-05-18T08:35:18Z</time>
      </trkpt>
      <trkpt lat="47.30222" lon="-1.60717">
        <ele>114</ele>
        <time>2014-05-18T08:35:22Z</time>
      </trkpt>
      <trkpt lat="47.30239" lon="-1.60742">
        <ele>114.5</ele>
        <time>2014-05-18T08:35:26Z</time>
      </trkpt>
      <trkpt lat="47.30257" lon="-1.60765">
        <ele>114.5</ele>
        <time>2014-05-18T08:35:30Z</time>
      </trkpt>
      <trkpt lat="47.30274" lon="-1.60789">
        <ele>114.5</ele>
        <time>2014-05-18T08:35:34Z</time>
      </trkpt>
      <trkpt lat="47.3029" lon="-1.6081">
        <ele>115.5</ele>
        <time>2014-05-18T08:35:38Z</time>
      </trkpt>
      <trkpt lat="47.30305" lon="-1.60828">
        <ele>116</ele>
        <time>2014-05-18T08:35:42Z</time>
      </trkpt>
      <trkpt lat="47.30311" lon="-1.60839">
        <ele>120</ele>
        <time>2014-05-18T08:35:46Z</time>
      </trkpt>
      <trkpt lat="47.30313" lon="-1.60862">
        <ele>122</ele>
        <time>2014-05-18T08:35:50Z</time>
      </trkpt>
      <trkpt lat="47.30314" lon="-1.60874">
        <ele>122</ele>
        <time>2014-05-18T08:35:52Z</time>
      </trkpt>
      <trkpt lat="47.30316" lon="-1.60897">
        <ele>120</ele>
        <time>2014-05-18T08:35:56Z</time>
      </trkpt>
      <trkpt lat="47.30316" lon="-1.60911">
        <ele>120.5</ele>
        <time>2014-05-18T08:36:00Z</time>
      </trkpt>
      <trkpt lat="47.30325" lon="-1.6092">
        <ele>125.5</ele>
        <time>2014-05-18T08:36:06Z</time>
      </trkpt>
      <trkpt lat="47.30338" lon="-1.60934">
        <ele>127.5</ele>
        <time>2014-05-18T08:36:12Z</time>
      </trkpt>
      <trkpt lat="47.30341" lon="-1.60942">
        <ele>127</ele>
        <time>2014-05-18T08:36:14Z</time>
      </trkpt>
      <trkpt lat="47.3034" lon="-1.60962">
        <ele>126</ele>
        <time>2014-05-18T08:36:18Z</time>
      </trkpt>
      <trkpt lat="47.30349" lon="-1.60977">
        <ele>128.5</ele>
        <time>2014-05-18T08:36:24Z</time>
      </trkpt>
      <trkpt lat="47.3036" lon="-1.60984">
        <ele>131</ele>
        <time>2014-05-18T08:36:28Z</time>
      </trkpt>
      <trkpt lat="47.30364" lon="-1.60993">
        <ele>131</ele>
        <time>2014-05-18T08:36:30Z</time>
      </trkpt>
      <trkpt lat="47.30368" lon="-1.61002">
        <ele>130</ele>
        <time>2014-05-18T08:36:32Z</time>
      </trkpt>
      <trkpt lat="47.30371" lon="-1.61021">
        <ele>128.5</ele>
        <time>2014-05-18T08:36:36Z</time>
      </trkpt>
      <trkpt lat="47.30379" lon="-1.61016">
        <ele>130</ele>
        <time>2014-05-18T08:36:42Z</time>
      </trkpt>
      <trkpt lat="47.3038" lon="-1.60982">
        <ele>123.5</ele>
        <time>2014-05-18T08:36:50Z</time>
      </trkpt>
      <trkpt lat="47.30377" lon="-1.60965">
        <ele>120.5</ele>
        <time>2014-05-18T08:36:54Z</time>
      </trkpt>
      <trkpt lat="47.30381" lon="-1.60959">
        <ele>121</ele>
        <time>2014-05-18T08:37:00Z</time>
      </trkpt>
      <trkpt lat="47.30396" lon="-1.6098">
        <ele>121</ele>
        <time>2014-05-18T08:37:08Z</time>
      </trkpt>
      <trkpt lat="47.30403" lon="-1.60987">
        <ele>118.5</ele>
        <time>2014-05-18T08:37:12Z</time>
      </trkpt>
      <trkpt lat="47.30403" lon="-1.61002">
        <ele>119</ele>
        <time>2014-05-18T08:37:18Z</time>
      </trkpt>
      <trkpt lat="47.304" lon="-1.61005">
        <ele>120</ele>
        <time>2014-05-18T08:37:20Z</time>
      </trkpt>
      <trkpt lat="47.30395" lon="-1.61018">
        <ele>121</ele>
        <time>2014-05-18T08:37:24Z</time>
      </trkpt>
      <trkpt lat="47.30404" lon="-1.61023">
        <ele>122.5</ele>
        <time>2014-05-18T08:37:28Z</time>
      </trkpt>
      <trkpt lat="47.30414" lon="-1.61026">
        <ele>123.5</ele>
        <time>2014-05-18T08:37:32Z</time>
      </trkpt>
      <trkpt lat="47.30429" lon="-1.61024">
        <ele>122</ele>
        <time>2014-05-18T08:37:36Z</time>
      </trkpt>
      <trkpt lat="47.30443" lon="-1.61022">
        <ele>120</ele>
        <time>2014-05-18T08:37:40Z</time>
      </trkpt>
      <trkpt lat="47.30448" lon="-1.61026">
        <ele>118</ele>
        <time>2014-05-18T08:37:42Z</time>
      </trkpt>
      <trkpt lat="47.30456" lon="-1.6103">
        <ele>117.5</ele>
        <time>2014-05-18T08:37:46Z</time>
      </trkpt>
      <trkpt lat="47.3046" lon="-1.61037">
        <ele>116</ele>
        <time>2014-05-18T08:37:48Z</time>
      </trkpt>
      <trkpt lat="47.30457" lon="-1.61051">
        <ele>117</ele>
        <time>2014-05-18T08:37:52Z</time>
      </trkpt>
      <trkpt lat="47.30461" lon="-1.61058">
        <ele>115.5</ele>
        <time>2014-05-18T08:37:54Z</time>
      </trkpt>
      <trkpt lat="47.30473" lon="-1.61068">
        <ele>118</ele>
        <time>2014-05-18T08:38:00Z</time>
      </trkpt>
      <trkpt lat="47.30479" lon="-1.61072">
        <ele>117.5</ele>
        <time>2014-05-18T08:38:02Z</time>
      </trkpt>
      <trkpt lat="47.30477" lon="-1.61082">
        <ele>119</ele>
        <time>2014-05-18T08:38:06Z</time>
      </trkpt>
      <trkpt lat="47.30473" lon="-1.61089">
        <ele>120.5</ele>
        <time>2014-05-18T08:38:10Z</time>
      </trkpt>
      <trkpt lat="47.30467" lon="-1.61098">
        <ele>122</ele>
        <time>2014-05-18T08:38:16Z</time>
      </trkpt>
      <trkpt lat="47.3048" lon="-1.61106">
        <ele>133</ele>
        <time>2014-05-18T08:38:26Z</time>
      </trkpt>
      <trkpt lat="47.30483" lon="-1.61114">
        <ele>135</ele>
        <time>2014-05-18T08:38:28Z</time>
      </trkpt>
      <trkpt lat="47.30486" lon="-1.61124">
        <ele>135.5</ele>
        <time>2014-05-18T08:38:34Z</time>
      </trkpt>
      <trkpt lat="47.30477" lon="-1.61127">
        <ele>137.5</ele>
        <time>2014-05-18T08:38:38Z</time>
      </trkpt>
      <trkpt lat="47.30467" lon="-1.61127">
        <ele>137.5</ele>
        <time>2014-05-18T08:38:42Z</time>
      </trkpt>
      <trkpt lat="47.30463" lon="-1.61118">
        <ele>140</ele>
        <time>2014-05-18T08:38:46Z</time>
      </trkpt>
      <trkpt lat="47.30463" lon="-1.61118">
        <ele>140</ele>
        <time>2014-05-18T08:39:10Z</time>
      </trkpt>
      <trkpt lat="47.30465" lon="-1.61135">
        <ele>155.5</ele>
        <time>2014-05-18T08:39:22Z</time>
      </trkpt>
      <trkpt lat="47.30461" lon="-1.61144">
        <ele>159</ele>
        <time>2014-05-18T08:39:26Z</time>
      </trkpt>
      <trkpt lat="47.30465" lon="-1.61156">
        <ele>158.5</ele>
        <time>2014-05-18T08:39:30Z</time>
      </trkpt>
      <trkpt lat="47.30483" lon="-1.61161">
        <ele>150.5</ele>
        <time>2014-05-18T08:39:38Z</time>
      </trkpt>
      <trkpt lat="47.30493" lon="-1.61155">
        <ele>150.5</ele>
        <time>2014-05-18T08:39:40Z</time>
      </trkpt>
      <trkpt lat="47.30504" lon="-1.61146">
        <ele>149.5</ele>
        <time>2014-05-18T08:39:44Z</time>
      </trkpt>
      <trkpt lat="47.30507" lon="-1.61138">
        <ele>150.5</ele>
        <time>2014-05-18T08:39:46Z</time>
      </trkpt>
      <trkpt lat="47.30514" lon="-1.61136">
        <ele>151</ele>
        <time>2014-05-18T08:39:52Z</time>
      </trkpt>
      <trkpt lat="47.3052" lon="-1.61118">
        <ele>149</ele>
        <time>2014-05-18T08:39:58Z</time>
      </trkpt>
      <trkpt lat="47.30518" lon="-1.61108">
        <ele>149</ele>
        <time>2014-05-18T08:40:02Z</time>
      </trkpt>
      <trkpt lat="47.30509" lon="-1.61106">
        <ele>150</ele>
        <time>2014-05-18T08:40:06Z</time>
      </trkpt>
      <trkpt lat="47.305" lon="-1.61115">
        <ele>150.5</ele>
        <time>2014-05-18T08:40:12Z</time>
      </trkpt>
      <trkpt lat="47.30496" lon="-1.61119">
        <ele>151</ele>
        <time>2014-05-18T08:40:14Z</time>
      </trkpt>
      <trkpt lat="47.30506" lon="-1.61135">
        <ele>144.5</ele>
        <time>2014-05-18T08:40:20Z</time>
      </trkpt>
      <trkpt lat="47.30512" lon="-1.61129">
        <ele>146</ele>
        <time>2014-05-18T08:40:22Z</time>
      </trkpt>
      <trkpt lat="47.30516" lon="-1.61115">
        <ele>148.5</ele>
        <time>2014-05-18T08:40:26Z</time>
      </trkpt>
      <trkpt lat="47.3053" lon="-1.61132">
        <ele>137</ele>
        <time>2014-05-18T08:40:34Z</time>
      </trkpt>
      <trkpt lat="47.30536" lon="-1.61116">
        <ele>134.5</ele>
        <time>2014-05-18T08:40:40Z</time>
      </trkpt>
      <trkpt lat="47.30539" lon="-1.61104">
        <ele>134</ele>
        <time>2014-05-18T08:40:48Z</time>
      </trkpt>
      <trkpt lat="47.30539" lon="-1.61095">
        <ele>135</ele>
        <time>2014-05-18T08:40:52Z</time>
      </trkpt>
      <trkpt lat="47.30541" lon="-1.61084">
        <ele>135</ele>
        <time>2014-05-18T08:40:58Z</time>
      </trkpt>
      <trkpt lat="47.30542" lon="-1.61068">
        <ele>131.5</ele>
        <time>2014-05-18T08:41:04Z</time>
      </trkpt>
      <trkpt lat="47.30543" lon="-1.6106">
        <ele>130</ele>
        <time>2014-05-18T08:41:06Z</time>
      </trkpt>
      <trkpt lat="47.30543" lon="-1.61049">
        <ele>128</ele>
        <time>2014-05-18T08:41:10Z</time>
      </trkpt>
      <trkpt lat="47.30539" lon="-1.61042">
        <ele>127.5</ele>
        <time>2014-05-18T08:41:14Z</time>
      </trkpt>
      <trkpt lat="47.3054" lon="-1.61033">
        <ele>131.5</ele>
        <time>2014-05-18T08:41:20Z</time>
      </trkpt>
      <trkpt lat="47.3054" lon="-1.6102">
        <ele>133.5</ele>
        <time>2014-05-18T08:41:24Z</time>
      </trkpt>
      <trkpt lat="47.30538" lon="-1.60999">
        <ele>136.5</ele>
        <time>2014-05-18T08:41:30Z</time>
      </trkpt>
      <trkpt lat="47.30536" lon="-1.60989">
        <ele>138</ele>
        <time>2014-05-18T08:41:32Z</time>
      </trkpt>
      <trkpt lat="47.30535" lon="-1.60978">
        <ele>139</ele>
        <time>2014-05-18T08:41:34Z</time>
      </trkpt>
      <trkpt lat="47.30534" lon="-1.60966">
        <ele>137.5</ele>
        <time>2014-05-18T08:41:40Z</time>
      </trkpt>
      <trkpt lat="47.30531" lon="-1.60947">
        <ele>137.5</ele>
        <time>2014-05-18T08:41:46Z</time>
      </trkpt>
      <trkpt lat="47.30526" lon="-1.60936">
        <ele>137.5</ele>
        <time>2014-05-18T08:41:48Z</time>
      </trkpt>
      <trkpt lat="47.30523" lon="-1.60922">
        <ele>137.5</ele>
        <time>2014-05-18T08:41:50Z</time>
      </trkpt>
      <trkpt lat="47.3052" lon="-1.60902">
        <ele>134.5</ele>
        <time>2014-05-18T08:41:56Z</time>
      </trkpt>
      <trkpt lat="47.3052" lon="-1.60882">
        <ele>136.5</ele>
        <time>2014-05-18T08:42:02Z</time>
      </trkpt>
      <trkpt lat="47.30527" lon="-1.60878">
        <ele>133.5</ele>
        <time>2014-05-18T08:42:04Z</time>
      </trkpt>
      <trkpt lat="47.30541" lon="-1.6087">
        <ele>131.5</ele>
        <time>2014-05-18T08:42:08Z</time>
      </trkpt>
      <trkpt lat="47.30546" lon="-1.60871">
        <ele>134</ele>
        <time>2014-05-18T08:42:10Z</time>
      </trkpt>
      <trkpt lat="47.30581" lon="-1.60845">
        <ele>134</ele>
        <time>2014-05-18T08:42:16Z</time>
      </trkpt>
      <trkpt lat="47.30603" lon="-1.60836">
        <ele>133</ele>
        <time>2014-05-18T08:42:20Z</time>
      </trkpt>
      <trkpt lat="47.30616" lon="-1.60825">
        <ele>127</ele>
        <time>2014-05-18T08:42:24Z</time>
      </trkpt>
      <trkpt lat="47.30642" lon="-1.6081">
        <ele>124.5</ele>
        <time>2014-05-18T08:42:28Z</time>
      </trkpt>
      <trkpt lat="47.30666" lon="-1.6079">
        <ele>123</ele>
        <time>2014-05-18T08:42:32Z</time>
      </trkpt>
      <trkpt lat="47.3069" lon="-1.60767">
        <ele>123</ele>
        <time>2014-05-18T08:42:36Z</time>
      </trkpt>
      <trkpt lat="47.30719" lon="-1.60737">
        <ele>120</ele>
        <time>2014-05-18T08:42:40Z</time>
      </trkpt>
      <trkpt lat="47.30723" lon="-1.60722">
        <ele>115.5</ele>
        <time>2014-05-18T08:42:42Z</time>
      </trkpt>
      <trkpt lat="47.30729" lon="-1.60715">
        <ele>115</ele>
        <time>2014-05-18T08:42:43Z</time>
      </trkpt>
      <trkpt lat="47.30735" lon="-1.60709">
        <ele>114.5</ele>
        <time>2014-05-18T08:42:44Z</time>
      </trkpt>
      <trkpt lat="47.30758" lon="-1.60708">
        <ele>112</ele>
        <time>2014-05-18T08:42:49Z</time>
      </trkpt>
      <trkpt lat="47.30777" lon="-1.60732">
        <ele>109.5</ele>
        <time>2014-05-18T08:42:53Z</time>
      </trkpt>
      <trkpt lat="47.30793" lon="-1.60771">
        <ele>105</ele>
        <time>2014-05-18T08:42:57Z</time>
      </trkpt>
      <trkpt lat="47.30802" lon="-1.60819">
        <ele>100.5</ele>
        <time>2014-05-18T08:43:01Z</time>
      </trkpt>
      <trkpt lat="47.30808" lon="-1.60833">
        <ele>99</ele>
        <time>2014-05-18T08:43:03Z</time>
      </trkpt>
      <trkpt lat="47.30815" lon="-1.6084">
        <ele>97.5</ele>
        <time>2014-05-18T08:43:05Z</time>
      </trkpt>
      <trkpt lat="47.30841" lon="-1.60826">
        <ele>96.5</ele>
        <time>2014-05-18T08:43:10Z</time>
      </trkpt>
      <trkpt lat="47.30866" lon="-1.60809">
        <ele>97</ele>
        <time>2014-05-18T08:43:14Z</time>
      </trkpt>
      <trkpt lat="47.30892" lon="-1.60792">
        <ele>96</ele>
        <time>2014-05-18T08:43:18Z</time>
      </trkpt>
      <trkpt lat="47.30916" lon="-1.60774">
        <ele>95.5</ele>
        <time>2014-05-18T08:43:22Z</time>
      </trkpt>
      <trkpt lat="47.3094" lon="-1.60761">
        <ele>97.5</ele>
        <time>2014-05-18T08:43:26Z</time>
      </trkpt>
      <trkpt lat="47.30959" lon="-1.60754">
        <ele>100.5</ele>
        <time>2014-05-18T08:43:30Z</time>
      </trkpt>
      <trkpt lat="47.30977" lon="-1.60751">
        <ele>102.5</ele>
        <time>2014-05-18T08:43:34Z</time>
      </trkpt>
      <trkpt lat="47.30994" lon="-1.60749">
        <ele>105</ele>
        <time>2014-05-18T08:43:38Z</time>
      </trkpt>
      <trkpt lat="47.3101" lon="-1.60747">
        <ele>106</ele>
        <time>2014-05-18T08:43:42Z</time>
      </trkpt>
      <trkpt lat="47.31021" lon="-1.60746">
        <ele>107.5</ele>
        <time>2014-05-18T08:43:46Z</time>
      </trkpt>
      <trkpt lat="47.31025" lon="-1.60745">
        <ele>107.5</ele>
        <time>2014-05-18T08:43:48Z</time>
      </trkpt>
      <trkpt lat="47.31036" lon="-1.60742">
        <ele>108.5</ele>
        <time>2014-05-18T08:43:52Z</time>
      </trkpt>
      <trkpt lat="47.31043" lon="-1.60739">
        <ele>108.5</ele>
        <time>2014-05-18T08:43:54Z</time>
      </trkpt>
      <trkpt lat="47.31064" lon="-1.60728">
        <ele>107.5</ele>
        <time>2014-05-18T08:44:00Z</time>
      </trkpt>
      <trkpt lat="47.31078" lon="-1.60719">
        <ele>107.5</ele>
        <time>2014-05-18T08:44:04Z</time>
      </trkpt>
      <trkpt lat="47.31089" lon="-1.60716">
        <ele>107</ele>
        <time>2014-05-18T08:44:08Z</time>
      </trkpt>
      <trkpt lat="47.31095" lon="-1.60714">
        <ele>107</ele>
        <time>2014-05-18T08:44:10Z</time>
      </trkpt>
      <trkpt lat="47.31109" lon="-1.60712">
        <ele>106.5</ele>
        <time>2014-05-18T08:44:14Z</time>
      </trkpt>
      <trkpt lat="47.31116" lon="-1.60712">
        <ele>107</ele>
        <time>2014-05-18T08:44:16Z</time>
      </trkpt>
      <trkpt lat="47.31129" lon="-1.60712">
        <ele>108</ele>
        <time>2014-05-18T08:44:20Z</time>
      </trkpt>
      <trkpt lat="47.31137" lon="-1.60711">
        <ele>108</ele>
        <time>2014-05-18T08:44:22Z</time>
      </trkpt>
      <trkpt lat="47.31153" lon="-1.60709">
        <ele>108</ele>
        <time>2014-05-18T08:44:26Z</time>
      </trkpt>
      <trkpt lat="47.31171" lon="-1.6071">
        <ele>107</ele>
        <time>2014-05-18T08:44:30Z</time>
      </trkpt>
      <trkpt lat="47.31189" lon="-1.60716">
        <ele>106</ele>
        <time>2014-05-18T08:44:34Z</time>
      </trkpt>
      <trkpt lat="47.31207" lon="-1.6072">
        <ele>105</ele>
        <time>2014-05-18T08:44:38Z</time>
      </trkpt>
      <trkpt lat="47.31227" lon="-1.60727">
        <ele>103.5</ele>
        <time>2014-05-18T08:44:42Z</time>
      </trkpt>
      <trkpt lat="47.31248" lon="-1.60726">
        <ele>102</ele>
        <time>2014-05-18T08:44:46Z</time>
      </trkpt>
      <trkpt lat="47.31268" lon="-1.60722">
        <ele>102</ele>
        <time>2014-05-18T08:44:50Z</time>
      </trkpt>
      <trkpt lat="47.31287" lon="-1.60715">
        <ele>104</ele>
        <time>2014-05-18T08:44:54Z</time>
      </trkpt>
      <trkpt lat="47.31309" lon="-1.60705">
        <ele>103.5</ele>
        <time>2014-05-18T08:44:58Z</time>
      </trkpt>
      <trkpt lat="47.31331" lon="-1.60701">
        <ele>105.5</ele>
        <time>2014-05-18T08:45:02Z</time>
      </trkpt>
      <trkpt lat="47.31356" lon="-1.60684">
        <ele>105</ele>
        <time>2014-05-18T08:45:06Z</time>
      </trkpt>
      <trkpt lat="47.31381" lon="-1.60666">
        <ele>103</ele>
        <time>2014-05-18T08:45:10Z</time>
      </trkpt>
      <trkpt lat="47.31408" lon="-1.6065">
        <ele>102.5</ele>
        <time>2014-05-18T08:45:14Z</time>
      </trkpt>
      <trkpt lat="47.31436" lon="-1.60638">
        <ele>101.5</ele>
        <time>2014-05-18T08:45:18Z</time>
      </trkpt>
      <trkpt lat="47.31457" lon="-1.60629">
        <ele>101</ele>
        <time>2014-05-18T08:45:21Z</time>
      </trkpt>
      <trkpt lat="47.31465" lon="-1.60629">
        <ele>103</ele>
        <time>2014-05-18T08:45:22Z</time>
      </trkpt>
      <trkpt lat="47.3148" lon="-1.60635">
        <ele>99.5</ele>
        <time>2014-05-18T08:45:24Z</time>
      </trkpt>
      <trkpt lat="47.31486" lon="-1.6064">
        <ele>99.5</ele>
        <time>2014-05-18T08:45:25Z</time>
      </trkpt>
      <trkpt lat="47.31491" lon="-1.60643">
        <ele>98.5</ele>
        <time>2014-05-18T08:45:26Z</time>
      </trkpt>
      <trkpt lat="47.31523" lon="-1.60643">
        <ele>99.5</ele>
        <time>2014-05-18T08:45:31Z</time>
      </trkpt>
      <trkpt lat="47.31542" lon="-1.60655">
        <ele>96.5</ele>
        <time>2014-05-18T08:45:35Z</time>
      </trkpt>
      <trkpt lat="47.3155" lon="-1.60685">
        <ele>98</ele>
        <time>2014-05-18T08:45:39Z</time>
      </trkpt>
      <trkpt lat="47.31552" lon="-1.60725">
        <ele>97.5</ele>
        <time>2014-05-18T08:45:43Z</time>
      </trkpt>
      <trkpt lat="47.31549" lon="-1.60768">
        <ele>97</ele>
        <time>2014-05-18T08:45:47Z</time>
      </trkpt>
      <trkpt lat="47.31551" lon="-1.6081">
        <ele>96</ele>
        <time>2014-05-18T08:45:51Z</time>
      </trkpt>
      <trkpt lat="47.31555" lon="-1.60857">
        <ele>94.5</ele>
        <time>2014-05-18T08:45:56Z</time>
      </trkpt>
      <trkpt lat="47.3156" lon="-1.6089">
        <ele>94.5</ele>
        <time>2014-05-18T08:46:00Z</time>
      </trkpt>
      <trkpt lat="47.31564" lon="-1.60919">
        <ele>95</ele>
        <time>2014-05-18T08:46:04Z</time>
      </trkpt>
      <trkpt lat="47.31571" lon="-1.60944">
        <ele>96</ele>
        <time>2014-05-18T08:46:08Z</time>
      </trkpt>
      <trkpt lat="47.31576" lon="-1.60964">
        <ele>95.5</ele>
        <time>2014-05-18T08:46:12Z</time>
      </trkpt>
      <trkpt lat="47.31578" lon="-1.60973">
        <ele>96</ele>
        <time>2014-05-18T08:46:14Z</time>
      </trkpt>
      <trkpt lat="47.31582" lon="-1.60993">
        <ele>96.5</ele>
        <time>2014-05-18T08:46:20Z</time>
      </trkpt>
      <trkpt lat="47.31585" lon="-1.61007">
        <ele>97.5</ele>
        <time>2014-05-18T08:46:24Z</time>
      </trkpt>
      <trkpt lat="47.31586" lon="-1.61012">
        <ele>98</ele>
        <time>2014-05-18T08:46:26Z</time>
      </trkpt>
      <trkpt lat="47.31594" lon="-1.61042">
        <ele>100.5</ele>
        <time>2014-05-18T08:46:34Z</time>
      </trkpt>
      <trkpt lat="47.31598" lon="-1.61057">
        <ele>101</ele>
        <time>2014-05-18T08:46:38Z</time>
      </trkpt>
      <trkpt lat="47.31601" lon="-1.61072">
        <ele>101.5</ele>
        <time>2014-05-18T08:46:42Z</time>
      </trkpt>
      <trkpt lat="47.31601" lon="-1.61088">
        <ele>102</ele>
        <time>2014-05-18T08:46:46Z</time>
      </trkpt>
      <trkpt lat="47.31598" lon="-1.61095">
        <ele>102.5</ele>
        <time>2014-05-18T08:46:48Z</time>
      </trkpt>
      <trkpt lat="47.31583" lon="-1.61101">
        <ele>103.5</ele>
        <time>2014-05-18T08:46:54Z</time>
      </trkpt>
      <trkpt lat="47.31572" lon="-1.61105">
        <ele>104</ele>
        <time>2014-05-18T08:46:58Z</time>
      </trkpt>
      <trkpt lat="47.31566" lon="-1.61109">
        <ele>104.5</ele>
        <time>2014-05-18T08:47:00Z</time>
      </trkpt>
      <trkpt lat="47.31556" lon="-1.61118">
        <ele>105</ele>
        <time>2014-05-18T08:47:04Z</time>
      </trkpt>
      <trkpt lat="47.31554" lon="-1.61127">
        <ele>105.5</ele>
        <time>2014-05-18T08:47:06Z</time>
      </trkpt>
      <trkpt lat="47.31552" lon="-1.61144">
        <ele>106</ele>
        <time>2014-05-18T08:47:10Z</time>
      </trkpt>
      <trkpt lat="47.31552" lon="-1.61154">
        <ele>107</ele>
        <time>2014-05-18T08:47:12Z</time>
      </trkpt>
      <trkpt lat="47.31554" lon="-1.61176">
        <ele>106.5</ele>
        <time>2014-05-18T08:47:16Z</time>
      </trkpt>
      <trkpt lat="47.31556" lon="-1.61186">
        <ele>106.5</ele>
        <time>2014-05-18T08:47:18Z</time>
      </trkpt>
      <trkpt lat="47.3156" lon="-1.61205">
        <ele>106</ele>
        <time>2014-05-18T08:47:22Z</time>
      </trkpt>
      <trkpt lat="47.31565" lon="-1.61234">
        <ele>106.5</ele>
        <time>2014-05-18T08:47:28Z</time>
      </trkpt>
      <trkpt lat="47.31569" lon="-1.61254">
        <ele>106</ele>
        <time>2014-05-18T08:47:32Z</time>
      </trkpt>
      <trkpt lat="47.31571" lon="-1.61262">
        <ele>105.5</ele>
        <time>2014-05-18T08:47:34Z</time>
      </trkpt>
      <trkpt lat="47.31575" lon="-1.6129">
        <ele>105</ele>
        <time>2014-05-18T08:47:40Z</time>
      </trkpt>
      <trkpt lat="47.31578" lon="-1.61309">
        <ele>105</ele>
        <time>2014-05-18T08:47:44Z</time>
      </trkpt>
      <trkpt lat="47.31579" lon="-1.61319">
        <ele>104.5</ele>
        <time>2014-05-18T08:47:46Z</time>
      </trkpt>
      <trkpt lat="47.31578" lon="-1.6134">
        <ele>104.5</ele>
        <time>2014-05-18T08:47:50Z</time>
      </trkpt>
      <trkpt lat="47.31574" lon="-1.61348">
        <ele>104.5</ele>
        <time>2014-05-18T08:47:52Z</time>
      </trkpt>
      <trkpt lat="47.31563" lon="-1.61357">
        <ele>103.5</ele>
        <time>2014-05-18T08:47:56Z</time>
      </trkpt>
      <trkpt lat="47.31557" lon="-1.61358">
        <ele>103.5</ele>
        <time>2014-05-18T08:47:58Z</time>
      </trkpt>
      <trkpt lat="47.31543" lon="-1.61361">
        <ele>103.5</ele>
        <time>2014-05-18T08:48:02Z</time>
      </trkpt>
      <trkpt lat="47.31535" lon="-1.61363">
        <ele>103.5</ele>
        <time>2014-05-18T08:48:04Z</time>
      </trkpt>
      <trkpt lat="47.31519" lon="-1.61367">
        <ele>103</ele>
        <time>2014-05-18T08:48:08Z</time>
      </trkpt>
      <trkpt lat="47.31499" lon="-1.6137">
        <ele>102</ele>
        <time>2014-05-18T08:48:12Z</time>
      </trkpt>
      <trkpt lat="47.31478" lon="-1.61374">
        <ele>102</ele>
        <time>2014-05-18T08:48:16Z</time>
      </trkpt>
      <trkpt lat="47.31462" lon="-1.61395">
        <ele>102</ele>
        <time>2014-05-18T08:48:20Z</time>
      </trkpt>
      <trkpt lat="47.31462" lon="-1.61426">
        <ele>102.5</ele>
        <time>2014-05-18T08:48:24Z</time>
      </trkpt>
      <trkpt lat="47.31465" lon="-1.61456">
        <ele>102.5</ele>
        <time>2014-05-18T08:48:28Z</time>
      </trkpt>
      <trkpt lat="47.31467" lon="-1.61485">
        <ele>102.5</ele>
        <time>2014-05-18T08:48:32Z</time>
      </trkpt>
      <trkpt lat="47.31455" lon="-1.61508">
        <ele>100.5</ele>
        <time>2014-05-18T08:48:36Z</time>
      </trkpt>
      <trkpt lat="47.31437" lon="-1.61515">
        <ele>98.5</ele>
        <time>2014-05-18T08:48:40Z</time>
      </trkpt>
      <trkpt lat="47.31416" lon="-1.6152">
        <ele>97.5</ele>
        <time>2014-05-18T08:48:44Z</time>
      </trkpt>
      <trkpt lat="47.31395" lon="-1.61523">
        <ele>97</ele>
        <time>2014-05-18T08:48:48Z</time>
      </trkpt>
      <trkpt lat="47.31375" lon="-1.61524">
        <ele>96.5</ele>
        <time>2014-05-18T08:48:52Z</time>
      </trkpt>
      <trkpt lat="47.31354" lon="-1.61525">
        <ele>96.5</ele>
        <time>2014-05-18T08:48:56Z</time>
      </trkpt>
      <trkpt lat="47.31333" lon="-1.61525">
        <ele>96.5</ele>
        <time>2014-05-18T08:49:00Z</time>
      </trkpt>
      <trkpt lat="47.31313" lon="-1.61526">
        <ele>97</ele>
        <time>2014-05-18T08:49:04Z</time>
      </trkpt>
      <trkpt lat="47.31293" lon="-1.6153">
        <ele>97.5</ele>
        <time>2014-05-18T08:49:08Z</time>
      </trkpt>
      <trkpt lat="47.31273" lon="-1.61535">
        <ele>98</ele>
        <time>2014-05-18T08:49:12Z</time>
      </trkpt>
      <trkpt lat="47.31253" lon="-1.61541">
        <ele>98.5</ele>
        <time>2014-05-18T08:49:16Z</time>
      </trkpt>
      <trkpt lat="47.31233" lon="-1.61543">
        <ele>98.5</ele>
        <time>2014-05-18T08:49:20Z</time>
      </trkpt>
      <trkpt lat="47.31216" lon="-1.61543">
        <ele>98.5</ele>
        <time>2014-05-18T08:49:24Z</time>
      </trkpt>
      <trkpt lat="47.31199" lon="-1.6154">
        <ele>99</ele>
        <time>2014-05-18T08:49:28Z</time>
      </trkpt>
      <trkpt lat="47.31183" lon="-1.61537">
        <ele>99.5</ele>
        <time>2014-05-18T08:49:32Z</time>
      </trkpt>
      <trkpt lat="47.31166" lon="-1.61532">
        <ele>100</ele>
        <time>2014-05-18T08:49:36Z</time>
      </trkpt>
      <trkpt lat="47.31148" lon="-1.6153">
        <ele>100.5</ele>
        <time>2014-05-18T08:49:40Z</time>
      </trkpt>
      <trkpt lat="47.3113" lon="-1.61529">
        <ele>98.5</ele>
        <time>2014-05-18T08:49:44Z</time>
      </trkpt>
      <trkpt lat="47.31113" lon="-1.61531">
        <ele>99.5</ele>
        <time>2014-05-18T08:49:48Z</time>
      </trkpt>
      <trkpt lat="47.31096" lon="-1.61535">
        <ele>101</ele>
        <time>2014-05-18T08:49:52Z</time>
      </trkpt>
      <trkpt lat="47.3108" lon="-1.61543">
        <ele>101</ele>
        <time>2014-05-18T08:49:56Z</time>
      </trkpt>
      <trkpt lat="47.31062" lon="-1.61551">
        <ele>101.5</ele>
        <time>2014-05-18T08:50:00Z</time>
      </trkpt>
      <trkpt lat="47.31045" lon="-1.61556">
        <ele>103</ele>
        <time>2014-05-18T08:50:04Z</time>
      </trkpt>
      <trkpt lat="47.31027" lon="-1.61558">
        <ele>105</ele>
        <time>2014-05-18T08:50:08Z</time>
      </trkpt>
      <trkpt lat="47.31018" lon="-1.61558">
        <ele>105.5</ele>
        <time>2014-05-18T08:50:10Z</time>
      </trkpt>
      <trkpt lat="47.31001" lon="-1.61564">
        <ele>105.5</ele>
        <time>2014-05-18T08:50:14Z</time>
      </trkpt>
      <trkpt lat="47.30987" lon="-1.61555">
        <ele>105.5</ele>
        <time>2014-05-18T08:50:18Z</time>
      </trkpt>
      <trkpt lat="47.30975" lon="-1.61538">
        <ele>105</ele>
        <time>2014-05-18T08:50:22Z</time>
      </trkpt>
      <trkpt lat="47.30964" lon="-1.61515">
        <ele>104</ele>
        <time>2014-05-18T08:50:26Z</time>
      </trkpt>
      <trkpt lat="47.30955" lon="-1.61491">
        <ele>103.5</ele>
        <time>2014-05-18T08:50:30Z</time>
      </trkpt>
      <trkpt lat="47.30941" lon="-1.61473">
        <ele>103</ele>
        <time>2014-05-18T08:50:34Z</time>
      </trkpt>
      <trkpt lat="47.30921" lon="-1.61466">
        <ele>102.5</ele>
        <time>2014-05-18T08:50:38Z</time>
      </trkpt>
      <trkpt lat="47.30901" lon="-1.61461">
        <ele>102.5</ele>
        <time>2014-05-18T08:50:42Z</time>
      </trkpt>
      <trkpt lat="47.30877" lon="-1.61455">
        <ele>102</ele>
        <time>2014-05-18T08:50:46Z</time>
      </trkpt>
      <trkpt lat="47.30854" lon="-1.61441">
        <ele>100</ele>
        <time>2014-05-18T08:50:50Z</time>
      </trkpt>
      <trkpt lat="47.30826" lon="-1.61442">
        <ele>99</ele>
        <time>2014-05-18T08:50:54Z</time>
      </trkpt>
      <trkpt lat="47.30802" lon="-1.61459">
        <ele>98</ele>
        <time>2014-05-18T08:50:58Z</time>
      </trkpt>
      <trkpt lat="47.30778" lon="-1.61472">
        <ele>99</ele>
        <time>2014-05-18T08:51:02Z</time>
      </trkpt>
      <trkpt lat="47.30755" lon="-1.61485">
        <ele>99</ele>
        <time>2014-05-18T08:51:06Z</time>
      </trkpt>
      <trkpt lat="47.30746" lon="-1.61507">
        <ele>102</ele>
        <time>2014-05-18T08:51:10Z</time>
      </trkpt>
      <trkpt lat="47.30747" lon="-1.61531">
        <ele>102.5</ele>
        <time>2014-05-18T08:51:14Z</time>
      </trkpt>
      <trkpt lat="47.30751" lon="-1.61551">
        <ele>104</ele>
        <time>2014-05-18T08:51:18Z</time>
      </trkpt>
      <trkpt lat="47.30753" lon="-1.61578">
        <ele>105.5</ele>
        <time>2014-05-18T08:51:24Z</time>
      </trkpt>
      <trkpt lat="47.30754" lon="-1.61592">
        <ele>108.5</ele>
        <time>2014-05-18T08:51:28Z</time>
      </trkpt>
      <trkpt lat="47.30761" lon="-1.61603">
        <ele>115</ele>
        <time>2014-05-18T08:51:34Z</time>
      </trkpt>
      <trkpt lat="47.30761" lon="-1.61613">
        <ele>117.5</ele>
        <time>2014-05-18T08:51:40Z</time>
      </trkpt>
      <trkpt lat="47.30758" lon="-1.6162">
        <ele>122</ele>
        <time>2014-05-18T08:51:54Z</time>
      </trkpt>
      <trkpt lat="47.30768" lon="-1.61624">
        <ele>125</ele>
        <time>2014-05-18T08:52:08Z</time>
      </trkpt>
      <trkpt lat="47.30772" lon="-1.61628">
        <ele>127.5</ele>
        <time>2014-05-18T08:52:10Z</time>
      </trkpt>
      <trkpt lat="47.30774" lon="-1.61635">
        <ele>127.5</ele>
        <time>2014-05-18T08:52:12Z</time>
      </trkpt>
      <trkpt lat="47.30775" lon="-1.61648">
        <ele>127</ele>
        <time>2014-05-18T08:52:16Z</time>
      </trkpt>
      <trkpt lat="47.30781" lon="-1.6165">
        <ele>132</ele>
        <time>2014-05-18T08:52:22Z</time>
      </trkpt>
      <trkpt lat="47.30784" lon="-1.6165">
        <ele>133.5</ele>
        <time>2014-05-18T08:52:24Z</time>
      </trkpt>
      <trkpt lat="47.30791" lon="-1.61665">
        <ele>138.5</ele>
        <time>2014-05-18T08:52:36Z</time>
      </trkpt>
      <trkpt lat="47.30792" lon="-1.61681">
        <ele>143.5</ele>
        <time>2014-05-18T08:52:44Z</time>
      </trkpt>
      <trkpt lat="47.308" lon="-1.6168">
        <ele>147</ele>
        <time>2014-05-18T08:52:48Z</time>
      </trkpt>
      <trkpt lat="47.3081" lon="-1.61688">
        <ele>154.5</ele>
        <time>2014-05-18T08:52:56Z</time>
      </trkpt>
      <trkpt lat="47.30815" lon="-1.61686">
        <ele>154</ele>
        <time>2014-05-18T08:52:58Z</time>
      </trkpt>
      <trkpt lat="47.30822" lon="-1.61684">
        <ele>153.5</ele>
        <time>2014-05-18T08:53:00Z</time>
      </trkpt>
      <trkpt lat="47.3084" lon="-1.61697">
        <ele>147</ele>
        <time>2014-05-18T08:53:04Z</time>
      </trkpt>
      <trkpt lat="47.3085" lon="-1.61694">
        <ele>145</ele>
        <time>2014-05-18T08:53:06Z</time>
      </trkpt>
      <trkpt lat="47.30868" lon="-1.61696">
        <ele>141</ele>
        <time>2014-05-18T08:53:10Z</time>
      </trkpt>
      <trkpt lat="47.30884" lon="-1.61707">
        <ele>138.5</ele>
        <time>2014-05-18T08:53:14Z</time>
      </trkpt>
      <trkpt lat="47.30894" lon="-1.61729">
        <ele>133.5</ele>
        <time>2014-05-18T08:53:18Z</time>
      </trkpt>
      <trkpt lat="47.30899" lon="-1.61753">
        <ele>130.5</ele>
        <time>2014-05-18T08:53:22Z</time>
      </trkpt>
      <trkpt lat="47.30901" lon="-1.61779">
        <ele>129.5</ele>
        <time>2014-05-18T08:53:26Z</time>
      </trkpt>
      <trkpt lat="47.30898" lon="-1.61801">
        <ele>128.5</ele>
        <time>2014-05-18T08:53:30Z</time>
      </trkpt>
      <trkpt lat="47.30896" lon="-1.61815">
        <ele>128</ele>
        <time>2014-05-18T08:53:34Z</time>
      </trkpt>
      <trkpt lat="47.30909" lon="-1.61822">
        <ele>126</ele>
        <time>2014-05-18T08:53:42Z</time>
      </trkpt>
      <trkpt lat="47.30916" lon="-1.61823">
        <ele>125.5</ele>
        <time>2014-05-18T08:53:44Z</time>
      </trkpt>
      <trkpt lat="47.30933" lon="-1.61836">
        <ele>123.5</ele>
        <time>2014-05-18T08:53:48Z</time>
      </trkpt>
      <trkpt lat="47.30944" lon="-1.61833">
        <ele>123.5</ele>
        <time>2014-05-18T08:53:50Z</time>
      </trkpt>
      <trkpt lat="47.30956" lon="-1.61832">
        <ele>123.5</ele>
        <time>2014-05-18T08:53:52Z</time>
      </trkpt>
      <trkpt lat="47.30978" lon="-1.61831">
        <ele>123</ele>
        <time>2014-05-18T08:53:56Z</time>
      </trkpt>
      <trkpt lat="47.30999" lon="-1.61832">
        <ele>122</ele>
        <time>2014-05-18T08:54:00Z</time>
      </trkpt>
      <trkpt lat="47.31024" lon="-1.61832">
        <ele>119</ele>
        <time>2014-05-18T08:54:04Z</time>
      </trkpt>
      <trkpt lat="47.3105" lon="-1.61832">
        <ele>117.5</ele>
        <time>2014-05-18T08:54:08Z</time>
      </trkpt>
      <trkpt lat="47.31078" lon="-1.61846">
        <ele>114.5</ele>
        <time>2014-05-18T08:54:12Z</time>
      </trkpt>
      <trkpt lat="47.31099" lon="-1.61867">
        <ele>114</ele>
        <time>2014-05-18T08:54:16Z</time>
      </trkpt>
      <trkpt lat="47.31119" lon="-1.61885">
        <ele>115</ele>
        <time>2014-05-18T08:54:20Z</time>
      </trkpt>
      <trkpt lat="47.3114" lon="-1.61901">
        <ele>115</ele>
        <time>2014-05-18T08:54:24Z</time>
      </trkpt>
      <trkpt lat="47.31164" lon="-1.61918">
        <ele>113</ele>
        <time>2014-05-18T08:54:28Z</time>
      </trkpt>
      <trkpt lat="47.31192" lon="-1.61933">
        <ele>110.5</ele>
        <time>2014-05-18T08:54:32Z</time>
      </trkpt>
      <trkpt lat="47.31223" lon="-1.61946">
        <ele>106.5</ele>
        <time>2014-05-18T08:54:36Z</time>
      </trkpt>
      <trkpt lat="47.31242" lon="-1.6194">
        <ele>108</ele>
        <time>2014-05-18T08:54:40Z</time>
      </trkpt>
      <trkpt lat="47.3125" lon="-1.6191">
        <ele>108</ele>
        <time>2014-05-18T08:54:45Z</time>
      </trkpt>
      <trkpt lat="47.3126" lon="-1.61896">
        <ele>108</ele>
        <time>2014-05-18T08:54:49Z</time>
      </trkpt>
      <trkpt lat="47.31283" lon="-1.61889">
        <ele>104</ele>
        <time>2014-05-18T08:54:53Z</time>
      </trkpt>
      <trkpt lat="47.31306" lon="-1.61876">
        <ele>101.5</ele>
        <time>2014-05-18T08:54:57Z</time>
      </trkpt>
      <trkpt lat="47.31334" lon="-1.61865">
        <ele>99</ele>
        <time>2014-05-18T08:55:01Z</time>
      </trkpt>
      <trkpt lat="47.31368" lon="-1.61862">
        <ele>97.5</ele>
        <time>2014-05-18T08:55:05Z</time>
      </trkpt>
      <trkpt lat="47.31395" lon="-1.61863">
        <ele>94.5</ele>
        <time>2014-05-18T08:55:08Z</time>
      </trkpt>
      <trkpt lat="47.31404" lon="-1.61862">
        <ele>94</ele>
        <time>2014-05-18T08:55:09Z</time>
      </trkpt>
      <trkpt lat="47.31423" lon="-1.61863">
        <ele>91.5</ele>
        <time>2014-05-18T08:55:11Z</time>
      </trkpt>
      <trkpt lat="47.31432" lon="-1.61865">
        <ele>90</ele>
        <time>2014-05-18T08:55:12Z</time>
      </trkpt>
      <trkpt lat="47.31441" lon="-1.61866">
        <ele>89.5</ele>
        <time>2014-05-18T08:55:13Z</time>
      </trkpt>
      <trkpt lat="47.31466" lon="-1.61858">
        <ele>89.5</ele>
        <time>2014-05-18T08:55:17Z</time>
      </trkpt>
      <trkpt lat="47.31502" lon="-1.61852">
        <ele>87.5</ele>
        <time>2014-05-18T08:55:22Z</time>
      </trkpt>
      <trkpt lat="47.31533" lon="-1.6185">
        <ele>87</ele>
        <time>2014-05-18T08:55:26Z</time>
      </trkpt>
      <trkpt lat="47.31549" lon="-1.6185">
        <ele>86.5</ele>
        <time>2014-05-18T08:55:28Z</time>
      </trkpt>
      <trkpt lat="47.31556" lon="-1.6185">
        <ele>86.5</ele>
        <time>2014-05-18T08:55:29Z</time>
      </trkpt>
      <trkpt lat="47.31564" lon="-1.6185">
        <ele>86.5</ele>
        <time>2014-05-18T08:55:30Z</time>
      </trkpt>
      <trkpt lat="47.31579" lon="-1.61851">
        <ele>86</ele>
        <time>2014-05-18T08:55:32Z</time>
      </trkpt>
      <trkpt lat="47.31586" lon="-1.61851">
        <ele>86</ele>
        <time>2014-05-18T08:55:33Z</time>
      </trkpt>
      <trkpt lat="47.31593" lon="-1.61851">
        <ele>86.5</ele>
        <time>2014-05-18T08:55:34Z</time>
      </trkpt>
      <trkpt lat="47.31622" lon="-1.61852">
        <ele>88</ele>
        <time>2014-05-18T08:55:39Z</time>
      </trkpt>
      <trkpt lat="47.31636" lon="-1.61876">
        <ele>87.5</ele>
        <time>2014-05-18T08:55:43Z</time>
      </trkpt>
      <trkpt lat="47.31652" lon="-1.619">
        <ele>87.5</ele>
        <time>2014-05-18T08:55:47Z</time>
      </trkpt>
      <trkpt lat="47.31673" lon="-1.6192">
        <ele>87.5</ele>
        <time>2014-05-18T08:55:51Z</time>
      </trkpt>
      <trkpt lat="47.31696" lon="-1.61934">
        <ele>87.5</ele>
        <time>2014-05-18T08:55:55Z</time>
      </trkpt>
      <trkpt lat="47.31721" lon="-1.61944">
        <ele>87</ele>
        <time>2014-05-18T08:55:59Z</time>
      </trkpt>
      <trkpt lat="47.31744" lon="-1.61945">
        <ele>86.5</ele>
        <time>2014-05-18T08:56:03Z</time>
      </trkpt>
      <trkpt lat="47.31762" lon="-1.61968">
        <ele>85.5</ele>
        <time>2014-05-18T08:56:07Z</time>
      </trkpt>
      <trkpt lat="47.31772" lon="-1.62004">
        <ele>85.5</ele>
        <time>2014-05-18T08:56:11Z</time>
      </trkpt>
      <trkpt lat="47.31781" lon="-1.62041">
        <ele>86</ele>
        <time>2014-05-18T08:56:15Z</time>
      </trkpt>
      <trkpt lat="47.31789" lon="-1.62076">
        <ele>87</ele>
        <time>2014-05-18T08:56:19Z</time>
      </trkpt>
      <trkpt lat="47.31797" lon="-1.62109">
        <ele>89</ele>
        <time>2014-05-18T08:56:23Z</time>
      </trkpt>
      <trkpt lat="47.31803" lon="-1.62142">
        <ele>89.5</ele>
        <time>2014-05-18T08:56:27Z</time>
      </trkpt>
      <trkpt lat="47.3181" lon="-1.62174">
        <ele>91</ele>
        <time>2014-05-18T08:56:31Z</time>
      </trkpt>
      <trkpt lat="47.31819" lon="-1.62205">
        <ele>92.5</ele>
        <time>2014-05-18T08:56:35Z</time>
      </trkpt>
      <trkpt lat="47.31827" lon="-1.62238">
        <ele>94</ele>
        <time>2014-05-18T08:56:39Z</time>
      </trkpt>
      <trkpt lat="47.31834" lon="-1.62266">
        <ele>96</ele>
        <time>2014-05-18T08:56:43Z</time>
      </trkpt>
      <trkpt lat="47.31842" lon="-1.62297">
        <ele>97.5</ele>
        <time>2014-05-18T08:56:47Z</time>
      </trkpt>
      <trkpt lat="47.31848" lon="-1.62331">
        <ele>97.5</ele>
        <time>2014-05-18T08:56:51Z</time>
      </trkpt>
      <trkpt lat="47.31855" lon="-1.62367">
        <ele>99.5</ele>
        <time>2014-05-18T08:56:55Z</time>
      </trkpt>
      <trkpt lat="47.31859" lon="-1.62396">
        <ele>98.5</ele>
        <time>2014-05-18T08:56:59Z</time>
      </trkpt>
      <trkpt lat="47.31859" lon="-1.62403">
        <ele>96.5</ele>
        <time>2014-05-18T08:57:03Z</time>
      </trkpt>
      <trkpt lat="47.31859" lon="-1.62403">
        <ele>96.5</ele>
        <time>2014-05-18T08:57:31Z</time>
      </trkpt>
      <trkpt lat="47.31859" lon="-1.62403">
        <ele>96.5</ele>
        <time>2014-05-18T08:57:53Z</time>
      </trkpt>
      <trkpt lat="47.31865" lon="-1.62416">
        <ele>98</ele>
        <time>2014-05-18T08:57:55Z</time>
      </trkpt>
      <trkpt lat="47.31867" lon="-1.6242">
        <ele>99.5</ele>
        <time>2014-05-18T08:58:01Z</time>
      </trkpt>
      <trkpt lat="47.31868" lon="-1.6243">
        <ele>101.5</ele>
        <time>2014-05-18T08:58:11Z</time>
      </trkpt>
      <trkpt lat="47.31874" lon="-1.62439">
        <ele>99.5</ele>
        <time>2014-05-18T08:58:15Z</time>
      </trkpt>
      <trkpt lat="47.31874" lon="-1.62439">
        <ele>25.9</ele>
        <time>2014-05-18T08:58:17Z</time>
      </trkpt>
      <trkpt lat="47.31874" lon="-1.62439">
        <ele>25.9</ele>
        <time>2014-05-18T08:59:25Z</time>
      </trkpt>
      <trkpt lat="47.31867" lon="-1.62436">
        <ele>84.5</ele>
        <time>2014-05-18T08:59:28Z</time>
      </trkpt>
      <trkpt lat="47.31867" lon="-1.62436">
        <ele>84.5</ele>
        <time>2014-05-18T08:59:54Z</time>
      </trkpt>
      <trkpt lat="47.31867" lon="-1.62436">
        <ele>84.5</ele>
        <time>2014-05-18T09:00:10Z</time>
      </trkpt>
      <trkpt lat="47.31876" lon="-1.62452">
        <ele>81</ele>
        <time>2014-05-18T09:00:54Z</time>
      </trkpt>
      <trkpt lat="47.31879" lon="-1.62464">
        <ele>81</ele>
        <time>2014-05-18T09:00:56Z</time>
      </trkpt>
      <trkpt lat="47.31881" lon="-1.62478">
        <ele>82</ele>
        <time>2014-05-18T09:00:58Z</time>
      </trkpt>
      <trkpt lat="47.31883" lon="-1.62493">
        <ele>82</ele>
        <time>2014-05-18T09:01:00Z</time>
      </trkpt>
      <trkpt lat="47.3189" lon="-1.62524">
        <ele>81</ele>
        <time>2014-05-18T09:01:04Z</time>
      </trkpt>
      <trkpt lat="47.31891" lon="-1.62541">
        <ele>80</ele>
        <time>2014-05-18T09:01:06Z</time>
      </trkpt>
      <trkpt lat="47.31889" lon="-1.62558">
        <ele>79.5</ele>
        <time>2014-05-18T09:01:08Z</time>
      </trkpt>
      <trkpt lat="47.31887" lon="-1.62595">
        <ele>78.5</ele>
        <time>2014-05-18T09:01:12Z</time>
      </trkpt>
      <trkpt lat="47.31885" lon="-1.62614">
        <ele>78.5</ele>
        <time>2014-05-18T09:01:14Z</time>
      </trkpt>
      <trkpt lat="47.31882" lon="-1.62649">
        <ele>78.5</ele>
        <time>2014-05-18T09:01:18Z</time>
      </trkpt>
      <trkpt lat="47.31879" lon="-1.62679">
        <ele>79.5</ele>
        <time>2014-05-18T09:01:22Z</time>
      </trkpt>
      <trkpt lat="47.31872" lon="-1.62703">
        <ele>80.5</ele>
        <time>2014-05-18T09:01:26Z</time>
      </trkpt>
      <trkpt lat="47.31862" lon="-1.62724">
        <ele>80</ele>
        <time>2014-05-18T09:01:30Z</time>
      </trkpt>
      <trkpt lat="47.3185" lon="-1.62738">
        <ele>80</ele>
        <time>2014-05-18T09:01:34Z</time>
      </trkpt>
      <trkpt lat="47.31834" lon="-1.62752">
        <ele>80.5</ele>
        <time>2014-05-18T09:01:38Z</time>
      </trkpt>
      <trkpt lat="47.31817" lon="-1.62769">
        <ele>80.5</ele>
        <time>2014-05-18T09:01:42Z</time>
      </trkpt>
      <trkpt lat="47.318" lon="-1.62783">
        <ele>81</ele>
        <time>2014-05-18T09:01:46Z</time>
      </trkpt>
      <trkpt lat="47.31784" lon="-1.62798">
        <ele>82</ele>
        <time>2014-05-18T09:01:50Z</time>
      </trkpt>
      <trkpt lat="47.31769" lon="-1.62813">
        <ele>83</ele>
        <time>2014-05-18T09:01:54Z</time>
      </trkpt>
      <trkpt lat="47.31753" lon="-1.62827">
        <ele>83.5</ele>
        <time>2014-05-18T09:01:58Z</time>
      </trkpt>
      <trkpt lat="47.31737" lon="-1.62842">
        <ele>85</ele>
        <time>2014-05-18T09:02:02Z</time>
      </trkpt>
      <trkpt lat="47.31722" lon="-1.62855">
        <ele>86.5</ele>
        <time>2014-05-18T09:02:06Z</time>
      </trkpt>
      <trkpt lat="47.31706" lon="-1.62868">
        <ele>87.5</ele>
        <time>2014-05-18T09:02:10Z</time>
      </trkpt>
      <trkpt lat="47.31693" lon="-1.62881">
        <ele>88.5</ele>
        <time>2014-05-18T09:02:14Z</time>
      </trkpt>
      <trkpt lat="47.31681" lon="-1.62891">
        <ele>89</ele>
        <time>2014-05-18T09:02:18Z</time>
      </trkpt>
      <trkpt lat="47.3167" lon="-1.629">
        <ele>90.5</ele>
        <time>2014-05-18T09:02:22Z</time>
      </trkpt>
      <trkpt lat="47.31664" lon="-1.62906">
        <ele>91</ele>
        <time>2014-05-18T09:02:24Z</time>
      </trkpt>
      <trkpt lat="47.31649" lon="-1.62923">
        <ele>94</ele>
        <time>2014-05-18T09:02:30Z</time>
      </trkpt>
      <trkpt lat="47.31639" lon="-1.62935">
        <ele>95</ele>
        <time>2014-05-18T09:02:34Z</time>
      </trkpt>
      <trkpt lat="47.31633" lon="-1.62942">
        <ele>95.5</ele>
        <time>2014-05-18T09:02:36Z</time>
      </trkpt>
      <trkpt lat="47.31623" lon="-1.62954">
        <ele>96.5</ele>
        <time>2014-05-18T09:02:40Z</time>
      </trkpt>
      <trkpt lat="47.31618" lon="-1.62961">
        <ele>96.5</ele>
        <time>2014-05-18T09:02:42Z</time>
      </trkpt>
      <trkpt lat="47.31607" lon="-1.62974">
        <ele>97</ele>
        <time>2014-05-18T09:02:46Z</time>
      </trkpt>
      <trkpt lat="47.31601" lon="-1.6298">
        <ele>97.5</ele>
        <time>2014-05-18T09:02:48Z</time>
      </trkpt>
      <trkpt lat="47.31585" lon="-1.63005">
        <ele>97.5</ele>
        <time>2014-05-18T09:02:54Z</time>
      </trkpt>
      <trkpt lat="47.31574" lon="-1.63021">
        <ele>97.5</ele>
        <time>2014-05-18T09:02:58Z</time>
      </trkpt>
      <trkpt lat="47.31563" lon="-1.63038">
        <ele>97.5</ele>
        <time>2014-05-18T09:03:02Z</time>
      </trkpt>
      <trkpt lat="47.31551" lon="-1.63055">
        <ele>98</ele>
        <time>2014-05-18T09:03:06Z</time>
      </trkpt>
      <trkpt lat="47.31539" lon="-1.6307">
        <ele>98</ele>
        <time>2014-05-18T09:03:10Z</time>
      </trkpt>
      <trkpt lat="47.31526" lon="-1.63087">
        <ele>98</ele>
        <time>2014-05-18T09:03:14Z</time>
      </trkpt>
      <trkpt lat="47.31512" lon="-1.63105">
        <ele>98.5</ele>
        <time>2014-05-18T09:03:18Z</time>
      </trkpt>
      <trkpt lat="47.31499" lon="-1.63124">
        <ele>99</ele>
        <time>2014-05-18T09:03:22Z</time>
      </trkpt>
      <trkpt lat="47.31486" lon="-1.63142">
        <ele>100</ele>
        <time>2014-05-18T09:03:26Z</time>
      </trkpt>
      <trkpt lat="47.31472" lon="-1.63162">
        <ele>101</ele>
        <time>2014-05-18T09:03:30Z</time>
      </trkpt>
      <trkpt lat="47.31458" lon="-1.6318">
        <ele>100.5</ele>
        <time>2014-05-18T09:03:34Z</time>
      </trkpt>
      <trkpt lat="47.31444" lon="-1.63197">
        <ele>101</ele>
        <time>2014-05-18T09:03:38Z</time>
      </trkpt>
      <trkpt lat="47.31429" lon="-1.63213">
        <ele>100.5</ele>
        <time>2014-05-18T09:03:42Z</time>
      </trkpt>
      <trkpt lat="47.31413" lon="-1.63225">
        <ele>100</ele>
        <time>2014-05-18T09:03:46Z</time>
      </trkpt>
      <trkpt lat="47.31414" lon="-1.63252">
        <ele>98.5</ele>
        <time>2014-05-18T09:03:50Z</time>
      </trkpt>
      <trkpt lat="47.31425" lon="-1.63277">
        <ele>99</ele>
        <time>2014-05-18T09:03:54Z</time>
      </trkpt>
      <trkpt lat="47.31437" lon="-1.63305">
        <ele>98.5</ele>
        <time>2014-05-18T09:03:58Z</time>
      </trkpt>
      <trkpt lat="47.31445" lon="-1.63339">
        <ele>98.5</ele>
        <time>2014-05-18T09:04:02Z</time>
      </trkpt>
      <trkpt lat="47.3145" lon="-1.6337">
        <ele>99</ele>
        <time>2014-05-18T09:04:06Z</time>
      </trkpt>
      <trkpt lat="47.3146" lon="-1.63395">
        <ele>99.5</ele>
        <time>2014-05-18T09:04:10Z</time>
      </trkpt>
      <trkpt lat="47.31455" lon="-1.63415">
        <ele>101</ele>
        <time>2014-05-18T09:04:14Z</time>
      </trkpt>
      <trkpt lat="47.31438" lon="-1.63436">
        <ele>102</ele>
        <time>2014-05-18T09:04:20Z</time>
      </trkpt>
      <trkpt lat="47.31428" lon="-1.63452">
        <ele>101.5</ele>
        <time>2014-05-18T09:04:24Z</time>
      </trkpt>
      <trkpt lat="47.3142" lon="-1.6347">
        <ele>103</ele>
        <time>2014-05-18T09:04:28Z</time>
      </trkpt>
      <trkpt lat="47.31411" lon="-1.63486">
        <ele>103</ele>
        <time>2014-05-18T09:04:32Z</time>
      </trkpt>
      <trkpt lat="47.31408" lon="-1.63497">
        <ele>108.5</ele>
        <time>2014-05-18T09:04:38Z</time>
      </trkpt>
      <trkpt lat="47.31406" lon="-1.63504">
        <ele>109.5</ele>
        <time>2014-05-18T09:04:40Z</time>
      </trkpt>
      <trkpt lat="47.31397" lon="-1.63526">
        <ele>110.5</ele>
        <time>2014-05-18T09:04:46Z</time>
      </trkpt>
      <trkpt lat="47.31394" lon="-1.63532">
        <ele>111.5</ele>
        <time>2014-05-18T09:04:48Z</time>
      </trkpt>
      <trkpt lat="47.31391" lon="-1.63538">
        <ele>113</ele>
        <time>2014-05-18T09:04:50Z</time>
      </trkpt>
      <trkpt lat="47.31388" lon="-1.63551">
        <ele>114.5</ele>
        <time>2014-05-18T09:04:56Z</time>
      </trkpt>
      <trkpt lat="47.31386" lon="-1.63557">
        <ele>114</ele>
        <time>2014-05-18T09:04:58Z</time>
      </trkpt>
      <trkpt lat="47.31382" lon="-1.63572">
        <ele>118</ele>
        <time>2014-05-18T09:05:02Z</time>
      </trkpt>
      <trkpt lat="47.31381" lon="-1.63578">
        <ele>120</ele>
        <time>2014-05-18T09:05:04Z</time>
      </trkpt>
      <trkpt lat="47.31377" lon="-1.63591">
        <ele>122.5</ele>
        <time>2014-05-18T09:05:08Z</time>
      </trkpt>
      <trkpt lat="47.31369" lon="-1.63613">
        <ele>127</ele>
        <time>2014-05-18T09:05:16Z</time>
      </trkpt>
      <trkpt lat="47.31365" lon="-1.63629">
        <ele>127.5</ele>
        <time>2014-05-18T09:05:22Z</time>
      </trkpt>
      <trkpt lat="47.31368" lon="-1.63634">
        <ele>127.5</ele>
        <time>2014-05-18T09:05:24Z</time>
      </trkpt>
      <trkpt lat="47.31373" lon="-1.6364">
        <ele>128</ele>
        <time>2014-05-18T09:05:26Z</time>
      </trkpt>
      <trkpt lat="47.31385" lon="-1.63644">
        <ele>128.5</ele>
        <time>2014-05-18T09:05:30Z</time>
      </trkpt>
      <trkpt lat="47.31396" lon="-1.63645">
        <ele>128</ele>
        <time>2014-05-18T09:05:34Z</time>
      </trkpt>
      <trkpt lat="47.3142" lon="-1.63644">
        <ele>131</ele>
        <time>2014-05-18T09:05:40Z</time>
      </trkpt>
      <trkpt lat="47.31433" lon="-1.63647">
        <ele>133.5</ele>
        <time>2014-05-18T09:05:44Z</time>
      </trkpt>
      <trkpt lat="47.31443" lon="-1.63667">
        <ele>131</ele>
        <time>2014-05-18T09:05:50Z</time>
      </trkpt>
      <trkpt lat="47.3144" lon="-1.63689">
        <ele>130</ele>
        <time>2014-05-18T09:05:54Z</time>
      </trkpt>
      <trkpt lat="47.31439" lon="-1.63701">
        <ele>130</ele>
        <time>2014-05-18T09:05:56Z</time>
      </trkpt>
      <trkpt lat="47.31448" lon="-1.63736">
        <ele>127</ele>
        <time>2014-05-18T09:06:00Z</time>
      </trkpt>
      <trkpt lat="47.31454" lon="-1.63767">
        <ele>129</ele>
        <time>2014-05-18T09:06:04Z</time>
      </trkpt>
      <trkpt lat="47.31456" lon="-1.63804">
        <ele>129.5</ele>
        <time>2014-05-18T09:06:08Z</time>
      </trkpt>
      <trkpt lat="47.31465" lon="-1.63841">
        <ele>128</ele>
        <time>2014-05-18T09:06:12Z</time>
      </trkpt>
      <trkpt lat="47.31474" lon="-1.63879">
        <ele>126</ele>
        <time>2014-05-18T09:06:16Z</time>
      </trkpt>
      <trkpt lat="47.31484" lon="-1.63914">
        <ele>124</ele>
        <time>2014-05-18T09:06:20Z</time>
      </trkpt>
      <trkpt lat="47.31505" lon="-1.6395">
        <ele>123</ele>
        <time>2014-05-18T09:06:24Z</time>
      </trkpt>
      <trkpt lat="47.31531" lon="-1.63991">
        <ele>119</ele>
        <time>2014-05-18T09:06:29Z</time>
      </trkpt>
      <trkpt lat="47.31542" lon="-1.6401">
        <ele>117</ele>
        <time>2014-05-18T09:06:31Z</time>
      </trkpt>
      <trkpt lat="47.31548" lon="-1.64019">
        <ele>116.5</ele>
        <time>2014-05-18T09:06:32Z</time>
      </trkpt>
      <trkpt lat="47.31554" lon="-1.64027">
        <ele>115.5</ele>
        <time>2014-05-18T09:06:33Z</time>
      </trkpt>
      <trkpt lat="47.31566" lon="-1.64043">
        <ele>114</ele>
        <time>2014-05-18T09:06:35Z</time>
      </trkpt>
      <trkpt lat="47.31572" lon="-1.64052">
        <ele>113.5</ele>
        <time>2014-05-18T09:06:36Z</time>
      </trkpt>
      <trkpt lat="47.31577" lon="-1.6406">
        <ele>112</ele>
        <time>2014-05-18T09:06:37Z</time>
      </trkpt>
      <trkpt lat="47.31588" lon="-1.64076">
        <ele>111.5</ele>
        <time>2014-05-18T09:06:39Z</time>
      </trkpt>
      <trkpt lat="47.31593" lon="-1.64085">
        <ele>111.5</ele>
        <time>2014-05-18T09:06:40Z</time>
      </trkpt>
      <trkpt lat="47.31599" lon="-1.64093">
        <ele>111</ele>
        <time>2014-05-18T09:06:41Z</time>
      </trkpt>
      <trkpt lat="47.31609" lon="-1.64108">
        <ele>111</ele>
        <time>2014-05-18T09:06:43Z</time>
      </trkpt>
      <trkpt lat="47.31614" lon="-1.64113">
        <ele>111</ele>
        <time>2014-05-18T09:06:44Z</time>
      </trkpt>
      <trkpt lat="47.31616" lon="-1.64119">
        <ele>110</ele>
        <time>2014-05-18T09:06:45Z</time>
      </trkpt>
      <trkpt lat="47.31618" lon="-1.64159">
        <ele>111</ele>
        <time>2014-05-18T09:06:50Z</time>
      </trkpt>
      <trkpt lat="47.3162" lon="-1.64195">
        <ele>109.5</ele>
        <time>2014-05-18T09:06:54Z</time>
      </trkpt>
      <trkpt lat="47.31618" lon="-1.64226">
        <ele>109</ele>
        <time>2014-05-18T09:06:58Z</time>
      </trkpt>
      <trkpt lat="47.31617" lon="-1.64251">
        <ele>109</ele>
        <time>2014-05-18T09:07:02Z</time>
      </trkpt>
      <trkpt lat="47.31616" lon="-1.64264">
        <ele>112</ele>
        <time>2014-05-18T09:07:06Z</time>
      </trkpt>
      <trkpt lat="47.31615" lon="-1.6429">
        <ele>113</ele>
        <time>2014-05-18T09:07:12Z</time>
      </trkpt>
      <trkpt lat="47.31616" lon="-1.64299">
        <ele>112</ele>
        <time>2014-05-18T09:07:14Z</time>
      </trkpt>
      <trkpt lat="47.31612" lon="-1.64322">
        <ele>111</ele>
        <time>2014-05-18T09:07:18Z</time>
      </trkpt>
      <trkpt lat="47.31614" lon="-1.64334">
        <ele>110.5</ele>
        <time>2014-05-18T09:07:20Z</time>
      </trkpt>
      <trkpt lat="47.31624" lon="-1.64347">
        <ele>111</ele>
        <time>2014-05-18T09:07:24Z</time>
      </trkpt>
      <trkpt lat="47.31637" lon="-1.64362">
        <ele>111.5</ele>
        <time>2014-05-18T09:07:28Z</time>
      </trkpt>
      <trkpt lat="47.31644" lon="-1.6437">
        <ele>111.5</ele>
        <time>2014-05-18T09:07:30Z</time>
      </trkpt>
      <trkpt lat="47.31648" lon="-1.64393">
        <ele>112</ele>
        <time>2014-05-18T09:07:34Z</time>
      </trkpt>
      <trkpt lat="47.31644" lon="-1.64399">
        <ele>112</ele>
        <time>2014-05-18T09:07:36Z</time>
      </trkpt>
      <trkpt lat="47.31634" lon="-1.64408">
        <ele>113.5</ele>
        <time>2014-05-18T09:07:40Z</time>
      </trkpt>
      <trkpt lat="47.31629" lon="-1.64412">
        <ele>114</ele>
        <time>2014-05-18T09:07:42Z</time>
      </trkpt>
      <trkpt lat="47.31619" lon="-1.64422">
        <ele>114</ele>
        <time>2014-05-18T09:07:46Z</time>
      </trkpt>
      <trkpt lat="47.31608" lon="-1.64433">
        <ele>115</ele>
        <time>2014-05-18T09:07:52Z</time>
      </trkpt>
      <trkpt lat="47.31598" lon="-1.64441">
        <ele>115.5</ele>
        <time>2014-05-18T09:07:58Z</time>
      </trkpt>
      <trkpt lat="47.31594" lon="-1.64445">
        <ele>115</ele>
        <time>2014-05-18T09:08:00Z</time>
      </trkpt>
      <trkpt lat="47.31586" lon="-1.64453">
        <ele>114.5</ele>
        <time>2014-05-18T09:08:04Z</time>
      </trkpt>
      <trkpt lat="47.31582" lon="-1.64458">
        <ele>115</ele>
        <time>2014-05-18T09:08:06Z</time>
      </trkpt>
      <trkpt lat="47.31576" lon="-1.64468">
        <ele>114.5</ele>
        <time>2014-05-18T09:08:10Z</time>
      </trkpt>
      <trkpt lat="47.31566" lon="-1.64479">
        <ele>115</ele>
        <time>2014-05-18T09:08:14Z</time>
      </trkpt>
      <trkpt lat="47.31556" lon="-1.64491">
        <ele>115</ele>
        <time>2014-05-18T09:08:18Z</time>
      </trkpt>
      <trkpt lat="47.31545" lon="-1.64503">
        <ele>115.5</ele>
        <time>2014-05-18T09:08:22Z</time>
      </trkpt>
      <trkpt lat="47.3154" lon="-1.64509">
        <ele>115.5</ele>
        <time>2014-05-18T09:08:24Z</time>
      </trkpt>
      <trkpt lat="47.31528" lon="-1.6452">
        <ele>115</ele>
        <time>2014-05-18T09:08:28Z</time>
      </trkpt>
      <trkpt lat="47.31521" lon="-1.64525">
        <ele>115.5</ele>
        <time>2014-05-18T09:08:30Z</time>
      </trkpt>
      <trkpt lat="47.31508" lon="-1.64532">
        <ele>115.5</ele>
        <time>2014-05-18T09:08:34Z</time>
      </trkpt>
      <trkpt lat="47.31492" lon="-1.64539">
        <ele>115.5</ele>
        <time>2014-05-18T09:08:38Z</time>
      </trkpt>
      <trkpt lat="47.31484" lon="-1.64542">
        <ele>115</ele>
        <time>2014-05-18T09:08:40Z</time>
      </trkpt>
      <trkpt lat="47.31469" lon="-1.64549">
        <ele>114.5</ele>
        <time>2014-05-18T09:08:44Z</time>
      </trkpt>
      <trkpt lat="47.31454" lon="-1.6455">
        <ele>115</ele>
        <time>2014-05-18T09:08:48Z</time>
      </trkpt>
      <trkpt lat="47.31439" lon="-1.64549">
        <ele>116</ele>
        <time>2014-05-18T09:08:52Z</time>
      </trkpt>
      <trkpt lat="47.31423" lon="-1.64549">
        <ele>116</ele>
        <time>2014-05-18T09:08:56Z</time>
      </trkpt>
      <trkpt lat="47.31406" lon="-1.64551">
        <ele>117.5</ele>
        <time>2014-05-18T09:09:00Z</time>
      </trkpt>
      <trkpt lat="47.31391" lon="-1.64557">
        <ele>118</ele>
        <time>2014-05-18T09:09:04Z</time>
      </trkpt>
      <trkpt lat="47.3138" lon="-1.64566">
        <ele>119</ele>
        <time>2014-05-18T09:09:08Z</time>
      </trkpt>
      <trkpt lat="47.31374" lon="-1.64571">
        <ele>119.5</ele>
        <time>2014-05-18T09:09:10Z</time>
      </trkpt>
      <trkpt lat="47.31361" lon="-1.6458">
        <ele>120</ele>
        <time>2014-05-18T09:09:14Z</time>
      </trkpt>
      <trkpt lat="47.31354" lon="-1.64585">
        <ele>120</ele>
        <time>2014-05-18T09:09:16Z</time>
      </trkpt>
      <trkpt lat="47.31337" lon="-1.64593">
        <ele>120</ele>
        <time>2014-05-18T09:09:20Z</time>
      </trkpt>
      <trkpt lat="47.31322" lon="-1.64601">
        <ele>120.5</ele>
        <time>2014-05-18T09:09:24Z</time>
      </trkpt>
      <trkpt lat="47.31307" lon="-1.64607">
        <ele>122</ele>
        <time>2014-05-18T09:09:28Z</time>
      </trkpt>
      <trkpt lat="47.31292" lon="-1.64614">
        <ele>123</ele>
        <time>2014-05-18T09:09:32Z</time>
      </trkpt>
      <trkpt lat="47.31278" lon="-1.64623">
        <ele>123.5</ele>
        <time>2014-05-18T09:09:36Z</time>
      </trkpt>
      <trkpt lat="47.3127" lon="-1.64637">
        <ele>123.5</ele>
        <time>2014-05-18T09:09:40Z</time>
      </trkpt>
      <trkpt lat="47.31272" lon="-1.64647">
        <ele>123.5</ele>
        <time>2014-05-18T09:09:42Z</time>
      </trkpt>
      <trkpt lat="47.31283" lon="-1.64661">
        <ele>123</ele>
        <time>2014-05-18T09:09:46Z</time>
      </trkpt>
      <trkpt lat="47.31289" lon="-1.64669">
        <ele>122.5</ele>
        <time>2014-05-18T09:09:48Z</time>
      </trkpt>
      <trkpt lat="47.31303" lon="-1.64685">
        <ele>122</ele>
        <time>2014-05-18T09:09:52Z</time>
      </trkpt>
      <trkpt lat="47.31316" lon="-1.647">
        <ele>121.5</ele>
        <time>2014-05-18T09:09:56Z</time>
      </trkpt>
      <trkpt lat="47.31327" lon="-1.64717">
        <ele>122</ele>
        <time>2014-05-18T09:10:00Z</time>
      </trkpt>
      <trkpt lat="47.31339" lon="-1.64735">
        <ele>122.5</ele>
        <time>2014-05-18T09:10:04Z</time>
      </trkpt>
      <trkpt lat="47.31353" lon="-1.64751">
        <ele>123</ele>
        <time>2014-05-18T09:10:08Z</time>
      </trkpt>
      <trkpt lat="47.3137" lon="-1.64765">
        <ele>123</ele>
        <time>2014-05-18T09:10:12Z</time>
      </trkpt>
      <trkpt lat="47.31387" lon="-1.64778">
        <ele>124</ele>
        <time>2014-05-18T09:10:16Z</time>
      </trkpt>
      <trkpt lat="47.31406" lon="-1.6479">
        <ele>124</ele>
        <time>2014-05-18T09:10:20Z</time>
      </trkpt>
      <trkpt lat="47.31424" lon="-1.64808">
        <ele>123.5</ele>
        <time>2014-05-18T09:10:24Z</time>
      </trkpt>
      <trkpt lat="47.31442" lon="-1.64827">
        <ele>122</ele>
        <time>2014-05-18T09:10:28Z</time>
      </trkpt>
      <trkpt lat="47.31465" lon="-1.64846">
        <ele>122</ele>
        <time>2014-05-18T09:10:32Z</time>
      </trkpt>
      <trkpt lat="47.31488" lon="-1.64865">
        <ele>121</ele>
        <time>2014-05-18T09:10:36Z</time>
      </trkpt>
      <trkpt lat="47.31506" lon="-1.6489">
        <ele>120.5</ele>
        <time>2014-05-18T09:10:40Z</time>
      </trkpt>
      <trkpt lat="47.31495" lon="-1.64908">
        <ele>121.5</ele>
        <time>2014-05-18T09:10:44Z</time>
      </trkpt>
      <trkpt lat="47.31479" lon="-1.64911">
        <ele>123</ele>
        <time>2014-05-18T09:10:48Z</time>
      </trkpt>
      <trkpt lat="47.3146" lon="-1.64911">
        <ele>123.5</ele>
        <time>2014-05-18T09:10:52Z</time>
      </trkpt>
      <trkpt lat="47.31441" lon="-1.64913">
        <ele>123</ele>
        <time>2014-05-18T09:10:56Z</time>
      </trkpt>
      <trkpt lat="47.3142" lon="-1.64918">
        <ele>122</ele>
        <time>2014-05-18T09:11:00Z</time>
      </trkpt>
      <trkpt lat="47.314" lon="-1.64928">
        <ele>122</ele>
        <time>2014-05-18T09:11:04Z</time>
      </trkpt>
      <trkpt lat="47.31381" lon="-1.64942">
        <ele>121.5</ele>
        <time>2014-05-18T09:11:08Z</time>
      </trkpt>
      <trkpt lat="47.31362" lon="-1.64956">
        <ele>121</ele>
        <time>2014-05-18T09:11:12Z</time>
      </trkpt>
      <trkpt lat="47.31343" lon="-1.64969">
        <ele>121</ele>
        <time>2014-05-18T09:11:16Z</time>
      </trkpt>
      <trkpt lat="47.31322" lon="-1.64982">
        <ele>120</ele>
        <time>2014-05-18T09:11:20Z</time>
      </trkpt>
      <trkpt lat="47.31301" lon="-1.64994">
        <ele>120</ele>
        <time>2014-05-18T09:11:24Z</time>
      </trkpt>
      <trkpt lat="47.31279" lon="-1.65009">
        <ele>120</ele>
        <time>2014-05-18T09:11:28Z</time>
      </trkpt>
      <trkpt lat="47.31255" lon="-1.65023">
        <ele>119.5</ele>
        <time>2014-05-18T09:11:32Z</time>
      </trkpt>
      <trkpt lat="47.31238" lon="-1.65034">
        <ele>118.5</ele>
        <time>2014-05-18T09:11:36Z</time>
      </trkpt>
      <trkpt lat="47.3124" lon="-1.65055">
        <ele>119</ele>
        <time>2014-05-18T09:11:40Z</time>
      </trkpt>
      <trkpt lat="47.31242" lon="-1.65068">
        <ele>119</ele>
        <time>2014-05-18T09:11:42Z</time>
      </trkpt>
      <trkpt lat="47.31244" lon="-1.65095">
        <ele>117.5</ele>
        <time>2014-05-18T09:11:46Z</time>
      </trkpt>
      <trkpt lat="47.31244" lon="-1.65119">
        <ele>116.5</ele>
        <time>2014-05-18T09:11:50Z</time>
      </trkpt>
      <trkpt lat="47.31244" lon="-1.65133">
        <ele>116.5</ele>
        <time>2014-05-18T09:11:52Z</time>
      </trkpt>
      <trkpt lat="47.31244" lon="-1.65162">
        <ele>118</ele>
        <time>2014-05-18T09:11:56Z</time>
      </trkpt>
      <trkpt lat="47.31242" lon="-1.65182">
        <ele>117</ele>
        <time>2014-05-18T09:12:00Z</time>
      </trkpt>
      <trkpt lat="47.31232" lon="-1.65176">
        <ele>121</ele>
        <time>2014-05-18T09:12:08Z</time>
      </trkpt>
      <trkpt lat="47.31227" lon="-1.65175">
        <ele>124.5</ele>
        <time>2014-05-18T09:12:12Z</time>
      </trkpt>
      <trkpt lat="47.31227" lon="-1.65159">
        <ele>129.5</ele>
        <time>2014-05-18T09:12:20Z</time>
      </trkpt>
      <trkpt lat="47.31225" lon="-1.65151">
        <ele>130</ele>
        <time>2014-05-18T09:12:24Z</time>
      </trkpt>
      <trkpt lat="47.31215" lon="-1.65151">
        <ele>126</ele>
        <time>2014-05-18T09:12:30Z</time>
      </trkpt>
      <trkpt lat="47.31208" lon="-1.65153">
        <ele>121.5</ele>
        <time>2014-05-18T09:12:34Z</time>
      </trkpt>
      <trkpt lat="47.31196" lon="-1.65153">
        <ele>119</ele>
        <time>2014-05-18T09:12:40Z</time>
      </trkpt>
      <trkpt lat="47.31194" lon="-1.65161">
        <ele>119</ele>
        <time>2014-05-18T09:12:44Z</time>
      </trkpt>
      <trkpt lat="47.31203" lon="-1.65167">
        <ele>125</ele>
        <time>2014-05-18T09:12:50Z</time>
      </trkpt>
      <trkpt lat="47.31216" lon="-1.65181">
        <ele>137.5</ele>
        <time>2014-05-18T09:13:04Z</time>
      </trkpt>
      <trkpt lat="47.31221" lon="-1.65196">
        <ele>137.5</ele>
        <time>2014-05-18T09:13:10Z</time>
      </trkpt>
      <trkpt lat="47.3122" lon="-1.65204">
        <ele>134.5</ele>
        <time>2014-05-18T09:13:12Z</time>
      </trkpt>
      <trkpt lat="47.31214" lon="-1.65204">
        <ele>135.5</ele>
        <time>2014-05-18T09:13:16Z</time>
      </trkpt>
      <trkpt lat="47.31209" lon="-1.65204">
        <ele>135</ele>
        <time>2014-05-18T09:13:26Z</time>
      </trkpt>
      <trkpt lat="47.31204" lon="-1.65208">
        <ele>131.5</ele>
        <time>2014-05-18T09:13:32Z</time>
      </trkpt>
      <trkpt lat="47.31201" lon="-1.65213">
        <ele>131.5</ele>
        <time>2014-05-18T09:13:38Z</time>
      </trkpt>
      <trkpt lat="47.31196" lon="-1.65218">
        <ele>129.5</ele>
        <time>2014-05-18T09:13:48Z</time>
      </trkpt>
      <trkpt lat="47.31192" lon="-1.65221">
        <ele>129.5</ele>
        <time>2014-05-18T09:13:52Z</time>
      </trkpt>
      <trkpt lat="47.31188" lon="-1.65228">
        <ele>130</ele>
        <time>2014-05-18T09:13:56Z</time>
      </trkpt>
      <trkpt lat="47.31183" lon="-1.65239">
        <ele>129</ele>
        <time>2014-05-18T09:14:00Z</time>
      </trkpt>
      <trkpt lat="47.31178" lon="-1.65244">
        <ele>130</ele>
        <time>2014-05-18T09:14:04Z</time>
      </trkpt>
      <trkpt lat="47.31174" lon="-1.65245">
        <ele>129.5</ele>
        <time>2014-05-18T09:14:06Z</time>
      </trkpt>
      <trkpt lat="47.31169" lon="-1.65246">
        <ele>129.5</ele>
        <time>2014-05-18T09:14:08Z</time>
      </trkpt>
      <trkpt lat="47.31161" lon="-1.65253">
        <ele>132.5</ele>
        <time>2014-05-18T09:14:14Z</time>
      </trkpt>
      <trkpt lat="47.31164" lon="-1.65265">
        <ele>136.5</ele>
        <time>2014-05-18T09:14:18Z</time>
      </trkpt>
      <trkpt lat="47.31159" lon="-1.65279">
        <ele>139</ele>
        <time>2014-05-18T09:14:22Z</time>
      </trkpt>
      <trkpt lat="47.31157" lon="-1.65285">
        <ele>140</ele>
        <time>2014-05-18T09:14:24Z</time>
      </trkpt>
      <trkpt lat="47.31151" lon="-1.65295">
        <ele>139.5</ele>
        <time>2014-05-18T09:14:28Z</time>
      </trkpt>
      <trkpt lat="47.31142" lon="-1.65305">
        <ele>142</ele>
        <time>2014-05-18T09:14:34Z</time>
      </trkpt>
      <trkpt lat="47.31152" lon="-1.65337">
        <ele>140</ele>
        <time>2014-05-18T09:14:42Z</time>
      </trkpt>
      <trkpt lat="47.31161" lon="-1.65356">
        <ele>139.5</ele>
        <time>2014-05-18T09:14:46Z</time>
      </trkpt>
      <trkpt lat="47.31162" lon="-1.65369">
        <ele>140</ele>
        <time>2014-05-18T09:14:48Z</time>
      </trkpt>
      <trkpt lat="47.31167" lon="-1.65403">
        <ele>140</ele>
        <time>2014-05-18T09:14:54Z</time>
      </trkpt>
      <trkpt lat="47.31173" lon="-1.65426">
        <ele>138</ele>
        <time>2014-05-18T09:14:58Z</time>
      </trkpt>
      <trkpt lat="47.31182" lon="-1.65454">
        <ele>138</ele>
        <time>2014-05-18T09:15:02Z</time>
      </trkpt>
      <trkpt lat="47.31195" lon="-1.65477">
        <ele>137</ele>
        <time>2014-05-18T09:15:06Z</time>
      </trkpt>
      <trkpt lat="47.31205" lon="-1.65504">
        <ele>136</ele>
        <time>2014-05-18T09:15:10Z</time>
      </trkpt>
      <trkpt lat="47.31223" lon="-1.65511">
        <ele>134.5</ele>
        <time>2014-05-18T09:15:14Z</time>
      </trkpt>
      <trkpt lat="47.31244" lon="-1.65509">
        <ele>133</ele>
        <time>2014-05-18T09:15:18Z</time>
      </trkpt>
      <trkpt lat="47.31268" lon="-1.65519">
        <ele>130</ele>
        <time>2014-05-18T09:15:22Z</time>
      </trkpt>
      <trkpt lat="47.31297" lon="-1.65512">
        <ele>129</ele>
        <time>2014-05-18T09:15:26Z</time>
      </trkpt>
      <trkpt lat="47.31328" lon="-1.65515">
        <ele>126.5</ele>
        <time>2014-05-18T09:15:30Z</time>
      </trkpt>
      <trkpt lat="47.31356" lon="-1.6551">
        <ele>124</ele>
        <time>2014-05-18T09:15:34Z</time>
      </trkpt>
      <trkpt lat="47.31395" lon="-1.65521">
        <ele>120.5</ele>
        <time>2014-05-18T09:15:40Z</time>
      </trkpt>
      <trkpt lat="47.31413" lon="-1.6554">
        <ele>121.5</ele>
        <time>2014-05-18T09:15:44Z</time>
      </trkpt>
      <trkpt lat="47.31432" lon="-1.65558">
        <ele>122.5</ele>
        <time>2014-05-18T09:15:48Z</time>
      </trkpt>
      <trkpt lat="47.31448" lon="-1.65576">
        <ele>122</ele>
        <time>2014-05-18T09:15:52Z</time>
      </trkpt>
      <trkpt lat="47.31467" lon="-1.65597">
        <ele>120</ele>
        <time>2014-05-18T09:15:56Z</time>
      </trkpt>
      <trkpt lat="47.31476" lon="-1.65624">
        <ele>119</ele>
        <time>2014-05-18T09:16:00Z</time>
      </trkpt>
      <trkpt lat="47.31472" lon="-1.65658">
        <ele>119</ele>
        <time>2014-05-18T09:16:04Z</time>
      </trkpt>
      <trkpt lat="47.31472" lon="-1.65681">
        <ele>118.5</ele>
        <time>2014-05-18T09:16:08Z</time>
      </trkpt>
      <trkpt lat="47.31467" lon="-1.65693">
        <ele>118</ele>
        <time>2014-05-18T09:16:12Z</time>
      </trkpt>
      <trkpt lat="47.31462" lon="-1.65696">
        <ele>117</ele>
        <time>2014-05-18T09:16:14Z</time>
      </trkpt>
      <trkpt lat="47.31446" lon="-1.65698">
        <ele>117</ele>
        <time>2014-05-18T09:16:18Z</time>
      </trkpt>
      <trkpt lat="47.31439" lon="-1.657">
        <ele>116.5</ele>
        <time>2014-05-18T09:16:20Z</time>
      </trkpt>
      <trkpt lat="47.31433" lon="-1.65708">
        <ele>117.5</ele>
        <time>2014-05-18T09:16:24Z</time>
      </trkpt>
      <trkpt lat="47.31452" lon="-1.65707">
        <ele>119.5</ele>
        <time>2014-05-18T09:16:32Z</time>
      </trkpt>
      <trkpt lat="47.31459" lon="-1.65708">
        <ele>119.5</ele>
        <time>2014-05-18T09:16:34Z</time>
      </trkpt>
      <trkpt lat="47.31475" lon="-1.65718">
        <ele>113.5</ele>
        <time>2014-05-18T09:16:38Z</time>
      </trkpt>
      <trkpt lat="47.31486" lon="-1.65734">
        <ele>112.5</ele>
        <time>2014-05-18T09:16:42Z</time>
      </trkpt>
      <trkpt lat="47.31493" lon="-1.65744">
        <ele>112</ele>
        <time>2014-05-18T09:16:46Z</time>
      </trkpt>
      <trkpt lat="47.31489" lon="-1.65758">
        <ele>118</ele>
        <time>2014-05-18T09:16:50Z</time>
      </trkpt>
      <trkpt lat="47.31484" lon="-1.65762">
        <ele>119</ele>
        <time>2014-05-18T09:16:58Z</time>
      </trkpt>
      <trkpt lat="47.31482" lon="-1.65764">
        <ele>118.5</ele>
        <time>2014-05-18T09:17:02Z</time>
      </trkpt>
      <trkpt lat="47.31471" lon="-1.65777">
        <ele>122</ele>
        <time>2014-05-18T09:17:12Z</time>
      </trkpt>
      <trkpt lat="47.3147" lon="-1.65788">
        <ele>125</ele>
        <time>2014-05-18T09:17:16Z</time>
      </trkpt>
      <trkpt lat="47.31471" lon="-1.65795">
        <ele>131</ele>
        <time>2014-05-18T09:17:26Z</time>
      </trkpt>
      <trkpt lat="47.31467" lon="-1.65807">
        <ele>137</ele>
        <time>2014-05-18T09:17:34Z</time>
      </trkpt>
      <trkpt lat="47.31464" lon="-1.65813">
        <ele>137</ele>
        <time>2014-05-18T09:17:38Z</time>
      </trkpt>
      <trkpt lat="47.31463" lon="-1.65832">
        <ele>138.5</ele>
        <time>2014-05-18T09:17:44Z</time>
      </trkpt>
      <trkpt lat="47.31463" lon="-1.65847">
        <ele>141</ele>
        <time>2014-05-18T09:17:48Z</time>
      </trkpt>
      <trkpt lat="47.31462" lon="-1.65853">
        <ele>140.5</ele>
        <time>2014-05-18T09:17:50Z</time>
      </trkpt>
      <trkpt lat="47.31462" lon="-1.65861">
        <ele>140.5</ele>
        <time>2014-05-18T09:17:52Z</time>
      </trkpt>
      <trkpt lat="47.31467" lon="-1.65887">
        <ele>139.5</ele>
        <time>2014-05-18T09:17:58Z</time>
      </trkpt>
      <trkpt lat="47.31449" lon="-1.65898">
        <ele>141.5</ele>
        <time>2014-05-18T09:18:08Z</time>
      </trkpt>
      <trkpt lat="47.31448" lon="-1.65912">
        <ele>146</ele>
        <time>2014-05-18T09:18:12Z</time>
      </trkpt>
      <trkpt lat="47.31447" lon="-1.65919">
        <ele>145.5</ele>
        <time>2014-05-18T09:18:14Z</time>
      </trkpt>
      <trkpt lat="47.31445" lon="-1.65926">
        <ele>144.5</ele>
        <time>2014-05-18T09:18:16Z</time>
      </trkpt>
      <trkpt lat="47.31445" lon="-1.65944">
        <ele>145.5</ele>
        <time>2014-05-18T09:18:20Z</time>
      </trkpt>
      <trkpt lat="47.31445" lon="-1.65954">
        <ele>144.5</ele>
        <time>2014-05-18T09:18:22Z</time>
      </trkpt>
      <trkpt lat="47.31446" lon="-1.65966">
        <ele>145</ele>
        <time>2014-05-18T09:18:26Z</time>
      </trkpt>
      <trkpt lat="47.31446" lon="-1.65983">
        <ele>144.5</ele>
        <time>2014-05-18T09:18:32Z</time>
      </trkpt>
      <trkpt lat="47.31445" lon="-1.65992">
        <ele>146</ele>
        <time>2014-05-18T09:18:34Z</time>
      </trkpt>
      <trkpt lat="47.31444" lon="-1.65999">
        <ele>149.5</ele>
        <time>2014-05-18T09:18:36Z</time>
      </trkpt>
      <trkpt lat="47.31436" lon="-1.66015">
        <ele>152.5</ele>
        <time>2014-05-18T09:18:42Z</time>
      </trkpt>
      <trkpt lat="47.31446" lon="-1.66034">
        <ele>153.5</ele>
        <time>2014-05-18T09:18:54Z</time>
      </trkpt>
      <trkpt lat="47.31453" lon="-1.66033">
        <ele>155.5</ele>
        <time>2014-05-18T09:18:58Z</time>
      </trkpt>
      <trkpt lat="47.31468" lon="-1.66041">
        <ele>153.5</ele>
        <time>2014-05-18T09:19:06Z</time>
      </trkpt>
      <trkpt lat="47.31479" lon="-1.66028">
        <ele>151</ele>
        <time>2014-05-18T09:19:14Z</time>
      </trkpt>
      <trkpt lat="47.31484" lon="-1.66027">
        <ele>152</ele>
        <time>2014-05-18T09:19:16Z</time>
      </trkpt>
      <trkpt lat="47.31488" lon="-1.66017">
        <ele>157</ele>
        <time>2014-05-18T09:19:22Z</time>
      </trkpt>
      <trkpt lat="47.31491" lon="-1.66034">
        <ele>166.5</ele>
        <time>2014-05-18T09:19:32Z</time>
      </trkpt>
      <trkpt lat="47.3148" lon="-1.66035">
        <ele>166</ele>
        <time>2014-05-18T09:19:40Z</time>
      </trkpt>
      <trkpt lat="47.31492" lon="-1.66053">
        <ele>166</ele>
        <time>2014-05-18T09:19:52Z</time>
      </trkpt>
      <trkpt lat="47.31506" lon="-1.66072">
        <ele>163</ele>
        <time>2014-05-18T09:19:58Z</time>
      </trkpt>
      <trkpt lat="47.31512" lon="-1.66083">
        <ele>162.5</ele>
        <time>2014-05-18T09:20:02Z</time>
      </trkpt>
      <trkpt lat="47.31518" lon="-1.66094">
        <ele>165</ele>
        <time>2014-05-18T09:20:06Z</time>
      </trkpt>
      <trkpt lat="47.31523" lon="-1.66099">
        <ele>167.5</ele>
        <time>2014-05-18T09:20:08Z</time>
      </trkpt>
      <trkpt lat="47.31519" lon="-1.66114">
        <ele>169.5</ele>
        <time>2014-05-18T09:20:12Z</time>
      </trkpt>
      <trkpt lat="47.31512" lon="-1.66115">
        <ele>171</ele>
        <time>2014-05-18T09:20:14Z</time>
      </trkpt>
      <trkpt lat="47.31508" lon="-1.66144">
        <ele>167.5</ele>
        <time>2014-05-18T09:20:20Z</time>
      </trkpt>
      <trkpt lat="47.31508" lon="-1.66172">
        <ele>165.5</ele>
        <time>2014-05-18T09:20:28Z</time>
      </trkpt>
      <trkpt lat="47.31504" lon="-1.66189">
        <ele>163.5</ele>
        <time>2014-05-18T09:20:34Z</time>
      </trkpt>
      <trkpt lat="47.31505" lon="-1.66203">
        <ele>162.5</ele>
        <time>2014-05-18T09:20:36Z</time>
      </trkpt>
      <trkpt lat="47.31501" lon="-1.66192">
        <ele>160.5</ele>
        <time>2014-05-18T09:20:46Z</time>
      </trkpt>
      <trkpt lat="47.31495" lon="-1.66195">
        <ele>163</ele>
        <time>2014-05-18T09:20:50Z</time>
      </trkpt>
      <trkpt lat="47.31489" lon="-1.66196">
        <ele>163</ele>
        <time>2014-05-18T09:20:54Z</time>
      </trkpt>
      <trkpt lat="47.31486" lon="-1.66188">
        <ele>163</ele>
        <time>2014-05-18T09:20:58Z</time>
      </trkpt>
      <trkpt lat="47.31482" lon="-1.66183">
        <ele>164</ele>
        <time>2014-05-18T09:21:02Z</time>
      </trkpt>
      <trkpt lat="47.31468" lon="-1.66169">
        <ele>162.5</ele>
        <time>2014-05-18T09:21:12Z</time>
      </trkpt>
      <trkpt lat="47.31463" lon="-1.66168">
        <ele>162.5</ele>
        <time>2014-05-18T09:21:14Z</time>
      </trkpt>
      <trkpt lat="47.31445" lon="-1.66152">
        <ele>155</ele>
        <time>2014-05-18T09:21:20Z</time>
      </trkpt>
      <trkpt lat="47.31436" lon="-1.66149">
        <ele>155.5</ele>
        <time>2014-05-18T09:21:24Z</time>
      </trkpt>
      <trkpt lat="47.31425" lon="-1.66148">
        <ele>155</ele>
        <time>2014-05-18T09:21:30Z</time>
      </trkpt>
      <trkpt lat="47.31426" lon="-1.66156">
        <ele>156</ele>
        <time>2014-05-18T09:21:38Z</time>
      </trkpt>
      <trkpt lat="47.31428" lon="-1.66165">
        <ele>156</ele>
        <time>2014-05-18T09:21:40Z</time>
      </trkpt>
      <trkpt lat="47.31434" lon="-1.66166">
        <ele>149</ele>
        <time>2014-05-18T09:21:54Z</time>
      </trkpt>
      <trkpt lat="47.31446" lon="-1.6618">
        <ele>147</ele>
        <time>2014-05-18T09:22:02Z</time>
      </trkpt>
      <trkpt lat="47.31443" lon="-1.66192">
        <ele>144.5</ele>
        <time>2014-05-18T09:22:14Z</time>
      </trkpt>
      <trkpt lat="47.31445" lon="-1.662">
        <ele>142</ele>
        <time>2014-05-18T09:22:24Z</time>
      </trkpt>
      <trkpt lat="47.31441" lon="-1.66206">
        <ele>142</ele>
        <time>2014-05-18T09:22:28Z</time>
      </trkpt>
      <trkpt lat="47.31428" lon="-1.66206">
        <ele>142</ele>
        <time>2014-05-18T09:22:38Z</time>
      </trkpt>
      <trkpt lat="47.31425" lon="-1.66216">
        <ele>138.5</ele>
        <time>2014-05-18T09:22:42Z</time>
      </trkpt>
      <trkpt lat="47.31422" lon="-1.66226">
        <ele>137</ele>
        <time>2014-05-18T09:22:48Z</time>
      </trkpt>
      <trkpt lat="47.31427" lon="-1.66205">
        <ele>140</ele>
        <time>2014-05-18T09:22:58Z</time>
      </trkpt>
      <trkpt lat="47.31419" lon="-1.66201">
        <ele>139</ele>
        <time>2014-05-18T09:23:00Z</time>
      </trkpt>
      <trkpt lat="47.3141" lon="-1.66203">
        <ele>138</ele>
        <time>2014-05-18T09:23:04Z</time>
      </trkpt>
      <trkpt lat="47.31405" lon="-1.66201">
        <ele>137.5</ele>
        <time>2014-05-18T09:23:06Z</time>
      </trkpt>
      <trkpt lat="47.31401" lon="-1.66197">
        <ele>135</ele>
        <time>2014-05-18T09:23:08Z</time>
      </trkpt>
      <trkpt lat="47.31392" lon="-1.66199">
        <ele>135.5</ele>
        <time>2014-05-18T09:23:12Z</time>
      </trkpt>
      <trkpt lat="47.31386" lon="-1.66201">
        <ele>135.5</ele>
        <time>2014-05-18T09:23:14Z</time>
      </trkpt>
      <trkpt lat="47.31389" lon="-1.66212">
        <ele>139</ele>
        <time>2014-05-18T09:23:20Z</time>
      </trkpt>
      <trkpt lat="47.31395" lon="-1.66226">
        <ele>143.5</ele>
        <time>2014-05-18T09:23:30Z</time>
      </trkpt>
      <trkpt lat="47.31389" lon="-1.6624">
        <ele>141.5</ele>
        <time>2014-05-18T09:23:38Z</time>
      </trkpt>
      <trkpt lat="47.31403" lon="-1.66243">
        <ele>143.5</ele>
        <time>2014-05-18T09:23:48Z</time>
      </trkpt>
      <trkpt lat="47.31406" lon="-1.6625">
        <ele>143</ele>
        <time>2014-05-18T09:23:50Z</time>
      </trkpt>
      <trkpt lat="47.31411" lon="-1.66254">
        <ele>143</ele>
        <time>2014-05-18T09:24:00Z</time>
      </trkpt>
      <trkpt lat="47.31418" lon="-1.6624">
        <ele>147</ele>
        <time>2014-05-18T09:24:14Z</time>
      </trkpt>
      <trkpt lat="47.31419" lon="-1.66231">
        <ele>148.5</ele>
        <time>2014-05-18T09:24:20Z</time>
      </trkpt>
      <trkpt lat="47.31426" lon="-1.66225">
        <ele>150.5</ele>
        <time>2014-05-18T09:24:26Z</time>
      </trkpt>
      <trkpt lat="47.31434" lon="-1.66235">
        <ele>146.5</ele>
        <time>2014-05-18T09:24:38Z</time>
      </trkpt>
      <trkpt lat="47.31441" lon="-1.66236">
        <ele>157</ele>
        <time>2014-05-18T09:24:52Z</time>
      </trkpt>
      <trkpt lat="47.31451" lon="-1.66243">
        <ele>158.5</ele>
        <time>2014-05-18T09:25:02Z</time>
      </trkpt>
      <trkpt lat="47.31467" lon="-1.66269">
        <ele>152.5</ele>
        <time>2014-05-18T09:25:08Z</time>
      </trkpt>
      <trkpt lat="47.31473" lon="-1.66288">
        <ele>147</ele>
        <time>2014-05-18T09:25:16Z</time>
      </trkpt>
      <trkpt lat="47.31473" lon="-1.66288">
        <ele>147</ele>
        <time>2014-05-18T09:25:44Z</time>
      </trkpt>
      <trkpt lat="47.31477" lon="-1.66297">
        <ele>155</ele>
        <time>2014-05-18T09:25:46Z</time>
      </trkpt>
      <trkpt lat="47.3147" lon="-1.66304">
        <ele>153</ele>
        <time>2014-05-18T09:25:50Z</time>
      </trkpt>
      <trkpt lat="47.31468" lon="-1.66311">
        <ele>152</ele>
        <time>2014-05-18T09:25:58Z</time>
      </trkpt>
      <trkpt lat="47.31461" lon="-1.66334">
        <ele>148</ele>
        <time>2014-05-18T09:26:04Z</time>
      </trkpt>
      <trkpt lat="47.31452" lon="-1.66336">
        <ele>145</ele>
        <time>2014-05-18T09:26:08Z</time>
      </trkpt>
      <trkpt lat="47.31449" lon="-1.66336">
        <ele>142.5</ele>
        <time>2014-05-18T09:26:10Z</time>
      </trkpt>
      <trkpt lat="47.31443" lon="-1.66334">
        <ele>138</ele>
        <time>2014-05-18T09:26:16Z</time>
      </trkpt>
      <trkpt lat="47.31443" lon="-1.66334">
        <ele>138</ele>
        <time>2014-05-18T09:26:35Z</time>
      </trkpt>
      <trkpt lat="47.31456" lon="-1.66346">
        <ele>157.5</ele>
        <time>2014-05-18T09:27:14Z</time>
      </trkpt>
      <trkpt lat="47.31465" lon="-1.66346">
        <ele>156.5</ele>
        <time>2014-05-18T09:27:18Z</time>
      </trkpt>
      <trkpt lat="47.3147" lon="-1.66345">
        <ele>159</ele>
        <time>2014-05-18T09:27:20Z</time>
      </trkpt>
      <trkpt lat="47.31487" lon="-1.66331">
        <ele>160.5</ele>
        <time>2014-05-18T09:27:28Z</time>
      </trkpt>
      <trkpt lat="47.31492" lon="-1.66326">
        <ele>160</ele>
        <time>2014-05-18T09:27:30Z</time>
      </trkpt>
      <trkpt lat="47.31501" lon="-1.66326">
        <ele>164</ele>
        <time>2014-05-18T09:27:40Z</time>
      </trkpt>
      <trkpt lat="47.31507" lon="-1.6633">
        <ele>163.5</ele>
        <time>2014-05-18T09:27:48Z</time>
      </trkpt>
      <trkpt lat="47.31507" lon="-1.6633">
        <ele>163.5</ele>
        <time>2014-05-18T09:28:32Z</time>
      </trkpt>
      <trkpt lat="47.31507" lon="-1.6633">
        <ele>163.5</ele>
        <time>2014-05-18T09:29:14Z</time>
      </trkpt>
      <trkpt lat="47.31493" lon="-1.66356">
        <ele>141.5</ele>
        <time>2014-05-18T09:29:18Z</time>
      </trkpt>
      <trkpt lat="47.31482" lon="-1.66363">
        <ele>140.5</ele>
        <time>2014-05-18T09:29:22Z</time>
      </trkpt>
      <trkpt lat="47.31479" lon="-1.66369">
        <ele>141.5</ele>
        <time>2014-05-18T09:29:26Z</time>
      </trkpt>
      <trkpt lat="47.31472" lon="-1.66371">
        <ele>143</ele>
        <time>2014-05-18T09:29:30Z</time>
      </trkpt>
      <trkpt lat="47.31477" lon="-1.66378">
        <ele>143.5</ele>
        <time>2014-05-18T09:29:38Z</time>
      </trkpt>
      <trkpt lat="47.31483" lon="-1.66385">
        <ele>147.5</ele>
        <time>2014-05-18T09:29:42Z</time>
      </trkpt>
      <trkpt lat="47.31472" lon="-1.66404">
        <ele>148</ele>
        <time>2014-05-18T09:29:52Z</time>
      </trkpt>
      <trkpt lat="47.31477" lon="-1.66425">
        <ele>148.5</ele>
        <time>2014-05-18T09:30:00Z</time>
      </trkpt>
      <trkpt lat="47.31479" lon="-1.66431">
        <ele>149</ele>
        <time>2014-05-18T09:30:02Z</time>
      </trkpt>
      <trkpt lat="47.31478" lon="-1.66441">
        <ele>150.5</ele>
        <time>2014-05-18T09:30:08Z</time>
      </trkpt>
      <trkpt lat="47.31469" lon="-1.66456">
        <ele>149.5</ele>
        <time>2014-05-18T09:30:14Z</time>
      </trkpt>
      <trkpt lat="47.31464" lon="-1.66466">
        <ele>150.5</ele>
        <time>2014-05-18T09:30:20Z</time>
      </trkpt>
      <trkpt lat="47.31483" lon="-1.66472">
        <ele>152</ele>
        <time>2014-05-18T09:30:28Z</time>
      </trkpt>
      <trkpt lat="47.31491" lon="-1.66469">
        <ele>153.5</ele>
        <time>2014-05-18T09:30:30Z</time>
      </trkpt>
      <trkpt lat="47.31511" lon="-1.66463">
        <ele>152.5</ele>
        <time>2014-05-18T09:30:34Z</time>
      </trkpt>
      <trkpt lat="47.31524" lon="-1.66462">
        <ele>151</ele>
        <time>2014-05-18T09:30:36Z</time>
      </trkpt>
      <trkpt lat="47.31549" lon="-1.66462">
        <ele>145</ele>
        <time>2014-05-18T09:30:40Z</time>
      </trkpt>
      <trkpt lat="47.31581" lon="-1.66473">
        <ele>140.5</ele>
        <time>2014-05-18T09:30:44Z</time>
      </trkpt>
      <trkpt lat="47.31627" lon="-1.66514">
        <ele>135.5</ele>
        <time>2014-05-18T09:30:48Z</time>
      </trkpt>
      <trkpt lat="47.31655" lon="-1.66514">
        <ele>131</ele>
        <time>2014-05-18T09:30:51Z</time>
      </trkpt>
      <trkpt lat="47.31662" lon="-1.66515">
        <ele>130.5</ele>
        <time>2014-05-18T09:30:52Z</time>
      </trkpt>
      <trkpt lat="47.31675" lon="-1.6652">
        <ele>128</ele>
        <time>2014-05-18T09:30:54Z</time>
      </trkpt>
      <trkpt lat="47.31678" lon="-1.66527">
        <ele>127.5</ele>
        <time>2014-05-18T09:30:55Z</time>
      </trkpt>
      <trkpt lat="47.31681" lon="-1.66535">
        <ele>127</ele>
        <time>2014-05-18T09:30:56Z</time>
      </trkpt>
      <trkpt lat="47.31688" lon="-1.66577">
        <ele>120</ele>
        <time>2014-05-18T09:31:01Z</time>
      </trkpt>
      <trkpt lat="47.31698" lon="-1.66611">
        <ele>115.5</ele>
        <time>2014-05-18T09:31:05Z</time>
      </trkpt>
      <trkpt lat="47.31716" lon="-1.66638">
        <ele>113</ele>
        <time>2014-05-18T09:31:09Z</time>
      </trkpt>
      <trkpt lat="47.31741" lon="-1.6666">
        <ele>113</ele>
        <time>2014-05-18T09:31:13Z</time>
      </trkpt>
      <trkpt lat="47.31766" lon="-1.66678">
        <ele>112</ele>
        <time>2014-05-18T09:31:17Z</time>
      </trkpt>
      <trkpt lat="47.3179" lon="-1.66716">
        <ele>113.5</ele>
        <time>2014-05-18T09:31:22Z</time>
      </trkpt>
      <trkpt lat="47.31807" lon="-1.66746">
        <ele>116</ele>
        <time>2014-05-18T09:31:26Z</time>
      </trkpt>
      <trkpt lat="47.31819" lon="-1.66772">
        <ele>120.5</ele>
        <time>2014-05-18T09:31:30Z</time>
      </trkpt>
      <trkpt lat="47.31827" lon="-1.66789">
        <ele>121</ele>
        <time>2014-05-18T09:31:34Z</time>
      </trkpt>
      <trkpt lat="47.31839" lon="-1.66783">
        <ele>122</ele>
        <time>2014-05-18T09:31:40Z</time>
      </trkpt>
      <trkpt lat="47.31864" lon="-1.66762">
        <ele>118.5</ele>
        <time>2014-05-18T09:31:46Z</time>
      </trkpt>
      <trkpt lat="47.31875" lon="-1.66756">
        <ele>117</ele>
        <time>2014-05-18T09:31:48Z</time>
      </trkpt>
      <trkpt lat="47.31896" lon="-1.66736">
        <ele>115.5</ele>
        <time>2014-05-18T09:31:52Z</time>
      </trkpt>
      <trkpt lat="47.31915" lon="-1.66704">
        <ele>114</ele>
        <time>2014-05-18T09:31:56Z</time>
      </trkpt>
      <trkpt lat="47.31932" lon="-1.66668">
        <ele>111.5</ele>
        <time>2014-05-18T09:32:00Z</time>
      </trkpt>
      <trkpt lat="47.31941" lon="-1.66649">
        <ele>109.5</ele>
        <time>2014-05-18T09:32:02Z</time>
      </trkpt>
      <trkpt lat="47.31945" lon="-1.66639">
        <ele>108</ele>
        <time>2014-05-18T09:32:03Z</time>
      </trkpt>
      <trkpt lat="47.31949" lon="-1.66629">
        <ele>107</ele>
        <time>2014-05-18T09:32:04Z</time>
      </trkpt>
      <trkpt lat="47.31965" lon="-1.66602">
        <ele>105.5</ele>
        <time>2014-05-18T09:32:07Z</time>
      </trkpt>
      <trkpt lat="47.31971" lon="-1.66593">
        <ele>105</ele>
        <time>2014-05-18T09:32:08Z</time>
      </trkpt>
      <trkpt lat="47.31982" lon="-1.66576">
        <ele>103</ele>
        <time>2014-05-18T09:32:10Z</time>
      </trkpt>
      <trkpt lat="47.31988" lon="-1.66568">
        <ele>102</ele>
        <time>2014-05-18T09:32:11Z</time>
      </trkpt>
      <trkpt lat="47.31996" lon="-1.66564">
        <ele>99.5</ele>
        <time>2014-05-18T09:32:12Z</time>
      </trkpt>
      <trkpt lat="47.32009" lon="-1.66558">
        <ele>98</ele>
        <time>2014-05-18T09:32:14Z</time>
      </trkpt>
      <trkpt lat="47.32015" lon="-1.66553">
        <ele>97.5</ele>
        <time>2014-05-18T09:32:15Z</time>
      </trkpt>
      <trkpt lat="47.32018" lon="-1.66546">
        <ele>96.5</ele>
        <time>2014-05-18T09:32:16Z</time>
      </trkpt>
      <trkpt lat="47.32028" lon="-1.66499">
        <ele>93</ele>
        <time>2014-05-18T09:32:21Z</time>
      </trkpt>
      <trkpt lat="47.32039" lon="-1.66437">
        <ele>91</ele>
        <time>2014-05-18T09:32:27Z</time>
      </trkpt>
      <trkpt lat="47.32054" lon="-1.66398">
        <ele>89.5</ele>
        <time>2014-05-18T09:32:31Z</time>
      </trkpt>
      <trkpt lat="47.3206" lon="-1.66379">
        <ele>89</ele>
        <time>2014-05-18T09:32:33Z</time>
      </trkpt>
      <trkpt lat="47.32063" lon="-1.6637">
        <ele>88.5</ele>
        <time>2014-05-18T09:32:34Z</time>
      </trkpt>
      <trkpt lat="47.32067" lon="-1.66361">
        <ele>88</ele>
        <time>2014-05-18T09:32:35Z</time>
      </trkpt>
      <trkpt lat="47.32083" lon="-1.66316">
        <ele>90.5</ele>
        <time>2014-05-18T09:32:40Z</time>
      </trkpt>
      <trkpt lat="47.32094" lon="-1.66271">
        <ele>89.5</ele>
        <time>2014-05-18T09:32:44Z</time>
      </trkpt>
      <trkpt lat="47.32103" lon="-1.66228">
        <ele>87.5</ele>
        <time>2014-05-18T09:32:48Z</time>
      </trkpt>
      <trkpt lat="47.32112" lon="-1.66199">
        <ele>86.5</ele>
        <time>2014-05-18T09:32:51Z</time>
      </trkpt>
      <trkpt lat="47.32115" lon="-1.66191">
        <ele>86.5</ele>
        <time>2014-05-18T09:32:52Z</time>
      </trkpt>
      <trkpt lat="47.32135" lon="-1.66159">
        <ele>88.5</ele>
        <time>2014-05-18T09:32:57Z</time>
      </trkpt>
      <trkpt lat="47.32145" lon="-1.66141">
        <ele>89.5</ele>
        <time>2014-05-18T09:33:01Z</time>
      </trkpt>
      <trkpt lat="47.32144" lon="-1.6612">
        <ele>91</ele>
        <time>2014-05-18T09:33:07Z</time>
      </trkpt>
      <trkpt lat="47.32143" lon="-1.66103">
        <ele>92.5</ele>
        <time>2014-05-18T09:33:11Z</time>
      </trkpt>
      <trkpt lat="47.32139" lon="-1.66085">
        <ele>93</ele>
        <time>2014-05-18T09:33:15Z</time>
      </trkpt>
      <trkpt lat="47.32134" lon="-1.66069">
        <ele>93</ele>
        <time>2014-05-18T09:33:19Z</time>
      </trkpt>
      <trkpt lat="47.32129" lon="-1.66059">
        <ele>97</ele>
        <time>2014-05-18T09:33:25Z</time>
      </trkpt>
      <trkpt lat="47.32126" lon="-1.66054">
        <ele>99</ele>
        <time>2014-05-18T09:33:31Z</time>
      </trkpt>
      <trkpt lat="47.32122" lon="-1.66048">
        <ele>103</ele>
        <time>2014-05-18T09:33:41Z</time>
      </trkpt>
      <trkpt lat="47.3212" lon="-1.66041">
        <ele>106</ele>
        <time>2014-05-18T09:33:46Z</time>
      </trkpt>
      <trkpt lat="47.32121" lon="-1.66028">
        <ele>106.5</ele>
        <time>2014-05-18T09:33:50Z</time>
      </trkpt>
      <trkpt lat="47.3212" lon="-1.66018">
        <ele>105</ele>
        <time>2014-05-18T09:33:56Z</time>
      </trkpt>
      <trkpt lat="47.32118" lon="-1.66009">
        <ele>109</ele>
        <time>2014-05-18T09:34:00Z</time>
      </trkpt>
      <trkpt lat="47.32113" lon="-1.65991">
        <ele>109</ele>
        <time>2014-05-18T09:34:08Z</time>
      </trkpt>
      <trkpt lat="47.3211" lon="-1.65982">
        <ele>111</ele>
        <time>2014-05-18T09:34:12Z</time>
      </trkpt>
      <trkpt lat="47.32103" lon="-1.65966">
        <ele>112.5</ele>
        <time>2014-05-18T09:34:20Z</time>
      </trkpt>
      <trkpt lat="47.32098" lon="-1.65959">
        <ele>115</ele>
        <time>2014-05-18T09:34:24Z</time>
      </trkpt>
      <trkpt lat="47.32092" lon="-1.65948">
        <ele>115</ele>
        <time>2014-05-18T09:34:30Z</time>
      </trkpt>
      <trkpt lat="47.32087" lon="-1.65934">
        <ele>113.5</ele>
        <time>2014-05-18T09:34:34Z</time>
      </trkpt>
      <trkpt lat="47.32083" lon="-1.65926">
        <ele>115</ele>
        <time>2014-05-18T09:34:38Z</time>
      </trkpt>
      <trkpt lat="47.32078" lon="-1.65921">
        <ele>114</ele>
        <time>2014-05-18T09:34:44Z</time>
      </trkpt>
      <trkpt lat="47.32066" lon="-1.6591">
        <ele>115.5</ele>
        <time>2014-05-18T09:34:52Z</time>
      </trkpt>
      <trkpt lat="47.32064" lon="-1.659">
        <ele>116</ele>
        <time>2014-05-18T09:34:56Z</time>
      </trkpt>
      <trkpt lat="47.32058" lon="-1.6589">
        <ele>119.5</ele>
        <time>2014-05-18T09:35:02Z</time>
      </trkpt>
      <trkpt lat="47.32052" lon="-1.65888">
        <ele>120</ele>
        <time>2014-05-18T09:35:04Z</time>
      </trkpt>
      <trkpt lat="47.32047" lon="-1.65885">
        <ele>121</ele>
        <time>2014-05-18T09:35:06Z</time>
      </trkpt>
      <trkpt lat="47.32041" lon="-1.65868">
        <ele>123</ele>
        <time>2014-05-18T09:35:12Z</time>
      </trkpt>
      <trkpt lat="47.32039" lon="-1.65862">
        <ele>123.5</ele>
        <time>2014-05-18T09:35:14Z</time>
      </trkpt>
      <trkpt lat="47.32031" lon="-1.6586">
        <ele>123</ele>
        <time>2014-05-18T09:35:18Z</time>
      </trkpt>
      <trkpt lat="47.32028" lon="-1.65855">
        <ele>123.5</ele>
        <time>2014-05-18T09:35:20Z</time>
      </trkpt>
      <trkpt lat="47.32022" lon="-1.65841">
        <ele>124.5</ele>
        <time>2014-05-18T09:35:26Z</time>
      </trkpt>
      <trkpt lat="47.3202" lon="-1.65834">
        <ele>124.5</ele>
        <time>2014-05-18T09:35:28Z</time>
      </trkpt>
      <trkpt lat="47.3201" lon="-1.65825">
        <ele>123</ele>
        <time>2014-05-18T09:35:35Z</time>
      </trkpt>
      <trkpt lat="47.32007" lon="-1.6582">
        <ele>123</ele>
        <time>2014-05-18T09:35:36Z</time>
      </trkpt>
      <trkpt lat="47.31999" lon="-1.65807">
        <ele>124.5</ele>
        <time>2014-05-18T09:35:42Z</time>
      </trkpt>
      <trkpt lat="47.31997" lon="-1.65804">
        <ele>124.5</ele>
        <time>2014-05-18T09:35:44Z</time>
      </trkpt>
      <trkpt lat="47.31983" lon="-1.65781">
        <ele>125</ele>
        <time>2014-05-18T09:35:54Z</time>
      </trkpt>
      <trkpt lat="47.31978" lon="-1.65773">
        <ele>127</ele>
        <time>2014-05-18T09:35:58Z</time>
      </trkpt>
      <trkpt lat="47.31974" lon="-1.65768">
        <ele>127.5</ele>
        <time>2014-05-18T09:36:00Z</time>
      </trkpt>
      <trkpt lat="47.3197" lon="-1.65763">
        <ele>128</ele>
        <time>2014-05-18T09:36:02Z</time>
      </trkpt>
      <trkpt lat="47.31962" lon="-1.65749">
        <ele>127.5</ele>
        <time>2014-05-18T09:36:06Z</time>
      </trkpt>
      <trkpt lat="47.31959" lon="-1.65742">
        <ele>127.5</ele>
        <time>2014-05-18T09:36:08Z</time>
      </trkpt>
      <trkpt lat="47.31954" lon="-1.65734">
        <ele>128</ele>
        <time>2014-05-18T09:36:10Z</time>
      </trkpt>
      <trkpt lat="47.31945" lon="-1.6572">
        <ele>127</ele>
        <time>2014-05-18T09:36:14Z</time>
      </trkpt>
      <trkpt lat="47.31939" lon="-1.65711">
        <ele>126.5</ele>
        <time>2014-05-18T09:36:16Z</time>
      </trkpt>
      <trkpt lat="47.3193" lon="-1.65696">
        <ele>125.5</ele>
        <time>2014-05-18T09:36:20Z</time>
      </trkpt>
      <trkpt lat="47.31925" lon="-1.65687">
        <ele>125</ele>
        <time>2014-05-18T09:36:22Z</time>
      </trkpt>
      <trkpt lat="47.31915" lon="-1.65671">
        <ele>125</ele>
        <time>2014-05-18T09:36:26Z</time>
      </trkpt>
      <trkpt lat="47.31904" lon="-1.65653">
        <ele>122.5</ele>
        <time>2014-05-18T09:36:30Z</time>
      </trkpt>
      <trkpt lat="47.31897" lon="-1.65647">
        <ele>122.5</ele>
        <time>2014-05-18T09:36:32Z</time>
      </trkpt>
      <trkpt lat="47.31883" lon="-1.65625">
        <ele>121</ele>
        <time>2014-05-18T09:36:36Z</time>
      </trkpt>
      <trkpt lat="47.31869" lon="-1.65603">
        <ele>120.5</ele>
        <time>2014-05-18T09:36:40Z</time>
      </trkpt>
      <trkpt lat="47.31854" lon="-1.65578">
        <ele>120</ele>
        <time>2014-05-18T09:36:44Z</time>
      </trkpt>
      <trkpt lat="47.31839" lon="-1.65554">
        <ele>120</ele>
        <time>2014-05-18T09:36:48Z</time>
      </trkpt>
      <trkpt lat="47.31823" lon="-1.65524">
        <ele>119</ele>
        <time>2014-05-18T09:36:52Z</time>
      </trkpt>
      <trkpt lat="47.31807" lon="-1.65498">
        <ele>119.5</ele>
        <time>2014-05-18T09:36:56Z</time>
      </trkpt>
      <trkpt lat="47.31793" lon="-1.65465">
        <ele>119</ele>
        <time>2014-05-18T09:37:00Z</time>
      </trkpt>
      <trkpt lat="47.3178" lon="-1.65441">
        <ele>119.5</ele>
        <time>2014-05-18T09:37:04Z</time>
      </trkpt>
      <trkpt lat="47.3176" lon="-1.65408">
        <ele>124.5</ele>
        <time>2014-05-18T09:37:08Z</time>
      </trkpt>
      <trkpt lat="47.31741" lon="-1.65359">
        <ele>122.5</ele>
        <time>2014-05-18T09:37:12Z</time>
      </trkpt>
      <trkpt lat="47.31736" lon="-1.65346">
        <ele>122</ele>
        <time>2014-05-18T09:37:13Z</time>
      </trkpt>
      <trkpt lat="47.31724" lon="-1.65321">
        <ele>120.5</ele>
        <time>2014-05-18T09:37:15Z</time>
      </trkpt>
      <trkpt lat="47.31719" lon="-1.65309">
        <ele>119.5</ele>
        <time>2014-05-18T09:37:16Z</time>
      </trkpt>
      <trkpt lat="47.31713" lon="-1.65297">
        <ele>118.5</ele>
        <time>2014-05-18T09:37:17Z</time>
      </trkpt>
      <trkpt lat="47.31702" lon="-1.65273">
        <ele>116</ele>
        <time>2014-05-18T09:37:19Z</time>
      </trkpt>
      <trkpt lat="47.31688" lon="-1.6525">
        <ele>114</ele>
        <time>2014-05-18T09:37:21Z</time>
      </trkpt>
      <trkpt lat="47.31671" lon="-1.65222">
        <ele>109.5</ele>
        <time>2014-05-18T09:37:24Z</time>
      </trkpt>
      <trkpt lat="47.31665" lon="-1.65213">
        <ele>109</ele>
        <time>2014-05-18T09:37:25Z</time>
      </trkpt>
      <trkpt lat="47.31654" lon="-1.652">
        <ele>109</ele>
        <time>2014-05-18T09:37:27Z</time>
      </trkpt>
      <trkpt lat="47.31648" lon="-1.65194">
        <ele>110</ele>
        <time>2014-05-18T09:37:28Z</time>
      </trkpt>
      <trkpt lat="47.31643" lon="-1.65187">
        <ele>110.5</ele>
        <time>2014-05-18T09:37:29Z</time>
      </trkpt>
      <trkpt lat="47.31619" lon="-1.65152">
        <ele>112</ele>
        <time>2014-05-18T09:37:35Z</time>
      </trkpt>
      <trkpt lat="47.31584" lon="-1.65128">
        <ele>117.5</ele>
        <time>2014-05-18T09:37:40Z</time>
      </trkpt>
      <trkpt lat="47.31564" lon="-1.65129">
        <ele>117</ele>
        <time>2014-05-18T09:37:44Z</time>
      </trkpt>
      <trkpt lat="47.31555" lon="-1.65129">
        <ele>118.5</ele>
        <time>2014-05-18T09:37:48Z</time>
      </trkpt>
      <trkpt lat="47.31545" lon="-1.65122">
        <ele>119.5</ele>
        <time>2014-05-18T09:37:54Z</time>
      </trkpt>
      <trkpt lat="47.31541" lon="-1.65119">
        <ele>121</ele>
        <time>2014-05-18T09:37:56Z</time>
      </trkpt>
      <trkpt lat="47.31537" lon="-1.65115">
        <ele>123</ele>
        <time>2014-05-18T09:37:58Z</time>
      </trkpt>
      <trkpt lat="47.3153" lon="-1.65102">
        <ele>124.5</ele>
        <time>2014-05-18T09:38:02Z</time>
      </trkpt>
      <trkpt lat="47.31528" lon="-1.65094">
        <ele>124</ele>
        <time>2014-05-18T09:38:04Z</time>
      </trkpt>
      <trkpt lat="47.31526" lon="-1.65083">
        <ele>123</ele>
        <time>2014-05-18T09:38:06Z</time>
      </trkpt>
      <trkpt lat="47.31524" lon="-1.65065">
        <ele>121.5</ele>
        <time>2014-05-18T09:38:10Z</time>
      </trkpt>
      <trkpt lat="47.31523" lon="-1.65058">
        <ele>121</ele>
        <time>2014-05-18T09:38:12Z</time>
      </trkpt>
      <trkpt lat="47.31524" lon="-1.65043">
        <ele>121.5</ele>
        <time>2014-05-18T09:38:16Z</time>
      </trkpt>
      <trkpt lat="47.31525" lon="-1.65035">
        <ele>122.5</ele>
        <time>2014-05-18T09:38:18Z</time>
      </trkpt>
      <trkpt lat="47.31526" lon="-1.65026">
        <ele>123</ele>
        <time>2014-05-18T09:38:20Z</time>
      </trkpt>
      <trkpt lat="47.31529" lon="-1.65008">
        <ele>123</ele>
        <time>2014-05-18T09:38:24Z</time>
      </trkpt>
      <trkpt lat="47.31529" lon="-1.64999">
        <ele>123.5</ele>
        <time>2014-05-18T09:38:26Z</time>
      </trkpt>
      <trkpt lat="47.3153" lon="-1.64973">
        <ele>126.5</ele>
        <time>2014-05-18T09:38:32Z</time>
      </trkpt>
      <trkpt lat="47.31527" lon="-1.64955">
        <ele>129.5</ele>
        <time>2014-05-18T09:38:36Z</time>
      </trkpt>
      <trkpt lat="47.31526" lon="-1.64945">
        <ele>131.5</ele>
        <time>2014-05-18T09:38:38Z</time>
      </trkpt>
      <trkpt lat="47.31522" lon="-1.64926">
        <ele>135</ele>
        <time>2014-05-18T09:38:42Z</time>
      </trkpt>
      <trkpt lat="47.31529" lon="-1.64906">
        <ele>137.5</ele>
        <time>2014-05-18T09:38:48Z</time>
      </trkpt>
      <trkpt lat="47.31542" lon="-1.64893">
        <ele>136.5</ele>
        <time>2014-05-18T09:38:52Z</time>
      </trkpt>
      <trkpt lat="47.31548" lon="-1.64892">
        <ele>136</ele>
        <time>2014-05-18T09:38:54Z</time>
      </trkpt>
      <trkpt lat="47.31569" lon="-1.64879">
        <ele>133.5</ele>
        <time>2014-05-18T09:39:00Z</time>
      </trkpt>
      <trkpt lat="47.31596" lon="-1.64851">
        <ele>132</ele>
        <time>2014-05-18T09:39:06Z</time>
      </trkpt>
      <trkpt lat="47.31615" lon="-1.64831">
        <ele>130</ele>
        <time>2014-05-18T09:39:10Z</time>
      </trkpt>
      <trkpt lat="47.31631" lon="-1.64812">
        <ele>125.5</ele>
        <time>2014-05-18T09:39:14Z</time>
      </trkpt>
      <trkpt lat="47.31652" lon="-1.64786">
        <ele>124.5</ele>
        <time>2014-05-18T09:39:18Z</time>
      </trkpt>
      <trkpt lat="47.31693" lon="-1.64743">
        <ele>122</ele>
        <time>2014-05-18T09:39:24Z</time>
      </trkpt>
      <trkpt lat="47.31705" lon="-1.64731">
        <ele>120.5</ele>
        <time>2014-05-18T09:39:26Z</time>
      </trkpt>
      <trkpt lat="47.31711" lon="-1.64725">
        <ele>118.5</ele>
        <time>2014-05-18T09:39:27Z</time>
      </trkpt>
      <trkpt lat="47.31718" lon="-1.64719">
        <ele>118</ele>
        <time>2014-05-18T09:39:28Z</time>
      </trkpt>
      <trkpt lat="47.31731" lon="-1.64707">
        <ele>117</ele>
        <time>2014-05-18T09:39:31Z</time>
      </trkpt>
      <trkpt lat="47.31744" lon="-1.64696">
        <ele>117</ele>
        <time>2014-05-18T09:39:32Z</time>
      </trkpt>
      <trkpt lat="47.31759" lon="-1.64687">
        <ele>117</ele>
        <time>2014-05-18T09:39:34Z</time>
      </trkpt>
      <trkpt lat="47.31774" lon="-1.64681">
        <ele>116.5</ele>
        <time>2014-05-18T09:39:36Z</time>
      </trkpt>
      <trkpt lat="47.31788" lon="-1.64678">
        <ele>118</ele>
        <time>2014-05-18T09:39:38Z</time>
      </trkpt>
      <trkpt lat="47.31796" lon="-1.64676">
        <ele>118</ele>
        <time>2014-05-18T09:39:39Z</time>
      </trkpt>
      <trkpt lat="47.31803" lon="-1.64673">
        <ele>118</ele>
        <time>2014-05-18T09:39:40Z</time>
      </trkpt>
      <trkpt lat="47.31825" lon="-1.64667">
        <ele>116.5</ele>
        <time>2014-05-18T09:39:43Z</time>
      </trkpt>
      <trkpt lat="47.31833" lon="-1.64665">
        <ele>115.5</ele>
        <time>2014-05-18T09:39:44Z</time>
      </trkpt>
      <trkpt lat="47.31847" lon="-1.6466">
        <ele>114.5</ele>
        <time>2014-05-18T09:39:46Z</time>
      </trkpt>
      <trkpt lat="47.31854" lon="-1.64657">
        <ele>114</ele>
        <time>2014-05-18T09:39:47Z</time>
      </trkpt>
      <trkpt lat="47.31861" lon="-1.64655">
        <ele>113</ele>
        <time>2014-05-18T09:39:48Z</time>
      </trkpt>
      <trkpt lat="47.31882" lon="-1.64649">
        <ele>111.5</ele>
        <time>2014-05-18T09:39:51Z</time>
      </trkpt>
      <trkpt lat="47.31889" lon="-1.64646">
        <ele>111</ele>
        <time>2014-05-18T09:39:52Z</time>
      </trkpt>
      <trkpt lat="47.31924" lon="-1.64633">
        <ele>108.5</ele>
        <time>2014-05-18T09:39:57Z</time>
      </trkpt>
      <trkpt lat="47.31955" lon="-1.6462">
        <ele>107</ele>
        <time>2014-05-18T09:40:01Z</time>
      </trkpt>
      <trkpt lat="47.31971" lon="-1.64613">
        <ele>105.5</ele>
        <time>2014-05-18T09:40:03Z</time>
      </trkpt>
      <trkpt lat="47.31978" lon="-1.64611">
        <ele>105</ele>
        <time>2014-05-18T09:40:04Z</time>
      </trkpt>
      <trkpt lat="47.31986" lon="-1.64608">
        <ele>105</ele>
        <time>2014-05-18T09:40:05Z</time>
      </trkpt>
      <trkpt lat="47.32001" lon="-1.64603">
        <ele>104</ele>
        <time>2014-05-18T09:40:07Z</time>
      </trkpt>
      <trkpt lat="47.32009" lon="-1.64601">
        <ele>103.5</ele>
        <time>2014-05-18T09:40:08Z</time>
      </trkpt>
      <trkpt lat="47.32017" lon="-1.64598">
        <ele>103</ele>
        <time>2014-05-18T09:40:09Z</time>
      </trkpt>
      <trkpt lat="47.32033" lon="-1.64591">
        <ele>102.5</ele>
        <time>2014-05-18T09:40:11Z</time>
      </trkpt>
      <trkpt lat="47.3204" lon="-1.64587">
        <ele>102</ele>
        <time>2014-05-18T09:40:12Z</time>
      </trkpt>
      <trkpt lat="47.32048" lon="-1.64583">
        <ele>102</ele>
        <time>2014-05-18T09:40:13Z</time>
      </trkpt>
      <trkpt lat="47.32064" lon="-1.64577">
        <ele>101</ele>
        <time>2014-05-18T09:40:15Z</time>
      </trkpt>
      <trkpt lat="47.32072" lon="-1.64574">
        <ele>100.5</ele>
        <time>2014-05-18T09:40:16Z</time>
      </trkpt>
      <trkpt lat="47.3208" lon="-1.64571">
        <ele>100</ele>
        <time>2014-05-18T09:40:18Z</time>
      </trkpt>
      <trkpt lat="47.32105" lon="-1.64562">
        <ele>98</ele>
        <time>2014-05-18T09:40:20Z</time>
      </trkpt>
      <trkpt lat="47.32112" lon="-1.64559">
        <ele>97.5</ele>
        <time>2014-05-18T09:40:21Z</time>
      </trkpt>
      <trkpt lat="47.32127" lon="-1.64554">
        <ele>96</ele>
        <time>2014-05-18T09:40:23Z</time>
      </trkpt>
      <trkpt lat="47.32134" lon="-1.64551">
        <ele>95.5</ele>
        <time>2014-05-18T09:40:24Z</time>
      </trkpt>
      <trkpt lat="47.32141" lon="-1.64547">
        <ele>95</ele>
        <time>2014-05-18T09:40:25Z</time>
      </trkpt>
      <trkpt lat="47.32155" lon="-1.64536">
        <ele>93.5</ele>
        <time>2014-05-18T09:40:27Z</time>
      </trkpt>
      <trkpt lat="47.32163" lon="-1.64529">
        <ele>91.5</ele>
        <time>2014-05-18T09:40:29Z</time>
      </trkpt>
      <trkpt lat="47.32187" lon="-1.64493">
        <ele>89.5</ele>
        <time>2014-05-18T09:40:31Z</time>
      </trkpt>
      <trkpt lat="47.32194" lon="-1.6448">
        <ele>89</ele>
        <time>2014-05-18T09:40:32Z</time>
      </trkpt>
      <trkpt lat="47.322" lon="-1.64467">
        <ele>88.5</ele>
        <time>2014-05-18T09:40:34Z</time>
      </trkpt>
      <trkpt lat="47.32212" lon="-1.64441">
        <ele>87.5</ele>
        <time>2014-05-18T09:40:36Z</time>
      </trkpt>
      <trkpt lat="47.32223" lon="-1.64416">
        <ele>85.5</ele>
        <time>2014-05-18T09:40:37Z</time>
      </trkpt>
      <trkpt lat="47.32228" lon="-1.64402">
        <ele>84.5</ele>
        <time>2014-05-18T09:40:38Z</time>
      </trkpt>
      <trkpt lat="47.32237" lon="-1.64373">
        <ele>82</ele>
        <time>2014-05-18T09:40:40Z</time>
      </trkpt>
      <trkpt lat="47.32241" lon="-1.64358">
        <ele>81</ele>
        <time>2014-05-18T09:40:41Z</time>
      </trkpt>
      <trkpt lat="47.32244" lon="-1.64342">
        <ele>80</ele>
        <time>2014-05-18T09:40:42Z</time>
      </trkpt>
      <trkpt lat="47.32249" lon="-1.64319">
        <ele>78.5</ele>
        <time>2014-05-18T09:40:44Z</time>
      </trkpt>
      <trkpt lat="47.32251" lon="-1.64313">
        <ele>78</ele>
        <time>2014-05-18T09:40:45Z</time>
      </trkpt>
      <trkpt lat="47.32254" lon="-1.64308">
        <ele>78</ele>
        <time>2014-05-18T09:40:46Z</time>
      </trkpt>
      <trkpt lat="47.32285" lon="-1.6432">
        <ele>76</ele>
        <time>2014-05-18T09:40:51Z</time>
      </trkpt>
      <trkpt lat="47.3233" lon="-1.6434">
        <ele>75</ele>
        <time>2014-05-18T09:40:57Z</time>
      </trkpt>
      <trkpt lat="47.32361" lon="-1.64345">
        <ele>75</ele>
        <time>2014-05-18T09:41:01Z</time>
      </trkpt>
      <trkpt lat="47.32375" lon="-1.64347">
        <ele>75</ele>
        <time>2014-05-18T09:41:03Z</time>
      </trkpt>
      <trkpt lat="47.32382" lon="-1.64349">
        <ele>75.5</ele>
        <time>2014-05-18T09:41:04Z</time>
      </trkpt>
      <trkpt lat="47.3239" lon="-1.6435">
        <ele>75.5</ele>
        <time>2014-05-18T09:41:05Z</time>
      </trkpt>
      <trkpt lat="47.32411" lon="-1.64354">
        <ele>75.5</ele>
        <time>2014-05-18T09:41:08Z</time>
      </trkpt>
      <trkpt lat="47.32419" lon="-1.64356">
        <ele>75</ele>
        <time>2014-05-18T09:41:09Z</time>
      </trkpt>
      <trkpt lat="47.32433" lon="-1.64358">
        <ele>75</ele>
        <time>2014-05-18T09:41:11Z</time>
      </trkpt>
      <trkpt lat="47.3244" lon="-1.64359">
        <ele>75</ele>
        <time>2014-05-18T09:41:12Z</time>
      </trkpt>
      <trkpt lat="47.32448" lon="-1.64362">
        <ele>75.5</ele>
        <time>2014-05-18T09:41:13Z</time>
      </trkpt>
      <trkpt lat="47.32461" lon="-1.64369">
        <ele>75.5</ele>
        <time>2014-05-18T09:41:15Z</time>
      </trkpt>
      <trkpt lat="47.32468" lon="-1.64373">
        <ele>75.5</ele>
        <time>2014-05-18T09:41:16Z</time>
      </trkpt>
      <trkpt lat="47.32474" lon="-1.64378">
        <ele>75.5</ele>
        <time>2014-05-18T09:41:17Z</time>
      </trkpt>
      <trkpt lat="47.32488" lon="-1.64387">
        <ele>76.5</ele>
        <time>2014-05-18T09:41:19Z</time>
      </trkpt>
      <trkpt lat="47.32495" lon="-1.6439">
        <ele>76.5</ele>
        <time>2014-05-18T09:41:20Z</time>
      </trkpt>
      <trkpt lat="47.32502" lon="-1.64394">
        <ele>77</ele>
        <time>2014-05-18T09:41:21Z</time>
      </trkpt>
      <trkpt lat="47.32517" lon="-1.64398">
        <ele>78</ele>
        <time>2014-05-18T09:41:23Z</time>
      </trkpt>
      <trkpt lat="47.32523" lon="-1.64399">
        <ele>78.5</ele>
        <time>2014-05-18T09:41:24Z</time>
      </trkpt>
      <trkpt lat="47.32529" lon="-1.64399">
        <ele>79</ele>
        <time>2014-05-18T09:41:25Z</time>
      </trkpt>
      <trkpt lat="47.32552" lon="-1.64395">
        <ele>80</ele>
        <time>2014-05-18T09:41:30Z</time>
      </trkpt>
      <trkpt lat="47.32559" lon="-1.64387">
        <ele>81</ele>
        <time>2014-05-18T09:41:35Z</time>
      </trkpt>
      <trkpt lat="47.32562" lon="-1.64369">
        <ele>82</ele>
        <time>2014-05-18T09:41:38Z</time>
      </trkpt>
      <trkpt lat="47.32564" lon="-1.64358">
        <ele>82</ele>
        <time>2014-05-18T09:41:40Z</time>
      </trkpt>
      <trkpt lat="47.32566" lon="-1.64347">
        <ele>82</ele>
        <time>2014-05-18T09:41:43Z</time>
      </trkpt>
      <trkpt lat="47.32569" lon="-1.64327">
        <ele>86</ele>
        <time>2014-05-18T09:41:47Z</time>
      </trkpt>
      <trkpt lat="47.32577" lon="-1.64298">
        <ele>86.5</ele>
        <time>2014-05-18T09:41:52Z</time>
      </trkpt>
      <trkpt lat="47.32583" lon="-1.64277">
        <ele>86</ele>
        <time>2014-05-18T09:41:56Z</time>
      </trkpt>
      <trkpt lat="47.32586" lon="-1.64265">
        <ele>88.5</ele>
        <time>2014-05-18T09:42:01Z</time>
      </trkpt>
      <trkpt lat="47.32585" lon="-1.64256">
        <ele>87.5</ele>
        <time>2014-05-18T09:42:02Z</time>
      </trkpt>
      <trkpt lat="47.32581" lon="-1.64236">
        <ele>86.5</ele>
        <time>2014-05-18T09:42:06Z</time>
      </trkpt>
      <trkpt lat="47.32579" lon="-1.64224">
        <ele>86</ele>
        <time>2014-05-18T09:42:08Z</time>
      </trkpt>
      <trkpt lat="47.32579" lon="-1.642">
        <ele>85.5</ele>
        <time>2014-05-18T09:42:12Z</time>
      </trkpt>
      <trkpt lat="47.32583" lon="-1.64176">
        <ele>86</ele>
        <time>2014-05-18T09:42:16Z</time>
      </trkpt>
      <trkpt lat="47.32584" lon="-1.6415">
        <ele>86.5</ele>
        <time>2014-05-18T09:42:20Z</time>
      </trkpt>
      <trkpt lat="47.32585" lon="-1.64124">
        <ele>86</ele>
        <time>2014-05-18T09:42:24Z</time>
      </trkpt>
      <trkpt lat="47.32586" lon="-1.64098">
        <ele>85</ele>
        <time>2014-05-18T09:42:29Z</time>
      </trkpt>
      <trkpt lat="47.32587" lon="-1.64078">
        <ele>85.5</ele>
        <time>2014-05-18T09:42:32Z</time>
      </trkpt>
      <trkpt lat="47.32588" lon="-1.64053">
        <ele>86</ele>
        <time>2014-05-18T09:42:38Z</time>
      </trkpt>
      <trkpt lat="47.32589" lon="-1.64037">
        <ele>88.5</ele>
        <time>2014-05-18T09:42:42Z</time>
      </trkpt>
      <trkpt lat="47.32591" lon="-1.64029">
        <ele>88.5</ele>
        <time>2014-05-18T09:42:44Z</time>
      </trkpt>
      <trkpt lat="47.32595" lon="-1.64011">
        <ele>88.5</ele>
        <time>2014-05-18T09:42:48Z</time>
      </trkpt>
      <trkpt lat="47.32597" lon="-1.64003">
        <ele>88.5</ele>
        <time>2014-05-18T09:42:50Z</time>
      </trkpt>
      <trkpt lat="47.32599" lon="-1.63991">
        <ele>89.5</ele>
        <time>2014-05-18T09:42:54Z</time>
      </trkpt>
      <trkpt lat="47.32596" lon="-1.63976">
        <ele>93.5</ele>
        <time>2014-05-18T09:43:00Z</time>
      </trkpt>
      <trkpt lat="47.32597" lon="-1.63964">
        <ele>95</ele>
        <time>2014-05-18T09:43:05Z</time>
      </trkpt>
      <trkpt lat="47.32603" lon="-1.63943">
        <ele>96</ele>
        <time>2014-05-18T09:43:11Z</time>
      </trkpt>
      <trkpt lat="47.32604" lon="-1.63936">
        <ele>96</ele>
        <time>2014-05-18T09:43:12Z</time>
      </trkpt>
      <trkpt lat="47.32605" lon="-1.63929">
        <ele>96</ele>
        <time>2014-05-18T09:43:15Z</time>
      </trkpt>
      <trkpt lat="47.32606" lon="-1.63914">
        <ele>97</ele>
        <time>2014-05-18T09:43:18Z</time>
      </trkpt>
      <trkpt lat="47.32608" lon="-1.63906">
        <ele>97</ele>
        <time>2014-05-18T09:43:20Z</time>
      </trkpt>
      <trkpt lat="47.32609" lon="-1.63898">
        <ele>97.5</ele>
        <time>2014-05-18T09:43:22Z</time>
      </trkpt>
      <trkpt lat="47.32612" lon="-1.6388">
        <ele>97.5</ele>
        <time>2014-05-18T09:43:26Z</time>
      </trkpt>
      <trkpt lat="47.32614" lon="-1.63872">
        <ele>97.5</ele>
        <time>2014-05-18T09:43:29Z</time>
      </trkpt>
      <trkpt lat="47.3262" lon="-1.63856">
        <ele>98</ele>
        <time>2014-05-18T09:43:32Z</time>
      </trkpt>
      <trkpt lat="47.32624" lon="-1.63849">
        <ele>98</ele>
        <time>2014-05-18T09:43:35Z</time>
      </trkpt>
      <trkpt lat="47.32633" lon="-1.63838">
        <ele>99.5</ele>
        <time>2014-05-18T09:43:38Z</time>
      </trkpt>
      <trkpt lat="47.32637" lon="-1.63835">
        <ele>99.5</ele>
        <time>2014-05-18T09:43:41Z</time>
      </trkpt>
      <trkpt lat="47.32645" lon="-1.63824">
        <ele>100</ele>
        <time>2014-05-18T09:43:45Z</time>
      </trkpt>
      <trkpt lat="47.32648" lon="-1.63816">
        <ele>100</ele>
        <time>2014-05-18T09:43:47Z</time>
      </trkpt>
      <trkpt lat="47.32651" lon="-1.63811">
        <ele>100.5</ele>
        <time>2014-05-18T09:43:48Z</time>
      </trkpt>
      <trkpt lat="47.32659" lon="-1.63797">
        <ele>100.5</ele>
        <time>2014-05-18T09:43:52Z</time>
      </trkpt>
      <trkpt lat="47.32663" lon="-1.63777">
        <ele>100</ele>
        <time>2014-05-18T09:43:59Z</time>
      </trkpt>
      <trkpt lat="47.32664" lon="-1.63769">
        <ele>99.5</ele>
        <time>2014-05-18T09:44:00Z</time>
      </trkpt>
      <trkpt lat="47.32667" lon="-1.63753">
        <ele>99.5</ele>
        <time>2014-05-18T09:44:04Z</time>
      </trkpt>
      <trkpt lat="47.32669" lon="-1.63746">
        <ele>99</ele>
        <time>2014-05-18T09:44:06Z</time>
      </trkpt>
      <trkpt lat="47.32671" lon="-1.63729">
        <ele>99</ele>
        <time>2014-05-18T09:44:12Z</time>
      </trkpt>
      <trkpt lat="47.32674" lon="-1.63703">
        <ele>99</ele>
        <time>2014-05-18T09:44:21Z</time>
      </trkpt>
      <trkpt lat="47.32675" lon="-1.63689">
        <ele>99.5</ele>
        <time>2014-05-18T09:44:24Z</time>
      </trkpt>
      <trkpt lat="47.32674" lon="-1.63682">
        <ele>99.5</ele>
        <time>2014-05-18T09:44:26Z</time>
      </trkpt>
      <trkpt lat="47.32674" lon="-1.63674">
        <ele>99.5</ele>
        <time>2014-05-18T09:44:29Z</time>
      </trkpt>
      <trkpt lat="47.32675" lon="-1.63659">
        <ele>100</ele>
        <time>2014-05-18T09:44:32Z</time>
      </trkpt>
      <trkpt lat="47.32674" lon="-1.63652">
        <ele>99.5</ele>
        <time>2014-05-18T09:44:35Z</time>
      </trkpt>
      <trkpt lat="47.32673" lon="-1.63644">
        <ele>99.5</ele>
        <time>2014-05-18T09:44:37Z</time>
      </trkpt>
      <trkpt lat="47.32673" lon="-1.63628">
        <ele>99</ele>
        <time>2014-05-18T09:44:41Z</time>
      </trkpt>
      <trkpt lat="47.32673" lon="-1.63619">
        <ele>99</ele>
        <time>2014-05-18T09:44:42Z</time>
      </trkpt>
      <trkpt lat="47.32673" lon="-1.63607">
        <ele>99.5</ele>
        <time>2014-05-18T09:44:44Z</time>
      </trkpt>
      <trkpt lat="47.32671" lon="-1.63584">
        <ele>99.5</ele>
        <time>2014-05-18T09:44:48Z</time>
      </trkpt>
      <trkpt lat="47.32669" lon="-1.63572">
        <ele>99</ele>
        <time>2014-05-18T09:44:51Z</time>
      </trkpt>
      <trkpt lat="47.32665" lon="-1.63546">
        <ele>98.5</ele>
        <time>2014-05-18T09:44:55Z</time>
      </trkpt>
      <trkpt lat="47.32659" lon="-1.63519">
        <ele>98</ele>
        <time>2014-05-18T09:44:59Z</time>
      </trkpt>
      <trkpt lat="47.32651" lon="-1.63484">
        <ele>97.5</ele>
        <time>2014-05-18T09:45:03Z</time>
      </trkpt>
      <trkpt lat="47.32642" lon="-1.63451">
        <ele>96.5</ele>
        <time>2014-05-18T09:45:07Z</time>
      </trkpt>
      <trkpt lat="47.32634" lon="-1.63417">
        <ele>95.5</ele>
        <time>2014-05-18T09:45:11Z</time>
      </trkpt>
      <trkpt lat="47.32644" lon="-1.63386">
        <ele>95.5</ele>
        <time>2014-05-18T09:45:14Z</time>
      </trkpt>
      <trkpt lat="47.32664" lon="-1.63366">
        <ele>95</ele>
        <time>2014-05-18T09:45:19Z</time>
      </trkpt>
      <trkpt lat="47.32686" lon="-1.63345">
        <ele>94.5</ele>
        <time>2014-05-18T09:45:23Z</time>
      </trkpt>
      <trkpt lat="47.32706" lon="-1.63323">
        <ele>93</ele>
        <time>2014-05-18T09:45:27Z</time>
      </trkpt>
      <trkpt lat="47.32729" lon="-1.63307">
        <ele>92</ele>
        <time>2014-05-18T09:45:31Z</time>
      </trkpt>
      <trkpt lat="47.32755" lon="-1.63284">
        <ele>90.5</ele>
        <time>2014-05-18T09:45:35Z</time>
      </trkpt>
      <trkpt lat="47.3278" lon="-1.63258">
        <ele>89</ele>
        <time>2014-05-18T09:45:39Z</time>
      </trkpt>
      <trkpt lat="47.32787" lon="-1.63252">
        <ele>88.5</ele>
        <time>2014-05-18T09:45:40Z</time>
      </trkpt>
      <trkpt lat="47.32802" lon="-1.63243">
        <ele>88</ele>
        <time>2014-05-18T09:45:42Z</time>
      </trkpt>
      <trkpt lat="47.32809" lon="-1.63239">
        <ele>88</ele>
        <time>2014-05-18T09:45:43Z</time>
      </trkpt>
      <trkpt lat="47.32817" lon="-1.63237">
        <ele>87.5</ele>
        <time>2014-05-18T09:45:44Z</time>
      </trkpt>
      <trkpt lat="47.32829" lon="-1.63235">
        <ele>88.5</ele>
        <time>2014-05-18T09:45:45Z</time>
      </trkpt>
      <trkpt lat="47.32834" lon="-1.63234">
        <ele>88.5</ele>
        <time>2014-05-18T09:45:47Z</time>
      </trkpt>
      <trkpt lat="47.32833" lon="-1.6321">
        <ele>90</ele>
        <time>2014-05-18T09:45:53Z</time>
      </trkpt>
      <trkpt lat="47.32823" lon="-1.63182">
        <ele>89</ele>
        <time>2014-05-18T09:45:57Z</time>
      </trkpt>
      <trkpt lat="47.32816" lon="-1.63165">
        <ele>88.5</ele>
        <time>2014-05-18T09:45:59Z</time>
      </trkpt>
      <trkpt lat="47.32801" lon="-1.63129">
        <ele>87.5</ele>
        <time>2014-05-18T09:46:03Z</time>
      </trkpt>
      <trkpt lat="47.32786" lon="-1.63092">
        <ele>85.5</ele>
        <time>2014-05-18T09:46:07Z</time>
      </trkpt>
      <trkpt lat="47.32771" lon="-1.63069">
        <ele>84.5</ele>
        <time>2014-05-18T09:46:10Z</time>
      </trkpt>
      <trkpt lat="47.32765" lon="-1.63063">
        <ele>84</ele>
        <time>2014-05-18T09:46:11Z</time>
      </trkpt>
      <trkpt lat="47.32759" lon="-1.63058">
        <ele>84</ele>
        <time>2014-05-18T09:46:12Z</time>
      </trkpt>
      <trkpt lat="47.32747" lon="-1.63047">
        <ele>83.5</ele>
        <time>2014-05-18T09:46:14Z</time>
      </trkpt>
      <trkpt lat="47.3274" lon="-1.63041">
        <ele>83</ele>
        <time>2014-05-18T09:46:15Z</time>
      </trkpt>
      <trkpt lat="47.32734" lon="-1.63035">
        <ele>83</ele>
        <time>2014-05-18T09:46:16Z</time>
      </trkpt>
      <trkpt lat="47.32719" lon="-1.63033">
        <ele>85</ele>
        <time>2014-05-18T09:46:18Z</time>
      </trkpt>
      <trkpt lat="47.32712" lon="-1.63033">
        <ele>85</ele>
        <time>2014-05-18T09:46:19Z</time>
      </trkpt>
      <trkpt lat="47.32705" lon="-1.63034">
        <ele>85.5</ele>
        <time>2014-05-18T09:46:20Z</time>
      </trkpt>
      <trkpt lat="47.32664" lon="-1.63029">
        <ele>87</ele>
        <time>2014-05-18T09:46:25Z</time>
      </trkpt>
      <trkpt lat="47.32637" lon="-1.6302">
        <ele>86</ele>
        <time>2014-05-18T09:46:29Z</time>
      </trkpt>
      <trkpt lat="47.32613" lon="-1.63011">
        <ele>87</ele>
        <time>2014-05-18T09:46:34Z</time>
      </trkpt>
      <trkpt lat="47.32593" lon="-1.62986">
        <ele>86</ele>
        <time>2014-05-18T09:46:38Z</time>
      </trkpt>
      <trkpt lat="47.32587" lon="-1.62968">
        <ele>87</ele>
        <time>2014-05-18T09:46:42Z</time>
      </trkpt>
      <trkpt lat="47.32577" lon="-1.62961">
        <ele>87.5</ele>
        <time>2014-05-18T09:46:48Z</time>
      </trkpt>
      <trkpt lat="47.32566" lon="-1.62962">
        <ele>89.5</ele>
        <time>2014-05-18T09:46:54Z</time>
      </trkpt>
      <trkpt lat="47.32562" lon="-1.62961">
        <ele>90</ele>
        <time>2014-05-18T09:46:56Z</time>
      </trkpt>
      <trkpt lat="47.32557" lon="-1.62961">
        <ele>91</ele>
        <time>2014-05-18T09:46:58Z</time>
      </trkpt>
      <trkpt lat="47.32547" lon="-1.62963">
        <ele>93</ele>
        <time>2014-05-18T09:47:02Z</time>
      </trkpt>
      <trkpt lat="47.32542" lon="-1.62965">
        <ele>92</ele>
        <time>2014-05-18T09:47:04Z</time>
      </trkpt>
      <trkpt lat="47.32537" lon="-1.62967">
        <ele>92</ele>
        <time>2014-05-18T09:47:05Z</time>
      </trkpt>
      <trkpt lat="47.32525" lon="-1.62969">
        <ele>91.5</ele>
        <time>2014-05-18T09:47:10Z</time>
      </trkpt>
      <trkpt lat="47.3252" lon="-1.62969">
        <ele>92.5</ele>
        <time>2014-05-18T09:47:12Z</time>
      </trkpt>
      <trkpt lat="47.32507" lon="-1.62969">
        <ele>92</ele>
        <time>2014-05-18T09:47:16Z</time>
      </trkpt>
      <trkpt lat="47.32503" lon="-1.62969">
        <ele>93</ele>
        <time>2014-05-18T09:47:18Z</time>
      </trkpt>
      <trkpt lat="47.32493" lon="-1.62962">
        <ele>94</ele>
        <time>2014-05-18T09:47:22Z</time>
      </trkpt>
      <trkpt lat="47.32488" lon="-1.6296">
        <ele>94</ele>
        <time>2014-05-18T09:47:24Z</time>
      </trkpt>
      <trkpt lat="47.32475" lon="-1.62971">
        <ele>93</ele>
        <time>2014-05-18T09:47:30Z</time>
      </trkpt>
      <trkpt lat="47.32466" lon="-1.62981">
        <ele>92.5</ele>
        <time>2014-05-18T09:47:32Z</time>
      </trkpt>
      <trkpt lat="47.32448" lon="-1.62996">
        <ele>93</ele>
        <time>2014-05-18T09:47:36Z</time>
      </trkpt>
      <trkpt lat="47.3243" lon="-1.63008">
        <ele>91.5</ele>
        <time>2014-05-18T09:47:40Z</time>
      </trkpt>
      <trkpt lat="47.32412" lon="-1.63012">
        <ele>88</ele>
        <time>2014-05-18T09:47:44Z</time>
      </trkpt>
      <trkpt lat="47.32397" lon="-1.63016">
        <ele>85.5</ele>
        <time>2014-05-18T09:47:48Z</time>
      </trkpt>
      <trkpt lat="47.32383" lon="-1.63007">
        <ele>88</ele>
        <time>2014-05-18T09:47:52Z</time>
      </trkpt>
      <trkpt lat="47.3237" lon="-1.62997">
        <ele>88</ele>
        <time>2014-05-18T09:47:56Z</time>
      </trkpt>
      <trkpt lat="47.32357" lon="-1.62986">
        <ele>89.5</ele>
        <time>2014-05-18T09:48:00Z</time>
      </trkpt>
      <trkpt lat="47.32344" lon="-1.62967">
        <ele>89</ele>
        <time>2014-05-18T09:48:04Z</time>
      </trkpt>
      <trkpt lat="47.32329" lon="-1.62948">
        <ele>87</ele>
        <time>2014-05-18T09:48:08Z</time>
      </trkpt>
      <trkpt lat="47.32315" lon="-1.62934">
        <ele>86</ele>
        <time>2014-05-18T09:48:12Z</time>
      </trkpt>
      <trkpt lat="47.32306" lon="-1.62919">
        <ele>84.5</ele>
        <time>2014-05-18T09:48:16Z</time>
      </trkpt>
      <trkpt lat="47.32302" lon="-1.62912">
        <ele>84</ele>
        <time>2014-05-18T09:48:18Z</time>
      </trkpt>
      <trkpt lat="47.32291" lon="-1.62894">
        <ele>83.5</ele>
        <time>2014-05-18T09:48:24Z</time>
      </trkpt>
      <trkpt lat="47.32285" lon="-1.62886">
        <ele>82</ele>
        <time>2014-05-18T09:48:28Z</time>
      </trkpt>
      <trkpt lat="47.32284" lon="-1.62872">
        <ele>83.5</ele>
        <time>2014-05-18T09:48:36Z</time>
      </trkpt>
      <trkpt lat="47.3229" lon="-1.62859">
        <ele>83</ele>
        <time>2014-05-18T09:48:40Z</time>
      </trkpt>
      <trkpt lat="47.32293" lon="-1.62854">
        <ele>83</ele>
        <time>2014-05-18T09:48:42Z</time>
      </trkpt>
      <trkpt lat="47.32298" lon="-1.6284">
        <ele>83</ele>
        <time>2014-05-18T09:48:46Z</time>
      </trkpt>
      <trkpt lat="47.32301" lon="-1.62833">
        <ele>83</ele>
        <time>2014-05-18T09:48:48Z</time>
      </trkpt>
      <trkpt lat="47.32303" lon="-1.62826">
        <ele>83</ele>
        <time>2014-05-18T09:48:50Z</time>
      </trkpt>
      <trkpt lat="47.32306" lon="-1.6282">
        <ele>83</ele>
        <time>2014-05-18T09:48:52Z</time>
      </trkpt>
      <trkpt lat="47.32311" lon="-1.62806">
        <ele>83.5</ele>
        <time>2014-05-18T09:48:56Z</time>
      </trkpt>
      <trkpt lat="47.32314" lon="-1.62799">
        <ele>84</ele>
        <time>2014-05-18T09:48:58Z</time>
      </trkpt>
      <trkpt lat="47.3232" lon="-1.62786">
        <ele>84.5</ele>
        <time>2014-05-18T09:49:02Z</time>
      </trkpt>
      <trkpt lat="47.32322" lon="-1.62778">
        <ele>85</ele>
        <time>2014-05-18T09:49:04Z</time>
      </trkpt>
      <trkpt lat="47.32326" lon="-1.62764">
        <ele>85.5</ele>
        <time>2014-05-18T09:49:08Z</time>
      </trkpt>
      <trkpt lat="47.32329" lon="-1.62757">
        <ele>86</ele>
        <time>2014-05-18T09:49:10Z</time>
      </trkpt>
      <trkpt lat="47.32335" lon="-1.62743">
        <ele>87</ele>
        <time>2014-05-18T09:49:14Z</time>
      </trkpt>
      <trkpt lat="47.32338" lon="-1.62736">
        <ele>87</ele>
        <time>2014-05-18T09:49:16Z</time>
      </trkpt>
      <trkpt lat="47.32342" lon="-1.6273">
        <ele>87</ele>
        <time>2014-05-18T09:49:18Z</time>
      </trkpt>
      <trkpt lat="47.32345" lon="-1.62722">
        <ele>86.5</ele>
        <time>2014-05-18T09:49:24Z</time>
      </trkpt>
      <trkpt lat="47.32345" lon="-1.62722">
        <ele>86.5</ele>
        <time>2014-05-18T09:49:40Z</time>
      </trkpt>
      <trkpt lat="47.32349" lon="-1.62713">
        <ele>88.5</ele>
        <time>2014-05-18T09:49:44Z</time>
      </trkpt>
      <trkpt lat="47.32353" lon="-1.62704">
        <ele>89</ele>
        <time>2014-05-18T09:49:48Z</time>
      </trkpt>
      <trkpt lat="47.32356" lon="-1.62689">
        <ele>89.5</ele>
        <time>2014-05-18T09:49:54Z</time>
      </trkpt>
      <trkpt lat="47.32356" lon="-1.62677">
        <ele>90</ele>
        <time>2014-05-18T09:49:58Z</time>
      </trkpt>
      <trkpt lat="47.32351" lon="-1.62661">
        <ele>90.5</ele>
        <time>2014-05-18T09:50:04Z</time>
      </trkpt>
      <trkpt lat="47.3235" lon="-1.62656">
        <ele>90.5</ele>
        <time>2014-05-18T09:50:06Z</time>
      </trkpt>
      <trkpt lat="47.32343" lon="-1.62642">
        <ele>91.5</ele>
        <time>2014-05-18T09:50:12Z</time>
      </trkpt>
      <trkpt lat="47.32341" lon="-1.62637">
        <ele>91.5</ele>
        <time>2014-05-18T09:50:14Z</time>
      </trkpt>
      <trkpt lat="47.32338" lon="-1.62622">
        <ele>92.5</ele>
        <time>2014-05-18T09:50:20Z</time>
      </trkpt>
      <trkpt lat="47.32341" lon="-1.62612">
        <ele>92.5</ele>
        <time>2014-05-18T09:50:24Z</time>
      </trkpt>
      <trkpt lat="47.32353" lon="-1.62605">
        <ele>92.5</ele>
        <time>2014-05-18T09:50:30Z</time>
      </trkpt>
      <trkpt lat="47.32358" lon="-1.62603">
        <ele>92.5</ele>
        <time>2014-05-18T09:50:32Z</time>
      </trkpt>
      <trkpt lat="47.32364" lon="-1.626">
        <ele>92.5</ele>
        <time>2014-05-18T09:50:34Z</time>
      </trkpt>
      <trkpt lat="47.32375" lon="-1.62594">
        <ele>92.5</ele>
        <time>2014-05-18T09:50:38Z</time>
      </trkpt>
      <trkpt lat="47.3238" lon="-1.62591">
        <ele>92.5</ele>
        <time>2014-05-18T09:50:40Z</time>
      </trkpt>
      <trkpt lat="47.32385" lon="-1.62589">
        <ele>93</ele>
        <time>2014-05-18T09:50:42Z</time>
      </trkpt>
      <trkpt lat="47.32396" lon="-1.62582">
        <ele>93</ele>
        <time>2014-05-18T09:50:46Z</time>
      </trkpt>
      <trkpt lat="47.32401" lon="-1.62578">
        <ele>93</ele>
        <time>2014-05-18T09:50:48Z</time>
      </trkpt>
      <trkpt lat="47.3241" lon="-1.62568">
        <ele>93.5</ele>
        <time>2014-05-18T09:50:52Z</time>
      </trkpt>
      <trkpt lat="47.32414" lon="-1.62562">
        <ele>94</ele>
        <time>2014-05-18T09:50:54Z</time>
      </trkpt>
      <trkpt lat="47.32423" lon="-1.62549">
        <ele>94.5</ele>
        <time>2014-05-18T09:50:58Z</time>
      </trkpt>
      <trkpt lat="47.32427" lon="-1.62541">
        <ele>94.5</ele>
        <time>2014-05-18T09:51:00Z</time>
      </trkpt>
      <trkpt lat="47.32436" lon="-1.62529">
        <ele>95</ele>
        <time>2014-05-18T09:51:04Z</time>
      </trkpt>
      <trkpt lat="47.3244" lon="-1.62522">
        <ele>94.5</ele>
        <time>2014-05-18T09:51:06Z</time>
      </trkpt>
      <trkpt lat="47.3245" lon="-1.62511">
        <ele>95</ele>
        <time>2014-05-18T09:51:10Z</time>
      </trkpt>
      <trkpt lat="47.32454" lon="-1.62505">
        <ele>95</ele>
        <time>2014-05-18T09:51:12Z</time>
      </trkpt>
      <trkpt lat="47.32462" lon="-1.62492">
        <ele>95.5</ele>
        <time>2014-05-18T09:51:16Z</time>
      </trkpt>
      <trkpt lat="47.32466" lon="-1.62484">
        <ele>95</ele>
        <time>2014-05-18T09:51:18Z</time>
      </trkpt>
      <trkpt lat="47.32476" lon="-1.62471">
        <ele>95.5</ele>
        <time>2014-05-18T09:51:22Z</time>
      </trkpt>
      <trkpt lat="47.3248" lon="-1.62464">
        <ele>95.5</ele>
        <time>2014-05-18T09:51:24Z</time>
      </trkpt>
      <trkpt lat="47.32489" lon="-1.62451">
        <ele>96</ele>
        <time>2014-05-18T09:51:28Z</time>
      </trkpt>
      <trkpt lat="47.32493" lon="-1.62445">
        <ele>96</ele>
        <time>2014-05-18T09:51:30Z</time>
      </trkpt>
      <trkpt lat="47.32504" lon="-1.62433">
        <ele>96</ele>
        <time>2014-05-18T09:51:34Z</time>
      </trkpt>
      <trkpt lat="47.32509" lon="-1.62427">
        <ele>96</ele>
        <time>2014-05-18T09:51:36Z</time>
      </trkpt>
      <trkpt lat="47.32519" lon="-1.62416">
        <ele>96</ele>
        <time>2014-05-18T09:51:40Z</time>
      </trkpt>
      <trkpt lat="47.32526" lon="-1.62414">
        <ele>96</ele>
        <time>2014-05-18T09:51:42Z</time>
      </trkpt>
      <trkpt lat="47.32541" lon="-1.62412">
        <ele>96</ele>
        <time>2014-05-18T09:51:46Z</time>
      </trkpt>
      <trkpt lat="47.32548" lon="-1.62415">
        <ele>99</ele>
        <time>2014-05-18T09:51:48Z</time>
      </trkpt>
      <trkpt lat="47.32563" lon="-1.62417">
        <ele>99</ele>
        <time>2014-05-18T09:51:52Z</time>
      </trkpt>
      <trkpt lat="47.32579" lon="-1.62417">
        <ele>99</ele>
        <time>2014-05-18T09:51:56Z</time>
      </trkpt>
      <trkpt lat="47.32594" lon="-1.6242">
        <ele>98.5</ele>
        <time>2014-05-18T09:52:00Z</time>
      </trkpt>
      <trkpt lat="47.3261" lon="-1.62421">
        <ele>98.5</ele>
        <time>2014-05-18T09:52:04Z</time>
      </trkpt>
      <trkpt lat="47.32626" lon="-1.62423">
        <ele>98</ele>
        <time>2014-05-18T09:52:08Z</time>
      </trkpt>
      <trkpt lat="47.32643" lon="-1.62423">
        <ele>97.5</ele>
        <time>2014-05-18T09:52:12Z</time>
      </trkpt>
      <trkpt lat="47.3266" lon="-1.62425">
        <ele>97</ele>
        <time>2014-05-18T09:52:16Z</time>
      </trkpt>
      <trkpt lat="47.32675" lon="-1.62426">
        <ele>97.5</ele>
        <time>2014-05-18T09:52:20Z</time>
      </trkpt>
      <trkpt lat="47.3269" lon="-1.62426">
        <ele>98</ele>
        <time>2014-05-18T09:52:24Z</time>
      </trkpt>
      <trkpt lat="47.32699" lon="-1.62415">
        <ele>98.5</ele>
        <time>2014-05-18T09:52:28Z</time>
      </trkpt>
      <trkpt lat="47.32706" lon="-1.62404">
        <ele>99</ele>
        <time>2014-05-18T09:52:32Z</time>
      </trkpt>
      <trkpt lat="47.32709" lon="-1.62397">
        <ele>99</ele>
        <time>2014-05-18T09:52:34Z</time>
      </trkpt>
      <trkpt lat="47.32721" lon="-1.62392">
        <ele>100.5</ele>
        <time>2014-05-18T09:52:40Z</time>
      </trkpt>
      <trkpt lat="47.32725" lon="-1.62386">
        <ele>101</ele>
        <time>2014-05-18T09:52:42Z</time>
      </trkpt>
      <trkpt lat="47.32727" lon="-1.62371">
        <ele>101.5</ele>
        <time>2014-05-18T09:52:46Z</time>
      </trkpt>
      <trkpt lat="47.32728" lon="-1.62363">
        <ele>101.5</ele>
        <time>2014-05-18T09:52:48Z</time>
      </trkpt>
      <trkpt lat="47.32728" lon="-1.62354">
        <ele>101.5</ele>
        <time>2014-05-18T09:52:50Z</time>
      </trkpt>
      <trkpt lat="47.32728" lon="-1.62334">
        <ele>101.5</ele>
        <time>2014-05-18T09:52:54Z</time>
      </trkpt>
      <trkpt lat="47.32728" lon="-1.62324">
        <ele>101.5</ele>
        <time>2014-05-18T09:52:56Z</time>
      </trkpt>
      <trkpt lat="47.32729" lon="-1.623">
        <ele>100.5</ele>
        <time>2014-05-18T09:53:00Z</time>
      </trkpt>
      <trkpt lat="47.32728" lon="-1.62274">
        <ele>99.5</ele>
        <time>2014-05-18T09:53:04Z</time>
      </trkpt>
      <trkpt lat="47.32723" lon="-1.62264">
        <ele>99.5</ele>
        <time>2014-05-18T09:53:06Z</time>
      </trkpt>
      <trkpt lat="47.32716" lon="-1.62242">
        <ele>99.5</ele>
        <time>2014-05-18T09:53:10Z</time>
      </trkpt>
      <trkpt lat="47.32707" lon="-1.62219">
        <ele>99.5</ele>
        <time>2014-05-18T09:53:14Z</time>
      </trkpt>
      <trkpt lat="47.32703" lon="-1.62209">
        <ele>98.5</ele>
        <time>2014-05-18T09:53:16Z</time>
      </trkpt>
      <trkpt lat="47.32697" lon="-1.62187">
        <ele>98.5</ele>
        <time>2014-05-18T09:53:20Z</time>
      </trkpt>
      <trkpt lat="47.32691" lon="-1.62163">
        <ele>95.5</ele>
        <time>2014-05-18T09:53:24Z</time>
      </trkpt>
      <trkpt lat="47.32682" lon="-1.62139">
        <ele>95</ele>
        <time>2014-05-18T09:53:28Z</time>
      </trkpt>
      <trkpt lat="47.32671" lon="-1.62121">
        <ele>99.5</ele>
        <time>2014-05-18T09:53:32Z</time>
      </trkpt>
      <trkpt lat="47.32665" lon="-1.6209">
        <ele>99.5</ele>
        <time>2014-05-18T09:53:36Z</time>
      </trkpt>
      <trkpt lat="47.32659" lon="-1.62058">
        <ele>99</ele>
        <time>2014-05-18T09:53:40Z</time>
      </trkpt>
      <trkpt lat="47.32655" lon="-1.62028">
        <ele>98.5</ele>
        <time>2014-05-18T09:53:44Z</time>
      </trkpt>
      <trkpt lat="47.32658" lon="-1.6201">
        <ele>99</ele>
        <time>2014-05-18T09:53:48Z</time>
      </trkpt>
      <trkpt lat="47.32661" lon="-1.61996">
        <ele>102</ele>
        <time>2014-05-18T09:53:54Z</time>
      </trkpt>
      <trkpt lat="47.32661" lon="-1.61996">
        <ele>102</ele>
        <time>2014-05-18T09:54:10Z</time>
      </trkpt>
      <trkpt lat="47.32661" lon="-1.61996">
        <ele>102</ele>
        <time>2014-05-18T09:54:26Z</time>
      </trkpt>
      <trkpt lat="47.32661" lon="-1.61996">
        <ele>102</ele>
        <time>2014-05-18T09:55:02Z</time>
      </trkpt>
      <trkpt lat="47.32661" lon="-1.61996">
        <ele>102</ele>
        <time>2014-05-18T09:55:20Z</time>
      </trkpt>
      <trkpt lat="47.32661" lon="-1.61996">
        <ele>102</ele>
        <time>2014-05-18T09:55:38Z</time>
      </trkpt>
      <trkpt lat="47.32661" lon="-1.61996">
        <ele>102</ele>
        <time>2014-05-18T09:56:12Z</time>
      </trkpt>
      <trkpt lat="47.32661" lon="-1.61996">
        <ele>102</ele>
        <time>2014-05-18T09:56:30Z</time>
      </trkpt>
      <trkpt lat="47.32661" lon="-1.61996">
        <ele>49.6</ele>
        <time>2014-05-18T09:56:38Z</time>
      </trkpt>
    </trkseg>
  </trk>
</gpx>